# Wetter Temperatur Luftdruck Luftfeuchtigkeit Sichtweite Windgeschwindigkeit Windrichtung Zeit
1 Clouds 29 1005 79 10000 5.66 130 13:50 22.04.2021
2 Clouds 29 1005 79 10000 5.14 120 13:25 22.04.2021
3 Clouds 30 1005 74 10000 5.66 120 12:56 22.04.2021
4 Clouds 30 1004 74 10000 6.17 110 12:37 22.04.2021
5 Clouds 30 1004 74 10000 6.17 110 12:37 22.04.2021
6 Clouds 30 1004 74 10000 6.17 110 12:19 22.04.2021
7 Clouds 30 1004 74 10000 7.2 100 11:43 22.04.2021
8 Clouds 31 1005 62 10000 5.66 110 11:22 22.04.2021
9 Clouds 31 1005 62 10000 5.66 110 10:43 22.04.2021
10 Clouds 31 1005 62 10000 5.66 110 10:43 22.04.2021
11 Clouds 31 1005 66 10000 5.14 100 10:21 22.04.2021
12 Clouds 32 1006 58 10000 4.12 120 09:41 22.04.2021
13 Clouds 32 1006 58 10000 4.12 120 09:19 22.04.2021
14 Clouds 31 1008 66 10000 4.63 130 08:38 22.04.2021
15 Clouds 30 1008 74 10000 4.12 130 08:18 22.04.2021
16 Clouds 30 1009 74 10000 4.12 130 07:37 22.04.2021
17 Clouds 30 1009 74 10000 4.12 130 07:18 22.04.2021
18 Clouds 29 1010 84 10000 3.09 110 06:22 22.04.2021
19 Clouds 28 1010 83 10000 3.09 120 05:24 22.04.2021
20 Clouds 27 1010 89 10000 3.6 140 02:49 22.04.2021
21 Clouds 27 1008 89 10000 4.63 140 00:41 22.04.2021
22 Clouds 27 1008 89 10000 4.63 140 23:42 21.04.2021
23 Clouds 27 1008 89 10000 4.63 140 23:22 21.04.2021
24 Clouds 27 1007 89 10000 4.12 140 22:41 21.04.2021
25 Clouds 27 1007 89 10000 4.12 140 22:23 21.04.2021
26 Clouds 27 1008 89 9000 3.6 120 21:42 21.04.2021
27 Clouds 27 1008 89 9000 3.6 120 21:23 21.04.2021
28 Clouds 27 1009 89 10000 4.12 120 20:38 21.04.2021
29 Clouds 27 1009 89 10000 4.12 120 20:18 21.04.2021
30 Clouds 27 1009 94 9000 3.6 140 19:38 21.04.2021
31 Clouds 27 1009 94 9000 3.6 140 19:20 21.04.2021
32 Clouds 27 1010 89 9000 5.66 110 18:44 21.04.2021
33 Clouds 27 1010 89 10000 5.14 110 18:22 21.04.2021
34 Clouds 28 1010 83 10000 4.63 130 17:46 21.04.2021
35 Clear 27 1010 89 10000 5.14 130 17:24 21.04.2021
36 Clouds 28 1009 83 10000 4.63 130 16:42 21.04.2021
37 Clouds 28 1009 83 10000 4.63 130 15:56 21.04.2021
38 Clouds 28 1008 83 10000 5.66 130 15:37 21.04.2021
39 Clouds 28 1007 83 10000 5.14 120 14:47 21.04.2021
40 Clouds 29 1006 79 10000 6.17 130 14:29 21.04.2021
41 Clouds 29 1006 74 10000 6.17 130 13:51 21.04.2021
42 Clouds 29 1006 74 10000 6.17 130 13:51 21.04.2021
43 Clouds 29 1005 74 10000 6.17 130 13:23 21.04.2021
44 Clouds 31 1005 62 10000 6.17 130 12:52 21.04.2021
45 Clouds 31 1005 62 10000 6.17 130 12:28 21.04.2021
46 Clouds 31 1005 66 10000 6.69 130 11:47 21.04.2021
47 Clouds 32 1005 58 10000 6.17 150 11:25 21.04.2021
48 Clouds 32 1006 58 10000 6.69 130 10:42 21.04.2021
49 Clouds 32 1006 58 10000 5.14 150 09:58 21.04.2021
50 Clouds 32 1007 58 10000 6.17 140 09:33 21.04.2021
51 Clouds 32 1007 55 10000 5.14 160 08:53 21.04.2021
52 Clouds 33 1008 55 10000 5.14 150 08:27 21.04.2021
53 Clouds 32 1008 58 10000 5.66 150 07:58 21.04.2021
54 Clouds 32 1009 58 10000 5.14 160 07:29 21.04.2021
55 Clouds 31 1010 66 10000 4.63 160 06:23 21.04.2021
56 Clouds 29 1011 84 10000 5.14 140 04:18 21.04.2021
57 Clouds 27 1008 89 10000 3.6 120 00:49 21.04.2021
58 Clouds 27 1008 89 10000 3.6 120 23:47 20.04.2021
59 Clouds 27 1007 89 10000 4.12 140 22:50 20.04.2021
60 Clouds 27 1007 89 9000 4.12 120 22:24 20.04.2021
61 Clouds 27 1007 89 8000 4.63 120 21:59 20.04.2021
62 Clouds 27 1008 89 8000 4.12 120 21:41 20.04.2021
63 Clouds 27 1008 89 8000 4.12 120 21:22 20.04.2021
64 Clouds 27 1008 89 9000 4.63 110 20:41 20.04.2021
65 Clouds 27 1008 89 9000 4.63 110 20:21 20.04.2021
66 Clouds 27 1009 89 9000 4.12 110 19:51 20.04.2021
67 Clouds 27 1009 89 9000 4.63 120 19:33 20.04.2021
68 Clouds 27 1009 89 10000 4.12 110 18:50 20.04.2021
69 Clouds 27 1009 89 10000 5.14 120 18:31 20.04.2021
70 Clouds 27 1009 89 10000 5.14 120 17:43 20.04.2021
71 Clouds 27 1008 89 10000 4.63 120 16:55 20.04.2021
72 Clouds 27 1008 89 10000 4.12 140 16:35 20.04.2021
73 Clouds 28 1007 83 10000 5.66 140 15:41 20.04.2021
74 Clouds 28 1007 83 10000 5.66 140 15:21 20.04.2021
75 Clouds 28 1006 83 10000 4.12 140 14:48 20.04.2021
76 Clouds 28 1006 83 10000 5.66 130 14:23 20.04.2021
77 Clouds 28 1006 83 10000 5.66 130 14:23 20.04.2021
78 Clear 29 1005 70 10000 6.17 120 13:29 20.04.2021
79 Clouds 30 1004 66 10000 6.17 130 12:55 20.04.2021
80 Clouds 31 1004 62 10000 6.69 140 12:27 20.04.2021
81 Clouds 31 1004 62 10000 6.17 120 11:47 20.04.2021
82 Clouds 31 1004 62 10000 6.17 120 11:47 20.04.2021
83 Clouds 31 1004 62 10000 6.17 120 11:25 20.04.2021
84 Clouds 32 1004 58 10000 5.66 130 10:48 20.04.2021
85 Clouds 32 1005 55 10000 6.69 120 10:24 20.04.2021
86 Clouds 32 1005 58 10000 5.66 140 09:47 20.04.2021
87 Clouds 32 1006 58 10000 5.14 140 09:18 20.04.2021
88 Clouds 32 1007 58 10000 4.63 160 08:42 20.04.2021
89 Clouds 31 1008 62 10000 3.6 160 07:58 20.04.2021
90 Clouds 31 1008 62 10000 4.63 160 07:31 20.04.2021
91 Clouds 29 1010 79 10000 3.6 170 05:42 20.04.2021
92 Clouds 28 1010 83 10000 3.6 150 04:43 20.04.2021
93 Clouds 27 1009 89 9000 3.09 130 03:34 20.04.2021
94 Clouds 26 1007 94 9000 3.09 120 00:50 20.04.2021
95 Clouds 26 1007 94 9000 3.09 120 23:52 19.04.2021
96 Clouds 26 1007 94 10000 3.09 110 23:29 19.04.2021
97 Clouds 25 1007 100 8000 3.6 100 22:38 19.04.2021
98 Clouds 25 1007 100 8000 3.6 100 22:19 19.04.2021
99 Clouds 26 1007 89 9000 4.12 100 21:38 19.04.2021
100 Clouds 25 1008 94 10000 3.6 100 21:19 19.04.2021
101 Clouds 25 1008 94 10000 4.63 110 20:40 19.04.2021
102 Clouds 25 1008 94 10000 4.63 110 20:20 19.04.2021
103 Clouds 25 1008 94 10000 4.12 110 19:44 19.04.2021
104 Clouds 26 1008 89 8000 4.63 100 19:25 19.04.2021
105 Clouds 26 1009 89 9000 4.63 120 18:48 19.04.2021
106 Clouds 26 1009 89 9000 4.63 120 18:48 19.04.2021
107 Clouds 26 1009 89 10000 4.63 120 18:24 19.04.2021
108 Clouds 26 1008 89 10000 4.12 110 17:58 19.04.2021
109 Clouds 25 1008 94 10000 4.12 100 17:35 19.04.2021
110 Clouds 26 1007 89 10000 4.63 120 16:59 19.04.2021
111 Clouds 26 1007 89 9000 4.63 120 16:40 19.04.2021
112 Clouds 26 1007 89 9000 4.63 120 16:21 19.04.2021
113 Clouds 27 1006 89 10000 3.6 120 15:40 19.04.2021
114 Clouds 27 1006 89 10000 3.6 120 15:20 19.04.2021
115 Clear 28 1005 74 10000 4.12 130 14:38 19.04.2021
116 Clear 28 1005 74 10000 4.12 130 14:19 19.04.2021
117 Clouds 28 1005 69 10000 5.14 120 13:44 19.04.2021
118 Clouds 29 1005 65 10000 4.63 120 13:24 19.04.2021
119 Clouds 30 1004 62 10000 4.12 110 12:42 19.04.2021
120 Clouds 30 1004 62 10000 4.12 110 12:23 19.04.2021
121 Clouds 30 1004 62 10000 4.12 80 11:54 19.04.2021
122 Clouds 30 1005 62 10000 3.09 60 11:25 19.04.2021
123 Clouds 31 1005 58 10000 2.57 80 10:46 19.04.2021
124 Clouds 31 1005 62 9000 3.09 70 10:25 19.04.2021
125 Clouds 30 1006 62 10000 2.57 50 09:49 19.04.2021
126 Clouds 30 1006 62 10000 2.06 100 09:28 19.04.2021
127 Clouds 30 1007 66 10000 2.06 100 08:58 19.04.2021
128 Clouds 30 1008 66 8000 2.57 0 08:25 19.04.2021
129 Clouds 29 1008 74 8000 2.06 150 07:48 19.04.2021
130 Clouds 28 1009 78 7000 1.54 150 07:19 19.04.2021
131 Clouds 26 1010 89 6000 1.03 0 05:44 19.04.2021
132 Mist 23 1010 100 3900 2.06 120 02:34 19.04.2021
133 Mist 23 1009 100 4800 2.06 110 00:45 19.04.2021
134 Mist 23 1009 100 4200 2.06 80 23:38 18.04.2021
135 Mist 23 1009 100 4200 2.06 80 23:18 18.04.2021
136 Mist 23 1009 94 3400 2.06 80 22:43 18.04.2021
137 Mist 23 1009 94 3300 2.57 100 22:23 18.04.2021
138 Mist 22 1010 100 3600 1.54 80 21:29 18.04.2021
139 Mist 22 1010 100 3900 1.54 90 20:56 18.04.2021
140 Mist 22 1010 100 4400 2.06 70 20:37 18.04.2021
141 Mist 22 1010 100 4400 2.06 70 20:19 18.04.2021
142 Mist 22 1011 100 4300 1.54 70 19:44 18.04.2021
143 Mist 22 1011 100 4500 2.06 70 19:23 18.04.2021
144 Mist 22 1011 100 4300 2.57 80 18:50 18.04.2021
145 Mist 22 1012 100 5000 2.06 80 18:27 18.04.2021
146 Clouds 23 1012 94 6000 2.06 70 17:49 18.04.2021
147 Clouds 22 1011 100 6000 2.57 50 17:29 18.04.2021
148 Mist 22 1011 94 5000 2.57 70 16:53 18.04.2021
149 Mist 22 1011 94 5000 2.06 80 16:35 18.04.2021
150 Clouds 23 1011 94 6000 2.06 70 15:51 18.04.2021
151 Clouds 23 1011 88 6000 1.54 60 15:28 18.04.2021
152 Clouds 23 1011 88 7000 2.57 70 14:54 18.04.2021
153 Clouds 23 1010 88 7000 2.06 70 14:36 18.04.2021
154 Clouds 23 1010 88 6000 2.57 70 14:18 18.04.2021
155 Mist 23 1010 88 5000 2.06 50 13:38 18.04.2021
156 Mist 23 1010 88 5000 2.06 50 13:19 18.04.2021
157 Clouds 24 1010 83 6000 2.57 60 12:33 18.04.2021
158 Clouds 24 1010 83 6000 3.09 30 11:45 18.04.2021
159 Clouds 24 1010 83 8000 3.09 30 11:22 18.04.2021
160 Clouds 24 1010 83 8000 3.09 30 10:48 18.04.2021
161 Clouds 24 1010 83 7000 3.09 70 10:28 18.04.2021
162 Clouds 24 1010 83 7000 2.57 70 09:54 18.04.2021
163 Clouds 24 1011 83 7000 2.06 60 09:36 18.04.2021
164 Clouds 24 1012 83 8000 2.57 60 08:58 18.04.2021
165 Clouds 24 1012 83 9000 2.57 50 08:37 18.04.2021
166 Clouds 24 1012 83 9000 2.57 50 08:18 18.04.2021
167 Clouds 23 1013 83 10000 2.57 50 07:38 18.04.2021
168 Clouds 22 1015 83 10000 3.09 40 05:45 18.04.2021
169 Clouds 22 1015 83 10000 3.09 40 05:45 18.04.2021
170 Clouds 22 1015 83 10000 2.57 50 05:24 18.04.2021
171 Clouds 22 1015 83 10000 2.57 50 03:26 18.04.2021
172 Clouds 21 1014 88 10000 1.54 30 02:22 18.04.2021
173 Clouds 21 1014 88 10000 2.06 60 00:40 18.04.2021
174 Clouds 21 1014 88 10000 1.54 50 23:39 17.04.2021
175 Clouds 21 1014 88 10000 1.54 50 22:52 17.04.2021
176 Clouds 21 1014 88 10000 1.03 0 22:31 17.04.2021
177 Clouds 21 1014 94 10000 2.06 40 21:50 17.04.2021
178 Clouds 21 1014 88 10000 2.06 40 21:31 17.04.2021
179 Clouds 21 1015 88 10000 2.57 50 20:51 17.04.2021
180 Clouds 21 1015 94 10000 1.54 20 20:28 17.04.2021
181 Clouds 21 1015 94 10000 2.06 40 19:46 17.04.2021
182 Clouds 21 1016 94 10000 1.54 0 19:21 17.04.2021
183 Clouds 22 1016 88 10000 2.06 50 18:56 17.04.2021
184 Clouds 22 1016 94 7000 3.09 70 18:36 17.04.2021
185 Clouds 22 1017 94 10000 2.06 60 17:57 17.04.2021
186 Clouds 22 1016 94 10000 2.06 50 17:39 17.04.2021
187 Clouds 22 1016 88 10000 2.06 40 16:53 17.04.2021
188 Clouds 22 1016 88 10000 2.06 20 16:28 17.04.2021
189 Clouds 22 1016 88 10000 2.06 20 16:28 17.04.2021
190 Clouds 22 1015 88 10000 2.57 20 15:42 17.04.2021
191 Clouds 22 1015 88 10000 2.06 20 14:50 17.04.2021
192 Clouds 22 1014 94 10000 2.57 30 14:30 17.04.2021
193 Clouds 22 1014 94 10000 2.06 10 13:47 17.04.2021
194 Clouds 22 1014 94 10000 1.54 10 13:20 17.04.2021
195 Clouds 22 1013 94 10000 2.06 50 12:39 17.04.2021
196 Clouds 22 1013 100 10000 2.06 50 12:18 17.04.2021
197 Clouds 22 1013 94 8000 2.57 80 11:39 17.04.2021
198 Clouds 22 1013 94 8000 2.57 80 11:20 17.04.2021
199 Clouds 23 1014 88 10000 2.06 50 10:41 17.04.2021
200 Clouds 23 1014 88 10000 2.06 50 10:22 17.04.2021
201 Clouds 23 1015 88 10000 3.09 40 09:19 17.04.2021
202 Clouds 23 1015 88 10000 3.09 30 08:34 17.04.2021
203 Clouds 23 1016 88 10000 4.12 40 07:59 17.04.2021
204 Clouds 22 1016 94 10000 3.09 30 06:41 17.04.2021
205 Rain 22 1016 94 10000 4.12 30 03:49 17.04.2021
206 Rain 22 1015 100 7000 2.57 50 02:26 17.04.2021
207 Rain 24 1012 94 8000 4.12 60 00:42 17.04.2021
208 Rain 24 1012 94 8000 4.12 60 00:20 17.04.2021
209 Rain 25 1012 88 9000 3.6 60 23:43 16.04.2021
210 Rain 25 1011 94 9000 3.6 80 22:59 16.04.2021
211 Clouds 25 1012 94 9000 3.09 60 22:41 16.04.2021
212 Clouds 25 1012 94 9000 3.09 60 22:20 16.04.2021
213 Clouds 25 1012 94 8000 2.57 60 21:45 16.04.2021
214 Clouds 25 1012 94 8000 3.09 70 21:27 16.04.2021
215 Clouds 25 1012 94 8000 3.09 70 20:46 16.04.2021
216 Clouds 25 1012 94 7000 2.57 70 20:20 16.04.2021
217 Clouds 25 1012 94 8000 3.09 80 19:49 16.04.2021
218 Rain 25 1012 94 8000 2.57 70 19:21 16.04.2021
219 Rain 26 1013 89 10000 3.09 100 18:28 16.04.2021
220 Rain 26 1013 89 10000 2.57 100 17:53 16.04.2021
221 Rain 26 1013 89 10000 3.09 110 17:20 16.04.2021
222 Rain 27 1013 83 10000 2.57 130 16:56 16.04.2021
223 Clouds 27 1012 83 10000 4.12 140 16:38 16.04.2021
224 Clouds 27 1012 83 10000 4.12 140 16:19 16.04.2021
225 Clouds 27 1011 69 10000 5.14 140 15:39 16.04.2021
226 Clouds 27 1011 69 10000 5.14 140 15:39 16.04.2021
227 Clouds 28 1011 65 10000 4.12 150 14:47 16.04.2021
228 Clouds 28 1010 61 10000 5.14 150 14:28 16.04.2021
229 Rain 28 1009 65 10000 5.14 130 13:58 16.04.2021
230 Clouds 29 1009 61 10000 5.66 130 13:23 16.04.2021
231 Clouds 29 1008 61 10000 5.66 120 12:58 16.04.2021
232 Clouds 30 1008 58 10000 5.14 130 12:39 16.04.2021
233 Clouds 30 1008 58 10000 5.14 130 12:21 16.04.2021
234 Clouds 30 1008 54 10000 5.66 120 11:42 16.04.2021
235 Clouds 30 1008 54 10000 5.66 120 11:21 16.04.2021
236 Clouds 30 1008 58 10000 5.14 140 10:42 16.04.2021
237 Clouds 30 1008 58 10000 5.14 140 10:21 16.04.2021
238 Clouds 30 1009 58 10000 5.66 140 09:44 16.04.2021
239 Clouds 30 1009 58 10000 4.63 140 09:22 16.04.2021
240 Clouds 31 1010 55 10000 5.66 140 08:45 16.04.2021
241 Clouds 29 1011 74 10000 4.63 140 08:19 16.04.2021
242 Clouds 29 1011 74 10000 4.63 140 07:43 16.04.2021
243 Clouds 28 1011 83 10000 4.12 140 07:25 16.04.2021
244 Clouds 28 1012 83 10000 3.09 120 06:39 16.04.2021
245 Clouds 28 1012 83 10000 4.12 150 05:32 16.04.2021
246 Mist 25 1011 100 3900 3.09 90 01:47 16.04.2021
247 Mist 25 1010 94 4500 2.57 80 00:45 16.04.2021
248 Mist 25 1010 100 4800 2.57 90 00:21 16.04.2021
249 Mist 25 1010 100 4900 1.54 70 23:52 15.04.2021
250 Mist 25 1009 100 5000 2.06 110 23:32 15.04.2021
251 Mist 25 1009 100 5000 2.57 90 22:49 15.04.2021
252 Mist 25 1009 100 5000 1.54 80 22:23 15.04.2021
253 Mist 25 1009 100 5000 2.57 80 21:43 15.04.2021
254 Clouds 25 1009 100 6000 3.09 80 21:25 15.04.2021
255 Clouds 25 1009 94 6000 3.6 110 20:49 15.04.2021
256 Clouds 25 1010 100 7000 3.09 100 20:25 15.04.2021
257 Clouds 25 1010 100 8000 2.57 100 19:47 15.04.2021
258 Clouds 25 1010 100 8000 3.6 100 19:28 15.04.2021
259 Clouds 25 1010 100 8000 3.09 80 18:59 15.04.2021
260 Clouds 25 1010 100 8000 3.6 90 18:37 15.04.2021
261 Clouds 25 1010 100 8000 3.6 90 18:18 15.04.2021
262 Clouds 26 1010 94 9000 3.09 100 17:44 15.04.2021
263 Clouds 26 1010 94 9000 3.09 100 17:24 15.04.2021
264 Clouds 26 1010 94 10000 2.57 100 16:43 15.04.2021
265 Clouds 26 1009 94 10000 3.09 100 16:24 15.04.2021
266 Clouds 26 1009 94 10000 3.6 100 15:47 15.04.2021
267 Clouds 26 1008 94 10000 4.63 110 15:27 15.04.2021
268 Clouds 26 1008 94 10000 3.6 110 14:43 15.04.2021
269 Clear 26 1008 94 10000 4.12 120 14:25 15.04.2021
270 Clouds 26 1007 89 10000 4.12 130 13:48 15.04.2021
271 Clouds 27 1007 89 10000 4.63 120 13:23 15.04.2021
272 Clouds 27 1007 89 10000 3.6 110 12:49 15.04.2021
273 Clouds 27 1006 89 10000 3.6 100 12:26 15.04.2021
274 Clouds 27 1006 89 10000 3.09 90 11:48 15.04.2021
275 Clouds 27 1006 89 10000 4.12 110 11:26 15.04.2021
276 Clouds 27 1007 89 10000 4.63 120 10:58 15.04.2021
277 Clouds 27 1007 83 10000 5.14 120 10:34 15.04.2021
278 Clouds 27 1007 83 10000 5.14 140 09:56 15.04.2021
279 Clouds 27 1008 89 10000 4.63 140 09:29 15.04.2021
280 Clouds 27 1008 89 10000 5.66 130 08:52 15.04.2021
281 Clouds 27 1009 89 10000 4.63 150 08:29 15.04.2021
282 Clouds 27 1010 89 10000 5.14 130 07:33 15.04.2021
283 Clouds 27 1010 89 10000 4.63 140 06:56 15.04.2021
284 Clouds 27 1010 89 10000 4.12 150 06:33 15.04.2021
285 Clouds 26 1011 94 7000 4.63 130 04:54 15.04.2021
286 Mist 25 1010 94 2200 3.09 120 02:58 15.04.2021
287 Rain 25 1009 94 9000 3.6 110 23:49 14.04.2021
288 Rain 25 1009 94 8000 3.09 100 23:29 14.04.2021
289 Clouds 25 1009 94 7000 3.6 100 22:47 14.04.2021
290 Clouds 25 1009 94 9000 3.6 100 22:27 14.04.2021
291 Clouds 25 1009 94 10000 3.6 100 21:53 14.04.2021
292 Clouds 25 1009 94 10000 3.6 100 21:32 14.04.2021
293 Rain 25 1009 94 9000 3.6 100 20:58 14.04.2021
294 Clouds 25 1009 94 9000 3.09 110 20:35 14.04.2021
295 Clouds 25 1009 94 9000 3.6 120 19:55 14.04.2021
296 Clouds 25 1009 94 9000 3.6 120 19:55 14.04.2021
297 Clouds 25 1010 94 9000 3.6 120 19:37 14.04.2021
298 Clouds 25 1010 94 9000 3.6 120 19:18 14.04.2021
299 Clouds 25 1010 94 9000 4.12 120 18:47 14.04.2021
300 Clouds 26 1010 89 10000 4.63 120 18:18 14.04.2021
301 Clouds 26 1011 89 10000 3.6 120 17:51 14.04.2021
302 Clouds 26 1010 89 10000 4.63 120 17:23 14.04.2021
303 Clouds 26 1010 89 10000 4.12 120 16:42 14.04.2021
304 Clouds 26 1010 89 10000 4.12 120 16:21 14.04.2021
305 Clouds 27 1009 74 10000 5.66 140 15:39 14.04.2021
306 Clouds 27 1009 74 10000 5.66 140 15:18 14.04.2021
307 Clouds 28 1008 74 10000 6.17 130 14:41 14.04.2021
308 Clouds 28 1008 74 10000 6.17 130 14:21 14.04.2021
309 Clouds 28 1008 74 10000 5.14 120 13:47 14.04.2021
310 Clouds 29 1007 65 10000 4.63 120 12:47 14.04.2021
311 Clouds 29 1007 65 10000 5.14 100 12:24 14.04.2021
312 Clear 30 1007 62 10000 5.66 120 11:42 14.04.2021
313 Clear 30 1007 62 10000 5.66 120 11:23 14.04.2021
314 Clouds 30 1008 62 10000 4.12 120 10:34 14.04.2021
315 Clouds 30 1009 66 10000 4.63 130 09:43 14.04.2021
316 Clouds 30 1009 66 10000 4.63 130 09:25 14.04.2021
317 Clouds 29 1010 79 10000 3.6 120 08:56 14.04.2021
318 Clouds 29 1010 79 10000 4.63 100 08:30 14.04.2021
319 Clouds 28 1011 83 10000 4.12 110 07:41 14.04.2021
320 Clouds 27 1012 89 10000 2.57 110 06:35 14.04.2021
321 Clouds 27 1012 89 10000 4.12 120 05:36 14.04.2021
322 Mist 25 1011 94 3700 3.09 100 02:31 14.04.2021
323 Clouds 25 1010 94 7000 2.57 90 00:57 14.04.2021
324 Clouds 25 1010 94 6000 2.57 80 00:32 14.04.2021
325 Clouds 25 1009 94 7000 3.09 80 23:34 13.04.2021
326 Clouds 25 1010 94 6000 2.57 90 22:45 13.04.2021
327 Clouds 25 1010 94 6000 2.57 90 22:22 13.04.2021
328 Clouds 25 1010 94 6000 3.09 100 21:49 13.04.2021
329 Clouds 25 1010 94 8000 2.57 90 21:31 13.04.2021
330 Clouds 24 1010 100 8000 3.09 100 20:51 13.04.2021
331 Clouds 25 1010 94 10000 3.09 90 20:25 13.04.2021
332 Clouds 25 1011 94 10000 2.06 80 19:58 13.04.2021
333 Clouds 25 1011 94 10000 2.57 130 19:26 13.04.2021
334 Clear 25 1011 94 10000 3.6 140 18:51 13.04.2021
335 Clear 26 1011 89 10000 3.6 140 18:30 13.04.2021
336 Clouds 26 1011 89 10000 4.12 140 17:40 13.04.2021
337 Rain 26 1011 89 10000 4.12 140 17:21 13.04.2021
338 Rain 26 1011 83 10000 4.12 140 16:45 13.04.2021
339 Rain 26 1011 83 10000 3.09 140 16:27 13.04.2021
340 Clouds 26 1011 89 10000 3.6 140 15:55 13.04.2021
341 Rain 26 1011 89 10000 3.6 150 15:37 13.04.2021
342 Clouds 26 1010 89 10000 2.57 160 14:58 13.04.2021
343 Rain 26 1010 89 10000 2.57 140 14:24 13.04.2021
344 Clouds 26 1009 89 10000 3.09 130 13:53 13.04.2021
345 Clouds 26 1009 89 10000 3.6 120 13:27 13.04.2021
346 Clouds 27 1009 83 10000 4.63 120 12:59 13.04.2021
347 Clouds 27 1009 83 10000 5.14 130 12:41 13.04.2021
348 Clouds 27 1009 83 10000 5.14 130 12:22 13.04.2021
349 Rain 27 1009 83 10000 4.12 120 11:36 13.04.2021
350 Clouds 27 1009 83 10000 4.12 130 10:57 13.04.2021
351 Clouds 27 1009 83 10000 4.12 130 10:57 13.04.2021
352 Clouds 27 1010 83 10000 4.63 120 10:39 13.04.2021
353 Clouds 27 1010 83 10000 4.63 120 10:18 13.04.2021
354 Clouds 27 1011 83 10000 3.6 100 09:42 13.04.2021
355 Clouds 27 1011 83 10000 3.6 100 09:18 13.04.2021
356 Clouds 27 1011 83 10000 3.6 100 09:18 13.04.2021
357 Clouds 27 1012 83 10000 3.6 120 08:42 13.04.2021
358 Clouds 27 1012 83 10000 3.6 120 08:21 13.04.2021
359 Clouds 27 1012 83 10000 3.6 120 08:21 13.04.2021
360 Clouds 27 1013 83 10000 3.09 130 07:36 13.04.2021
361 Clouds 27 1014 78 10000 3.09 140 06:59 13.04.2021
362 Clouds 26 1014 89 10000 3.6 140 05:53 13.04.2021
363 Mist 24 1013 100 4500 3.6 100 02:47 13.04.2021
364 Mist 24 1013 100 3400 3.09 100 01:27 13.04.2021
365 Clouds 24 1012 100 7000 3.09 100 23:49 12.04.2021
366 Clouds 25 1012 94 8000 3.6 110 23:27 12.04.2021
367 Clouds 25 1012 94 10000 3.09 120 22:43 12.04.2021
368 Clouds 25 1012 94 10000 3.09 120 22:23 12.04.2021
369 Clouds 25 1012 94 10000 3.09 120 22:23 12.04.2021
370 Clouds 25 1012 94 10000 3.6 130 21:46 12.04.2021
371 Clouds 25 1012 94 10000 3.6 130 21:46 12.04.2021
372 Clouds 25 1012 94 10000 3.09 120 21:21 12.04.2021
373 Clouds 25 1013 88 10000 3.6 140 20:41 12.04.2021
374 Clouds 25 1013 88 10000 3.6 140 20:23 12.04.2021
375 Clouds 25 1013 88 10000 4.12 140 19:57 12.04.2021
376 Clouds 25 1013 88 10000 4.12 140 19:38 12.04.2021
377 Clouds 25 1013 88 10000 4.12 140 19:19 12.04.2021
378 Clouds 25 1013 88 10000 4.12 130 18:44 12.04.2021
379 Clouds 25 1013 88 10000 4.63 130 18:25 12.04.2021
380 Clouds 26 1013 83 10000 4.63 120 17:44 12.04.2021
381 Clouds 26 1013 83 10000 4.63 120 17:24 12.04.2021
382 Clouds 26 1013 83 10000 4.63 110 16:47 12.04.2021
383 Clouds 26 1013 83 10000 4.63 120 16:27 12.04.2021
384 Clear 26 1012 83 10000 4.12 130 15:49 12.04.2021
385 Clouds 27 1012 78 10000 4.63 130 15:27 12.04.2021
386 Rain 27 1012 69 10000 4.12 130 14:50 12.04.2021
387 Rain 28 1011 61 10000 6.17 130 14:30 12.04.2021
388 Clouds 28 1011 61 10000 6.17 130 13:49 12.04.2021
389 Clear 28 1010 61 10000 5.66 140 13:28 12.04.2021
390 Clouds 29 1010 61 10000 5.14 130 12:49 12.04.2021
391 Rain 29 1010 61 10000 5.14 140 12:27 12.04.2021
392 Rain 29 1010 61 10000 6.17 120 11:59 12.04.2021
393 Clouds 29 1010 65 10000 5.14 130 11:24 12.04.2021
394 Clouds 29 1010 61 10000 5.66 120 10:46 12.04.2021
395 Clouds 30 1011 58 10000 3.6 140 10:26 12.04.2021
396 Clouds 30 1011 58 10000 3.6 150 09:49 12.04.2021
397 Clouds 29 1012 61 10000 3.09 140 09:19 12.04.2021
398 Clouds 29 1013 61 10000 3.09 160 08:36 12.04.2021
399 Clouds 29 1014 61 10000 4.63 160 07:40 12.04.2021
400 Clouds 29 1014 61 10000 4.63 160 07:20 12.04.2021
401 Clouds 28 1015 74 10000 4.12 160 06:25 12.04.2021
402 Clouds 28 1015 74 10000 4.63 150 05:41 12.04.2021
403 Mist 24 1014 94 3600 4.12 110 01:31 12.04.2021
404 Mist 23 1013 100 4400 3.09 90 00:25 12.04.2021
405 Mist 23 1013 100 4900 2.57 100 23:49 11.04.2021
406 Mist 24 1013 94 5000 3.09 100 23:29 11.04.2021
407 Mist 24 1013 94 4900 3.09 100 22:46 11.04.2021
408 Mist 24 1013 94 4900 3.09 100 22:25 11.04.2021
409 Mist 24 1013 94 5000 4.12 110 21:50 11.04.2021
410 Mist 24 1014 94 4600 2.57 120 21:30 11.04.2021
411 Mist 24 1014 94 5000 3.09 110 20:58 11.04.2021
412 Mist 24 1014 94 5000 3.09 110 20:31 11.04.2021
413 Mist 24 1014 94 3800 4.12 100 19:58 11.04.2021
414 Clouds 24 1015 94 7000 3.6 110 19:38 11.04.2021
415 Clouds 24 1015 94 7000 3.6 110 19:19 11.04.2021
416 Clouds 24 1016 94 8000 3.6 120 19:19 11.04.2021
417 Clouds 24 1015 94 7000 3.6 110 19:19 11.04.2021
418 Clouds 24 1015 94 7000 3.6 110 19:19 11.04.2021
419 Clouds 25 1016 88 8000 3.09 120 18:45 11.04.2021
420 Clouds 25 1016 88 8000 3.09 120 18:25 11.04.2021
421 Rain 25 1016 88 8000 3.09 120 17:48 11.04.2021
422 Rain 25 1016 88 10000 3.09 130 17:28 11.04.2021
423 Rain 25 1016 88 10000 3.09 130 17:28 11.04.2021
424 Rain 25 1016 88 10000 3.6 140 16:52 11.04.2021
425 Clouds 26 1016 83 10000 2.57 150 16:23 11.04.2021
426 Rain 26 1015 83 10000 3.6 130 15:57 11.04.2021
427 Clouds 26 1015 83 10000 2.06 140 15:38 11.04.2021
428 Clouds 26 1015 83 10000 2.06 140 15:19 11.04.2021
429 Clouds 26 1015 83 10000 2.06 140 15:19 11.04.2021
430 Clear 26 1014 83 10000 2.06 130 14:46 11.04.2021
431 Clouds 26 1013 83 10000 4.63 130 13:53 11.04.2021
432 Clouds 27 1013 83 10000 4.63 140 13:31 11.04.2021
433 Clouds 27 1012 83 10000 5.14 130 12:54 11.04.2021
434 Clouds 27 1012 83 10000 5.14 130 12:54 11.04.2021
435 Clouds 27 1012 83 10000 5.66 130 12:22 11.04.2021
436 Clouds 27 1012 83 10000 6.69 120 11:52 11.04.2021
437 Clouds 27 1013 83 10000 5.66 120 11:27 11.04.2021
438 Clouds 28 1013 78 10000 5.66 120 10:50 11.04.2021
439 Clouds 28 1013 78 10000 5.66 120 10:31 11.04.2021
440 Clouds 29 1013 65 10000 6.17 140 09:59 11.04.2021
441 Clouds 29 1013 65 10000 6.17 140 09:59 11.04.2021
442 Clouds 29 1014 65 10000 5.14 150 09:35 11.04.2021
443 Clouds 29 1014 65 10000 4.63 150 08:59 11.04.2021
444 Clouds 28 1015 74 9000 3.6 140 08:26 11.04.2021
445 Mist 27 1016 78 5000 3.6 120 07:24 11.04.2021
446 Mist 27 1017 78 3900 3.09 110 06:54 11.04.2021
447 Mist 25 1018 88 2400 3.6 90 05:43 11.04.2021
448 Mist 25 1018 88 2400 3.6 90 05:21 11.04.2021
449 Mist 24 1018 94 1700 2.57 90 04:34 11.04.2021
450 Drizzle 21 1016 94 1200 2.57 80 01:56 11.04.2021
451 Drizzle 20 1015 100 2400 1.54 70 00:39 11.04.2021
452 Drizzle 20 1015 100 2300 1.54 80 23:48 10.04.2021
453 Drizzle 20 1015 100 2100 1.54 80 23:25 10.04.2021
454 Drizzle 20 1015 100 2100 1.54 80 23:25 10.04.2021
455 Drizzle 20 1015 100 2200 1.54 90 22:43 10.04.2021
456 Drizzle 20 1015 100 2100 1.54 80 22:20 10.04.2021
457 Drizzle 20 1015 100 3800 1.54 60 21:41 10.04.2021
458 Drizzle 20 1015 100 3800 1.54 60 21:21 10.04.2021
459 Drizzle 20 1016 100 3700 2.06 70 20:44 10.04.2021
460 Drizzle 20 1016 100 3700 1.54 80 20:23 10.04.2021
461 Drizzle 20 1016 100 3700 1.54 80 20:23 10.04.2021
462 Drizzle 20 1016 100 3200 2.06 90 19:44 10.04.2021
463 Drizzle 20 1016 100 3400 1.54 70 19:25 10.04.2021
464 Drizzle 20 1017 100 2800 2.06 60 18:51 10.04.2021
465 Drizzle 20 1017 100 3200 1.54 60 18:29 10.04.2021
466 Drizzle 20 1016 94 3500 2.06 50 17:38 10.04.2021
467 Drizzle 20 1016 94 3500 2.06 50 17:18 10.04.2021
468 Drizzle 20 1016 94 2600 1.54 80 16:28 10.04.2021
469 Drizzle 20 1016 94 2700 1.54 70 15:55 10.04.2021
470 Drizzle 20 1015 94 3800 1.54 80 15:23 10.04.2021
471 Mist 20 1014 94 4600 2.57 70 14:42 10.04.2021
472 Mist 20 1014 94 3700 2.57 70 14:19 10.04.2021
473 Mist 20 1014 94 3100 2.06 60 13:42 10.04.2021
474 Drizzle 20 1014 94 3200 3.09 60 12:53 10.04.2021
475 Mist 20 1014 94 4200 2.57 60 12:28 10.04.2021
476 Mist 20 1014 94 3400 2.06 60 11:47 10.04.2021
477 Drizzle 20 1014 94 1600 2.06 50 11:25 10.04.2021
478 Mist 20 1015 94 2600 2.06 50 10:52 10.04.2021
479 Mist 20 1015 94 3800 2.06 50 10:31 10.04.2021
480 Mist 20 1015 94 4300 2.57 50 09:48 10.04.2021
481 Mist 20 1016 94 5000 3.6 40 09:20 10.04.2021
482 Mist 20 1016 94 5000 3.6 40 08:47 10.04.2021
483 Mist 20 1017 94 5000 4.12 50 08:28 10.04.2021
484 Clouds 20 1018 94 7000 3.6 40 07:38 10.04.2021
485 Clouds 20 1018 94 7000 3.6 40 07:19 10.04.2021
486 Clouds 19 1018 100 5000 2.57 60 06:24 10.04.2021
487 Mist 19 1018 94 3600 1.54 20 03:49 10.04.2021
488 Mist 19 1018 94 2600 1.54 30 02:50 10.04.2021
489 Clouds 18 1017 100 7000 1.54 60 02:18 10.04.2021
490 Clouds 18 1016 100 7000 2.57 60 00:41 10.04.2021
491 Clouds 18 1016 100 7000 2.57 60 00:19 10.04.2021
492 Mist 18 1015 100 5000 3.09 50 23:37 09.04.2021
493 Drizzle 18 1015 100 5000 2.57 50 22:58 09.04.2021
494 Mist 19 1015 94 5000 3.09 50 22:37 09.04.2021
495 Mist 19 1015 94 5000 3.6 50 21:55 09.04.2021
496 Mist 18 1016 100 5000 3.09 50 21:37 09.04.2021
497 Mist 18 1016 100 5000 3.09 50 21:18 09.04.2021
498 Mist 19 1016 94 4400 3.09 50 20:40 09.04.2021
499 Mist 19 1016 94 4400 3.09 50 20:40 09.04.2021
500 Mist 19 1016 94 4400 3.09 50 20:21 09.04.2021
501 Mist 19 1016 94 4700 3.09 50 19:43 09.04.2021
502 Mist 19 1016 94 3800 3.09 50 19:23 09.04.2021
503 Mist 19 1017 94 4800 2.57 40 18:50 09.04.2021
504 Mist 19 1017 94 5000 3.09 40 18:29 09.04.2021
505 Drizzle 19 1017 94 4200 3.09 50 17:52 09.04.2021
506 Drizzle 20 1017 88 6000 3.09 50 17:33 09.04.2021
507 Clouds 20 1016 88 10000 3.09 50 16:55 09.04.2021
508 Clouds 20 1016 88 9000 3.09 50 16:32 09.04.2021
509 Clouds 20 1015 88 8000 2.57 40 15:50 09.04.2021
510 Clouds 20 1015 88 10000 2.06 40 15:25 09.04.2021
511 Clouds 20 1015 88 10000 2.06 40 14:47 09.04.2021
512 Clouds 20 1014 88 10000 3.09 40 14:29 09.04.2021
513 Clouds 20 1013 88 10000 3.09 50 13:49 09.04.2021
514 Clouds 21 1013 83 10000 2.06 40 13:23 09.04.2021
515 Clouds 21 1013 83 10000 2.06 30 12:48 09.04.2021
516 Clouds 21 1013 83 10000 2.06 30 12:48 09.04.2021
517 Clouds 21 1013 83 10000 2.06 50 12:27 09.04.2021
518 Clouds 21 1013 83 10000 2.06 60 11:44 09.04.2021
519 Clouds 21 1013 83 10000 1.54 40 11:21 09.04.2021
520 Clouds 21 1013 83 10000 2.57 40 10:40 09.04.2021
521 Clouds 21 1013 83 10000 2.57 40 10:18 09.04.2021
522 Clouds 21 1014 83 10000 3.6 30 09:29 09.04.2021
523 Clouds 21 1015 83 10000 3.09 20 08:56 09.04.2021
524 Clouds 21 1015 83 10000 2.57 10 08:37 09.04.2021
525 Clouds 21 1016 88 10000 2.06 60 07:35 09.04.2021
526 Clouds 20 1017 88 10000 3.09 40 06:30 09.04.2021
527 Clouds 20 1017 94 10000 3.6 50 05:45 09.04.2021
528 Clouds 19 1017 94 8000 4.12 50 03:43 09.04.2021
529 Clouds 19 1013 100 2600 5.14 40 00:39 09.04.2021
530 Clouds 19 1013 100 2600 5.14 40 00:21 09.04.2021
531 Clouds 20 1013 88 7000 4.12 30 23:56 08.04.2021
532 Clouds 21 1012 88 10000 5.66 40 22:58 08.04.2021
533 Clouds 22 1012 78 10000 5.66 50 22:36 08.04.2021
534 Clouds 22 1012 78 10000 5.66 50 22:18 08.04.2021
535 Clouds 23 1012 78 10000 6.17 50 21:41 08.04.2021
536 Clouds 23 1012 78 10000 6.17 50 21:23 08.04.2021
537 Clouds 23 1012 78 10000 5.66 60 20:59 08.04.2021
538 Clouds 23 1013 78 10000 5.14 50 20:40 08.04.2021
539 Clouds 23 1013 78 10000 5.14 50 20:19 08.04.2021
540 Clouds 24 1013 83 10000 5.66 70 19:40 08.04.2021
541 Clouds 24 1013 83 10000 5.66 70 19:19 08.04.2021
542 Clouds 25 1013 88 9000 4.63 90 18:42 08.04.2021
543 Clouds 25 1013 88 9000 4.63 90 18:42 08.04.2021
544 Clouds 25 1013 88 9000 4.63 90 18:19 08.04.2021
545 Clouds 25 1012 88 9000 3.6 110 17:42 08.04.2021
546 Clouds 25 1012 88 9000 3.6 110 17:20 08.04.2021
547 Clouds 25 1011 94 8000 4.63 100 16:45 08.04.2021
548 Clouds 25 1011 94 8000 4.63 100 16:22 08.04.2021
549 Clouds 25 1011 88 8000 3.6 100 15:46 08.04.2021
550 Clear 26 1010 89 10000 3.6 100 15:26 08.04.2021
551 Clear 27 1009 78 10000 4.12 110 14:43 08.04.2021
552 Clear 27 1009 78 10000 4.12 110 14:21 08.04.2021
553 Clear 27 1009 83 10000 4.63 110 13:49 08.04.2021
554 Clouds 27 1009 78 10000 5.14 120 13:24 08.04.2021
555 Clouds 28 1008 74 10000 5.14 110 12:58 08.04.2021
556 Clouds 28 1008 69 10000 5.14 110 12:34 08.04.2021
557 Clouds 29 1008 65 10000 6.17 110 11:57 08.04.2021
558 Clouds 29 1008 65 10000 6.69 110 11:26 08.04.2021
559 Clouds 29 1008 65 10000 6.17 120 10:55 08.04.2021
560 Clouds 30 1009 58 10000 5.66 120 10:25 08.04.2021
561 Clouds 30 1009 62 10000 5.14 120 09:46 08.04.2021
562 Clouds 30 1010 58 10000 4.63 140 09:26 08.04.2021
563 Clouds 30 1010 58 10000 5.14 140 08:44 08.04.2021
564 Clouds 30 1011 58 10000 5.14 140 08:22 08.04.2021
565 Clouds 28 1012 74 10000 4.12 160 07:45 08.04.2021
566 Clouds 27 1013 83 9000 2.06 130 05:45 08.04.2021
567 Mist 24 1012 94 4600 4.12 120 01:27 08.04.2021
568 Clouds 24 1011 94 6000 2.57 90 00:32 08.04.2021
569 Clouds 24 1011 94 6000 2.57 110 23:48 07.04.2021
570 Mist 24 1011 94 5000 2.57 110 23:25 07.04.2021
571 Mist 24 1010 94 5000 2.57 110 22:57 07.04.2021
572 Mist 24 1010 94 5000 3.09 110 22:38 07.04.2021
573 Mist 24 1010 94 5000 3.09 110 22:20 07.04.2021
574 Clouds 24 1011 94 6000 3.09 100 21:34 07.04.2021
575 Clouds 24 1011 94 6000 3.6 100 20:54 07.04.2021
576 Mist 24 1011 94 5000 3.6 110 20:29 07.04.2021
577 Clouds 24 1011 94 7000 4.12 110 19:52 07.04.2021
578 Clouds 24 1011 94 6000 3.09 110 19:33 07.04.2021
579 Clear 24 1011 94 6000 4.12 120 18:57 07.04.2021
580 Clouds 24 1012 100 6000 3.6 100 18:39 07.04.2021
581 Clouds 24 1012 100 6000 3.6 100 18:18 07.04.2021
582 Clouds 25 1011 88 7000 3.09 100 17:43 07.04.2021
583 Clouds 25 1011 88 7000 3.09 100 17:24 07.04.2021
584 Clouds 25 1011 88 9000 3.6 120 16:45 07.04.2021
585 Clear 26 1011 83 10000 4.63 130 16:21 07.04.2021
586 Clear 26 1011 83 10000 4.63 120 15:53 07.04.2021
587 Clear 26 1011 83 10000 3.6 100 15:25 07.04.2021
588 Clear 27 1010 65 10000 3.6 120 14:43 07.04.2021
589 Clear 27 1010 65 10000 3.6 120 14:19 07.04.2021
590 Clear 28 1009 65 10000 4.63 110 13:38 07.04.2021
591 Clear 28 1009 65 10000 4.63 110 13:20 07.04.2021
592 Clouds 29 1009 58 10000 5.14 120 12:42 07.04.2021
593 Clouds 29 1009 58 10000 5.14 120 12:18 07.04.2021
594 Clouds 30 1010 54 10000 4.63 130 11:41 07.04.2021
595 Clouds 30 1010 54 10000 4.63 130 11:21 07.04.2021
596 Clouds 30 1010 51 10000 4.63 150 10:46 07.04.2021
597 Clouds 30 1011 54 10000 5.14 160 09:47 07.04.2021
598 Clouds 29 1011 58 10000 5.14 160 09:28 07.04.2021
599 Clouds 29 1012 58 10000 4.63 160 08:52 07.04.2021
600 Clouds 28 1013 65 8000 3.6 150 08:30 07.04.2021
601 Clouds 27 1014 78 7000 4.12 140 07:48 07.04.2021
602 Clouds 26 1014 83 6000 3.6 140 07:28 07.04.2021
603 Clouds 26 1015 83 7000 3.6 120 06:42 07.04.2021
604 Clouds 25 1016 88 6000 3.6 140 05:22 07.04.2021
605 Mist 24 1014 94 4500 3.09 130 01:23 07.04.2021
606 Clouds 24 1014 94 6000 3.09 120 23:47 06.04.2021
607 Clouds 24 1014 94 6000 2.06 160 23:22 06.04.2021
608 Clouds 24 1014 94 6000 2.57 130 22:50 06.04.2021
609 Clouds 24 1014 94 7000 3.09 130 22:21 06.04.2021
610 Clouds 24 1014 94 7000 3.09 120 21:44 06.04.2021
611 Clouds 24 1014 94 7000 4.12 130 21:23 06.04.2021
612 Clouds 24 1015 94 8000 3.6 110 20:55 06.04.2021
613 Clouds 24 1015 88 8000 4.12 130 20:26 06.04.2021
614 Clouds 24 1015 88 8000 4.12 130 20:26 06.04.2021
615 Clouds 24 1015 88 9000 4.63 140 19:59 06.04.2021
616 Clouds 24 1015 94 9000 4.63 140 19:38 06.04.2021
617 Clouds 24 1015 94 9000 4.63 140 19:19 06.04.2021
618 Clouds 25 1016 88 7000 2.57 140 18:41 06.04.2021
619 Clouds 25 1016 88 7000 2.57 140 18:19 06.04.2021
620 Clouds 24 1016 94 7000 3.6 120 17:44 06.04.2021
621 Clouds 24 1016 94 6000 3.6 120 17:19 06.04.2021
622 Clouds 24 1016 94 6000 3.6 120 16:46 06.04.2021
623 Clouds 24 1015 94 6000 3.6 110 16:26 06.04.2021
624 Clear 25 1015 88 8000 5.14 120 15:27 06.04.2021
625 Clear 26 1014 83 9000 4.12 140 14:45 06.04.2021
626 Clouds 26 1014 83 10000 5.14 130 14:26 06.04.2021
627 Clouds 26 1014 83 10000 5.14 120 13:47 06.04.2021
628 Clouds 27 1013 74 10000 6.17 110 13:27 06.04.2021
629 Clouds 27 1013 74 10000 6.17 110 13:27 06.04.2021
630 Clear 28 1013 65 10000 5.66 130 12:55 06.04.2021
631 Clouds 28 1013 61 10000 6.17 130 12:36 06.04.2021
632 Clouds 28 1013 61 10000 6.17 130 12:18 06.04.2021
633 Clouds 29 1012 58 10000 6.17 130 11:43 06.04.2021
634 Clouds 29 1012 58 10000 6.17 130 11:19 06.04.2021
635 Clouds 29 1013 58 10000 5.14 130 10:43 06.04.2021
636 Clouds 29 1013 58 10000 5.14 130 10:22 06.04.2021
637 Clouds 30 1013 58 9000 3.6 110 09:45 06.04.2021
638 Clouds 30 1013 58 9000 3.6 110 09:23 06.04.2021
639 Clouds 29 1014 61 7000 4.63 120 08:29 06.04.2021
640 Mist 27 1015 78 4700 3.6 90 07:32 06.04.2021
641 Mist 27 1016 78 4600 3.6 80 06:54 06.04.2021
642 Mist 23 1017 88 5000 3.6 60 03:55 06.04.2021
643 Clouds 22 1014 88 6000 2.57 50 00:51 06.04.2021
644 Clouds 22 1014 94 6000 3.09 50 00:22 06.04.2021
645 Clouds 22 1014 94 6000 2.57 50 23:58 05.04.2021
646 Mist 22 1014 94 5000 2.57 60 23:39 05.04.2021
647 Mist 22 1014 94 5000 2.57 60 23:18 05.04.2021
648 Mist 22 1014 94 5000 2.57 70 22:40 05.04.2021
649 Clouds 22 1014 88 6000 3.09 80 21:56 05.04.2021
650 Clouds 22 1015 94 6000 2.57 70 21:37 05.04.2021
651 Clouds 22 1015 94 6000 2.57 70 21:18 05.04.2021
652 Clouds 22 1015 94 6000 2.06 60 20:41 05.04.2021
653 Clouds 22 1016 94 6000 2.57 40 20:22 05.04.2021
654 Clouds 22 1016 94 6000 3.09 50 19:37 05.04.2021
655 Clouds 22 1016 94 6000 3.09 50 19:18 05.04.2021
656 Clouds 23 1017 94 6000 1.54 50 18:40 05.04.2021
657 Clouds 23 1017 94 6000 1.54 50 18:19 05.04.2021
658 Clouds 23 1017 94 6000 1.54 50 18:19 05.04.2021
659 Clouds 23 1017 94 7000 2.06 40 17:47 05.04.2021
660 Clouds 24 1016 88 7000 1.54 60 17:23 05.04.2021
661 Clouds 23 1016 94 7000 1.03 0 16:45 05.04.2021
662 Clouds 23 1016 94 7000 1.03 0 16:45 05.04.2021
663 Clouds 23 1016 94 7000 1.03 0 16:45 05.04.2021
664 Clouds 23 1016 94 7000 1.54 330 16:22 05.04.2021
665 Clouds 23 1015 94 6000 1.54 40 15:56 05.04.2021
666 Clouds 23 1015 94 6000 2.57 50 15:32 05.04.2021
667 Clouds 23 1014 94 6000 4.12 60 14:59 05.04.2021
668 Clouds 23 1014 94 6000 3.09 70 14:36 05.04.2021
669 Mist 24 1013 88 4600 3.09 60 13:46 05.04.2021
670 Mist 24 1013 88 4600 3.09 60 13:26 05.04.2021
671 Mist 24 1013 88 4500 3.09 70 12:46 05.04.2021
672 Mist 24 1013 88 3400 3.09 80 12:24 05.04.2021
673 Mist 25 1013 83 3900 3.09 80 11:46 05.04.2021
674 Mist 24 1013 88 4800 2.57 60 11:28 05.04.2021
675 Mist 24 1013 88 4200 2.57 70 10:48 05.04.2021
676 Mist 24 1014 88 3700 2.06 60 10:29 05.04.2021
677 Mist 25 1014 83 4200 2.57 100 09:48 05.04.2021
678 Mist 24 1015 88 4700 2.06 100 09:25 05.04.2021
679 Clouds 24 1015 83 8000 2.57 80 08:45 05.04.2021
680 Clouds 24 1015 83 8000 2.57 80 08:26 05.04.2021
681 Clouds 24 1016 83 10000 3.09 80 07:38 05.04.2021
682 Clouds 23 1017 83 10000 3.6 60 06:51 05.04.2021
683 Clouds 21 1016 88 10000 3.6 40 02:36 05.04.2021
684 Clouds 21 1015 94 10000 3.6 50 00:52 05.04.2021
685 Clouds 21 1014 94 10000 3.09 60 23:52 04.04.2021
686 Clouds 21 1014 94 10000 3.09 50 23:29 04.04.2021
687 Clouds 21 1014 94 10000 3.6 60 22:53 04.04.2021
688 Clouds 21 1014 94 10000 4.12 60 22:30 04.04.2021
689 Clouds 21 1014 94 10000 4.12 60 21:48 04.04.2021
690 Clouds 22 1014 94 10000 3.6 60 21:21 04.04.2021
691 Drizzle 22 1015 94 7000 3.6 60 20:37 04.04.2021
692 Drizzle 22 1015 94 7000 3.6 60 20:19 04.04.2021
693 Clouds 22 1015 94 10000 3.6 80 19:38 04.04.2021
694 Clouds 22 1015 94 10000 3.6 80 19:19 04.04.2021
695 Clouds 22 1015 94 10000 4.12 70 18:45 04.04.2021
696 Clouds 22 1016 94 10000 4.12 70 18:24 04.04.2021
697 Clouds 22 1016 94 10000 4.12 50 17:55 04.04.2021
698 Clouds 22 1016 94 9000 2.57 320 17:24 04.04.2021
699 Clouds 22 1015 94 6000 3.6 70 16:52 04.04.2021
700 Rain 23 1014 88 10000 4.12 60 16:21 04.04.2021
701 Clouds 23 1013 94 10000 4.63 70 15:36 04.04.2021
702 Clouds 23 1013 94 10000 4.63 70 14:51 04.04.2021
703 Clouds 23 1012 94 8000 5.66 70 14:28 04.04.2021
704 Clouds 24 1012 94 7000 6.17 70 13:53 04.04.2021
705 Mist 26 1011 94 4200 4.63 100 13:25 04.04.2021
706 Mist 27 1010 83 5000 4.12 110 12:50 04.04.2021
707 Mist 27 1010 83 5000 4.12 110 12:27 04.04.2021
708 Mist 27 1010 89 2600 4.12 100 11:43 04.04.2021
709 Mist 27 1010 89 2600 4.12 100 11:25 04.04.2021
710 Mist 27 1010 89 3300 3.6 90 10:46 04.04.2021
711 Mist 27 1011 83 5000 3.6 90 09:59 04.04.2021
712 Mist 27 1011 83 4700 4.12 90 09:27 04.04.2021
713 Mist 27 1011 89 3300 4.12 90 08:55 04.04.2021
714 Mist 29 1012 79 3500 4.12 80 08:37 04.04.2021
715 Mist 29 1012 79 3500 4.12 80 08:19 04.04.2021
716 Mist 28 1013 83 3000 2.06 120 06:39 04.04.2021
717 Mist 28 1013 78 3400 2.06 90 05:33 04.04.2021
718 Mist 24 1011 100 1600 1.03 70 01:33 04.04.2021
719 Mist 24 1011 100 2800 1.54 60 00:23 04.04.2021
720 Mist 24 1011 100 2800 1.54 60 23:51 03.04.2021
721 Mist 24 1010 100 3300 1.54 110 23:32 03.04.2021
722 Mist 24 1010 100 3200 1.54 90 22:53 03.04.2021
723 Mist 24 1010 100 3400 1.54 100 22:22 03.04.2021
724 Mist 24 1010 94 3400 2.06 100 21:54 03.04.2021
725 Mist 24 1011 100 4100 1.54 90 21:25 03.04.2021
726 Mist 24 1011 94 5000 1.54 70 20:59 03.04.2021
727 Mist 24 1011 94 3900 1.54 70 20:28 03.04.2021
728 Mist 24 1011 94 4200 2.06 80 19:51 03.04.2021
729 Mist 25 1012 94 5000 1.54 80 19:29 03.04.2021
730 Clouds 25 1012 94 6000 2.06 110 18:54 03.04.2021
731 Clouds 25 1012 94 6000 1.03 0 18:36 03.04.2021
732 Clouds 25 1012 94 7000 1.54 110 17:56 03.04.2021
733 Clouds 25 1012 94 7000 1.54 90 17:27 03.04.2021
734 Clouds 25 1011 94 6000 2.57 90 16:55 03.04.2021
735 Clouds 25 1011 94 7000 2.06 100 16:28 03.04.2021
736 Clouds 25 1011 94 6000 2.57 80 15:52 03.04.2021
737 Clouds 25 1010 94 7000 3.09 100 15:32 03.04.2021
738 Clouds 25 1010 94 7000 3.09 100 14:52 03.04.2021
739 Clouds 25 1009 94 8000 3.09 110 14:26 03.04.2021
740 Clouds 25 1009 94 7000 3.09 110 13:55 03.04.2021
741 Clouds 25 1009 100 6000 3.6 100 13:35 03.04.2021
742 Mist 26 1009 94 5000 3.09 110 12:59 03.04.2021
743 Mist 25 1008 100 5000 3.6 110 12:34 03.04.2021
744 Mist 25 1009 100 5000 3.09 130 11:45 03.04.2021
745 Drizzle 25 1009 100 3100 4.63 130 11:26 03.04.2021
746 Drizzle 25 1009 100 1600 4.63 140 10:45 03.04.2021
747 Drizzle 25 1009 100 2100 4.12 120 10:26 03.04.2021
748 Drizzle 25 1009 100 3900 4.63 110 09:39 03.04.2021
749 Drizzle 25 1009 100 3900 4.63 110 09:21 03.04.2021
750 Rain 26 1010 94 8000 4.12 130 08:35 03.04.2021
751 Clouds 27 1011 89 9000 4.12 120 07:40 03.04.2021
752 Clouds 27 1011 89 9000 4.12 120 07:22 03.04.2021
753 Mist 25 1011 100 3800 2.57 110 03:54 03.04.2021
754 Mist 25 1010 94 3000 2.57 90 02:55 03.04.2021
755 Mist 25 1010 94 3200 2.06 90 02:30 03.04.2021
756 Mist 25 1008 94 4400 2.06 80 00:32 03.04.2021
757 Mist 24 1008 100 4200 2.57 110 23:59 02.04.2021
758 Mist 25 1007 94 3700 3.09 100 23:38 02.04.2021
759 Mist 25 1007 94 3700 3.09 100 23:18 02.04.2021
760 Mist 25 1008 94 5000 1.54 90 22:43 02.04.2021
761 Mist 25 1008 94 5000 1.54 90 22:24 02.04.2021
762 Mist 25 1008 94 5000 2.06 80 21:41 02.04.2021
763 Mist 25 1008 94 5000 2.06 80 21:19 02.04.2021
764 Clouds 25 1008 94 6000 3.09 110 20:39 02.04.2021
765 Clouds 25 1008 94 6000 3.09 110 20:20 02.04.2021
766 Clouds 25 1009 94 6000 3.09 100 19:42 02.04.2021
767 Clouds 25 1009 94 6000 3.09 100 19:22 02.04.2021
768 Mist 25 1009 94 5000 2.57 90 18:46 02.04.2021
769 Mist 25 1009 94 4700 2.06 80 18:28 02.04.2021
770 Mist 25 1009 94 5000 2.06 80 17:56 02.04.2021
771 Mist 25 1009 100 4700 2.06 70 17:25 02.04.2021
772 Mist 25 1008 100 3700 2.57 70 16:24 02.04.2021
773 Mist 25 1007 94 4500 2.06 70 15:43 02.04.2021
774 Mist 25 1007 94 4500 2.06 70 15:20 02.04.2021
775 Mist 25 1006 94 4400 2.57 90 14:33 02.04.2021
776 Drizzle 25 1006 94 3800 3.09 110 13:50 02.04.2021
777 Drizzle 25 1005 94 2000 3.6 120 13:28 02.04.2021
778 Mist 25 1005 94 1700 5.14 120 12:55 02.04.2021
779 Mist 25 1005 100 1900 3.6 130 12:21 02.04.2021
780 Mist 26 1005 94 2500 4.12 130 11:59 02.04.2021
781 Mist 26 1005 94 1700 3.09 100 11:38 02.04.2021
782 Mist 26 1005 94 1700 3.09 100 11:18 02.04.2021
783 Clouds 27 1005 89 10000 4.12 110 10:42 02.04.2021
784 Clouds 27 1005 89 10000 4.12 110 10:20 02.04.2021
785 Clouds 27 1006 94 7000 1.54 110 09:39 02.04.2021
786 Clouds 27 1006 94 7000 1.54 110 09:20 02.04.2021
787 Mist 26 1006 100 5000 2.06 140 08:44 02.04.2021
788 Mist 26 1006 94 3200 3.09 130 08:22 02.04.2021
789 Drizzle 26 1008 100 2600 2.57 110 07:20 02.04.2021
790 Mist 26 1008 94 3400 3.09 110 06:31 02.04.2021
791 Drizzle 25 1008 100 1700 3.09 120 03:24 02.04.2021
792 Drizzle 25 1006 94 3800 2.57 120 00:56 02.04.2021
793 Drizzle 25 1006 94 2300 2.06 110 00:38 02.04.2021
794 Mist 25 1005 94 2500 2.57 110 23:43 01.04.2021
795 Mist 25 1005 94 1900 2.57 100 23:25 01.04.2021
796 Clouds 25 1005 94 6000 3.09 120 22:22 01.04.2021
797 Mist 25 1005 94 5000 3.6 120 21:56 01.04.2021
798 Mist 25 1005 100 5000 3.09 110 21:38 01.04.2021
799 Mist 25 1005 100 5000 3.09 110 21:18 01.04.2021
800 Mist 25 1005 94 5000 4.12 120 20:33 01.04.2021
801 Clouds 25 1005 94 8000 3.6 120 19:58 01.04.2021
802 Clouds 25 1005 94 9000 3.6 120 19:39 01.04.2021
803 Clouds 26 1005 89 9000 3.09 130 18:54 01.04.2021
804 Clouds 26 1005 89 9000 3.6 130 18:36 01.04.2021
805 Clouds 26 1005 89 9000 3.6 130 18:18 01.04.2021
806 Clouds 26 1005 94 6000 4.63 120 17:39 01.04.2021
807 Clouds 26 1005 94 6000 4.63 120 17:20 01.04.2021
808 Clouds 26 1004 94 6000 4.63 110 16:41 01.04.2021
809 Mist 26 1003 94 5000 4.63 110 15:49 01.04.2021
810 Clouds 26 1003 94 6000 4.12 100 15:23 01.04.2021
811 Clouds 26 1002 94 6000 4.12 110 14:51 01.04.2021
812 Clouds 26 1002 94 6000 4.12 100 14:29 01.04.2021
813 Clouds 26 1002 94 6000 3.09 90 13:59 01.04.2021
814 Mist 26 1001 94 5000 4.12 100 13:32 01.04.2021
815 Clouds 27 1001 89 6000 4.12 100 12:58 01.04.2021
816 Clouds 27 1001 89 6000 4.12 110 12:37 01.04.2021
817 Clouds 27 1001 89 6000 4.12 110 12:18 01.04.2021
818 Clouds 28 1001 83 7000 4.63 100 11:42 01.04.2021
819 Clouds 28 1001 83 7000 4.63 100 11:18 01.04.2021
820 Clouds 29 1001 79 9000 4.12 100 10:46 01.04.2021
821 Clouds 29 1001 79 8000 4.12 100 10:25 01.04.2021
822 Clouds 29 1002 79 8000 4.12 100 09:32 01.04.2021
823 Clouds 29 1003 79 7000 4.12 100 08:58 01.04.2021
824 Clouds 29 1003 79 7000 3.6 100 08:32 01.04.2021
825 Clouds 28 1005 78 9000 3.09 110 07:22 01.04.2021
826 Clouds 28 1005 83 9000 3.6 100 06:56 01.04.2021
827 Clouds 27 1006 89 9000 3.09 130 06:20 01.04.2021
828 Mist 25 1006 94 4400 3.6 110 03:20 01.04.2021
829 Drizzle 24 1003 100 2200 2.06 100 00:19 01.04.2021
830 Mist 25 1003 94 2700 2.06 100 23:40 31.03.2021
831 Mist 25 1002 94 5000 2.57 100 22:45 31.03.2021
832 Mist 25 1002 94 5000 2.57 100 22:23 31.03.2021
833 Clouds 25 1002 94 6000 3.09 110 21:57 31.03.2021
834 Clouds 25 1002 94 6000 3.09 110 21:39 31.03.2021
835 Clouds 25 1002 94 6000 3.09 110 21:19 31.03.2021
836 Clouds 25 1002 94 6000 3.09 110 20:40 31.03.2021
837 Clouds 25 1002 94 6000 3.09 110 20:21 31.03.2021
838 Mist 25 1003 94 5000 4.12 120 19:42 31.03.2021
839 Mist 25 1003 94 5000 4.12 120 19:20 31.03.2021
840 Clouds 25 1003 94 6000 4.12 130 18:54 31.03.2021
841 Clouds 25 1003 94 6000 4.12 100 18:35 31.03.2021
842 Clouds 25 1002 94 7000 4.12 100 17:41 31.03.2021
843 Clouds 25 1002 94 7000 4.12 100 17:19 31.03.2021
844 Clouds 25 1002 94 7000 3.6 90 16:53 31.03.2021
845 Clouds 25 1002 94 7000 5.14 100 16:34 31.03.2021
846 Clouds 26 1001 89 7000 4.12 100 15:53 31.03.2021
847 Clouds 26 1001 94 7000 3.6 90 15:22 31.03.2021
848 Clouds 26 1000 94 6000 4.63 90 14:50 31.03.2021
849 Clouds 26 1000 94 6000 5.14 90 14:25 31.03.2021
850 Clouds 27 1000 89 5000 5.14 90 13:55 31.03.2021
851 Mist 27 1000 89 5000 4.63 80 13:23 31.03.2021
852 Clouds 28 999 89 7000 5.14 100 12:40 31.03.2021
853 Clouds 28 999 89 7000 5.14 100 12:18 31.03.2021
854 Clouds 29 999 79 6000 4.63 110 11:23 31.03.2021
855 Mist 29 999 79 5000 4.63 110 10:50 31.03.2021
856 Mist 29 1000 79 4400 3.09 90 10:27 31.03.2021
857 Mist 28 1000 83 3700 2.57 100 09:56 31.03.2021
858 Mist 28 1001 83 3300 2.57 90 09:31 31.03.2021
859 Mist 27 1001 89 3300 3.09 110 08:46 31.03.2021
860 Mist 27 1001 89 3500 2.57 100 08:26 31.03.2021
861 Mist 27 1003 89 3300 2.57 100 07:36 31.03.2021
862 Mist 25 1004 94 4100 2.57 140 04:46 31.03.2021
863 Mist 25 1003 94 3700 2.57 100 02:37 31.03.2021
864 Mist 24 1002 100 5000 2.57 100 00:54 31.03.2021
865 Mist 24 1001 100 5000 2.06 90 00:25 31.03.2021
866 Mist 24 1001 100 5000 2.57 110 23:55 30.03.2021
867 Mist 24 1001 100 5000 1.54 80 23:24 30.03.2021
868 Mist 24 1001 100 5000 2.06 80 22:49 30.03.2021
869 Mist 24 1001 100 4300 2.06 90 22:30 30.03.2021
870 Mist 24 1001 100 4900 2.06 60 21:56 30.03.2021
871 Mist 24 1001 100 4900 2.06 60 21:29 30.03.2021
872 Mist 24 1001 100 4900 2.06 60 20:58 30.03.2021
873 Mist 25 1002 94 4700 2.57 70 20:30 30.03.2021
874 Mist 25 1002 94 4700 2.57 70 19:55 30.03.2021
875 Clouds 25 1002 94 6000 3.09 80 19:36 30.03.2021
876 Clouds 25 1003 94 6000 3.09 70 18:47 30.03.2021
877 Mist 25 1003 94 4600 2.57 70 18:24 30.03.2021
878 Mist 25 1003 94 5000 3.09 80 17:45 30.03.2021
879 Rain 25 1003 100 4700 2.57 70 17:26 30.03.2021
880 Mist 25 1002 100 4700 2.57 60 16:47 30.03.2021
881 Mist 25 1002 100 4600 3.09 80 16:25 30.03.2021
882 Mist 25 1001 100 4000 2.57 70 15:36 30.03.2021
883 Mist 25 1001 100 4000 2.57 70 15:18 30.03.2021
884 Mist 25 1001 100 4100 2.57 100 14:43 30.03.2021
885 Mist 26 1001 94 4500 3.09 110 14:19 30.03.2021
886 Rain 26 1000 94 4600 3.09 90 13:44 30.03.2021
887 Rain 26 1000 94 2500 3.09 80 12:58 30.03.2021
888 Rain 26 1000 94 2800 3.09 80 12:39 30.03.2021
889 Rain 26 1000 94 2800 3.09 80 12:20 30.03.2021
890 Mist 27 1000 89 3500 2.57 50 11:40 30.03.2021
891 Mist 27 1000 89 3500 2.57 50 11:18 30.03.2021
892 Mist 26 1001 94 2900 1.54 50 10:40 30.03.2021
893 Mist 26 1001 94 2900 1.54 50 10:18 30.03.2021
894 Mist 26 1001 94 3700 3.09 110 09:38 30.03.2021
895 Mist 26 1001 94 3700 3.09 110 09:20 30.03.2021
896 Mist 26 1002 89 3500 3.09 110 08:41 30.03.2021
897 Mist 26 1003 89 3400 3.6 100 07:53 30.03.2021
898 Mist 26 1004 89 3500 2.57 100 07:23 30.03.2021
899 Mist 26 1004 94 3300 2.57 100 06:19 30.03.2021
900 Mist 25 1005 94 3300 2.06 100 05:24 30.03.2021
901 Drizzle 24 1002 94 1600 3.09 100 01:37 30.03.2021
902 Drizzle 24 1001 94 1600 3.09 100 23:52 29.03.2021
903 Drizzle 24 1001 94 1800 2.57 110 23:18 29.03.2021
904 Drizzle 24 1001 94 2900 3.09 110 22:35 29.03.2021
905 Drizzle 24 1001 94 2600 3.09 110 21:55 29.03.2021
906 Drizzle 24 1002 94 1500 2.57 100 21:33 29.03.2021
907 Drizzle 24 1002 94 2800 4.63 120 20:50 29.03.2021
908 Mist 24 1002 94 1700 2.57 100 20:29 29.03.2021
909 Mist 24 1003 100 1800 4.12 100 19:52 29.03.2021
910 Mist 24 1003 100 1800 4.12 100 19:27 29.03.2021
911 Drizzle 24 1003 100 2400 4.63 120 18:51 29.03.2021
912 Drizzle 24 1003 100 2600 4.12 110 18:27 29.03.2021
913 Mist 25 1004 94 5000 3.09 120 17:52 29.03.2021
914 Mist 25 1004 94 5000 3.09 120 17:32 29.03.2021
915 Clouds 26 1003 94 6000 3.6 110 16:50 29.03.2021
916 Clouds 26 1003 94 6000 3.6 110 16:24 29.03.2021
917 Mist 26 1002 94 5000 3.6 100 15:40 29.03.2021
918 Mist 26 1002 94 5000 3.6 100 15:22 29.03.2021
919 Clouds 26 1002 89 6000 3.09 110 14:46 29.03.2021
920 Mist 26 1001 89 5000 3.6 110 13:56 29.03.2021
921 Mist 27 1001 89 4800 3.6 120 13:36 29.03.2021
922 Mist 27 1001 83 4600 4.12 110 12:57 29.03.2021
923 Mist 27 1001 83 4500 4.12 110 12:39 29.03.2021
924 Mist 28 1001 78 4700 4.12 120 11:43 29.03.2021
925 Mist 28 1001 78 4600 4.12 110 11:25 29.03.2021
926 Mist 28 1001 83 4100 4.12 80 10:45 29.03.2021
927 Mist 29 1002 79 3900 4.12 80 10:19 29.03.2021
928 Mist 28 1003 78 3800 3.6 80 09:31 29.03.2021
929 Mist 27 1004 83 4000 3.09 80 08:30 29.03.2021
930 Mist 28 1004 69 4400 2.06 160 07:54 29.03.2021
931 Mist 27 1006 83 4700 1.03 0 06:57 29.03.2021
932 Mist 26 1007 89 3900 1.54 160 05:45 29.03.2021
933 Mist 23 1007 100 1200 1.54 140 02:27 29.03.2021
934 Mist 23 1006 100 2700 2.57 150 00:26 29.03.2021
935 Mist 23 1005 100 2700 1.54 120 23:55 28.03.2021
936 Mist 23 1005 100 2900 2.06 120 23:24 28.03.2021
937 Mist 23 1005 100 3500 3.09 140 22:42 28.03.2021
938 Mist 23 1005 100 3500 3.09 140 22:24 28.03.2021
939 Mist 23 1006 100 3900 2.06 130 21:46 28.03.2021
940 Mist 23 1006 100 3900 2.06 130 21:24 28.03.2021
941 Mist 23 1006 100 4400 2.06 110 20:51 28.03.2021
942 Mist 23 1006 100 4900 2.57 130 20:33 28.03.2021
943 Mist 23 1007 100 4500 2.57 110 19:55 28.03.2021
944 Mist 23 1007 100 5000 2.57 100 19:37 28.03.2021
945 Mist 23 1007 100 5000 2.57 100 19:18 28.03.2021
946 Clouds 24 1008 94 6000 2.57 120 18:37 28.03.2021
947 Clouds 24 1007 94 7000 2.57 110 17:59 28.03.2021
948 Clouds 24 1007 94 6000 3.6 130 17:36 28.03.2021
949 Clouds 24 1007 94 7000 4.12 130 16:55 28.03.2021
950 Clouds 24 1008 94 6000 2.57 160 16:27 28.03.2021
951 Clouds 24 1007 94 6000 2.06 140 15:50 28.03.2021
952 Clouds 24 1007 94 7000 3.09 120 15:24 28.03.2021
953 Clouds 24 1006 94 7000 4.12 130 14:40 28.03.2021
954 Clouds 24 1006 94 7000 3.09 140 13:59 28.03.2021
955 Rain 24 1006 94 5000 2.57 140 13:34 28.03.2021
956 Rain 24 1006 94 4800 3.09 130 12:55 28.03.2021
957 Drizzle 24 1006 94 2600 3.6 130 12:34 28.03.2021
958 Drizzle 24 1006 94 2600 3.6 130 12:34 28.03.2021
959 Mist 24 1006 100 4600 3.6 130 11:50 28.03.2021
960 Clouds 24 1006 100 6000 2.57 100 11:32 28.03.2021
961 Mist 24 1006 100 5000 2.57 100 10:47 28.03.2021
962 Mist 24 1006 100 2800 2.06 110 10:29 28.03.2021
963 Mist 24 1007 100 2400 2.06 130 09:50 28.03.2021
964 Mist 24 1007 100 2400 3.6 140 09:27 28.03.2021
965 Mist 24 1008 100 2600 3.09 130 08:48 28.03.2021
966 Mist 24 1009 94 1300 2.57 130 08:23 28.03.2021
967 Drizzle 24 1010 100 2200 3.6 120 07:38 28.03.2021
968 Mist 24 1011 94 3000 3.09 80 05:33 28.03.2021
969 Mist 23 1010 100 2500 2.57 80 03:26 28.03.2021
970 Mist 23 1009 94 3200 2.06 70 00:34 28.03.2021
971 Mist 23 1008 94 2800 2.06 80 23:50 27.03.2021
972 Drizzle 23 1008 94 3400 2.57 100 23:32 27.03.2021
973 Drizzle 22 1008 100 2400 2.57 90 22:40 27.03.2021
974 Drizzle 22 1008 100 2400 2.57 90 22:20 27.03.2021
975 Drizzle 22 1008 100 1800 2.57 100 21:41 27.03.2021
976 Drizzle 22 1008 100 1800 2.57 100 21:41 27.03.2021
977 Drizzle 22 1008 100 1800 2.57 100 21:20 27.03.2021
978 Mist 22 1008 100 1700 2.57 90 20:55 27.03.2021
979 Mist 22 1008 100 1700 2.57 90 20:55 27.03.2021
980 Drizzle 22 1008 100 2000 2.57 100 20:36 27.03.2021
981 Drizzle 22 1008 100 2200 2.06 120 19:45 27.03.2021
982 Drizzle 22 1009 100 1800 2.57 110 19:24 27.03.2021
983 Drizzle 22 1009 100 2600 3.09 120 18:56 27.03.2021
984 Drizzle 22 1009 100 3000 2.57 130 18:37 27.03.2021
985 Mist 22 1009 100 3000 2.57 130 18:18 27.03.2021
986 Drizzle 23 1010 94 4500 3.6 160 17:28 27.03.2021
987 Drizzle 23 1010 94 4500 3.6 160 17:28 27.03.2021
988 Drizzle 23 1010 94 4500 3.6 120 16:53 27.03.2021
989 Clouds 23 1010 94 8000 2.57 100 16:31 27.03.2021
990 Clouds 23 1010 94 8000 3.09 120 15:58 27.03.2021
991 Clouds 23 1010 94 9000 4.12 130 15:36 27.03.2021
992 Clouds 23 1009 94 8000 4.63 150 14:54 27.03.2021
993 Clouds 23 1008 94 5000 3.09 130 14:19 27.03.2021
994 Clouds 23 1007 100 6000 4.63 130 13:27 27.03.2021
995 Clouds 23 1007 100 5000 4.63 140 12:56 27.03.2021
996 Clouds 23 1007 100 5000 4.63 140 12:31 27.03.2021
997 Mist 23 1007 100 3000 4.12 130 11:47 27.03.2021
998 Drizzle 23 1007 100 1600 4.63 130 11:27 27.03.2021
999 Drizzle 24 1007 94 3400 4.63 140 10:47 27.03.2021
1000 Mist 24 1007 100 4100 3.6 150 10:24 27.03.2021
1001 Mist 25 1007 94 4200 3.6 150 09:29 27.03.2021
1002 Mist 25 1007 94 4200 3.6 150 09:29 27.03.2021
1003 Mist 24 1007 100 3900 3.6 140 08:48 27.03.2021
1004 Drizzle 24 1008 94 2600 2.57 150 08:30 27.03.2021
1005 Drizzle 24 1009 94 1700 3.09 120 07:35 27.03.2021
1006 Drizzle 24 1010 94 1900 2.57 130 06:47 27.03.2021
1007 Drizzle 23 1010 100 2300 2.06 160 06:28 27.03.2021
1008 Drizzle 23 1012 94 1200 3.09 110 04:40 27.03.2021
1009 Mist 22 1009 100 1400 4.63 120 00:55 27.03.2021
1010 Mist 22 1009 100 2600 4.12 120 00:30 27.03.2021
1011 Drizzle 22 1009 100 2600 4.12 120 23:54 26.03.2021
1012 Mist 22 1009 100 2000 4.12 120 23:21 26.03.2021
1013 Mist 23 1008 94 2800 3.6 120 22:35 26.03.2021
1014 Mist 23 1008 94 3700 3.6 120 21:37 26.03.2021
1015 Mist 23 1008 94 3700 3.6 120 21:18 26.03.2021
1016 Mist 23 1009 94 4800 4.12 130 20:38 26.03.2021
1017 Mist 23 1009 94 4500 4.63 120 20:19 26.03.2021
1018 Mist 23 1009 94 4500 4.63 120 19:47 26.03.2021
1019 Mist 23 1010 94 5000 3.6 110 19:28 26.03.2021
1020 Clouds 23 1011 94 7000 3.6 120 18:42 26.03.2021
1021 Clouds 23 1011 94 7000 3.6 120 18:20 26.03.2021
1022 Clouds 23 1011 94 7000 3.6 140 17:47 26.03.2021
1023 Clouds 24 1011 88 7000 4.12 140 16:56 26.03.2021
1024 Clouds 24 1011 88 7000 4.12 150 16:33 26.03.2021
1025 Clouds 24 1011 88 7000 5.14 140 15:53 26.03.2021
1026 Clouds 24 1011 94 7000 4.63 140 15:23 26.03.2021
1027 Clouds 24 1010 88 6000 4.63 130 14:31 26.03.2021
1028 Clouds 24 1009 94 6000 5.14 120 13:38 26.03.2021
1029 Clouds 24 1009 94 6000 4.63 130 12:54 26.03.2021
1030 Clouds 24 1009 88 8000 4.63 140 12:32 26.03.2021
1031 Mist 24 1009 94 5000 5.14 130 11:35 26.03.2021
1032 Mist 24 1008 94 5000 5.14 120 10:55 26.03.2021
1033 Mist 24 1009 94 4400 4.63 120 10:35 26.03.2021
1034 Mist 24 1009 94 2400 4.12 100 09:44 26.03.2021
1035 Mist 24 1009 94 2400 4.12 100 09:22 26.03.2021
1036 Clouds 28 1008 66 10000 6.82 153 08:40 26.03.2021
1037 Clouds 27 1009 71 10000 6.57 155 08:21 26.03.2021
1038 Mist 24 1012 88 5000 3.09 150 07:23 26.03.2021
1039 Mist 24 1012 88 5000 3.09 150 06:58 26.03.2021
1040 Mist 24 1012 88 5000 3.09 150 06:32 26.03.2021
1041 Mist 24 1013 88 5000 3.09 150 05:30 26.03.2021
1042 Drizzle 22 1013 94 1200 3.09 140 01:58 26.03.2021
1043 Mist 21 1012 100 1200 2.06 140 00:27 26.03.2021
1044 Drizzle 21 1011 100 1300 2.06 120 23:44 25.03.2021
1045 Drizzle 21 1011 100 1100 2.57 110 22:57 25.03.2021
1046 Drizzle 21 1010 100 1300 2.06 100 22:29 25.03.2021
1047 Drizzle 21 1011 100 2000 3.09 120 21:51 25.03.2021
1048 Mist 21 1011 100 2000 2.06 110 21:33 25.03.2021
1049 Mist 21 1011 100 2000 2.06 110 21:33 25.03.2021
1050 Drizzle 21 1011 94 1300 2.57 110 20:45 25.03.2021
1051 Drizzle 21 1011 94 700 2.06 90 20:25 25.03.2021
1052 Mist 21 1012 94 1100 2.06 90 19:45 25.03.2021
1053 Fog 21 1012 94 900 2.06 80 19:27 25.03.2021
1054 Drizzle 21 1013 94 1100 2.06 80 18:47 25.03.2021
1055 Drizzle 20 1013 100 1300 2.06 80 18:26 25.03.2021
1056 Mist 20 1013 100 1300 2.06 80 18:26 25.03.2021
1057 Drizzle 20 1013 100 1400 2.57 80 17:45 25.03.2021
1058 Drizzle 20 1013 100 1600 2.06 90 17:27 25.03.2021
1059 Mist 20 1013 94 1700 2.06 60 16:50 25.03.2021
1060 Drizzle 20 1013 94 1800 1.54 70 16:29 25.03.2021
1061 Mist 20 1013 94 1500 1.54 70 15:43 25.03.2021
1062 Drizzle 20 1013 94 1500 1.54 70 15:20 25.03.2021
1063 Drizzle 20 1012 94 1900 2.57 80 14:46 25.03.2021
1064 Drizzle 20 1012 94 2700 2.57 80 13:52 25.03.2021
1065 Mist 20 1012 94 3300 3.09 80 13:24 25.03.2021
1066 Mist 20 1011 94 2000 3.6 80 12:44 25.03.2021
1067 Mist 20 1011 94 2000 3.6 80 12:20 25.03.2021
1068 Mist 21 1011 94 2000 3.6 80 11:52 25.03.2021
1069 Mist 21 1011 88 2400 3.6 70 11:30 25.03.2021
1070 Mist 21 1011 94 2600 3.09 80 10:54 25.03.2021
1071 Mist 21 1011 94 2700 2.57 70 10:25 25.03.2021
1072 Mist 21 1012 94 2400 2.57 70 09:56 25.03.2021
1073 Mist 20 1012 94 1900 2.57 60 09:38 25.03.2021
1074 Drizzle 20 1013 100 1300 2.06 70 08:57 25.03.2021
1075 Drizzle 20 1013 100 1100 1.54 60 08:28 25.03.2021
1076 Drizzle 20 1014 100 1200 1.03 0 07:19 25.03.2021
1077 Mist 20 1015 94 1600 2.06 40 06:26 25.03.2021
1078 Drizzle 19 1016 100 1300 1.54 60 05:49 25.03.2021
1079 Drizzle 19 1017 100 900 2.06 60 02:48 25.03.2021
1080 Mist 19 1015 94 1100 2.06 100 00:34 25.03.2021
1081 Mist 19 1014 94 2200 3.09 100 23:53 24.03.2021
1082 Mist 20 1014 88 2700 2.57 100 23:29 24.03.2021
1083 Mist 20 1014 88 3600 2.06 150 22:49 24.03.2021
1084 Mist 19 1014 94 2500 1.03 0 22:28 24.03.2021
1085 Mist 19 1014 94 2500 1.03 60 21:44 24.03.2021
1086 Mist 20 1014 88 2800 1.54 110 21:24 24.03.2021
1087 Mist 20 1014 88 4200 2.06 110 20:43 24.03.2021
1088 Mist 20 1014 88 4200 2.06 110 20:20 24.03.2021
1089 Mist 20 1014 88 4600 2.06 120 19:48 24.03.2021
1090 Mist 20 1014 83 5000 2.06 120 19:28 24.03.2021
1091 Mist 20 1015 83 5000 2.57 140 18:49 24.03.2021
1092 Mist 21 1015 78 4900 2.57 140 18:23 24.03.2021
1093 Mist 21 1015 73 5000 2.57 150 17:51 24.03.2021
1094 Mist 21 1015 68 5000 2.57 140 17:31 24.03.2021
1095 Haze 21 1015 68 5000 2.06 160 16:52 24.03.2021
1096 Haze 21 1015 68 5000 2.57 150 16:29 24.03.2021
1097 Haze 21 1015 64 5000 2.57 150 15:50 24.03.2021
1098 Haze 21 1014 64 5000 2.57 140 15:30 24.03.2021
1099 Clouds 21 1014 64 6000 2.57 130 14:47 24.03.2021
1100 Clouds 21 1013 60 6000 3.09 120 14:26 24.03.2021
1101 Clouds 21 1013 60 6000 3.6 120 13:54 24.03.2021
1102 Clouds 21 1013 60 6000 3.09 100 13:27 24.03.2021
1103 Haze 21 1012 60 4000 3.09 110 12:42 24.03.2021
1104 Haze 21 1012 60 4000 3.09 110 12:23 24.03.2021
1105 Haze 21 1012 60 3900 2.57 140 11:44 24.03.2021
1106 Haze 21 1012 60 3600 3.09 170 10:59 24.03.2021
1107 Haze 21 1012 60 3600 3.09 170 10:40 24.03.2021
1108 Haze 21 1012 60 3600 3.09 170 10:20 24.03.2021
1109 Haze 21 1013 60 4500 3.09 170 09:51 24.03.2021
1110 Haze 21 1013 60 5000 2.06 160 09:20 24.03.2021
1111 Clouds 21 1013 56 6000 1.03 0 08:50 24.03.2021
1112 Clouds 21 1014 60 6000 1.03 0 08:25 24.03.2021
1113 Clouds 21 1015 56 6000 1.54 190 07:37 24.03.2021
1114 Clouds 21 1016 56 6000 2.06 160 06:52 24.03.2021
1115 Haze 19 1019 68 5000 1.03 0 03:56 24.03.2021
1116 Mist 18 1018 82 5000 1.54 60 00:48 24.03.2021
1117 Clouds 18 1017 82 6000 1.54 60 23:57 23.03.2021
1118 Clouds 18 1017 82 6000 1.54 50 23:21 23.03.2021
1119 Clouds 18 1017 82 6000 2.06 60 22:52 23.03.2021
1120 Clouds 18 1017 82 6000 1.54 70 22:31 23.03.2021
1121 Clouds 18 1017 82 7000 2.06 80 21:52 23.03.2021
1122 Clouds 18 1017 82 7000 1.54 60 21:33 23.03.2021
1123 Clouds 18 1017 82 6000 1.54 40 20:47 23.03.2021
1124 Clouds 18 1018 82 7000 1.54 50 20:29 23.03.2021
1125 Clouds 18 1018 77 9000 1.54 90 19:57 23.03.2021
1126 Clouds 19 1018 72 9000 2.06 140 19:27 23.03.2021
1127 Clouds 19 1019 68 9000 1.54 140 18:59 23.03.2021
1128 Clouds 18 1019 77 8000 2.57 140 18:37 23.03.2021
1129 Clouds 18 1019 77 8000 2.57 140 18:18 23.03.2021
1130 Clouds 18 1019 68 7000 2.57 150 17:43 23.03.2021
1131 Clear 18 1019 68 7000 2.57 150 17:21 23.03.2021
1132 Clear 19 1019 59 8000 3.6 130 16:25 23.03.2021
1133 Clear 19 1019 52 8000 3.6 120 15:50 23.03.2021
1134 Clear 20 1019 49 9000 3.09 140 15:23 23.03.2021
1135 Clear 20 1018 45 9000 3.09 140 14:45 23.03.2021
1136 Clear 20 1018 45 9000 3.09 140 14:45 23.03.2021
1137 Clear 20 1018 45 9000 2.57 150 14:19 23.03.2021
1138 Clear 20 1017 45 9000 2.57 140 13:45 23.03.2021
1139 Clear 20 1017 45 10000 2.57 160 13:23 23.03.2021
1140 Clear 21 1017 40 10000 2.57 150 12:44 23.03.2021
1141 Clear 21 1016 43 10000 2.57 110 12:23 23.03.2021
1142 Clear 21 1016 43 10000 2.57 110 11:47 23.03.2021
1143 Clear 22 1016 37 10000 2.06 50 10:59 23.03.2021
1144 Clear 22 1016 35 10000 1.54 100 10:41 23.03.2021
1145 Clear 22 1016 35 10000 1.54 100 10:20 23.03.2021
1146 Clear 22 1017 35 10000 1.54 0 09:47 23.03.2021
1147 Clear 22 1017 35 10000 2.06 0 09:22 23.03.2021
1148 Clear 21 1018 35 10000 2.06 330 08:40 23.03.2021
1149 Clear 21 1018 35 10000 2.06 330 08:22 23.03.2021
1150 Clear 21 1019 35 10000 1.54 0 07:59 23.03.2021
1151 Clear 22 1019 33 10000 2.06 340 07:22 23.03.2021
1152 Clear 20 1021 37 10000 2.06 330 06:41 23.03.2021
1153 Clear 19 1024 39 10000 2.06 20 03:23 23.03.2021
1154 Clear 18 1024 48 10000 2.57 360 02:21 23.03.2021
1155 Clear 17 1022 55 10000 0.51 0 23:44 22.03.2021
1156 Clear 17 1022 55 10000 1.54 20 22:56 22.03.2021
1157 Clear 17 1022 55 10000 1.54 20 22:56 22.03.2021
1158 Clear 17 1022 59 10000 1.03 20 22:38 22.03.2021
1159 Clear 17 1022 59 10000 1.03 20 22:20 22.03.2021
1160 Clear 17 1022 55 10000 1.03 60 21:42 22.03.2021
1161 Clear 17 1022 55 10000 1.03 60 21:23 22.03.2021
1162 Clear 17 1023 59 10000 1.03 20 20:42 22.03.2021
1163 Clear 17 1023 59 10000 1.03 0 20:22 22.03.2021
1164 Clear 17 1023 59 10000 1.03 0 19:54 22.03.2021
1165 Clear 17 1023 55 10000 1.54 80 19:34 22.03.2021
1166 Clear 17 1024 55 10000 2.06 70 18:58 22.03.2021
1167 Clear 17 1024 55 10000 1.03 0 18:39 22.03.2021
1168 Clear 17 1024 55 10000 1.03 0 18:21 22.03.2021
1169 Clear 18 1025 45 10000 1.54 20 17:42 22.03.2021
1170 Clear 18 1025 45 10000 1.54 20 17:20 22.03.2021
1171 Clear 18 1025 48 10000 1.54 0 16:45 22.03.2021
1172 Clear 17 1025 55 10000 1.54 20 16:19 22.03.2021
1173 Clear 18 1024 48 10000 1.54 40 15:38 22.03.2021
1174 Clear 18 1024 48 10000 1.54 40 15:18 22.03.2021
1175 Clear 18 1023 45 10000 1.54 40 14:52 22.03.2021
1176 Clear 18 1023 45 10000 1.54 40 14:34 22.03.2021
1177 Clear 18 1022 48 10000 3.09 30 13:48 22.03.2021
1178 Clear 18 1022 48 10000 3.09 30 13:27 22.03.2021
1179 Clear 19 1022 42 10000 2.57 50 12:54 22.03.2021
1180 Clear 19 1022 42 10000 2.57 50 12:25 22.03.2021
1181 Clear 19 1022 42 10000 2.57 40 11:49 22.03.2021
1182 Clear 19 1022 42 10000 2.57 40 11:27 22.03.2021
1183 Clear 20 1022 37 10000 3.6 10 10:45 22.03.2021
1184 Clear 20 1022 37 10000 3.6 10 10:24 22.03.2021
1185 Clear 20 1022 37 10000 3.6 30 09:46 22.03.2021
1186 Clear 20 1022 37 10000 3.6 30 09:26 22.03.2021
1187 Clear 20 1023 40 10000 3.6 10 08:45 22.03.2021
1188 Clear 20 1023 40 10000 3.6 10 08:26 22.03.2021
1189 Clear 20 1024 40 10000 3.6 10 07:47 22.03.2021
1190 Clear 20 1025 40 10000 3.09 360 06:59 22.03.2021
1191 Clear 19 1026 39 10000 3.6 10 06:36 22.03.2021
1192 Clear 18 1026 42 10000 4.12 20 02:47 22.03.2021
1193 Clear 17 1024 48 10000 3.6 20 00:33 22.03.2021
1194 Clear 17 1024 48 10000 3.09 10 23:54 21.03.2021
1195 Clear 17 1023 48 10000 4.12 20 23:20 21.03.2021
1196 Clear 17 1023 48 10000 4.12 20 22:56 21.03.2021
1197 Clear 17 1023 48 10000 4.12 20 22:20 21.03.2021
1198 Clear 18 1023 45 10000 5.14 10 21:41 21.03.2021
1199 Clear 18 1023 45 10000 5.14 10 21:22 21.03.2021
1200 Clear 17 1023 51 10000 5.14 10 20:44 21.03.2021
1201 Clear 17 1023 51 10000 5.14 10 20:26 21.03.2021
1202 Clear 18 1023 48 10000 5.14 360 19:54 21.03.2021
1203 Clear 18 1023 48 10000 5.14 360 19:23 21.03.2021
1204 Clouds 18 1023 48 10000 4.12 10 18:53 21.03.2021
1205 Clouds 18 1023 48 10000 4.63 10 18:27 21.03.2021
1206 Clear 18 1022 48 10000 5.14 10 17:49 21.03.2021
1207 Clouds 18 1022 52 10000 4.63 10 17:22 21.03.2021
1208 Clouds 18 1022 52 10000 5.14 10 16:59 21.03.2021
1209 Clouds 19 1022 48 10000 3.09 340 16:41 21.03.2021
1210 Clouds 19 1022 48 10000 3.09 340 16:22 21.03.2021
1211 Clouds 19 1021 55 10000 2.06 340 15:41 21.03.2021
1212 Clouds 19 1021 55 10000 2.06 340 15:20 21.03.2021
1213 Rain 19 1020 55 10000 3.09 30 14:46 21.03.2021
1214 Rain 19 1020 55 10000 3.6 40 14:26 21.03.2021
1215 Rain 19 1019 55 10000 3.09 60 13:54 21.03.2021
1216 Rain 19 1019 59 10000 2.06 80 13:25 21.03.2021
1217 Clouds 19 1018 63 10000 2.57 360 12:42 21.03.2021
1218 Clouds 19 1018 63 10000 2.57 360 12:23 21.03.2021
1219 Clouds 19 1017 59 10000 3.09 360 11:31 21.03.2021
1220 Rain 19 1016 59 10000 2.06 30 10:59 21.03.2021
1221 Clouds 19 1016 63 10000 2.57 40 10:41 21.03.2021
1222 Clouds 19 1016 63 10000 2.57 40 10:22 21.03.2021
1223 Clouds 19 1016 59 10000 3.09 40 09:44 21.03.2021
1224 Clouds 19 1016 59 10000 5.14 40 09:26 21.03.2021
1225 Clouds 19 1016 63 10000 6.17 50 08:39 21.03.2021
1226 Clouds 19 1016 63 10000 6.69 50 08:21 21.03.2021
1227 Clouds 20 1016 60 10000 7.2 50 07:38 21.03.2021
1228 Clouds 20 1016 60 10000 8.23 50 06:52 21.03.2021
1229 Clouds 20 1017 77 10000 9.26 50 05:25 21.03.2021
1230 Mist 23 1014 100 2700 1.54 60 01:54 21.03.2021
1231 Clouds 24 1011 94 2700 1.54 80 00:41 21.03.2021
1232 Rain 24 1011 94 2700 1.54 80 00:21 21.03.2021
1233 Mist 24 1011 94 5000 2.57 30 23:47 20.03.2021
1234 Mist 23 1010 100 4600 2.06 40 23:20 20.03.2021
1235 Mist 24 1010 94 4000 2.06 70 22:54 20.03.2021
1236 Mist 24 1010 94 2900 2.06 70 22:21 20.03.2021
1237 Mist 24 1010 94 4300 1.54 80 21:45 20.03.2021
1238 Mist 24 1009 94 5000 1.54 80 21:24 20.03.2021
1239 Clouds 24 1009 94 6000 2.06 60 20:45 20.03.2021
1240 Clouds 24 1009 94 6000 2.06 60 20:23 20.03.2021
1241 Mist 24 1009 94 5000 2.06 70 19:49 20.03.2021
1242 Clouds 24 1010 94 6000 1.03 0 19:26 20.03.2021
1243 Clouds 24 1010 94 6000 2.06 100 18:49 20.03.2021
1244 Clouds 24 1010 94 6000 2.57 130 18:26 20.03.2021
1245 Clouds 24 1010 94 7000 2.57 130 17:54 20.03.2021
1246 Clouds 24 1010 94 7000 2.06 130 17:32 20.03.2021
1247 Clouds 24 1010 94 7000 2.57 130 16:47 20.03.2021
1248 Clouds 24 1010 94 8000 3.09 120 16:21 20.03.2021
1249 Clouds 24 1010 94 8000 3.09 120 15:59 20.03.2021
1250 Clouds 24 1010 94 8000 3.09 130 15:39 20.03.2021
1251 Clouds 24 1009 94 7000 3.09 140 14:48 20.03.2021
1252 Clouds 24 1009 94 8000 3.6 140 14:28 20.03.2021
1253 Clouds 24 1008 94 6000 4.12 140 13:40 20.03.2021
1254 Mist 24 1007 94 4000 4.63 120 12:59 20.03.2021
1255 Mist 24 1007 100 2400 3.6 140 12:27 20.03.2021
1256 Mist 24 1007 100 2400 3.6 140 12:27 20.03.2021
1257 Mist 24 1007 100 2400 3.6 140 12:27 20.03.2021
1258 Mist 24 1007 100 2400 3.09 140 11:50 20.03.2021
1259 Mist 24 1006 100 4400 4.12 140 11:29 20.03.2021
1260 Clouds 25 1006 94 8000 4.12 130 10:56 20.03.2021
1261 Clouds 25 1006 94 6000 4.12 120 10:37 20.03.2021
1262 Clouds 26 1006 89 9000 2.57 140 10:18 20.03.2021
1263 Clouds 26 1006 89 10000 2.57 140 09:29 20.03.2021
1264 Clouds 25 1007 94 6000 2.06 140 08:58 20.03.2021
1265 Mist 25 1007 94 4900 2.06 120 08:37 20.03.2021
1266 Mist 25 1008 94 4800 2.06 90 07:54 20.03.2021
1267 Mist 25 1008 94 4900 2.06 140 07:32 20.03.2021
1268 Clouds 25 1009 94 6000 3.6 150 06:55 20.03.2021
1269 Clouds 25 1009 94 6000 2.57 150 06:27 20.03.2021
1270 Clouds 25 1011 94 8000 3.6 130 04:23 20.03.2021
1271 Clouds 25 1011 94 6000 3.09 100 03:42 20.03.2021
1272 Drizzle 23 1009 100 5000 3.09 100 00:35 20.03.2021
1273 Mist 23 1008 100 4200 2.57 110 23:31 19.03.2021
1274 Drizzle 23 1007 100 4400 2.57 110 22:50 19.03.2021
1275 Drizzle 23 1007 94 3500 2.57 100 22:29 19.03.2021
1276 Drizzle 23 1007 100 3400 2.57 110 21:58 19.03.2021
1277 Mist 23 1007 100 2500 2.57 110 21:22 19.03.2021
1278 Mist 24 1008 94 4200 3.09 130 20:59 19.03.2021
1279 Mist 24 1007 94 4400 3.09 120 20:40 19.03.2021
1280 Mist 24 1007 94 4400 3.09 120 20:21 19.03.2021
1281 Clouds 24 1008 94 6000 3.09 120 19:46 19.03.2021
1282 Clouds 24 1008 94 6000 3.6 130 19:20 19.03.2021
1283 Drizzle 24 1009 94 4100 2.06 190 18:40 19.03.2021
1284 Drizzle 24 1009 94 4100 2.06 190 18:19 19.03.2021
1285 Drizzle 24 1009 94 5000 2.57 120 17:52 19.03.2021
1286 Clouds 24 1009 94 9000 3.09 140 17:28 19.03.2021
1287 Clouds 25 1009 83 10000 3.6 140 16:52 19.03.2021
1288 Clouds 25 1009 83 10000 4.63 140 16:27 19.03.2021
1289 Clouds 25 1009 83 10000 4.63 140 15:47 19.03.2021
1290 Clouds 25 1009 83 10000 4.12 140 15:22 19.03.2021
1291 Clouds 25 1008 83 10000 3.09 140 14:46 19.03.2021
1292 Clouds 25 1008 83 10000 4.63 150 14:26 19.03.2021
1293 Clouds 25 1007 83 10000 4.12 140 13:40 19.03.2021
1294 Clouds 25 1007 83 10000 4.12 140 12:51 19.03.2021
1295 Clouds 25 1007 83 10000 5.14 150 12:33 19.03.2021
1296 Clouds 26 1006 78 10000 5.66 150 11:42 19.03.2021
1297 Clouds 27 1006 74 10000 5.14 140 10:54 19.03.2021
1298 Clouds 26 1006 78 10000 5.66 140 10:30 19.03.2021
1299 Clouds 27 1007 74 10000 5.14 130 09:49 19.03.2021
1300 Clouds 27 1007 74 10000 5.14 160 09:30 19.03.2021
1301 Clouds 27 1007 74 10000 5.66 140 08:55 19.03.2021
1302 Clouds 27 1007 74 10000 5.66 150 08:37 19.03.2021
1303 Clouds 27 1008 78 10000 5.66 140 07:58 19.03.2021
1304 Clouds 27 1008 78 10000 5.14 140 07:36 19.03.2021
1305 Clouds 28 1009 65 10000 4.63 140 06:48 19.03.2021
1306 Mist 24 1011 94 4300 2.57 120 02:45 19.03.2021
1307 Mist 23 1010 100 5000 3.6 120 00:52 19.03.2021
1308 Mist 23 1009 100 5000 3.6 120 23:30 18.03.2021
1309 Mist 23 1009 100 5000 3.6 120 23:30 18.03.2021
1310 Mist 23 1009 94 4500 3.6 110 22:58 18.03.2021
1311 Mist 23 1009 94 2400 2.06 100 22:38 18.03.2021
1312 Mist 23 1009 94 2400 2.06 100 22:18 18.03.2021
1313 Mist 23 1009 94 1700 2.57 90 21:39 18.03.2021
1314 Mist 23 1009 94 1700 2.57 90 21:39 18.03.2021
1315 Mist 23 1009 94 2200 2.57 100 20:45 18.03.2021
1316 Mist 23 1009 94 3200 3.09 100 20:25 18.03.2021
1317 Clouds 23 1009 94 6000 3.6 110 19:45 18.03.2021
1318 Clouds 23 1010 94 7000 4.12 110 19:25 18.03.2021
1319 Clouds 23 1010 94 6000 4.12 110 18:55 18.03.2021
1320 Clouds 23 1010 94 6000 4.12 110 18:33 18.03.2021
1321 Clouds 24 1010 88 6000 4.12 120 17:50 18.03.2021
1322 Clouds 24 1010 88 6000 4.12 110 17:25 18.03.2021
1323 Clouds 24 1011 88 7000 4.12 120 16:47 18.03.2021
1324 Clouds 24 1011 88 7000 4.12 120 16:29 18.03.2021
1325 Clouds 24 1010 88 7000 4.12 130 15:46 18.03.2021
1326 Clouds 24 1010 88 7000 5.14 130 15:23 18.03.2021
1327 Clouds 24 1010 88 8000 4.63 130 14:53 18.03.2021
1328 Clouds 25 1010 88 7000 4.63 120 14:32 18.03.2021
1329 Clouds 25 1009 88 7000 5.66 120 13:53 18.03.2021
1330 Clouds 26 1008 78 10000 3.09 130 13:26 18.03.2021
1331 Clouds 26 1008 78 10000 3.09 130 12:44 18.03.2021
1332 Clouds 26 1008 78 10000 3.09 140 12:25 18.03.2021
1333 Clouds 26 1008 78 10000 3.09 150 11:51 18.03.2021
1334 Clouds 26 1008 78 10000 3.6 150 11:31 18.03.2021
1335 Clouds 26 1008 78 10000 4.12 140 10:45 18.03.2021
1336 Clouds 26 1008 78 10000 4.12 150 10:25 18.03.2021
1337 Clouds 26 1008 83 6000 3.09 130 09:54 18.03.2021
1338 Clouds 26 1008 83 6000 3.09 140 09:28 18.03.2021
1339 Clouds 26 1009 83 6000 4.12 140 08:47 18.03.2021
1340 Clouds 26 1009 83 6000 3.6 150 08:29 18.03.2021
1341 Clouds 26 1010 78 6000 4.63 150 07:51 18.03.2021
1342 Clouds 25 1010 88 6000 4.63 150 07:24 18.03.2021
1343 Mist 25 1012 88 5000 4.12 150 06:27 18.03.2021
1344 Mist 25 1012 88 4700 4.12 140 05:42 18.03.2021
1345 Mist 23 1011 94 2100 3.09 100 00:57 18.03.2021
1346 Mist 23 1010 94 5000 3.6 130 23:58 17.03.2021
1347 Mist 23 1010 94 5000 3.6 120 22:47 17.03.2021
1348 Clouds 23 1009 94 6000 3.6 120 22:25 17.03.2021
1349 Clouds 23 1009 94 6000 3.6 110 21:55 17.03.2021
1350 Mist 23 1010 94 5000 2.57 90 21:33 17.03.2021
1351 Mist 23 1010 94 5000 2.57 90 21:33 17.03.2021
1352 Clouds 23 1009 94 6000 3.09 100 20:58 17.03.2021
1353 Clouds 23 1010 94 6000 3.09 100 20:40 17.03.2021
1354 Clouds 23 1010 94 6000 3.09 100 20:21 17.03.2021
1355 Clouds 24 1010 88 7000 3.6 130 19:43 17.03.2021
1356 Clouds 24 1010 88 7000 3.6 130 19:21 17.03.2021
1357 Clouds 24 1011 88 8000 3.6 130 18:52 17.03.2021
1358 Clouds 24 1011 88 9000 3.6 140 18:32 17.03.2021
1359 Clouds 24 1011 88 9000 4.63 140 17:46 17.03.2021
1360 Clouds 24 1011 88 9000 3.6 140 17:23 17.03.2021
1361 Clouds 24 1011 88 10000 3.6 150 16:45 17.03.2021
1362 Clouds 24 1011 88 10000 4.12 150 16:21 17.03.2021
1363 Clouds 24 1011 88 10000 4.12 140 15:49 17.03.2021
1364 Clouds 25 1011 83 10000 3.6 140 15:30 17.03.2021
1365 Clouds 25 1010 83 8000 3.09 150 14:43 17.03.2021
1366 Clouds 25 1010 88 7000 4.12 120 14:21 17.03.2021
1367 Clouds 24 1009 94 6000 3.09 110 13:55 17.03.2021
1368 Clouds 24 1009 94 6000 3.6 110 13:27 17.03.2021
1369 Clouds 24 1009 94 6000 3.6 120 12:50 17.03.2021
1370 Mist 25 1009 88 5000 4.12 110 12:29 17.03.2021
1371 Clouds 25 1009 83 6000 3.6 110 11:43 17.03.2021
1372 Clouds 25 1009 83 7000 4.12 120 11:23 17.03.2021
1373 Clouds 25 1009 88 6000 4.12 110 10:53 17.03.2021
1374 Clouds 25 1009 83 6000 4.63 130 10:24 17.03.2021
1375 Clouds 25 1009 83 7000 4.63 130 09:47 17.03.2021
1376 Clouds 26 1009 73 7000 4.63 160 09:21 17.03.2021
1377 Clouds 26 1009 73 9000 5.66 160 08:55 17.03.2021
1378 Clouds 26 1010 78 8000 4.12 150 08:35 17.03.2021
1379 Clouds 27 1010 69 10000 5.66 140 07:48 17.03.2021
1380 Clouds 26 1011 78 8000 5.14 150 07:19 17.03.2021
1381 Clouds 26 1012 78 8000 4.63 140 06:36 17.03.2021
1382 Clouds 24 1013 88 6000 3.6 130 04:19 17.03.2021
1383 Mist 23 1012 94 5000 4.12 130 02:44 17.03.2021
1384 Mist 23 1011 94 2700 4.12 130 00:39 17.03.2021
1385 Mist 23 1010 94 4900 4.12 120 23:28 16.03.2021
1386 Mist 23 1010 94 5000 4.63 110 22:47 16.03.2021
1387 Mist 23 1009 94 5000 4.12 120 22:28 16.03.2021
1388 Mist 23 1009 94 5000 4.12 110 21:45 16.03.2021
1389 Mist 23 1010 94 5000 3.6 110 21:27 16.03.2021
1390 Mist 23 1010 94 5000 3.6 120 20:58 16.03.2021
1391 Clouds 23 1010 94 6000 3.6 110 20:20 16.03.2021
1392 Clouds 23 1010 94 7000 4.12 120 19:54 16.03.2021
1393 Clouds 23 1010 94 8000 3.09 110 19:36 16.03.2021
1394 Clouds 23 1011 94 8000 3.09 120 18:59 16.03.2021
1395 Clouds 24 1011 88 9000 3.6 140 18:40 16.03.2021
1396 Clouds 24 1011 88 9000 3.6 140 18:20 16.03.2021
1397 Clouds 24 1011 88 9000 4.63 140 17:45 16.03.2021
1398 Clouds 24 1011 88 9000 4.63 140 17:24 16.03.2021
1399 Clouds 24 1011 88 9000 5.14 150 16:50 16.03.2021
1400 Clouds 24 1011 88 10000 5.66 140 16:26 16.03.2021
1401 Clouds 24 1011 88 10000 5.14 140 15:46 16.03.2021
1402 Clouds 24 1011 83 10000 2.57 140 15:21 16.03.2021
1403 Clouds 24 1010 88 10000 3.6 140 14:57 16.03.2021
1404 Clouds 24 1010 83 10000 3.6 140 14:39 16.03.2021
1405 Clouds 24 1010 83 10000 3.6 140 14:19 16.03.2021
1406 Clouds 24 1010 83 10000 3.6 140 13:46 16.03.2021
1407 Clouds 24 1010 83 10000 4.12 140 13:23 16.03.2021
1408 Clouds 24 1009 83 10000 4.63 160 12:48 16.03.2021
1409 Clouds 24 1009 88 8000 5.14 150 12:29 16.03.2021
1410 Mist 23 1009 94 3500 4.63 130 11:38 16.03.2021
1411 Mist 23 1009 94 3400 4.63 140 10:59 16.03.2021
1412 Mist 24 1009 94 3300 4.63 140 10:27 16.03.2021
1413 Clouds 24 1009 94 6000 5.14 140 09:48 16.03.2021
1414 Clouds 24 1009 88 7000 4.12 160 09:29 16.03.2021
1415 Clouds 24 1009 88 7000 4.12 160 09:29 16.03.2021
1416 Clouds 25 1010 83 6000 3.6 150 08:58 16.03.2021
1417 Mist 24 1010 94 4900 3.6 130 08:40 16.03.2021
1418 Mist 24 1010 94 4900 3.6 130 08:19 16.03.2021
1419 Mist 24 1011 94 4100 3.09 120 07:35 16.03.2021
1420 Mist 23 1012 100 3000 4.12 130 06:39 16.03.2021
1421 Mist 23 1013 94 2700 3.09 110 05:40 16.03.2021
1422 Mist 23 1013 94 2700 3.09 110 05:21 16.03.2021
1423 Drizzle 22 1013 100 800 3.09 100 02:45 16.03.2021
1424 Drizzle 22 1012 100 1400 3.6 100 02:23 16.03.2021
1425 Mist 23 1011 94 4700 3.09 100 23:56 15.03.2021
1426 Mist 23 1011 94 4700 3.09 100 23:56 15.03.2021
1427 Mist 23 1011 94 4000 3.6 100 23:28 15.03.2021
1428 Mist 23 1010 94 4400 3.6 110 22:51 15.03.2021
1429 Clouds 23 1010 94 7000 4.12 120 22:33 15.03.2021
1430 Clouds 23 1010 88 8000 4.12 140 21:54 15.03.2021
1431 Clouds 23 1010 94 7000 4.12 130 21:34 15.03.2021
1432 Clouds 23 1010 94 7000 3.6 140 20:57 15.03.2021
1433 Clouds 23 1010 94 7000 3.6 140 20:57 15.03.2021
1434 Clouds 23 1010 94 7000 4.63 130 20:39 15.03.2021
1435 Clouds 23 1010 94 7000 4.63 130 20:20 15.03.2021
1436 Clouds 23 1010 94 7000 4.12 130 19:49 15.03.2021
1437 Clouds 23 1011 94 6000 4.12 120 19:31 15.03.2021
1438 Clouds 24 1011 88 6000 3.6 120 18:50 15.03.2021
1439 Clouds 24 1011 88 8000 3.6 120 18:26 15.03.2021
1440 Clouds 24 1011 88 9000 4.12 140 17:56 15.03.2021
1441 Clouds 24 1012 83 10000 4.12 140 17:32 15.03.2021
1442 Clouds 24 1012 83 10000 4.12 140 16:50 15.03.2021
1443 Clouds 24 1012 83 10000 4.63 130 16:31 15.03.2021
1444 Clouds 24 1011 83 9000 4.63 140 15:45 15.03.2021
1445 Clouds 24 1011 78 10000 4.63 140 15:25 15.03.2021
1446 Clouds 25 1011 69 10000 4.63 150 14:44 15.03.2021
1447 Clouds 25 1010 69 10000 4.12 150 14:22 15.03.2021
1448 Clouds 25 1010 65 10000 4.63 150 13:47 15.03.2021
1449 Clouds 25 1009 69 10000 4.12 150 13:25 15.03.2021
1450 Clouds 25 1009 65 10000 4.12 150 12:48 15.03.2021
1451 Clouds 25 1009 65 10000 4.63 140 12:20 15.03.2021
1452 Clouds 26 1008 61 10000 4.12 150 11:52 15.03.2021
1453 Clouds 26 1008 65 10000 3.6 150 11:32 15.03.2021
1454 Clouds 26 1009 65 10000 4.12 160 10:54 15.03.2021
1455 Clouds 26 1009 61 10000 3.6 160 10:30 15.03.2021
1456 Clouds 26 1009 61 10000 4.12 160 09:52 15.03.2021
1457 Clouds 25 1009 69 10000 3.6 150 09:33 15.03.2021
1458 Clouds 25 1009 65 10000 4.63 150 08:52 15.03.2021
1459 Clouds 25 1010 65 10000 4.12 150 08:30 15.03.2021
1460 Clouds 25 1010 65 10000 4.12 150 08:30 15.03.2021
1461 Clouds 26 1010 65 10000 4.63 160 07:51 15.03.2021
1462 Clouds 26 1011 61 10000 4.12 170 07:31 15.03.2021
1463 Clouds 26 1012 61 10000 5.14 160 06:40 15.03.2021
1464 Clouds 25 1013 69 9000 3.6 160 05:32 15.03.2021
1465 Mist 22 1013 88 2700 2.57 150 01:31 15.03.2021
1466 Mist 21 1011 94 4300 3.09 100 23:54 14.03.2021
1467 Mist 21 1011 94 4100 3.6 90 23:19 14.03.2021
1468 Mist 21 1011 94 4300 3.6 100 22:46 14.03.2021
1469 Mist 21 1011 94 5000 3.09 110 22:19 14.03.2021
1470 Clouds 21 1011 94 6000 3.6 120 21:45 14.03.2021
1471 Mist 22 1011 88 5000 4.12 120 21:18 14.03.2021
1472 Mist 22 1012 88 3900 4.12 130 20:43 14.03.2021
1473 Mist 22 1012 88 3900 4.12 130 20:24 14.03.2021
1474 Mist 22 1012 88 3500 4.12 120 19:43 14.03.2021
1475 Mist 21 1012 94 3400 3.6 110 19:23 14.03.2021
1476 Mist 21 1013 94 3800 3.6 110 18:47 14.03.2021
1477 Mist 22 1013 88 4800 3.6 110 18:22 14.03.2021
1478 Clear 22 1013 88 6000 4.63 140 17:39 14.03.2021
1479 Clear 22 1013 88 6000 4.63 140 17:20 14.03.2021
1480 Clear 23 1013 88 6000 3.6 130 16:46 14.03.2021
1481 Clear 23 1013 88 6000 3.09 140 16:24 14.03.2021
1482 Clear 23 1013 83 7000 4.12 140 15:52 14.03.2021
1483 Clear 23 1012 83 8000 4.12 130 15:30 14.03.2021
1484 Clear 24 1012 78 7000 4.12 130 14:41 14.03.2021
1485 Clear 24 1012 78 7000 4.12 130 14:20 14.03.2021
1486 Clear 24 1011 78 8000 4.63 130 13:48 14.03.2021
1487 Clouds 25 1011 69 8000 4.12 130 13:27 14.03.2021
1488 Clouds 26 1011 61 6000 3.09 130 12:45 14.03.2021
1489 Clouds 26 1011 61 6000 3.09 130 12:26 14.03.2021
1490 Clouds 26 1011 57 9000 5.14 140 11:42 14.03.2021
1491 Clouds 26 1011 57 9000 5.14 140 11:23 14.03.2021
1492 Clouds 27 1011 54 10000 4.12 150 10:38 14.03.2021
1493 Clouds 27 1011 54 10000 4.12 150 10:20 14.03.2021
1494 Clouds 27 1011 54 10000 4.12 160 09:59 14.03.2021
1495 Clouds 27 1011 54 10000 3.09 170 09:41 14.03.2021
1496 Clouds 27 1011 54 10000 3.09 170 09:20 14.03.2021
1497 Clouds 26 1013 57 9000 3.09 180 08:40 14.03.2021
1498 Clouds 26 1013 57 10000 3.09 170 07:59 14.03.2021
1499 Clouds 25 1014 61 9000 2.06 160 07:33 14.03.2021
1500 Clouds 25 1016 65 10000 3.6 160 05:38 14.03.2021
1501 Mist 20 1016 100 1300 2.57 80 01:34 14.03.2021
1502 Mist 20 1016 94 1000 2.57 90 00:49 14.03.2021
1503 Mist 19 1015 100 1800 2.06 100 00:18 14.03.2021
1504 Mist 20 1015 94 1900 2.06 80 23:42 13.03.2021
1505 Mist 20 1015 94 1900 2.06 80 23:19 13.03.2021
1506 Mist 20 1015 94 1900 2.06 80 23:19 13.03.2021
1507 Mist 20 1015 94 1800 1.54 100 22:47 13.03.2021
1508 Mist 20 1015 94 1800 1.54 100 22:47 13.03.2021
1509 Mist 20 1014 94 1800 1.54 90 22:23 13.03.2021
1510 Mist 20 1015 94 1900 2.57 80 21:36 13.03.2021
1511 Mist 20 1015 94 1900 2.57 80 21:18 13.03.2021
1512 Mist 20 1015 94 1900 2.57 80 21:18 13.03.2021
1513 Mist 20 1015 100 2500 1.54 80 20:46 13.03.2021
1514 Mist 21 1015 94 3600 2.06 100 20:25 13.03.2021
1515 Mist 21 1015 94 3400 2.06 80 19:44 13.03.2021
1516 Mist 21 1015 94 4100 2.06 80 19:24 13.03.2021
1517 Mist 22 1016 94 5000 2.06 140 18:42 13.03.2021
1518 Mist 22 1016 94 5000 2.06 140 18:20 13.03.2021
1519 Mist 22 1016 88 5000 1.54 120 17:51 13.03.2021
1520 Mist 22 1016 88 5000 1.54 120 17:31 13.03.2021
1521 Clear 22 1016 88 6000 2.06 150 16:54 13.03.2021
1522 Clear 23 1016 83 6000 2.06 120 16:35 13.03.2021
1523 Clear 23 1016 88 7000 2.57 120 15:56 13.03.2021
1524 Clear 23 1015 88 6000 3.09 130 15:19 13.03.2021
1525 Clear 24 1015 83 6000 2.06 160 14:41 13.03.2021
1526 Clear 24 1015 83 6000 2.06 160 14:21 13.03.2021
1527 Mist 24 1015 83 5000 2.06 170 13:28 13.03.2021
1528 Mist 24 1014 83 5000 2.57 160 12:53 13.03.2021
1529 Mist 24 1014 88 4500 2.57 160 12:35 13.03.2021
1530 Mist 24 1014 88 4600 2.06 170 11:57 13.03.2021
1531 Mist 24 1014 88 4500 1.54 160 11:38 13.03.2021
1532 Mist 24 1014 88 4500 1.54 160 11:19 13.03.2021
1533 Clouds 24 1014 78 6000 2.06 190 10:31 13.03.2021
1534 Clouds 24 1015 73 6000 2.06 180 09:59 13.03.2021
1535 Clouds 25 1015 69 7000 2.06 210 09:32 13.03.2021
1536 Mist 25 1016 78 5000 2.06 190 08:54 13.03.2021
1537 Mist 25 1016 78 4600 1.54 160 08:21 13.03.2021
1538 Mist 24 1016 83 4800 2.06 150 07:57 13.03.2021
1539 Mist 24 1017 83 5000 1.54 130 07:30 13.03.2021
1540 Clouds 25 1019 78 7000 3.09 110 05:29 13.03.2021
1541 Clouds 23 1019 83 9000 2.57 110 02:20 13.03.2021
1542 Clouds 22 1017 94 6000 2.57 110 00:33 13.03.2021
1543 Mist 22 1017 94 5000 3.6 100 23:38 12.03.2021
1544 Mist 22 1017 94 5000 3.6 100 23:20 12.03.2021
1545 Clouds 22 1016 94 7000 3.6 110 22:32 12.03.2021
1546 Clouds 22 1016 94 6000 3.6 100 21:56 12.03.2021
1547 Clouds 22 1016 94 6000 3.6 100 21:56 12.03.2021
1548 Mist 22 1017 94 5000 3.6 90 21:37 12.03.2021
1549 Mist 22 1017 94 5000 3.6 90 21:37 12.03.2021
1550 Mist 22 1017 94 5000 3.6 90 21:37 12.03.2021
1551 Mist 22 1017 94 5000 3.6 90 21:18 12.03.2021
1552 Clouds 22 1017 94 6000 4.12 90 20:47 12.03.2021
1553 Clouds 22 1017 94 6000 3.6 90 20:22 12.03.2021
1554 Mist 22 1017 94 5000 2.57 80 19:44 12.03.2021
1555 Mist 22 1017 94 4600 3.09 100 19:25 12.03.2021
1556 Mist 22 1017 94 4900 4.12 100 18:47 12.03.2021
1557 Mist 22 1017 88 4700 3.6 100 18:25 12.03.2021
1558 Mist 23 1017 88 5000 3.6 120 17:43 12.03.2021
1559 Mist 23 1017 88 5000 3.6 120 17:24 12.03.2021
1560 Mist 23 1017 94 5000 4.63 130 16:44 12.03.2021
1561 Mist 23 1017 94 5000 4.63 130 16:23 12.03.2021
1562 Clouds 24 1016 88 6000 4.12 130 15:38 12.03.2021
1563 Clouds 25 1016 78 7000 3.6 130 14:52 12.03.2021
1564 Clouds 25 1016 73 7000 3.6 150 14:22 12.03.2021
1565 Clouds 25 1016 73 7000 3.6 150 14:22 12.03.2021
1566 Clouds 25 1015 69 9000 3.09 150 13:55 12.03.2021
1567 Clouds 26 1015 65 9000 3.09 140 13:37 12.03.2021
1568 Clouds 26 1015 65 9000 3.09 140 13:18 12.03.2021
1569 Clouds 26 1014 61 9000 4.12 140 12:43 12.03.2021
1570 Clouds 27 1014 57 9000 4.63 140 12:25 12.03.2021
1571 Clear 27 1014 57 10000 4.63 150 11:52 12.03.2021
1572 Clouds 27 1014 57 10000 5.14 140 11:24 12.03.2021
1573 Clouds 28 1014 51 10000 5.14 160 10:55 12.03.2021
1574 Clouds 28 1014 47 10000 4.63 160 10:26 12.03.2021
1575 Clouds 28 1014 51 10000 4.12 160 09:57 12.03.2021
1576 Clear 28 1015 51 10000 3.6 180 09:26 12.03.2021
1577 Clear 28 1015 51 10000 3.09 170 08:46 12.03.2021
1578 Clouds 27 1016 57 10000 4.12 170 07:58 12.03.2021
1579 Clouds 27 1017 57 10000 4.12 160 07:34 12.03.2021
1580 Clouds 26 1018 65 9000 3.6 150 06:53 12.03.2021
1581 Clouds 26 1018 65 9000 3.6 150 06:28 12.03.2021
1582 Clouds 26 1018 65 9000 3.6 150 06:28 12.03.2021
1583 Mist 23 1019 88 4400 2.57 150 02:41 12.03.2021
1584 Mist 22 1018 94 3700 3.09 110 00:47 12.03.2021
1585 Clouds 22 1017 94 6000 3.09 130 23:30 11.03.2021
1586 Clouds 22 1017 94 6000 3.09 130 22:49 11.03.2021
1587 Clouds 22 1017 94 7000 3.6 120 22:29 11.03.2021
1588 Clouds 22 1017 94 9000 3.09 130 21:51 11.03.2021
1589 Clouds 22 1017 94 8000 4.12 120 21:30 11.03.2021
1590 Clouds 22 1017 94 6000 4.12 120 20:54 11.03.2021
1591 Mist 22 1017 94 5000 4.12 120 20:35 11.03.2021
1592 Clouds 22 1017 94 6000 3.6 120 19:59 11.03.2021
1593 Mist 23 1017 88 5000 4.12 120 19:41 11.03.2021
1594 Mist 23 1017 88 5000 4.12 120 19:19 11.03.2021
1595 Clouds 23 1018 88 6000 3.6 130 18:43 11.03.2021
1596 Clouds 23 1018 88 6000 4.12 130 18:24 11.03.2021
1597 Clouds 23 1018 88 7000 3.6 120 17:42 11.03.2021
1598 Clouds 24 1017 88 7000 4.12 120 16:43 11.03.2021
1599 Clouds 24 1017 83 7000 3.09 110 16:25 11.03.2021
1600 Clear 24 1017 83 9000 3.09 120 15:45 11.03.2021
1601 Clear 24 1017 78 10000 3.09 100 15:21 11.03.2021
1602 Clear 24 1017 78 10000 3.09 100 15:21 11.03.2021
1603 Clear 24 1017 78 10000 3.09 100 15:21 11.03.2021
1604 Clear 25 1017 69 10000 3.6 130 14:46 11.03.2021
1605 Clear 25 1016 73 10000 3.09 130 14:19 11.03.2021
1606 Clear 25 1016 73 10000 3.09 120 13:46 11.03.2021
1607 Clear 25 1015 69 10000 3.09 140 13:24 11.03.2021
1608 Clear 25 1015 69 10000 4.12 140 12:57 11.03.2021
1609 Clouds 26 1015 61 10000 5.14 150 12:36 11.03.2021
1610 Clouds 26 1015 61 10000 5.14 150 12:18 11.03.2021
1611 Clouds 26 1014 65 10000 4.63 140 11:42 11.03.2021
1612 Clouds 26 1014 65 10000 4.63 140 11:20 11.03.2021
1613 Clouds 27 1014 61 10000 5.66 160 10:28 11.03.2021
1614 Clouds 26 1014 65 10000 5.66 160 09:54 11.03.2021
1615 Clouds 25 1015 78 10000 4.12 150 09:34 11.03.2021
1616 Clouds 25 1015 78 10000 4.12 140 08:59 11.03.2021
1617 Clouds 25 1016 83 10000 3.6 150 08:40 11.03.2021
1618 Clouds 25 1016 78 10000 4.63 130 07:59 11.03.2021
1619 Clouds 25 1017 78 10000 4.63 120 07:21 11.03.2021
1620 Clouds 25 1017 83 10000 4.63 140 06:48 11.03.2021
1621 Clouds 25 1018 78 8000 3.6 130 06:23 11.03.2021
1622 Mist 23 1019 88 3900 3.6 110 02:48 11.03.2021
1623 Clouds 22 1017 94 8000 3.09 100 00:34 11.03.2021
1624 Clouds 22 1016 94 8000 4.12 110 23:23 10.03.2021
1625 Mist 22 1016 94 5000 3.6 90 22:42 10.03.2021
1626 Mist 22 1016 94 5000 3.6 90 22:21 10.03.2021
1627 Mist 22 1016 94 4500 3.09 90 21:44 10.03.2021
1628 Mist 22 1016 94 4500 3.09 90 21:44 10.03.2021
1629 Mist 22 1016 94 5000 3.09 100 21:22 10.03.2021
1630 Mist 22 1016 94 5000 3.09 100 21:22 10.03.2021
1631 Clouds 22 1016 94 7000 2.57 110 20:45 10.03.2021
1632 Clouds 22 1017 94 6000 3.09 120 20:27 10.03.2021
1633 Mist 22 1017 94 5000 3.09 120 19:48 10.03.2021
1634 Clouds 23 1017 88 6000 3.6 120 19:27 10.03.2021
1635 Mist 23 1017 88 5000 4.12 120 18:44 10.03.2021
1636 Clouds 23 1017 88 6000 4.63 130 18:24 10.03.2021
1637 Clouds 23 1017 88 6000 4.63 130 17:55 10.03.2021
1638 Clouds 23 1017 88 7000 5.14 120 17:36 10.03.2021
1639 Clouds 23 1016 88 7000 4.63 120 17:18 10.03.2021
1640 Clouds 23 1016 88 8000 4.63 130 16:41 10.03.2021
1641 Clouds 23 1016 88 8000 4.63 130 16:22 10.03.2021
1642 Clouds 24 1015 83 9000 4.63 120 15:44 10.03.2021
1643 Clouds 24 1015 83 9000 4.63 120 15:23 10.03.2021
1644 Clouds 24 1015 78 10000 5.66 140 14:48 10.03.2021
1645 Clouds 24 1014 78 10000 5.66 130 14:20 10.03.2021
1646 Clouds 24 1014 78 10000 5.66 130 14:20 10.03.2021
1647 Clouds 24 1014 78 10000 5.66 130 13:51 10.03.2021
1648 Clouds 25 1013 69 10000 6.69 140 13:27 10.03.2021
1649 Clouds 25 1013 69 10000 6.17 130 12:45 10.03.2021
1650 Clouds 26 1012 65 10000 6.17 140 12:19 10.03.2021
1651 Clouds 27 1012 61 10000 6.17 140 11:32 10.03.2021
1652 Clouds 27 1012 61 10000 7.2 150 10:59 10.03.2021
1653 Clouds 27 1012 61 10000 6.17 150 10:41 10.03.2021
1654 Clouds 27 1012 61 10000 6.17 150 10:23 10.03.2021
1655 Clouds 27 1012 61 10000 6.17 150 09:45 10.03.2021
1656 Clouds 27 1012 61 10000 5.66 150 09:24 10.03.2021
1657 Clouds 27 1012 61 10000 5.66 150 09:24 10.03.2021
1658 Clouds 27 1013 61 10000 6.17 150 08:57 10.03.2021
1659 Clouds 27 1013 61 10000 7.2 140 08:39 10.03.2021
1660 Clouds 27 1013 61 10000 7.2 140 08:20 10.03.2021
1661 Clouds 27 1015 65 10000 5.14 170 07:31 10.03.2021
1662 Clouds 26 1015 69 10000 5.14 160 06:56 10.03.2021
1663 Clouds 26 1016 78 10000 5.66 140 06:32 10.03.2021
1664 Mist 22 1018 94 3100 2.57 90 02:41 10.03.2021
1665 Mist 22 1015 94 4200 4.63 120 23:52 09.03.2021
1666 Mist 22 1015 94 5000 3.6 130 23:20 09.03.2021
1667 Clouds 22 1015 94 6000 3.09 130 22:39 09.03.2021
1668 Clouds 22 1015 94 6000 3.09 130 22:21 09.03.2021
1669 Clouds 22 1015 94 7000 3.6 130 21:46 09.03.2021
1670 Clouds 22 1015 94 7000 3.6 130 21:25 09.03.2021
1671 Clouds 22 1016 94 9000 2.06 120 20:58 09.03.2021
1672 Clouds 22 1016 94 9000 2.57 110 20:39 09.03.2021
1673 Clouds 22 1016 94 9000 2.57 110 20:20 09.03.2021
1674 Clouds 22 1016 94 8000 3.6 110 19:46 09.03.2021
1675 Clouds 22 1016 94 8000 3.09 100 19:26 09.03.2021
1676 Clouds 22 1017 94 7000 3.6 100 18:48 09.03.2021
1677 Clouds 22 1017 94 7000 4.12 110 18:25 09.03.2021
1678 Clouds 23 1017 88 8000 3.6 100 17:51 09.03.2021
1679 Clouds 23 1017 94 10000 5.14 110 17:30 09.03.2021
1680 Clouds 23 1017 94 9000 4.12 120 16:47 09.03.2021
1681 Clouds 23 1017 94 9000 4.12 100 16:26 09.03.2021
1682 Clouds 23 1017 94 9000 4.12 110 15:59 09.03.2021
1683 Clouds 24 1017 88 10000 4.12 120 15:36 09.03.2021
1684 Clouds 24 1017 88 10000 4.12 120 15:18 09.03.2021
1685 Clouds 24 1016 88 10000 5.14 140 14:28 09.03.2021
1686 Clouds 24 1016 88 10000 5.14 140 14:28 09.03.2021
1687 Clouds 24 1015 83 10000 5.14 130 13:47 09.03.2021
1688 Clouds 24 1015 83 10000 4.63 140 13:22 09.03.2021
1689 Clouds 25 1014 78 10000 6.17 130 12:59 09.03.2021
1690 Clouds 25 1014 83 10000 5.66 130 12:38 09.03.2021
1691 Clouds 25 1014 78 10000 5.66 130 11:59 09.03.2021
1692 Clouds 25 1014 78 10000 5.14 140 11:39 09.03.2021
1693 Clouds 25 1014 78 10000 5.14 140 11:20 09.03.2021
1694 Clouds 25 1013 78 10000 5.14 130 10:41 09.03.2021
1695 Clouds 25 1013 78 10000 5.14 130 10:23 09.03.2021
1696 Clouds 26 1013 73 10000 5.66 140 09:58 09.03.2021
1697 Clouds 25 1014 83 10000 5.66 130 09:37 09.03.2021
1698 Clouds 25 1014 83 10000 5.66 130 09:18 09.03.2021
1699 Clouds 26 1014 73 10000 5.14 140 08:35 09.03.2021
1700 Clouds 25 1015 83 8000 5.66 140 07:48 09.03.2021
1701 Clouds 25 1015 83 8000 5.66 140 07:28 09.03.2021
1702 Clouds 25 1015 83 8000 5.66 140 07:28 09.03.2021
1703 Clouds 25 1015 83 8000 5.66 140 07:28 09.03.2021
1704 Clouds 25 1016 83 9000 4.63 140 06:59 09.03.2021
1705 Clouds 24 1017 88 7000 4.12 140 05:53 09.03.2021
1706 Mist 22 1017 100 2800 3.6 130 01:48 09.03.2021
1707 Mist 22 1015 100 4100 2.57 130 23:59 08.03.2021
1708 Mist 22 1015 100 3300 2.57 130 23:39 08.03.2021
1709 Mist 22 1015 100 3300 2.57 130 23:19 08.03.2021
1710 Mist 22 1014 100 3100 2.57 110 22:40 08.03.2021
1711 Mist 22 1014 100 3100 2.57 110 22:40 08.03.2021
1712 Mist 22 1014 100 3100 2.57 110 22:21 08.03.2021
1713 Mist 22 1015 100 2500 2.06 100 21:50 08.03.2021
1714 Mist 22 1015 100 2500 2.06 100 21:50 08.03.2021
1715 Mist 22 1015 100 2900 1.54 80 21:29 08.03.2021
1716 Mist 22 1015 100 4200 2.57 110 20:43 08.03.2021
1717 Mist 22 1015 100 4200 2.57 110 20:22 08.03.2021
1718 Mist 22 1015 100 3500 3.09 120 19:46 08.03.2021
1719 Mist 22 1016 100 4600 3.6 120 19:24 08.03.2021
1720 Mist 22 1016 100 5000 3.6 110 18:38 08.03.2021
1721 Mist 22 1016 100 5000 3.6 110 18:19 08.03.2021
1722 Mist 22 1016 100 5000 3.6 110 18:19 08.03.2021
1723 Mist 22 1016 100 4300 3.09 80 17:44 08.03.2021
1724 Mist 22 1016 100 4900 3.6 100 17:23 08.03.2021
1725 Mist 22 1017 100 4500 3.09 100 16:43 08.03.2021
1726 Mist 22 1017 100 4700 3.09 110 16:24 08.03.2021
1727 Mist 23 1016 94 4900 3.6 100 15:45 08.03.2021
1728 Mist 23 1016 94 4600 3.09 100 15:23 08.03.2021
1729 Mist 23 1015 94 5000 3.09 80 14:22 08.03.2021
1730 Mist 23 1015 94 4500 2.06 90 13:58 08.03.2021
1731 Mist 23 1015 94 5000 2.57 90 13:24 08.03.2021
1732 Mist 23 1014 94 4100 3.09 90 12:58 08.03.2021
1733 Mist 23 1014 94 3100 3.09 90 12:35 08.03.2021
1734 Mist 23 1014 94 3300 4.12 110 11:55 08.03.2021
1735 Mist 23 1013 94 3300 5.14 130 11:34 08.03.2021
1736 Mist 23 1014 94 3400 3.6 130 10:57 08.03.2021
1737 Mist 23 1014 94 3900 4.12 140 10:39 08.03.2021
1738 Mist 23 1014 94 3900 4.12 140 10:18 08.03.2021
1739 Mist 24 1014 88 4800 4.12 140 09:29 08.03.2021
1740 Mist 23 1014 94 4800 4.12 140 08:52 08.03.2021
1741 Mist 23 1015 88 5000 3.6 160 08:25 08.03.2021
1742 Mist 22 1016 94 2300 3.09 170 07:22 08.03.2021
1743 Mist 22 1018 94 1800 3.6 140 05:46 08.03.2021
1744 Drizzle 20 1019 100 750 1.03 0 02:43 08.03.2021
1745 Mist 20 1017 100 3600 0.51 80 00:43 08.03.2021
1746 Mist 20 1016 94 3700 1.03 0 23:53 07.03.2021
1747 Mist 20 1016 100 3700 1.54 110 23:22 07.03.2021
1748 Mist 20 1015 100 3700 2.06 160 22:49 07.03.2021
1749 Mist 20 1015 94 4000 3.09 160 22:28 07.03.2021
1750 Mist 20 1016 94 4700 2.06 180 21:53 07.03.2021
1751 Mist 20 1016 94 4700 2.06 180 21:53 07.03.2021
1752 Mist 20 1016 94 5000 3.09 170 21:33 07.03.2021
1753 Mist 20 1016 94 5000 2.57 160 20:59 07.03.2021
1754 Mist 20 1017 94 5000 2.06 170 20:40 07.03.2021
1755 Mist 20 1017 94 5000 2.06 170 20:19 07.03.2021
1756 Mist 20 1017 94 5000 2.06 170 20:19 07.03.2021
1757 Mist 21 1017 88 4800 3.09 150 19:41 07.03.2021
1758 Mist 21 1017 88 4800 3.09 150 19:22 07.03.2021
1759 Clouds 22 1017 78 7000 3.09 170 18:54 07.03.2021
1760 Clouds 22 1017 73 9000 2.57 160 18:21 07.03.2021
1761 Clouds 22 1018 73 9000 3.09 150 17:59 07.03.2021
1762 Clouds 22 1018 73 10000 4.12 160 17:39 07.03.2021
1763 Clouds 22 1018 73 10000 4.12 160 17:19 07.03.2021
1764 Clouds 23 1018 68 9000 4.12 160 16:43 07.03.2021
1765 Clouds 23 1018 68 9000 4.12 160 16:21 07.03.2021
1766 Clouds 23 1017 68 8000 4.63 160 15:50 07.03.2021
1767 Clouds 23 1017 73 6000 2.57 170 15:31 07.03.2021
1768 Mist 23 1017 78 5000 2.57 160 14:51 07.03.2021
1769 Clouds 23 1016 73 6000 2.57 140 14:29 07.03.2021
1770 Clouds 23 1016 68 6000 2.06 140 13:48 07.03.2021
1771 Clouds 23 1015 68 6000 2.06 160 13:26 07.03.2021
1772 Clouds 24 1015 64 6000 2.57 160 12:48 07.03.2021
1773 Clouds 24 1015 60 6000 2.57 160 12:30 07.03.2021
1774 Clouds 24 1014 60 6000 2.57 150 11:53 07.03.2021
1775 Clouds 24 1014 60 6000 2.06 160 11:23 07.03.2021
1776 Clouds 25 1014 53 7000 2.06 200 10:51 07.03.2021
1777 Clouds 24 1014 57 8000 2.06 170 10:33 07.03.2021
1778 Clear 24 1015 57 10000 2.06 200 09:52 07.03.2021
1779 Clouds 25 1015 57 10000 1.54 180 09:27 07.03.2021
1780 Clouds 24 1015 57 10000 2.06 120 08:55 07.03.2021
1781 Clouds 25 1016 53 10000 2.06 120 08:37 07.03.2021
1782 Clouds 25 1016 53 10000 2.06 120 08:19 07.03.2021
1783 Clouds 22 1019 60 10000 4.12 50 02:44 07.03.2021
1784 Clouds 22 1018 64 10000 4.63 50 02:24 07.03.2021
1785 Clouds 22 1016 78 10000 4.63 40 00:24 07.03.2021
1786 Clouds 22 1016 78 10000 4.12 50 23:39 06.03.2021
1787 Mist 23 1015 94 5000 3.6 40 22:57 06.03.2021
1788 Clouds 22 1015 100 6000 2.06 80 22:38 06.03.2021
1789 Clouds 22 1015 100 6000 2.06 80 22:19 06.03.2021
1790 Mist 22 1015 100 4700 1.54 120 21:25 06.03.2021
1791 Mist 22 1015 100 5000 1.54 60 20:59 06.03.2021
1792 Mist 22 1015 100 4600 1.54 70 20:40 06.03.2021
1793 Clouds 22 1015 100 6000 1.54 0 19:51 06.03.2021
1794 Clouds 23 1016 94 8000 2.06 90 19:23 06.03.2021
1795 Clouds 23 1016 94 8000 2.57 110 18:57 06.03.2021
1796 Clouds 23 1016 94 8000 2.06 120 18:38 06.03.2021
1797 Clouds 23 1016 94 8000 2.06 120 18:19 06.03.2021
1798 Clouds 23 1016 94 9000 1.54 110 17:47 06.03.2021
1799 Clouds 23 1016 94 9000 2.57 100 17:26 06.03.2021
1800 Clouds 24 1016 88 9000 3.09 110 16:52 06.03.2021
1801 Clouds 24 1015 88 10000 3.6 110 16:30 06.03.2021
1802 Clouds 24 1015 88 10000 4.12 100 15:55 06.03.2021
1803 Clouds 24 1015 88 10000 3.09 110 15:34 06.03.2021
1804 Clouds 24 1014 88 10000 4.12 120 14:54 06.03.2021
1805 Clouds 24 1014 88 10000 3.6 140 14:31 06.03.2021
1806 Clouds 24 1013 94 6000 3.09 110 13:46 06.03.2021
1807 Clouds 24 1013 94 6000 3.09 110 13:24 06.03.2021
1808 Mist 24 1012 94 4000 3.6 110 12:48 06.03.2021
1809 Mist 24 1012 88 3100 4.12 100 12:20 06.03.2021
1810 Mist 25 1012 88 3400 5.14 110 11:57 06.03.2021
1811 Mist 26 1012 78 4200 5.14 110 11:22 06.03.2021
1812 Mist 27 1011 69 4900 4.12 130 10:52 06.03.2021
1813 Clouds 27 1011 65 6000 3.6 140 10:28 06.03.2021
1814 Clouds 27 1011 65 6000 4.12 100 09:50 06.03.2021
1815 Clouds 27 1012 61 7000 3.09 80 09:21 06.03.2021
1816 Clouds 27 1012 61 8000 2.57 80 08:52 06.03.2021
1817 Clouds 27 1012 61 9000 1.54 0 08:22 06.03.2021
1818 Clouds 27 1013 61 10000 1.03 0 07:41 06.03.2021
1819 Clouds 27 1013 61 10000 1.03 0 07:20 06.03.2021
1820 Mist 24 1016 83 5000 4.12 290 05:38 06.03.2021
1821 Mist 20 1015 100 1900 2.06 290 02:39 06.03.2021
1822 Drizzle 20 1014 94 10000 1.54 290 01:27 06.03.2021
1823 Mist 20 1014 94 3400 1.54 0 00:39 06.03.2021
1824 Drizzle 20 1013 94 2300 1.54 300 23:31 05.03.2021
1825 Drizzle 20 1013 94 1800 2.06 300 22:51 05.03.2021
1826 Drizzle 20 1012 94 1700 2.06 300 22:25 05.03.2021
1827 Drizzle 20 1012 94 1600 2.06 310 21:57 05.03.2021
1828 Drizzle 20 1012 94 1300 1.54 310 21:39 05.03.2021
1829 Drizzle 20 1012 94 1600 1.03 0 20:59 05.03.2021
1830 Drizzle 20 1012 94 1500 1.03 320 20:41 05.03.2021
1831 Drizzle 20 1012 94 1500 1.03 320 20:23 05.03.2021
1832 Drizzle 20 1013 94 1400 1.54 330 19:43 05.03.2021
1833 Drizzle 20 1013 94 1400 1.54 330 19:21 05.03.2021
1834 Mist 20 1013 94 1900 2.06 330 18:44 05.03.2021
1835 Mist 20 1013 94 2100 2.06 40 18:25 05.03.2021
1836 Drizzle 20 1013 94 1700 2.06 70 17:39 05.03.2021
1837 Drizzle 20 1013 94 1700 2.06 70 17:20 05.03.2021
1838 Mist 20 1012 94 1600 2.57 60 16:41 05.03.2021
1839 Mist 20 1012 94 1600 2.57 60 16:22 05.03.2021
1840 Mist 20 1012 94 1600 1.54 80 15:53 05.03.2021
1841 Mist 20 1012 94 1400 1.03 0 15:26 05.03.2021
1842 Mist 20 1011 94 1400 1.54 60 14:39 05.03.2021
1843 Mist 20 1011 94 1400 1.54 60 14:19 05.03.2021
1844 Mist 20 1010 94 1300 1.54 40 13:40 05.03.2021
1845 Mist 20 1010 94 1300 1.54 40 13:19 05.03.2021
1846 Drizzle 20 1010 94 1200 1.54 50 12:30 05.03.2021
1847 Drizzle 20 1010 94 900 2.06 60 11:37 05.03.2021
1848 Drizzle 20 1010 94 900 2.06 60 11:18 05.03.2021
1849 Drizzle 20 1010 94 1000 1.54 70 10:42 05.03.2021
1850 Drizzle 20 1010 94 1000 1.54 70 10:23 05.03.2021
1851 Mist 20 1010 94 1200 1.54 60 09:50 05.03.2021
1852 Drizzle 20 1010 94 1300 1.54 90 09:27 05.03.2021
1853 Drizzle 20 1011 94 1300 1.03 0 08:46 05.03.2021
1854 Drizzle 20 1011 94 1300 1.03 0 08:27 05.03.2021
1855 Drizzle 20 1011 94 1200 1.03 0 07:55 05.03.2021
1856 Mist 20 1012 88 1700 1.54 90 07:28 05.03.2021
1857 Drizzle 20 1013 94 1200 1.54 80 06:33 05.03.2021
1858 Mist 20 1015 88 2200 1.03 0 05:32 05.03.2021
1859 Mist 18 1014 94 2600 1.03 70 00:49 05.03.2021
1860 Mist 18 1015 94 3700 3.09 290 23:43 04.03.2021
1861 Drizzle 18 1014 94 3300 1.03 0 22:55 04.03.2021
1862 Drizzle 18 1013 94 2400 3.09 80 22:26 04.03.2021
1863 Drizzle 18 1013 94 1800 1.54 90 21:51 04.03.2021
1864 Drizzle 17 1014 94 2100 1.54 20 21:29 04.03.2021
1865 Drizzle 17 1014 94 3100 2.06 40 20:42 04.03.2021
1866 Drizzle 17 1014 94 3100 2.06 40 20:23 04.03.2021
1867 Drizzle 17 1014 94 3200 1.54 40 19:58 04.03.2021
1868 Drizzle 17 1014 94 2800 2.06 40 19:39 04.03.2021
1869 Drizzle 17 1014 94 2800 2.06 40 19:19 04.03.2021
1870 Drizzle 17 1015 94 2000 1.54 20 18:41 04.03.2021
1871 Drizzle 17 1015 94 2000 1.54 20 18:20 04.03.2021
1872 Drizzle 17 1015 94 1700 2.06 70 17:43 04.03.2021
1873 Drizzle 17 1015 94 1700 2.06 70 17:22 04.03.2021
1874 Drizzle 17 1015 94 1700 1.54 60 16:44 04.03.2021
1875 Drizzle 17 1015 94 1700 1.54 60 16:24 04.03.2021
1876 Drizzle 17 1015 94 1900 2.06 40 15:48 04.03.2021
1877 Drizzle 17 1014 94 1900 2.06 40 15:30 04.03.2021
1878 Drizzle 17 1014 94 1900 1.54 50 14:45 04.03.2021
1879 Drizzle 17 1014 94 2200 2.06 50 14:22 04.03.2021
1880 Mist 17 1013 94 2500 2.06 60 13:45 04.03.2021
1881 Drizzle 17 1013 94 3300 1.54 50 13:23 04.03.2021
1882 Drizzle 17 1013 94 2500 2.06 70 12:44 04.03.2021
1883 Drizzle 17 1013 94 2500 2.06 70 12:20 04.03.2021
1884 Mist 18 1013 88 4200 2.57 80 11:42 04.03.2021
1885 Mist 18 1013 88 4200 2.57 80 11:20 04.03.2021
1886 Mist 18 1013 88 5000 2.57 50 10:37 04.03.2021
1887 Mist 18 1013 88 5000 2.57 50 10:18 04.03.2021
1888 Clouds 18 1014 88 6000 3.09 60 09:32 04.03.2021
1889 Clouds 19 1014 82 8000 2.57 70 08:56 04.03.2021
1890 Clouds 18 1015 82 8000 2.57 50 08:32 04.03.2021
1891 Clouds 18 1015 88 8000 2.06 40 07:46 04.03.2021
1892 Clouds 18 1017 88 8000 3.09 50 06:50 04.03.2021
1893 Clouds 17 1017 88 7000 2.57 40 06:21 04.03.2021
1894 Mist 17 1019 94 5000 2.06 40 02:39 04.03.2021
1895 Clouds 16 1017 94 7000 1.54 10 00:31 04.03.2021
1896 Clouds 16 1017 88 7000 3.09 30 22:39 03.03.2021
1897 Clouds 16 1017 88 7000 3.09 30 22:21 03.03.2021
1898 Clouds 16 1018 94 6000 2.06 20 21:41 03.03.2021
1899 Clouds 16 1018 94 6000 2.06 20 21:23 03.03.2021
1900 Clouds 16 1018 94 6000 2.06 20 20:55 03.03.2021
1901 Mist 16 1018 88 4600 2.06 10 20:36 03.03.2021
1902 Mist 16 1018 88 4600 2.06 10 20:36 03.03.2021
1903 Mist 16 1018 88 4600 2.06 10 20:36 03.03.2021
1904 Mist 16 1018 94 4000 2.06 10 19:51 03.03.2021
1905 Rain 16 1018 94 4900 2.57 50 19:32 03.03.2021
1906 Mist 16 1018 94 4500 2.57 60 18:58 03.03.2021
1907 Clouds 16 1019 88 6000 1.54 40 18:39 03.03.2021
1908 Clouds 17 1019 82 7000 1.54 50 17:58 03.03.2021
1909 Clouds 17 1019 88 6000 2.57 40 17:22 03.03.2021
1910 Mist 17 1019 88 5000 2.57 50 16:55 03.03.2021
1911 Mist 17 1019 88 5000 2.57 60 16:27 03.03.2021
1912 Clouds 17 1019 88 7000 2.57 50 15:57 03.03.2021
1913 Clouds 17 1019 88 7000 2.06 50 15:33 03.03.2021
1914 Clouds 17 1018 82 8000 3.09 60 14:50 03.03.2021
1915 Clouds 17 1018 82 8000 3.09 60 14:50 03.03.2021
1916 Clouds 17 1018 82 8000 3.09 60 14:27 03.03.2021
1917 Clouds 16 1017 88 7000 3.09 70 13:46 03.03.2021
1918 Clouds 16 1017 88 7000 2.57 60 13:26 03.03.2021
1919 Clouds 17 1017 82 8000 2.57 60 12:43 03.03.2021
1920 Clouds 17 1017 82 5000 4.12 70 12:23 03.03.2021
1921 Clouds 17 1017 82 8000 3.6 70 11:45 03.03.2021
1922 Clouds 17 1017 82 8000 3.6 70 11:27 03.03.2021
1923 Clouds 17 1017 82 8000 3.6 70 11:27 03.03.2021
1924 Clouds 17 1016 82 7000 3.09 70 10:45 03.03.2021
1925 Clouds 17 1016 82 7000 3.09 50 10:22 03.03.2021
1926 Clouds 17 1017 88 6000 3.09 60 09:42 03.03.2021
1927 Mist 17 1017 82 5000 3.6 60 08:53 03.03.2021
1928 Mist 17 1017 88 4500 3.09 70 08:24 03.03.2021
1929 Clouds 19 1018 68 10000 2.57 30 07:58 03.03.2021
1930 Clouds 19 1018 68 10000 3.09 50 07:33 03.03.2021
1931 Clouds 19 1019 68 7000 2.57 70 06:29 03.03.2021
1932 Clouds 19 1020 68 9000 2.06 80 05:44 03.03.2021
1933 Mist 19 1021 77 4600 2.57 90 04:36 03.03.2021
1934 Mist 19 1021 77 4200 1.54 80 03:54 03.03.2021
1935 Clouds 19 1018 68 7000 0.35 157 00:28 03.03.2021
1936 Clouds 19 1018 68 7000 1.03 40 23:34 02.03.2021
1937 Clouds 19 1018 63 7000 1.54 70 22:52 02.03.2021
1938 Clouds 18 1018 77 7000 1.03 0 22:22 02.03.2021
1939 Clouds 18 1018 77 6000 1.03 80 21:51 02.03.2021
1940 Clouds 19 1018 72 8000 1.03 0 21:33 02.03.2021
1941 Clouds 19 1018 63 8000 1.03 0 20:55 02.03.2021
1942 Clouds 19 1018 63 8000 1.54 50 20:37 02.03.2021
1943 Clouds 19 1018 63 8000 1.54 50 20:19 02.03.2021
1944 Clouds 19 1018 63 9000 1.03 0 19:46 02.03.2021
1945 Clouds 19 1019 63 9000 1.03 140 19:26 02.03.2021
1946 Clouds 19 1019 72 10000 1.86 159 18:41 02.03.2021
1947 Clouds 19 1019 72 10000 1.7 155 18:21 02.03.2021
1948 Clouds 19 1019 77 10000 1.03 20 17:54 02.03.2021
1949 Clouds 19 1019 77 10000 1.03 340 17:36 02.03.2021
1950 Clouds 19 1019 77 10000 1.03 340 17:36 02.03.2021
1951 Clouds 19 1019 77 10000 1.03 340 17:18 02.03.2021
1952 Clouds 19 1019 72 10000 2.22 153 16:38 02.03.2021
1953 Clouds 20 1019 56 10000 0.51 0 15:52 02.03.2021
1954 Clouds 20 1018 56 10000 0.51 0 15:25 02.03.2021
1955 Clouds 20 1017 56 10000 1.03 160 14:29 02.03.2021
1956 Clouds 20 1017 56 10000 1.54 160 13:59 02.03.2021
1957 Clouds 20 1017 56 10000 1.54 160 13:39 02.03.2021
1958 Clouds 20 1017 56 10000 1.54 160 13:21 02.03.2021
1959 Clouds 20 1017 60 10000 2.06 110 12:31 02.03.2021
1960 Clouds 20 1017 60 10000 2.06 110 11:59 02.03.2021
1961 Clouds 20 1016 60 10000 2.57 80 11:38 02.03.2021
1962 Clouds 20 1016 60 10000 2.57 80 11:19 02.03.2021
1963 Clouds 20 1016 56 10000 2.57 60 10:39 02.03.2021
1964 Clouds 20 1016 56 10000 2.57 60 10:20 02.03.2021
1965 Clouds 21 1017 52 10000 3.09 70 09:40 02.03.2021
1966 Clouds 21 1017 52 10000 3.09 70 09:19 02.03.2021
1967 Clouds 21 1018 49 10000 3.09 70 08:38 02.03.2021
1968 Clouds 21 1018 49 10000 3.6 70 07:59 02.03.2021
1969 Clouds 20 1019 52 10000 3.6 50 07:38 02.03.2021
1970 Clouds 21 1020 49 10000 3.6 30 06:34 02.03.2021
1971 Clouds 21 1020 49 10000 4.12 20 05:46 02.03.2021
1972 Clear 21 1021 49 10000 3.6 20 05:27 02.03.2021
1973 Clear 18 1020 63 10000 3.09 70 01:44 02.03.2021
1974 Clear 19 1021 59 10000 2.57 30 01:44 02.03.2021
1975 Clear 19 1021 59 10000 2.57 30 01:44 02.03.2021
1976 Clear 19 1021 59 10000 2.57 30 01:44 02.03.2021
1977 Clear 18 1020 63 10000 3.09 70 01:26 02.03.2021
1978 Clear 19 1019 59 10000 4.12 40 00:28 02.03.2021
1979 Clouds 19 1018 59 10000 4.12 40 23:22 01.03.2021
1980 Clouds 19 1017 63 10000 5.66 40 22:42 01.03.2021
1981 Clouds 19 1017 63 10000 5.66 40 22:21 01.03.2021
1982 Clouds 19 1017 63 10000 5.66 40 22:21 01.03.2021
1983 Clouds 19 1017 63 10000 4.63 40 21:45 01.03.2021
1984 Clouds 19 1017 68 10000 4.63 40 21:23 01.03.2021
1985 Clouds 19 1017 77 10000 4.12 50 20:47 01.03.2021
1986 Clouds 19 1017 82 10000 5.66 20 20:27 01.03.2021
1987 Clouds 19 1017 77 10000 5.66 50 19:53 01.03.2021
1988 Clouds 19 1018 88 10000 6.17 40 19:33 01.03.2021
1989 Clouds 19 1018 94 7000 7.72 40 18:46 01.03.2021
1990 Clouds 21 1018 83 9000 6.69 50 18:24 01.03.2021
1991 Mist 22 1017 94 3500 1.03 40 17:52 01.03.2021
1992 Mist 22 1017 94 3000 1.54 70 17:28 01.03.2021
1993 Mist 22 1017 94 3600 1.03 70 16:57 01.03.2021
1994 Mist 22 1017 94 3400 1.54 60 16:38 01.03.2021
1995 Mist 22 1017 94 3400 1.54 60 16:20 01.03.2021
1996 Mist 22 1016 94 3600 1.54 60 15:38 01.03.2021
1997 Mist 22 1016 94 3600 1.54 60 15:18 01.03.2021
1998 Mist 22 1015 94 3500 2.06 60 14:41 01.03.2021
1999 Mist 22 1015 94 4000 2.57 50 14:22 01.03.2021
2000 Drizzle 21 1014 100 3500 2.57 50 13:39 01.03.2021
2001 Drizzle 21 1014 100 3500 2.57 50 13:20 01.03.2021
2002 Drizzle 21 1014 94 2700 2.06 60 12:43 01.03.2021
2003 Drizzle 21 1014 100 1700 2.06 70 12:25 01.03.2021
2004 Drizzle 22 1013 100 1100 2.06 60 11:57 01.03.2021
2005 Drizzle 22 1013 100 1000 2.06 60 11:29 01.03.2021
2006 Mist 22 1012 94 3500 2.06 30 10:42 01.03.2021
2007 Mist 22 1012 94 3500 2.06 30 10:22 01.03.2021
2008 Clouds 23 1012 83 7000 1.03 0 09:53 01.03.2021
2009 Clouds 23 1013 83 7000 0.51 0 09:31 01.03.2021
2010 Mist 23 1013 83 5000 2.95 122 08:56 01.03.2021
2011 Mist 22 1013 88 5000 1.54 320 08:32 01.03.2021
2012 Mist 22 1014 94 3300 2.57 290 07:32 01.03.2021
2013 Drizzle 21 1015 100 1100 3.6 300 06:25 01.03.2021
2014 Drizzle 19 1015 100 1300 2.57 280 02:40 01.03.2021
2015 Drizzle 19 1013 100 900 1.54 270 23:47 28.02.2021
2016 Mist 19 1012 100 1200 0.51 270 22:57 28.02.2021
2017 Drizzle 19 1012 100 1400 3.9 150 22:38 28.02.2021
2018 Drizzle 19 1012 100 1400 4.17 151 22:20 28.02.2021
2019 Drizzle 19 1012 94 1500 0.51 0 21:43 28.02.2021
2020 Mist 19 1012 94 1500 0.51 0 21:23 28.02.2021
2021 Drizzle 19 1012 94 2200 0.51 0 20:45 28.02.2021
2022 Drizzle 19 1012 88 2700 1.03 0 20:26 28.02.2021
2023 Mist 19 1012 88 3500 1.03 50 19:46 28.02.2021
2024 Mist 19 1012 88 3500 1.03 50 19:27 28.02.2021
2025 Mist 19 1012 88 4800 1.54 80 18:46 28.02.2021
2026 Mist 18 1012 94 4000 2.06 80 18:26 28.02.2021
2027 Drizzle 18 1012 94 2900 1.54 50 17:53 28.02.2021
2028 Drizzle 18 1012 94 2900 1.54 50 17:29 28.02.2021
2029 Drizzle 18 1012 94 2900 1.54 40 16:57 28.02.2021
2030 Drizzle 18 1012 94 3200 1.03 0 16:39 28.02.2021
2031 Drizzle 18 1012 94 2600 1.03 0 16:19 28.02.2021
2032 Drizzle 18 1012 94 2600 1.03 0 15:49 28.02.2021
2033 Drizzle 18 1012 94 3400 1.03 0 15:25 28.02.2021
2034 Mist 18 1011 94 3600 2.06 50 14:53 28.02.2021
2035 Drizzle 18 1011 94 2600 2.06 70 14:30 28.02.2021
2036 Drizzle 18 1011 94 2800 2.57 50 13:52 28.02.2021
2037 Mist 18 1010 94 3200 2.57 70 13:21 28.02.2021
2038 Mist 18 1010 94 3200 2.57 70 13:21 28.02.2021
2039 Drizzle 18 1010 100 3400 2.06 70 12:57 28.02.2021
2040 Drizzle 18 1010 94 2400 2.06 60 12:39 28.02.2021
2041 Drizzle 18 1010 94 2400 2.06 60 12:20 28.02.2021
2042 Mist 18 1010 100 2500 2.57 60 11:53 28.02.2021
2043 Drizzle 18 1010 100 1400 2.57 70 11:26 28.02.2021
2044 Drizzle 18 1010 100 1300 1.54 60 10:57 28.02.2021
2045 Drizzle 18 1010 100 1300 2.06 50 10:29 28.02.2021
2046 Clouds 18 1010 100 1300 1.54 70 09:56 28.02.2021
2047 Drizzle 18 1010 100 2100 1.54 50 09:34 28.02.2021
2048 Drizzle 18 1010 94 2100 1.54 70 08:52 28.02.2021
2049 Mist 18 1011 94 3600 1.54 80 08:33 28.02.2021
2050 Drizzle 18 1011 100 2100 1.54 50 07:57 28.02.2021
2051 Mist 18 1012 100 1600 1.54 60 07:39 28.02.2021
2052 Mist 18 1012 100 1600 1.54 60 07:18 28.02.2021
2053 Drizzle 18 1013 88 2100 2.57 70 06:21 28.02.2021
2054 Mist 17 1014 88 2000 3.09 60 03:45 28.02.2021
2055 Drizzle 16 1014 94 2300 3.09 50 02:19 28.02.2021
2056 Mist 16 1013 94 4000 3.09 50 00:58 28.02.2021
2057 Clouds 16 1012 94 5000 3.6 70 00:35 28.02.2021
2058 Clouds 16 1012 94 7000 3.6 70 23:48 27.02.2021
2059 Clouds 16 1012 94 8000 3.09 70 23:20 27.02.2021
2060 Clouds 16 1011 94 7000 3.6 60 22:49 27.02.2021
2061 Clouds 16 1011 94 6000 3.6 70 22:22 27.02.2021
2062 Drizzle 16 1012 94 3100 2.57 60 21:50 27.02.2021
2063 Drizzle 16 1012 94 2400 2.57 50 21:32 27.02.2021
2064 Mist 16 1013 94 2900 2.57 50 20:53 27.02.2021
2065 Mist 16 1013 94 3100 2.57 40 20:33 27.02.2021
2066 Mist 16 1013 94 2900 2.57 70 19:48 27.02.2021
2067 Mist 16 1013 88 3300 2.57 70 19:29 27.02.2021
2068 Mist 16 1014 94 3600 3.09 70 18:56 27.02.2021
2069 Mist 16 1014 94 4500 2.57 60 18:36 27.02.2021
2070 Mist 16 1014 88 5000 3.09 70 18:18 27.02.2021
2071 Drizzle 16 1014 88 3200 2.57 70 17:42 27.02.2021
2072 Drizzle 16 1014 88 3200 2.57 70 17:19 27.02.2021
2073 Drizzle 17 1014 82 4000 3.09 60 16:50 27.02.2021
2074 Clouds 17 1014 77 10000 3.09 60 16:30 27.02.2021
2075 Clouds 17 1013 77 9000 3.6 60 15:47 27.02.2021
2076 Clouds 17 1013 77 9000 3.6 60 15:20 27.02.2021
2077 Clouds 17 1013 77 8000 3.09 50 14:41 27.02.2021
2078 Clouds 17 1013 77 8000 3.09 50 14:41 27.02.2021
2079 Clouds 17 1013 77 8000 3.09 50 14:21 27.02.2021
2080 Clouds 17 1012 82 8000 3.09 60 13:46 27.02.2021
2081 Clouds 18 1012 72 10000 4.12 60 13:22 27.02.2021
2082 Clouds 18 1012 72 10000 4.12 70 12:49 27.02.2021
2083 Clouds 17 1011 82 6000 4.12 60 12:25 27.02.2021
2084 Clouds 17 1011 77 7000 4.63 50 11:52 27.02.2021
2085 Clouds 17 1011 82 7000 5.66 70 11:31 27.02.2021
2086 Clouds 17 1011 82 7000 5.14 70 10:53 27.02.2021
2087 Clouds 18 1011 77 7000 5.66 70 10:34 27.02.2021
2088 Clouds 18 1011 82 7000 4.63 70 09:54 27.02.2021
2089 Clouds 18 1011 77 10000 4.12 60 09:32 27.02.2021
2090 Clouds 18 1011 77 10000 5.14 50 08:44 27.02.2021
2091 Clouds 18 1011 77 10000 5.14 50 08:24 27.02.2021
2092 Clouds 19 1012 72 10000 4.63 50 07:58 27.02.2021
2093 Clouds 19 1012 72 10000 5.14 60 06:55 27.02.2021
2094 Clouds 19 1011 77 10000 3.6 80 01:24 27.02.2021
2095 Clouds 19 1010 82 10000 5.14 60 00:30 27.02.2021
2096 Clouds 19 1009 82 7000 4.12 60 23:40 26.02.2021
2097 Clouds 19 1009 82 7000 4.12 60 23:21 26.02.2021
2098 Clouds 21 1009 73 10000 5.14 70 22:34 26.02.2021
2099 Clouds 21 1009 78 10000 5.14 70 21:54 26.02.2021
2100 Clouds 21 1009 78 9000 5.14 70 21:35 26.02.2021
2101 Clouds 22 1009 78 8000 5.14 70 20:55 26.02.2021
2102 Clouds 23 1009 83 6000 2.06 90 20:36 26.02.2021
2103 Clouds 23 1009 83 6000 2.06 90 20:18 26.02.2021
2104 Clouds 23 1009 83 8000 2.57 110 19:26 26.02.2021
2105 Clouds 23 1010 78 8000 3.09 120 18:52 26.02.2021
2106 Clouds 23 1010 78 8000 3.09 120 18:24 26.02.2021
2107 Clouds 23 1009 78 8000 3.09 110 17:56 26.02.2021
2108 Clouds 23 1010 78 8000 3.09 120 17:36 26.02.2021
2109 Clouds 23 1009 78 7000 4.12 130 16:59 26.02.2021
2110 Clouds 23 1009 78 7000 4.12 130 16:40 26.02.2021
2111 Clouds 23 1009 78 7000 4.12 130 16:40 26.02.2021
2112 Clouds 23 1009 78 7000 4.12 130 16:22 26.02.2021
2113 Clouds 24 1009 73 7000 4.12 140 15:43 26.02.2021
2114 Clouds 24 1008 73 8000 3.6 140 15:23 26.02.2021
2115 Clouds 24 1008 73 8000 3.6 150 14:52 26.02.2021
2116 Clouds 24 1007 73 8000 3.6 150 14:34 26.02.2021
2117 Clouds 25 1007 69 8000 3.6 150 13:49 26.02.2021
2118 Clouds 25 1006 65 9000 3.6 140 13:30 26.02.2021
2119 Clouds 26 1006 61 9000 3.6 130 12:48 26.02.2021
2120 Clouds 25 1005 65 9000 4.12 110 12:26 26.02.2021
2121 Clear 27 1005 57 10000 4.63 110 11:40 26.02.2021
2122 Clouds 27 1005 57 10000 4.12 110 10:55 26.02.2021
2123 Clouds 27 1004 57 10000 4.12 100 10:24 26.02.2021
2124 Clouds 28 1005 54 10000 3.6 130 09:47 26.02.2021
2125 Clouds 27 1005 57 10000 3.6 110 09:27 26.02.2021
2126 Clouds 27 1006 57 9000 3.6 140 08:33 26.02.2021
2127 Clouds 26 1007 65 9000 3.09 120 07:55 26.02.2021
2128 Clouds 26 1007 65 10000 3.09 130 07:20 26.02.2021
2129 Clouds 24 1009 73 10000 2.57 150 06:28 26.02.2021
2130 Clouds 24 1010 73 9000 1.54 130 04:52 26.02.2021
2131 Mist 22 1008 83 5000 2.06 70 02:36 26.02.2021
2132 Clouds 22 1006 83 7000 3.6 120 00:25 26.02.2021
2133 Clouds 22 1005 83 7000 3.09 120 23:31 25.02.2021
2134 Clouds 22 1005 83 7000 3.09 130 22:51 25.02.2021
2135 Mist 22 1005 88 5000 3.6 120 22:33 25.02.2021
2136 Mist 22 1005 88 4300 2.57 100 21:48 25.02.2021
2137 Mist 22 1005 88 5000 2.06 110 21:30 25.02.2021
2138 Mist 22 1005 88 4800 3.6 120 20:43 25.02.2021
2139 Clouds 22 1006 88 7000 2.57 110 20:24 25.02.2021
2140 Clouds 22 1006 88 6000 2.57 130 19:53 25.02.2021
2141 Mist 22 1006 88 4700 3.09 120 19:22 25.02.2021
2142 Drizzle 22 1006 94 3900 2.57 120 18:59 25.02.2021
2143 Mist 22 1007 94 3300 3.09 120 18:33 25.02.2021
2144 Clouds 22 1007 94 5000 4.12 120 17:57 25.02.2021
2145 Clouds 22 1007 88 8000 4.12 100 17:30 25.02.2021
2146 Clouds 23 1006 83 10000 4.12 100 16:54 25.02.2021
2147 Clouds 23 1006 83 10000 4.12 110 16:31 25.02.2021
2148 Clouds 23 1006 78 10000 4.63 110 15:36 25.02.2021
2149 Clouds 23 1006 78 10000 4.63 110 15:18 25.02.2021
2150 Clouds 23 1005 78 10000 4.12 100 14:29 25.02.2021
2151 Clouds 24 1005 73 10000 5.66 110 13:57 25.02.2021
2152 Clouds 24 1004 73 10000 5.14 110 13:39 25.02.2021
2153 Clouds 24 1004 73 10000 5.14 110 13:18 25.02.2021
2154 Clouds 24 1004 69 10000 4.63 110 12:23 25.02.2021
2155 Clouds 24 1004 69 10000 4.63 110 11:48 25.02.2021
2156 Clouds 25 1003 65 8000 5.14 120 11:22 25.02.2021
2157 Clouds 25 1003 65 6000 6.17 120 10:47 25.02.2021
2158 Clouds 25 1003 65 8000 4.12 100 10:29 25.02.2021
2159 Clouds 26 1003 61 10000 4.63 100 09:45 25.02.2021
2160 Clouds 26 1004 61 7000 4.63 140 08:57 25.02.2021
2161 Clouds 26 1005 61 7000 4.63 120 08:28 25.02.2021
2162 Clouds 25 1005 65 7000 4.12 150 07:57 25.02.2021
2163 Clouds 25 1006 69 8000 4.12 120 07:37 25.02.2021
2164 Clouds 25 1007 69 9000 4.63 120 06:55 25.02.2021
2165 Mist 22 1010 88 4400 4.12 130 02:59 25.02.2021
2166 Drizzle 21 1009 94 3700 2.57 130 01:38 25.02.2021
2167 Drizzle 21 1009 94 3700 2.57 130 01:38 25.02.2021
2168 Clouds 21 1008 88 6000 3.09 110 00:42 25.02.2021
2169 Clouds 21 1007 88 6000 3.09 130 23:53 24.02.2021
2170 Drizzle 21 1007 88 4000 4.63 130 23:28 24.02.2021
2171 Mist 21 1007 88 4900 2.57 140 22:45 24.02.2021
2172 Mist 21 1007 88 4400 3.6 120 22:26 24.02.2021
2173 Mist 21 1007 88 4400 3.6 120 22:26 24.02.2021
2174 Mist 21 1008 88 4000 3.09 120 21:46 24.02.2021
2175 Clouds 21 1008 83 6000 3.6 130 21:19 24.02.2021
2176 Clouds 21 1008 83 8000 4.63 130 20:41 24.02.2021
2177 Clouds 21 1008 83 8000 4.63 130 20:22 24.02.2021
2178 Clouds 22 1009 78 9000 4.12 140 19:36 24.02.2021
2179 Clouds 22 1009 78 10000 4.63 140 19:18 24.02.2021
2180 Clouds 22 1009 78 10000 4.12 130 18:39 24.02.2021
2181 Clouds 22 1009 78 10000 4.12 140 18:21 24.02.2021
2182 Clouds 22 1009 78 10000 4.63 140 17:38 24.02.2021
2183 Clouds 22 1009 78 10000 4.63 140 17:18 24.02.2021
2184 Clouds 22 1009 78 10000 4.63 130 16:43 24.02.2021
2185 Clouds 22 1009 78 10000 4.63 130 16:19 24.02.2021
2186 Clouds 22 1009 73 10000 4.12 130 15:40 24.02.2021
2187 Clouds 22 1009 73 10000 4.12 130 14:55 24.02.2021
2188 Clouds 23 1008 68 10000 4.12 140 14:35 24.02.2021
2189 Clouds 23 1008 68 10000 4.63 140 13:58 24.02.2021
2190 Clouds 23 1008 64 10000 5.14 130 13:39 24.02.2021
2191 Clouds 24 1007 60 10000 5.14 130 13:21 24.02.2021
2192 Clouds 24 1007 57 10000 6.17 140 12:44 24.02.2021
2193 Clouds 24 1007 57 10000 6.17 140 12:23 24.02.2021
2194 Clouds 25 1007 53 10000 6.17 150 11:46 24.02.2021
2195 Clouds 25 1007 57 10000 6.17 140 10:51 24.02.2021
2196 Clouds 25 1007 57 10000 6.17 140 10:29 24.02.2021
2197 Clouds 25 1008 57 10000 5.14 150 09:41 24.02.2021
2198 Clouds 25 1008 57 10000 5.14 150 09:19 24.02.2021
2199 Clouds 24 1009 60 10000 3.6 150 08:34 24.02.2021
2200 Clouds 24 1010 60 10000 4.63 150 07:57 24.02.2021
2201 Clouds 24 1011 60 10000 3.09 160 07:20 24.02.2021
2202 Clouds 24 1012 60 8000 4.12 160 06:20 24.02.2021
2203 Mist 21 1013 88 4600 3.6 120 03:25 24.02.2021
2204 Mist 21 1011 88 5000 4.12 120 00:20 24.02.2021
2205 Mist 21 1011 88 5000 3.6 110 23:20 23.02.2021
2206 Clouds 21 1011 83 8000 3.6 90 22:37 23.02.2021
2207 Clouds 21 1011 83 8000 3.6 90 22:19 23.02.2021
2208 Clouds 21 1011 83 9000 3.6 110 21:42 23.02.2021
2209 Clouds 21 1011 83 9000 3.6 110 21:22 23.02.2021
2210 Clouds 22 1012 78 10000 3.09 130 20:48 23.02.2021
2211 Clouds 22 1012 78 10000 2.57 130 20:29 23.02.2021
2212 Clouds 22 1012 78 10000 3.6 140 19:47 23.02.2021
2213 Clouds 22 1012 78 10000 3.6 140 19:27 23.02.2021
2214 Clouds 22 1012 78 10000 4.12 140 18:53 23.02.2021
2215 Clouds 22 1012 78 10000 3.6 150 18:31 23.02.2021
2216 Clouds 23 1013 73 10000 4.12 150 17:54 23.02.2021
2217 Clouds 23 1012 73 9000 2.57 160 17:30 23.02.2021
2218 Clouds 23 1012 73 7000 3.09 140 16:48 23.02.2021
2219 Clouds 24 1012 69 7000 3.6 140 16:25 23.02.2021
2220 Clouds 23 1012 73 6000 2.06 100 15:52 23.02.2021
2221 Haze 23 1012 73 5000 1.54 70 15:34 23.02.2021
2222 Haze 23 1012 73 5000 2.06 70 14:59 23.02.2021
2223 Haze 23 1012 73 5000 2.06 80 14:40 23.02.2021
2224 Haze 23 1012 73 5000 2.06 80 14:20 23.02.2021
2225 Clouds 23 1011 68 6000 1.54 60 13:43 23.02.2021
2226 Clouds 24 1011 64 8000 2.57 80 13:21 23.02.2021
2227 Clouds 24 1011 64 8000 2.57 80 12:49 23.02.2021
2228 Clouds 24 1011 57 7000 1.03 0 12:20 23.02.2021
2229 Clouds 24 1011 57 7000 1.54 90 11:45 23.02.2021
2230 Clouds 25 1011 53 8000 2.06 70 11:19 23.02.2021
2231 Clouds 25 1011 53 7000 2.06 30 10:40 23.02.2021
2232 Clouds 25 1011 53 7000 2.06 30 10:19 23.02.2021
2233 Clouds 24 1012 60 6000 1.54 40 09:42 23.02.2021
2234 Clouds 24 1012 60 6000 1.54 40 09:21 23.02.2021
2235 Clouds 24 1012 57 7000 1.54 30 08:47 23.02.2021
2236 Clouds 24 1013 60 6000 1.54 0 08:21 23.02.2021
2237 Clouds 25 1014 53 7000 2.57 100 07:39 23.02.2021
2238 Haze 23 1017 68 5000 2.06 0 05:28 23.02.2021
2239 Mist 21 1017 78 5000 2.06 120 02:54 23.02.2021
2240 Mist 21 1017 78 5000 2.06 120 02:54 23.02.2021
2241 Mist 21 1017 78 5000 2.06 120 02:54 23.02.2021
2242 Mist 20 1017 83 4800 2.57 120 02:33 23.02.2021
2243 Mist 20 1015 83 5000 2.57 110 00:20 23.02.2021
2244 Mist 20 1015 83 4900 2.57 100 23:43 22.02.2021
2245 Clouds 20 1015 83 6000 2.57 110 22:57 22.02.2021
2246 Clouds 20 1015 83 8000 3.09 100 22:38 22.02.2021
2247 Clouds 21 1015 78 7000 2.57 90 22:19 22.02.2021
2248 Clouds 21 1015 78 9000 2.57 100 21:38 22.02.2021
2249 Clouds 21 1015 78 9000 2.57 100 21:20 22.02.2021
2250 Clouds 21 1015 78 10000 3.6 110 20:45 22.02.2021
2251 Clouds 21 1015 78 9000 2.57 100 20:25 22.02.2021
2252 Clouds 21 1015 78 10000 3.09 100 19:46 22.02.2021
2253 Clouds 21 1015 78 10000 2.57 120 19:28 22.02.2021
2254 Clouds 21 1016 78 10000 3.09 130 18:48 22.02.2021
2255 Clouds 21 1016 78 10000 3.6 110 18:29 22.02.2021
2256 Clouds 22 1016 73 10000 3.6 120 17:49 22.02.2021
2257 Clouds 22 1016 73 10000 3.6 120 17:20 22.02.2021
2258 Clouds 22 1016 73 10000 2.57 140 16:48 22.02.2021
2259 Clouds 22 1015 68 10000 3.6 140 16:29 22.02.2021
2260 Clouds 23 1015 60 10000 4.12 150 15:31 22.02.2021
2261 Clouds 23 1015 60 10000 4.12 150 14:53 22.02.2021
2262 Clouds 23 1014 60 10000 5.14 140 14:35 22.02.2021
2263 Clouds 23 1014 64 10000 4.12 140 13:51 22.02.2021
2264 Clouds 23 1013 64 10000 4.12 140 13:31 22.02.2021
2265 Clouds 23 1013 73 10000 5.66 140 12:47 22.02.2021
2266 Clouds 24 1012 69 8000 5.66 140 12:22 22.02.2021
2267 Clouds 24 1012 64 6000 4.12 130 11:51 22.02.2021
2268 Haze 24 1012 64 4600 3.6 140 11:29 22.02.2021
2269 Haze 25 1012 61 5000 3.6 120 10:50 22.02.2021
2270 Haze 25 1012 61 5000 3.6 120 10:50 22.02.2021
2271 Haze 25 1012 57 4800 2.57 150 10:32 22.02.2021
2272 Haze 24 1012 60 4500 2.57 110 09:57 22.02.2021
2273 Haze 24 1012 60 4800 2.57 130 09:36 22.02.2021
2274 Haze 24 1012 60 4800 2.57 130 09:18 22.02.2021
2275 Haze 25 1013 57 5000 1.54 150 08:40 22.02.2021
2276 Haze 25 1013 57 5000 1.54 150 08:19 22.02.2021
2277 Haze 24 1014 60 4900 1.54 0 07:28 22.02.2021
2278 Haze 25 1015 61 5000 1.54 0 06:47 22.02.2021
2279 Haze 23 1015 68 4200 1.54 0 06:23 22.02.2021
2280 Mist 21 1017 78 5000 3.09 50 03:48 22.02.2021
2281 Mist 21 1017 78 5000 2.06 70 02:52 22.02.2021
2282 Clouds 20 1015 83 6000 2.57 70 00:49 22.02.2021
2283 Clouds 20 1015 83 7000 2.06 70 00:24 22.02.2021
2284 Clouds 20 1014 83 7000 2.06 50 23:48 21.02.2021
2285 Clouds 20 1014 83 8000 3.09 100 22:55 21.02.2021
2286 Clouds 20 1014 83 8000 2.57 120 22:24 21.02.2021
2287 Clouds 20 1014 83 8000 3.09 100 21:49 21.02.2021
2288 Clouds 20 1014 83 7000 3.09 110 21:30 21.02.2021
2289 Clouds 20 1014 83 8000 3.09 110 20:49 21.02.2021
2290 Clouds 20 1014 83 8000 2.57 100 20:20 21.02.2021
2291 Clouds 20 1014 77 8000 3.09 120 19:57 21.02.2021
2292 Clouds 20 1015 77 8000 3.09 110 19:36 21.02.2021
2293 Clouds 20 1015 77 8000 3.09 110 19:18 21.02.2021
2294 Clouds 20 1015 77 8000 4.12 140 18:26 21.02.2021
2295 Clouds 20 1015 77 9000 4.12 140 17:47 21.02.2021
2296 Clouds 20 1015 77 9000 4.63 130 17:20 21.02.2021
2297 Clouds 20 1015 73 10000 4.12 120 16:47 21.02.2021
2298 Clouds 20 1015 73 10000 4.12 120 16:26 21.02.2021
2299 Clear 21 1015 64 10000 6.17 130 15:25 21.02.2021
2300 Clear 22 1015 60 10000 5.66 120 14:58 21.02.2021
2301 Clear 22 1014 56 10000 6.17 120 14:37 21.02.2021
2302 Clear 22 1014 56 10000 6.17 120 14:37 21.02.2021
2303 Clear 23 1014 53 10000 6.17 130 13:57 21.02.2021
2304 Clear 23 1014 53 10000 5.66 130 13:29 21.02.2021
2305 Clear 24 1013 53 10000 6.17 130 12:49 21.02.2021
2306 Clear 25 1013 50 10000 6.17 130 12:26 21.02.2021
2307 Clear 26 1013 44 10000 5.14 120 11:42 21.02.2021
2308 Clear 26 1012 44 10000 5.66 120 10:48 21.02.2021
2309 Clear 27 1012 39 10000 4.63 140 10:22 21.02.2021
2310 Clear 27 1012 41 10000 4.63 130 09:47 21.02.2021
2311 Clear 27 1012 41 10000 4.12 160 09:25 21.02.2021
2312 Clear 26 1013 44 8000 4.12 120 08:37 21.02.2021
2313 Clear 26 1014 44 7000 3.6 100 07:58 21.02.2021
2314 Clear 25 1015 44 8000 2.57 100 07:23 21.02.2021
2315 Clear 25 1016 47 8000 2.06 70 06:24 21.02.2021
2316 Mist 19 1018 82 2700 1.54 80 02:43 21.02.2021
2317 Mist 17 1016 94 2800 2.06 100 01:22 21.02.2021
2318 Mist 17 1016 88 4300 2.57 90 00:22 21.02.2021
2319 Mist 17 1016 88 4600 2.06 60 23:48 20.02.2021
2320 Mist 17 1015 82 5000 2.06 70 22:58 20.02.2021
2321 Clouds 17 1016 82 6000 2.06 60 22:33 20.02.2021
2322 Clear 17 1016 77 6000 2.06 70 21:57 20.02.2021
2323 Clouds 17 1016 77 6000 2.57 70 21:39 20.02.2021
2324 Clouds 17 1016 77 6000 2.06 70 21:18 20.02.2021
2325 Clouds 18 1016 72 7000 2.57 70 20:38 20.02.2021
2326 Clouds 18 1016 72 7000 2.57 70 20:19 20.02.2021
2327 Clouds 18 1017 72 7000 2.06 90 19:41 20.02.2021
2328 Clouds 19 1017 63 8000 2.57 90 18:55 20.02.2021
2329 Clouds 20 1017 60 8000 3.09 130 18:33 20.02.2021
2330 Clouds 20 1017 60 8000 3.09 130 18:33 20.02.2021
2331 Clouds 20 1018 60 8000 2.57 130 17:47 20.02.2021
2332 Clouds 21 1018 56 8000 3.09 130 17:28 20.02.2021
2333 Clouds 21 1018 56 9000 2.57 140 16:49 20.02.2021
2334 Clear 21 1018 56 9000 3.09 160 16:23 20.02.2021
2335 Clear 22 1018 56 9000 4.12 150 15:42 20.02.2021
2336 Clouds 23 1017 53 7000 5.66 150 14:52 20.02.2021
2337 Clear 23 1017 53 7000 2.57 160 14:25 20.02.2021
2338 Clear 23 1017 49 7000 2.06 150 13:58 20.02.2021
2339 Clear 24 1016 43 9000 2.57 150 13:39 20.02.2021
2340 Clouds 24 1016 43 9000 2.57 150 13:20 20.02.2021
2341 Clear 24 1016 41 10000 2.57 150 12:36 20.02.2021
2342 Clouds 24 1016 41 9000 2.06 160 11:53 20.02.2021
2343 Clear 25 1016 38 10000 2.57 160 11:35 20.02.2021
2344 Clear 25 1016 38 10000 2.57 160 10:52 20.02.2021
2345 Clouds 25 1016 38 9000 2.06 170 10:24 20.02.2021
2346 Clouds 25 1016 41 7000 2.57 190 09:47 20.02.2021
2347 Clouds 25 1017 53 6000 1.54 0 08:56 20.02.2021
2348 Clouds 25 1018 44 5000 2.06 210 08:24 20.02.2021
2349 Clouds 23 1021 43 8000 2.06 0 05:45 20.02.2021
2350 Mist 18 1022 82 2300 1.03 0 02:32 20.02.2021
2351 Mist 17 1021 88 1400 1.03 0 01:56 20.02.2021
2352 Mist 16 1021 88 2200 0.51 110 00:59 20.02.2021
2353 Mist 16 1021 88 2700 1.03 0 00:36 20.02.2021
2354 Mist 16 1020 82 4200 1.54 90 23:27 19.02.2021
2355 Mist 16 1020 88 5000 1.54 50 22:45 19.02.2021
2356 Mist 16 1020 88 5000 1.54 50 22:20 19.02.2021
2357 Mist 16 1020 88 5000 2.06 60 21:44 19.02.2021
2358 Mist 16 1020 82 5000 2.06 60 21:23 19.02.2021
2359 Mist 17 1020 82 3500 2.06 90 20:42 19.02.2021
2360 Mist 17 1020 82 3500 2.06 90 20:24 19.02.2021
2361 Mist 17 1021 82 2800 2.06 60 19:45 19.02.2021
2362 Mist 17 1021 82 2700 2.57 80 19:20 19.02.2021
2363 Mist 18 1021 82 2600 3.09 90 18:50 19.02.2021
2364 Mist 17 1022 88 2800 2.06 100 18:26 19.02.2021
2365 Mist 18 1022 82 3500 1.54 100 17:36 19.02.2021
2366 Mist 18 1022 82 4100 1.54 80 16:41 19.02.2021
2367 Mist 18 1022 82 4100 1.54 80 16:22 19.02.2021
2368 Mist 18 1022 82 4200 1.03 0 15:54 19.02.2021
2369 Mist 19 1022 82 4500 1.54 30 15:27 19.02.2021
2370 Mist 19 1021 82 4300 1.03 0 14:48 19.02.2021
2371 Mist 19 1021 77 4600 1.54 330 14:27 19.02.2021
2372 Mist 20 1021 73 5000 1.03 0 13:54 19.02.2021
2373 Clear 20 1021 64 7000 1.03 0 13:35 19.02.2021
2374 Clouds 21 1020 56 8000 0.51 0 12:52 19.02.2021
2375 Clouds 22 1020 56 6000 1.54 180 12:25 19.02.2021
2376 Clouds 23 1020 49 7000 2.57 180 11:54 19.02.2021
2377 Clouds 23 1021 60 7000 1.03 0 11:26 19.02.2021
2378 Clouds 23 1020 60 6000 1.54 290 10:55 19.02.2021
2379 Clouds 23 1021 60 7000 1.03 0 10:32 19.02.2021
2380 Clouds 23 1021 60 7000 1.54 300 09:52 19.02.2021
2381 Clouds 23 1021 60 6000 1.54 0 09:27 19.02.2021
2382 Clouds 23 1021 60 6000 1.54 0 09:27 19.02.2021
2383 Clouds 23 1022 60 7000 2.06 0 08:54 19.02.2021
2384 Clouds 23 1022 60 6000 1.54 0 08:26 19.02.2021
2385 Clouds 23 1023 60 7000 1.54 110 07:49 19.02.2021
2386 Clouds 23 1023 60 7000 1.03 0 07:31 19.02.2021
2387 Clouds 22 1024 60 8000 1.54 0 06:54 19.02.2021
2388 Clouds 22 1024 60 9000 1.54 190 06:27 19.02.2021
2389 Clouds 21 1026 64 9000 2.06 120 04:41 19.02.2021
2390 Mist 20 1024 77 3900 2.06 130 01:48 19.02.2021
2391 Mist 19 1023 88 4700 0.51 0 00:37 19.02.2021
2392 Mist 19 1023 88 4700 0.63 66 23:56 18.02.2021
2393 Mist 19 1023 88 4700 0.63 66 23:56 18.02.2021
2394 Mist 19 1023 88 4800 0.51 220 23:35 18.02.2021
2395 Mist 19 1022 88 4800 0.51 190 22:50 18.02.2021
2396 Mist 19 1022 88 4600 0.51 0 22:30 18.02.2021
2397 Mist 19 1023 88 5000 0.2 301 21:52 18.02.2021
2398 Clouds 19 1023 88 6000 0.39 225 21:26 18.02.2021
2399 Clouds 19 1023 82 6000 1.03 330 20:44 18.02.2021
2400 Clouds 19 1023 82 6000 1.03 330 20:24 18.02.2021
2401 Mist 20 1023 77 4800 1.03 0 19:48 18.02.2021
2402 Mist 20 1023 77 5000 1.54 250 19:30 18.02.2021
2403 Mist 20 1023 77 5000 1.03 280 18:55 18.02.2021
2404 Clouds 20 1023 73 6000 1.03 0 18:32 18.02.2021
2405 Haze 20 1024 73 5000 1.03 0 17:59 18.02.2021
2406 Haze 21 1024 68 5000 2.06 180 17:41 18.02.2021
2407 Haze 21 1024 68 5000 2.06 180 17:19 18.02.2021
2408 Clouds 20 1024 73 8000 0.93 74 16:41 18.02.2021
2409 Clouds 20 1024 73 8000 1.32 46 16:22 18.02.2021
2410 Clouds 21 1024 68 8000 1.03 0 15:39 18.02.2021
2411 Clouds 21 1024 68 8000 1.03 0 15:21 18.02.2021
2412 Clouds 21 1024 68 8000 1.03 310 14:49 18.02.2021
2413 Clouds 21 1023 64 8000 1.54 320 14:29 18.02.2021
2414 Clouds 21 1023 64 8000 1.54 320 14:29 18.02.2021
2415 Clouds 21 1023 64 7000 1.54 310 13:46 18.02.2021
2416 Clouds 21 1023 64 7000 1.54 270 13:20 18.02.2021
2417 Clouds 21 1022 64 7000 1.54 290 12:47 18.02.2021
2418 Clouds 22 1022 56 7000 1.54 270 12:23 18.02.2021
2419 Clouds 22 1022 53 8000 1.54 310 11:46 18.02.2021
2420 Clouds 22 1022 53 9000 1.03 0 11:27 18.02.2021
2421 Clouds 22 1022 53 9000 1.03 0 10:48 18.02.2021
2422 Clouds 23 1022 49 9000 1.54 290 10:29 18.02.2021
2423 Clouds 22 1022 53 10000 1.54 300 09:49 18.02.2021
2424 Clouds 22 1022 53 10000 2.06 290 09:24 18.02.2021
2425 Clouds 22 1022 53 10000 2.57 300 08:47 18.02.2021
2426 Clouds 23 1023 49 10000 2.06 310 08:25 18.02.2021
2427 Clear 22 1024 53 10000 2.06 300 07:34 18.02.2021
2428 Clouds 21 1024 60 9000 2.57 300 06:53 18.02.2021
2429 Clouds 19 1025 77 8000 1.03 0 02:54 18.02.2021
2430 Clear 18 1022 77 10000 1.03 310 23:56 17.02.2021
2431 Clear 18 1022 77 10000 0.51 320 23:30 17.02.2021
2432 Clear 18 1022 72 10000 0.51 0 22:53 17.02.2021
2433 Clear 18 1022 72 10000 1.03 0 22:27 17.02.2021
2434 Clear 18 1021 72 10000 0.51 320 21:56 17.02.2021
2435 Clear 18 1021 72 10000 0.51 340 21:22 17.02.2021
2436 Clear 18 1021 77 10000 1.03 10 20:49 17.02.2021
2437 Clear 18 1021 72 10000 1.03 330 20:31 17.02.2021
2438 Clear 18 1022 72 10000 2.06 300 19:50 17.02.2021
2439 Clear 18 1022 72 10000 2.06 290 19:32 17.02.2021
2440 Clear 19 1022 72 10000 2.06 300 18:46 17.02.2021
2441 Clear 19 1022 68 10000 3.09 300 18:26 17.02.2021
2442 Clouds 19 1022 77 9000 2.57 300 17:42 17.02.2021
2443 Clouds 19 1022 77 9000 2.57 300 17:20 17.02.2021
2444 Clouds 19 1022 72 9000 3.6 290 16:46 17.02.2021
2445 Clouds 19 1022 72 9000 3.09 300 16:27 17.02.2021
2446 Clouds 19 1021 72 9000 3.09 290 15:45 17.02.2021
2447 Clouds 19 1021 72 9000 3.09 290 15:26 17.02.2021
2448 Clouds 19 1021 72 8000 2.57 290 14:49 17.02.2021
2449 Clouds 19 1021 72 9000 2.57 280 14:29 17.02.2021
2450 Clouds 19 1021 77 9000 2.57 290 13:48 17.02.2021
2451 Clouds 19 1020 77 9000 2.57 280 13:30 17.02.2021
2452 Clouds 19 1020 77 9000 2.57 290 12:49 17.02.2021
2453 Clouds 20 1020 77 8000 3.09 290 12:24 17.02.2021
2454 Clouds 20 1020 73 9000 3.6 290 11:45 17.02.2021
2455 Clouds 20 1020 73 10000 3.09 290 11:25 17.02.2021
2456 Clouds 21 1019 68 10000 3.09 300 10:49 17.02.2021
2457 Clouds 21 1019 68 10000 3.09 300 10:31 17.02.2021
2458 Clouds 21 1019 64 10000 3.6 290 09:55 17.02.2021
2459 Clouds 21 1020 64 10000 3.6 290 09:30 17.02.2021
2460 Clouds 21 1020 64 10000 4.63 290 08:45 17.02.2021
2461 Clouds 20 1020 64 10000 5.66 280 08:22 17.02.2021
2462 Clouds 21 1021 52 10000 3.09 300 07:34 17.02.2021
2463 Clouds 21 1022 49 10000 3.6 10 06:35 17.02.2021
2464 Clouds 20 1021 64 10000 4.12 40 03:40 17.02.2021
2465 Clouds 20 1021 64 10000 3.6 50 02:30 17.02.2021
2466 Clouds 20 1020 64 10000 4.63 40 01:30 17.02.2021
2467 Clouds 20 1019 60 10000 4.12 50 00:24 17.02.2021
2468 Clouds 20 1018 64 10000 3.6 40 23:38 16.02.2021
2469 Clouds 20 1018 68 10000 3.09 40 22:45 16.02.2021
2470 Clouds 20 1018 77 9000 3.6 50 22:26 16.02.2021
2471 Clouds 20 1018 68 9000 3.09 50 21:58 16.02.2021
2472 Mist 20 1018 83 5000 3.6 40 21:39 16.02.2021
2473 Mist 20 1018 83 5000 3.6 40 21:21 16.02.2021
2474 Mist 20 1018 83 5000 3.09 20 20:46 16.02.2021
2475 Clouds 20 1018 83 6000 2.06 50 20:24 16.02.2021
2476 Clouds 20 1018 83 6000 2.06 70 19:47 16.02.2021
2477 Mist 20 1018 83 5000 1.03 0 19:28 16.02.2021
2478 Mist 20 1018 83 5000 1.03 0 19:28 16.02.2021
2479 Clouds 20 1018 83 7000 1.03 0 18:47 16.02.2021
2480 Clouds 20 1018 83 6000 0.51 0 18:23 16.02.2021
2481 Clouds 21 1018 78 7000 1.03 0 17:53 16.02.2021
2482 Clouds 21 1018 78 7000 1.54 50 17:27 16.02.2021
2483 Clouds 21 1018 78 7000 1.54 50 16:53 16.02.2021
2484 Clouds 21 1018 78 7000 1.54 50 16:53 16.02.2021
2485 Clouds 21 1018 78 7000 1.54 60 16:30 16.02.2021
2486 Clouds 21 1018 78 7000 1.54 60 16:30 16.02.2021
2487 Clouds 21 1017 78 7000 2.57 40 15:57 16.02.2021
2488 Clouds 21 1017 78 7000 2.06 60 15:36 16.02.2021
2489 Clouds 21 1017 78 7000 2.06 60 15:18 16.02.2021
2490 Clouds 20 1016 83 7000 2.06 50 14:39 16.02.2021
2491 Clouds 20 1016 83 7000 2.06 50 14:21 16.02.2021
2492 Clouds 20 1015 83 6000 2.06 80 13:44 16.02.2021
2493 Clouds 20 1015 83 6000 2.06 80 12:59 16.02.2021
2494 Mist 20 1015 83 4700 2.06 90 12:40 16.02.2021
2495 Mist 20 1015 83 4700 2.06 90 12:19 16.02.2021
2496 Mist 21 1014 78 5000 2.57 60 11:40 16.02.2021
2497 Mist 21 1014 78 5000 2.57 60 11:20 16.02.2021
2498 Clouds 21 1014 78 6000 2.57 60 10:46 16.02.2021
2499 Mist 21 1014 78 5000 2.57 50 10:27 16.02.2021
2500 Mist 21 1014 78 4700 3.09 50 09:53 16.02.2021
2501 Mist 20 1014 83 4500 3.09 50 09:26 16.02.2021
2502 Mist 20 1014 77 4100 2.57 50 08:51 16.02.2021
2503 Mist 20 1014 83 3500 2.57 30 08:28 16.02.2021
2504 Mist 21 1015 78 3400 2.57 50 07:45 16.02.2021
2505 Mist 20 1015 83 2800 3.6 40 06:51 16.02.2021
2506 Drizzle 19 1015 88 3700 2.57 80 02:42 16.02.2021
2507 Clouds 20 1013 88 7000 2.57 80 23:55 15.02.2021
2508 Clouds 20 1012 83 8000 2.57 70 23:29 15.02.2021
2509 Clouds 20 1012 83 8000 2.06 80 22:50 15.02.2021
2510 Clouds 20 1012 83 7000 1.54 80 22:28 15.02.2021
2511 Clouds 20 1012 77 8000 2.57 100 21:47 15.02.2021
2512 Clouds 20 1012 77 8000 2.06 80 21:24 15.02.2021
2513 Clouds 20 1013 77 8000 2.06 90 20:55 15.02.2021
2514 Clouds 20 1013 77 8000 2.06 90 20:37 15.02.2021
2515 Clouds 20 1013 77 8000 2.57 90 19:51 15.02.2021
2516 Clouds 20 1013 83 8000 2.57 100 19:26 15.02.2021
2517 Clouds 20 1013 77 8000 2.57 100 18:57 15.02.2021
2518 Clouds 21 1014 78 9000 2.57 120 18:29 15.02.2021
2519 Clouds 21 1014 83 8000 3.09 120 17:58 15.02.2021
2520 Clouds 21 1014 78 8000 2.57 110 17:40 15.02.2021
2521 Clouds 21 1014 78 8000 2.57 110 17:20 15.02.2021
2522 Clouds 21 1014 78 9000 2.57 120 16:42 15.02.2021
2523 Clouds 21 1014 78 9000 2.57 120 16:21 15.02.2021
2524 Clouds 21 1013 78 10000 3.09 130 15:42 15.02.2021
2525 Clouds 21 1013 78 10000 3.09 130 15:19 15.02.2021
2526 Clouds 21 1013 83 7000 3.6 100 14:44 15.02.2021
2527 Clouds 21 1013 83 7000 3.6 100 14:20 15.02.2021
2528 Clouds 21 1012 83 6000 1.54 60 13:49 15.02.2021
2529 Clouds 21 1012 83 6000 1.54 50 13:20 15.02.2021
2530 Clouds 21 1012 83 6000 1.03 50 12:45 15.02.2021
2531 Mist 22 1012 83 5000 1.54 60 12:25 15.02.2021
2532 Clouds 22 1011 78 6000 1.54 70 11:51 15.02.2021
2533 Clouds 22 1011 68 6000 2.06 70 11:23 15.02.2021
2534 Clouds 22 1011 68 7000 2.57 70 10:50 15.02.2021
2535 Clouds 22 1011 68 7000 3.09 100 10:25 15.02.2021
2536 Clouds 22 1012 68 8000 3.6 90 09:56 15.02.2021
2537 Clouds 22 1012 68 7000 3.6 100 09:36 15.02.2021
2538 Clouds 22 1012 68 6000 3.6 110 08:57 15.02.2021
2539 Clouds 22 1013 78 6000 3.09 110 08:20 15.02.2021
2540 Mist 21 1014 88 5000 2.57 80 06:59 15.02.2021
2541 Mist 21 1015 88 4400 2.06 80 06:40 15.02.2021
2542 Mist 18 1015 88 3400 3.09 60 02:34 15.02.2021
2543 Mist 18 1015 88 2400 2.57 70 01:27 15.02.2021
2544 Mist 17 1013 88 4100 2.57 60 23:58 14.02.2021
2545 Mist 18 1013 88 4200 2.57 70 23:23 14.02.2021
2546 Mist 17 1013 88 5000 2.06 70 22:40 14.02.2021
2547 Mist 17 1013 88 5000 2.06 70 22:40 14.02.2021
2548 Mist 17 1013 88 5000 2.06 70 22:21 14.02.2021
2549 Mist 17 1013 88 5000 2.57 90 21:48 14.02.2021
2550 Mist 18 1013 82 5000 3.09 80 21:29 14.02.2021
2551 Clouds 18 1013 82 6000 2.57 80 20:46 14.02.2021
2552 Clouds 18 1014 82 6000 2.57 90 20:26 14.02.2021
2553 Clouds 18 1014 82 7000 2.57 90 19:47 14.02.2021
2554 Clear 19 1014 77 8000 2.57 100 18:52 14.02.2021
2555 Clear 19 1014 77 8000 2.57 120 18:34 14.02.2021
2556 Clear 20 1014 73 9000 3.6 130 17:56 14.02.2021
2557 Clear 20 1015 73 9000 3.6 150 17:35 14.02.2021
2558 Clear 21 1015 73 8000 3.6 150 16:52 14.02.2021
2559 Clear 21 1014 68 7000 3.6 150 16:27 14.02.2021
2560 Clear 22 1014 60 8000 3.09 140 15:49 14.02.2021
2561 Clear 22 1014 56 8000 3.09 140 15:30 14.02.2021
2562 Clear 22 1014 60 8000 2.57 130 14:48 14.02.2021
2563 Clear 21 1014 60 8000 2.57 110 14:26 14.02.2021
2564 Clear 22 1014 53 10000 3.09 100 13:48 14.02.2021
2565 Clear 23 1013 46 10000 3.09 140 13:27 14.02.2021
2566 Clear 24 1013 41 10000 2.57 140 12:38 14.02.2021
2567 Clear 25 1013 38 10000 2.57 140 12:18 14.02.2021
2568 Clear 25 1013 38 10000 2.57 140 11:47 14.02.2021
2569 Clear 25 1013 38 10000 2.06 170 11:20 14.02.2021
2570 Clear 26 1013 36 10000 1.03 0 10:34 14.02.2021
2571 Clear 26 1014 36 10000 2.57 160 09:54 14.02.2021
2572 Clear 26 1014 36 10000 1.54 0 09:36 14.02.2021
2573 Clear 26 1014 38 10000 1.54 0 09:18 14.02.2021
2574 Clear 26 1015 38 10000 2.06 140 08:21 14.02.2021
2575 Clear 26 1016 38 10000 2.06 240 07:47 14.02.2021
2576 Clear 24 1018 46 10000 3.09 210 06:26 14.02.2021
2577 Clear 23 1020 56 10000 2.06 0 04:34 14.02.2021
2578 Clouds 20 1019 77 9000 1.54 150 02:30 14.02.2021
2579 Clouds 19 1018 77 8000 1.54 120 01:29 14.02.2021
2580 Clear 19 1018 77 10000 1.54 100 00:41 14.02.2021
2581 Clear 19 1017 77 10000 1.54 50 23:49 13.02.2021
2582 Clear 19 1017 72 10000 1.03 0 23:25 13.02.2021
2583 Clear 19 1017 72 10000 1.03 120 22:51 13.02.2021
2584 Clear 19 1017 72 10000 1.03 130 22:22 13.02.2021
2585 Clear 19 1017 72 10000 2.06 160 21:49 13.02.2021
2586 Clear 20 1017 68 10000 2.57 180 21:26 13.02.2021
2587 Clear 19 1017 72 10000 2.06 180 20:44 13.02.2021
2588 Clear 20 1017 68 10000 2.06 180 20:26 13.02.2021
2589 Clouds 20 1017 68 10000 1.54 130 19:48 13.02.2021
2590 Clouds 19 1017 72 10000 1.54 110 19:23 13.02.2021
2591 Clear 20 1017 68 10000 2.57 100 18:49 13.02.2021
2592 Clear 20 1017 68 10000 1.54 130 18:25 13.02.2021
2593 Clear 20 1018 68 10000 1.03 0 17:44 13.02.2021
2594 Clear 20 1017 68 10000 1.54 90 17:24 13.02.2021
2595 Clear 20 1017 68 10000 2.06 140 16:50 13.02.2021
2596 Clear 20 1017 68 10000 2.57 120 16:31 13.02.2021
2597 Clear 21 1017 64 10000 3.6 130 15:43 13.02.2021
2598 Clear 21 1017 64 10000 3.6 130 15:24 13.02.2021
2599 Clear 21 1016 64 10000 4.63 130 14:34 13.02.2021
2600 Clear 22 1016 60 10000 3.6 140 13:49 13.02.2021
2601 Clear 22 1015 56 10000 3.6 130 13:26 13.02.2021
2602 Clear 22 1015 56 10000 3.09 140 12:52 13.02.2021
2603 Clear 22 1015 53 10000 3.6 130 12:20 13.02.2021
2604 Clear 23 1014 49 10000 4.12 120 11:46 13.02.2021
2605 Clear 23 1014 49 10000 3.09 140 11:20 13.02.2021
2606 Clouds 23 1014 49 10000 2.57 150 10:47 13.02.2021
2607 Clouds 23 1014 46 10000 4.12 90 10:27 13.02.2021
2608 Clouds 23 1014 46 10000 2.57 100 09:59 13.02.2021
2609 Clouds 23 1015 49 10000 2.57 110 09:41 13.02.2021
2610 Clouds 23 1015 49 10000 2.57 110 09:20 13.02.2021
2611 Clouds 23 1015 49 10000 3.09 90 08:40 13.02.2021
2612 Clouds 23 1016 53 10000 2.06 150 07:53 13.02.2021
2613 Clouds 23 1018 53 9000 2.57 0 06:41 13.02.2021
2614 Clouds 21 1019 56 10000 2.06 90 05:27 13.02.2021
2615 Clouds 20 1019 64 9000 1.54 110 03:59 13.02.2021
2616 Mist 16 1018 88 4800 1.54 80 01:54 13.02.2021
2617 Mist 15 1018 88 4200 1.54 70 00:51 13.02.2021
2618 Clouds 15 1017 88 6000 1.03 100 23:54 12.02.2021
2619 Clouds 16 1017 82 7000 1.54 60 23:28 12.02.2021
2620 Clouds 16 1017 82 7000 1.03 70 22:45 12.02.2021
2621 Clear 16 1017 82 7000 1.03 70 22:26 12.02.2021
2622 Clear 16 1017 88 6000 1.54 60 21:50 12.02.2021
2623 Clear 16 1017 88 8000 1.54 50 21:29 12.02.2021
2624 Clear 16 1017 88 9000 2.06 70 20:51 12.02.2021
2625 Clear 16 1017 88 9000 2.06 70 20:32 12.02.2021
2626 Clear 16 1017 88 8000 2.06 70 19:58 12.02.2021
2627 Clear 16 1016 88 6000 2.57 70 19:38 12.02.2021
2628 Clear 17 1017 82 6000 3.09 100 18:58 12.02.2021
2629 Mist 16 1017 88 5000 2.06 80 18:30 12.02.2021
2630 Mist 17 1017 88 5000 1.03 0 17:46 12.02.2021
2631 Mist 17 1017 88 5000 1.03 330 17:21 12.02.2021
2632 Clear 17 1017 82 6000 3.69 154 16:28 12.02.2021
2633 Clear 18 1017 82 7000 0.51 330 15:46 12.02.2021
2634 Clear 18 1017 82 7000 0.51 330 15:21 12.02.2021
2635 Clear 20 1016 64 9000 1.03 0 14:42 12.02.2021
2636 Clear 20 1016 64 9000 1.03 0 14:23 12.02.2021
2637 Clear 20 1015 64 10000 1.03 0 13:40 12.02.2021
2638 Clear 20 1015 68 10000 1.54 80 12:56 12.02.2021
2639 Clear 21 1015 60 10000 2.06 130 12:37 12.02.2021
2640 Clear 21 1015 60 10000 2.06 130 12:18 12.02.2021
2641 Clear 22 1015 56 10000 1.54 180 11:38 12.02.2021
2642 Clear 22 1015 56 10000 1.54 180 11:19 12.02.2021
2643 Clear 22 1015 56 10000 0.51 0 10:41 12.02.2021
2644 Clear 22 1015 56 10000 1.54 130 09:49 12.02.2021
2645 Clear 22 1015 56 10000 1.03 0 09:25 12.02.2021
2646 Clear 22 1015 56 10000 1.03 0 08:49 12.02.2021
2647 Clear 22 1016 56 10000 1.54 200 08:28 12.02.2021
2648 Clear 22 1016 56 10000 2.06 170 07:53 12.02.2021
2649 Clouds 22 1017 60 9000 2.06 150 07:31 12.02.2021
2650 Clouds 21 1018 64 7000 2.06 130 06:55 12.02.2021
2651 Mist 20 1019 77 5000 2.06 100 05:43 12.02.2021
2652 Mist 20 1020 77 5000 2.57 80 04:22 12.02.2021
2653 Mist 18 1018 88 3600 1.54 90 01:23 12.02.2021
2654 Clouds 18 1017 77 7000 2.06 80 23:40 11.02.2021
2655 Clouds 18 1017 77 7000 2.06 80 23:22 11.02.2021
2656 Clouds 18 1017 77 7000 2.57 80 22:45 11.02.2021
2657 Clouds 18 1017 82 8000 1.54 60 22:24 11.02.2021
2658 Clouds 18 1017 82 7000 2.06 60 21:46 11.02.2021
2659 Clouds 18 1017 82 8000 2.57 80 21:27 11.02.2021
2660 Clouds 18 1017 82 8000 3.09 100 20:59 11.02.2021
2661 Clouds 18 1017 82 7000 2.57 90 20:40 11.02.2021
2662 Clouds 18 1017 82 7000 2.57 90 20:21 11.02.2021
2663 Clouds 18 1017 82 7000 3.09 100 19:47 11.02.2021
2664 Clouds 18 1017 82 9000 4.12 100 19:27 11.02.2021
2665 Clouds 18 1017 82 9000 4.12 110 18:45 11.02.2021
2666 Clouds 18 1017 82 9000 4.63 120 18:24 11.02.2021
2667 Clouds 19 1016 77 8000 4.12 120 17:49 11.02.2021
2668 Clouds 19 1016 77 8000 3.6 130 17:21 11.02.2021
2669 Clouds 20 1016 73 8000 4.12 130 16:47 11.02.2021
2670 Clouds 20 1016 73 8000 4.12 130 16:29 11.02.2021
2671 Clouds 20 1016 73 8000 4.12 140 15:48 11.02.2021
2672 Clouds 21 1016 60 8000 1.03 0 15:26 11.02.2021
2673 Clouds 20 1015 68 9000 3.98 144 14:58 11.02.2021
2674 Clear 21 1015 60 10000 0.51 0 14:32 11.02.2021
2675 Clear 21 1015 60 10000 3.86 151 13:45 11.02.2021
2676 Clear 21 1015 60 10000 3.86 151 13:45 11.02.2021
2677 Clear 21 1014 60 10000 1.03 70 13:21 11.02.2021
2678 Clear 21 1014 56 10000 1.54 50 12:56 11.02.2021
2679 Clear 22 1014 49 10000 1.54 60 12:35 11.02.2021
2680 Clear 22 1014 49 10000 1.54 50 11:49 11.02.2021
2681 Clear 23 1014 46 10000 2.06 50 11:29 11.02.2021
2682 Clear 24 1014 41 10000 1.54 50 10:57 11.02.2021
2683 Clear 24 1014 43 10000 1.03 0 10:39 11.02.2021
2684 Clear 24 1014 43 10000 1.03 0 10:21 11.02.2021
2685 Clouds 23 1014 46 10000 1.54 10 09:38 11.02.2021
2686 Clouds 23 1014 46 10000 1.54 10 09:19 11.02.2021
2687 Clouds 23 1014 46 10000 1.54 10 09:19 11.02.2021
2688 Clouds 22 1015 46 10000 2.06 70 08:46 11.02.2021
2689 Clouds 23 1015 43 10000 1.54 0 07:52 11.02.2021
2690 Clear 23 1016 46 10000 2.06 0 06:44 11.02.2021
2691 Clear 22 1017 49 10000 1.54 20 06:23 11.02.2021
2692 Clouds 20 1019 64 10000 2.57 40 03:46 11.02.2021
2693 Mist 17 1018 94 2700 2.06 40 02:25 11.02.2021
2694 Mist 15 1016 94 2100 1.54 60 00:24 11.02.2021
2695 Mist 16 1016 94 2800 1.54 60 23:54 10.02.2021
2696 Fog 16 1016 94 2100 1.03 40 23:20 10.02.2021
2697 Mist 16 1016 88 2900 0.51 50 22:44 10.02.2021
2698 Mist 15 1015 94 5000 1.54 90 22:24 10.02.2021
2699 Clear 16 1016 88 6000 2.57 70 21:40 10.02.2021
2700 Clear 16 1016 88 6000 2.57 70 21:21 10.02.2021
2701 Clear 17 1016 88 6000 2.57 60 20:52 10.02.2021
2702 Clear 17 1016 88 6000 1.54 50 20:29 10.02.2021
2703 Clear 18 1016 82 8000 2.57 90 19:50 10.02.2021
2704 Clear 18 1016 82 8000 2.57 90 19:50 10.02.2021
2705 Clouds 17 1017 88 8000 2.57 100 19:28 10.02.2021
2706 Clear 17 1016 88 8000 2.57 90 18:49 10.02.2021
2707 Clear 17 1016 88 8000 3.6 100 18:27 10.02.2021
2708 Clear 17 1016 88 7000 3.09 90 17:59 10.02.2021
2709 Clear 17 1016 82 6000 3.09 90 17:39 10.02.2021
2710 Clear 17 1016 82 6000 3.09 90 17:19 10.02.2021
2711 Clear 18 1016 77 6000 2.06 60 16:45 10.02.2021
2712 Clear 17 1015 82 6000 1.54 70 16:24 10.02.2021
2713 Clear 18 1015 77 9000 0.89 108 15:25 10.02.2021
2714 Clear 19 1015 63 10000 1.03 0 14:54 10.02.2021
2715 Clear 19 1015 59 10000 1.03 0 14:35 10.02.2021
2716 Clear 21 1014 52 10000 1.03 200 13:55 10.02.2021
2717 Clear 21 1014 52 10000 1.54 230 13:30 10.02.2021
2718 Clear 22 1014 49 10000 1.54 210 12:55 10.02.2021
2719 Clear 22 1014 49 10000 1.54 250 12:31 10.02.2021
2720 Clear 23 1013 43 10000 1.54 280 11:58 10.02.2021
2721 Clear 23 1013 43 10000 2.57 270 11:39 10.02.2021
2722 Clear 23 1013 43 10000 2.57 270 11:21 10.02.2021
2723 Clouds 23 1013 49 10000 3.09 250 10:25 10.02.2021
2724 Clouds 23 1013 49 10000 3.09 230 09:56 10.02.2021
2725 Clouds 23 1013 49 10000 3.09 230 09:56 10.02.2021
2726 Clouds 23 1013 49 10000 3.09 230 09:32 10.02.2021
2727 Clouds 23 1014 46 10000 1.54 260 08:56 10.02.2021
2728 Clouds 22 1014 53 10000 2.06 270 08:33 10.02.2021
2729 Clear 21 1015 60 10000 2.57 290 07:37 10.02.2021
2730 Clouds 20 1017 73 7000 3.6 290 06:21 10.02.2021
2731 Mist 14 1017 94 3000 2.06 300 01:28 10.02.2021
2732 Mist 14 1016 94 1200 2.06 330 23:59 09.02.2021
2733 Fog 14 1016 94 500 2.57 320 23:32 09.02.2021
2734 Fog 15 1016 94 800 2.06 320 22:45 09.02.2021
2735 Mist 15 1016 94 1100 2.06 280 22:24 09.02.2021
2736 Fog 14 1016 100 400 2.57 290 21:48 09.02.2021
2737 Fog 14 1015 94 900 1.03 20 21:24 09.02.2021
2738 Mist 15 1016 88 1800 0.51 270 20:44 09.02.2021
2739 Mist 15 1016 88 2000 0.51 0 20:25 09.02.2021
2740 Mist 15 1016 88 4300 3.09 300 19:52 09.02.2021
2741 Mist 15 1016 88 4300 3.09 300 19:29 09.02.2021
2742 Mist 15 1016 88 5000 2.06 310 18:49 09.02.2021
2743 Mist 15 1016 88 4000 2.57 330 18:31 09.02.2021
2744 Mist 16 1017 82 4500 1.54 270 17:50 09.02.2021
2745 Mist 16 1017 82 4500 1.54 270 17:28 09.02.2021
2746 Clear 16 1017 88 10000 0.51 250 16:54 09.02.2021
2747 Clouds 16 1017 88 8000 1.03 0 16:20 09.02.2021
2748 Clouds 16 1017 88 9000 1.54 320 15:58 09.02.2021
2749 Clouds 16 1017 88 8000 2.06 310 15:40 09.02.2021
2750 Clouds 16 1017 88 8000 2.06 310 15:40 09.02.2021
2751 Clouds 16 1017 88 8000 2.06 310 15:21 09.02.2021
2752 Clouds 16 1017 88 9000 2.57 310 14:43 09.02.2021
2753 Clouds 16 1017 88 8000 2.06 290 14:23 09.02.2021
2754 Clouds 16 1016 88 7000 3.09 310 13:43 09.02.2021
2755 Clouds 16 1016 88 7000 3.09 310 13:20 09.02.2021
2756 Clouds 16 1015 88 7000 2.57 350 12:47 09.02.2021
2757 Clouds 16 1016 88 6000 5.14 270 12:27 09.02.2021
2758 Clouds 16 1016 88 6000 4.63 300 11:44 09.02.2021
2759 Clouds 16 1014 88 10000 2.06 70 11:22 09.02.2021
2760 Clouds 16 1016 88 10000 4.12 300 10:57 09.02.2021
2761 Clouds 16 1016 88 10000 4.12 300 10:23 09.02.2021
2762 Clouds 16 1015 82 10000 2.06 350 09:55 09.02.2021
2763 Clouds 16 1014 82 10000 3.6 0 09:27 09.02.2021
2764 Clouds 17 1015 77 10000 3.09 0 08:57 09.02.2021
2765 Clouds 17 1016 77 10000 2.06 350 08:29 09.02.2021
2766 Clouds 16 1016 82 10000 3.09 0 07:53 09.02.2021
2767 Clouds 16 1020 88 4200 2.57 310 05:35 09.02.2021
2768 Clouds 16 1019 88 10000 3.09 280 03:49 09.02.2021
2769 Rain 15 1019 94 8000 4.63 310 01:52 09.02.2021
2770 Clouds 15 1017 94 8000 5.14 300 00:31 09.02.2021
2771 Clouds 15 1016 94 7000 5.66 300 23:23 08.02.2021
2772 Clouds 16 1016 94 8000 6.17 290 22:59 08.02.2021
2773 Clouds 16 1016 94 8000 4.63 310 22:41 08.02.2021
2774 Clouds 16 1016 94 8000 4.63 310 22:21 08.02.2021
2775 Clouds 16 1016 94 7000 3.6 300 21:45 08.02.2021
2776 Clouds 16 1016 94 7000 3.6 300 21:21 08.02.2021
2777 Clouds 16 1017 94 9000 2.06 310 20:44 08.02.2021
2778 Clouds 16 1017 94 9000 2.06 310 20:24 08.02.2021
2779 Clouds 16 1018 94 8000 1.54 300 19:51 08.02.2021
2780 Clouds 16 1018 94 5000 2.06 310 19:30 08.02.2021
2781 Clouds 16 1019 94 10000 4.12 300 18:59 08.02.2021
2782 Clouds 17 1019 94 10000 4.12 280 18:40 08.02.2021
2783 Clouds 17 1019 94 10000 4.12 280 18:18 08.02.2021
2784 Clouds 17 1019 88 5000 4.12 280 17:41 08.02.2021
2785 Clouds 17 1019 88 5000 4.12 280 17:22 08.02.2021
2786 Clouds 17 1019 88 7000 2.06 290 16:40 08.02.2021
2787 Clouds 17 1019 88 7000 2.06 290 16:20 08.02.2021
2788 Clouds 18 1019 82 8000 3.09 300 15:38 08.02.2021
2789 Clouds 18 1019 82 8000 3.09 300 15:19 08.02.2021
2790 Clouds 18 1019 82 10000 3.09 290 14:51 08.02.2021
2791 Clouds 18 1018 88 9000 4.12 300 14:29 08.02.2021
2792 Clouds 18 1018 88 6000 3.6 280 13:54 08.02.2021
2793 Clouds 18 1018 88 8000 3.6 260 13:28 08.02.2021
2794 Clouds 18 1018 88 8000 3.6 260 13:28 08.02.2021
2795 Clouds 19 1017 77 10000 4.63 290 12:42 08.02.2021
2796 Clouds 19 1017 77 10000 4.63 290 12:24 08.02.2021
2797 Clouds 21 1017 68 10000 6.69 280 11:39 08.02.2021
2798 Clouds 21 1016 68 10000 5.66 290 10:47 08.02.2021
2799 Clouds 22 1016 68 10000 6.69 290 10:26 08.02.2021
2800 Clouds 22 1016 68 10000 6.17 300 09:59 08.02.2021
2801 Clouds 23 1016 64 8000 5.66 290 09:37 08.02.2021
2802 Clouds 23 1016 64 8000 5.66 290 08:57 08.02.2021
2803 Clouds 23 1017 64 7000 4.63 290 08:27 08.02.2021
2804 Clouds 24 1017 53 10000 4.12 330 07:47 08.02.2021
2805 Haze 23 1018 64 5000 2.57 300 06:39 08.02.2021
2806 Mist 22 1019 78 4200 3.09 290 05:18 08.02.2021
2807 Mist 20 1018 83 1900 2.06 300 02:27 08.02.2021
2808 Mist 21 1017 78 3700 1.54 280 00:25 08.02.2021
2809 Mist 21 1017 78 3700 1.54 230 23:55 07.02.2021
2810 Mist 20 1016 83 3500 0.51 0 23:28 07.02.2021
2811 Mist 21 1016 78 3500 2.25 96 22:58 07.02.2021
2812 Mist 21 1016 78 3500 1.03 0 22:40 07.02.2021
2813 Mist 21 1016 78 3500 1.03 0 22:21 07.02.2021
2814 Mist 21 1016 78 3700 0.51 300 21:50 07.02.2021
2815 Mist 21 1016 78 3400 2.06 320 21:25 07.02.2021
2816 Mist 21 1016 78 3400 2.06 320 21:25 07.02.2021
2817 Mist 21 1016 78 2900 2.06 320 20:50 07.02.2021
2818 Mist 21 1017 78 2900 1.03 0 20:29 07.02.2021
2819 Mist 22 1017 73 2900 1.54 290 19:52 07.02.2021
2820 Mist 22 1017 73 3100 1.54 310 19:29 07.02.2021
2821 Mist 22 1017 73 3100 1.54 280 18:49 07.02.2021
2822 Mist 22 1017 73 3100 1.54 260 18:29 07.02.2021
2823 Mist 22 1017 73 3200 1.54 260 17:58 07.02.2021
2824 Mist 22 1017 73 3500 1.03 230 17:39 07.02.2021
2825 Mist 22 1017 73 3500 1.03 230 17:18 07.02.2021
2826 Clear 23 1017 60 8000 2.06 160 16:42 07.02.2021
2827 Clear 23 1017 60 8000 2.06 160 16:21 07.02.2021
2828 Clear 23 1017 60 7000 1.54 190 15:44 07.02.2021
2829 Clear 24 1017 57 7000 1.03 180 15:22 07.02.2021
2830 Clouds 23 1017 60 7000 2.06 140 14:46 07.02.2021
2831 Clouds 24 1016 57 8000 2.06 140 14:27 07.02.2021
2832 Clouds 24 1016 57 8000 2.57 140 13:52 07.02.2021
2833 Clouds 24 1015 57 8000 2.57 140 13:30 07.02.2021
2834 Clouds 24 1015 57 9000 2.57 90 12:43 07.02.2021
2835 Clouds 24 1015 57 9000 2.57 90 12:22 07.02.2021
2836 Clouds 25 1015 50 9000 3.09 90 11:46 07.02.2021
2837 Clouds 25 1014 53 9000 3.09 90 11:26 07.02.2021
2838 Clouds 25 1014 53 8000 3.6 80 10:44 07.02.2021
2839 Clouds 25 1014 53 7000 3.6 80 10:23 07.02.2021
2840 Clouds 25 1014 50 8000 3.6 80 09:44 07.02.2021
2841 Clouds 26 1014 47 10000 3.09 120 09:21 07.02.2021
2842 Clouds 26 1014 47 8000 2.06 160 08:22 07.02.2021
2843 Haze 24 1017 57 3700 2.57 0 06:34 07.02.2021
2844 Haze 23 1018 60 3000 2.06 130 05:56 07.02.2021
2845 Mist 19 1018 88 1700 3.6 70 03:39 07.02.2021
2846 Mist 17 1016 94 1300 3.09 60 01:24 07.02.2021
2847 Mist 17 1016 88 2800 2.57 50 00:29 07.02.2021
2848 Mist 17 1015 88 2400 2.57 60 23:42 06.02.2021
2849 Mist 17 1015 88 3000 2.06 70 22:33 06.02.2021
2850 Mist 17 1015 88 2500 1.54 70 21:39 06.02.2021
2851 Mist 17 1015 88 2500 1.54 70 21:21 06.02.2021
2852 Mist 17 1015 88 2800 2.06 50 20:47 06.02.2021
2853 Mist 17 1015 88 3100 1.54 80 20:25 06.02.2021
2854 Mist 17 1016 88 4000 1.54 80 19:55 06.02.2021
2855 Mist 18 1016 88 4600 2.06 80 19:29 06.02.2021
2856 Mist 18 1016 82 5000 3.09 120 18:46 06.02.2021
2857 Mist 19 1016 82 5000 3.09 130 18:28 06.02.2021
2858 Mist 19 1016 82 5000 3.6 130 17:45 06.02.2021
2859 Mist 20 1016 83 4900 4.12 130 17:22 06.02.2021
2860 Mist 20 1016 83 5000 2.57 140 16:58 06.02.2021
2861 Clear 21 1016 83 6000 2.57 140 16:37 06.02.2021
2862 Clear 21 1016 83 6000 2.57 140 16:19 06.02.2021
2863 Clear 21 1016 83 6000 3.09 140 15:40 06.02.2021
2864 Clear 21 1016 83 6000 3.09 140 15:19 06.02.2021
2865 Clear 21 1016 83 6000 3.09 140 14:44 06.02.2021
2866 Mist 21 1016 88 5000 2.57 130 14:23 06.02.2021
2867 Clear 21 1015 64 6000 2.57 100 13:47 06.02.2021
2868 Clear 21 1015 60 10000 2.06 80 12:56 06.02.2021
2869 Clear 22 1014 56 10000 3.09 90 12:21 06.02.2021
2870 Clear 23 1014 53 10000 2.57 80 11:47 06.02.2021
2871 Clear 24 1014 50 10000 2.06 90 11:22 06.02.2021
2872 Clear 24 1014 50 10000 1.54 140 10:54 06.02.2021
2873 Clouds 25 1014 47 9000 1.54 0 10:28 06.02.2021
2874 Clouds 25 1015 50 9000 2.06 90 09:56 06.02.2021
2875 Clouds 24 1015 53 8000 1.03 0 09:36 06.02.2021
2876 Clouds 24 1015 53 8000 1.03 0 09:18 06.02.2021
2877 Clouds 23 1016 56 8000 1.54 0 08:29 06.02.2021
2878 Clouds 23 1016 56 8000 2.06 60 07:54 06.02.2021
2879 Clouds 21 1020 64 7000 2.57 150 05:42 06.02.2021
2880 Clouds 20 1020 73 6000 3.6 120 03:48 06.02.2021
2881 Mist 18 1019 94 1900 2.57 90 01:33 06.02.2021
2882 Mist 18 1018 94 3300 3.6 90 00:46 06.02.2021
2883 Mist 18 1018 94 2700 2.57 80 00:19 06.02.2021
2884 Mist 17 1017 94 2300 2.57 80 23:42 05.02.2021
2885 Mist 17 1017 94 2300 2.57 80 23:24 05.02.2021
2886 Mist 17 1017 94 2500 3.09 80 22:45 05.02.2021
2887 Mist 17 1017 94 2500 2.06 70 22:18 05.02.2021
2888 Mist 17 1017 94 3500 3.09 80 21:40 05.02.2021
2889 Mist 17 1017 94 3600 2.57 90 20:59 05.02.2021
2890 Mist 17 1017 88 4700 1.54 80 20:38 05.02.2021
2891 Mist 18 1017 82 5000 1.54 70 19:48 05.02.2021
2892 Clear 18 1018 82 6000 1.54 110 19:19 05.02.2021
2893 Clear 19 1018 77 6000 2.06 120 18:43 05.02.2021
2894 Clear 19 1018 82 7000 2.57 140 18:19 05.02.2021
2895 Clear 20 1018 77 7000 2.57 130 17:42 05.02.2021
2896 Clear 20 1018 77 8000 3.09 140 17:21 05.02.2021
2897 Clear 20 1018 77 8000 3.09 140 16:44 05.02.2021
2898 Clear 20 1018 77 8000 3.6 140 16:23 05.02.2021
2899 Clear 21 1018 73 8000 2.57 140 15:51 05.02.2021
2900 Clear 21 1018 73 9000 3.09 150 15:25 05.02.2021
2901 Clear 22 1017 64 8000 2.57 140 14:40 05.02.2021
2902 Clear 22 1017 64 8000 2.57 140 14:22 05.02.2021
2903 Clear 23 1017 56 8000 2.06 130 13:57 05.02.2021
2904 Clear 23 1017 56 8000 2.57 140 13:33 05.02.2021
2905 Clouds 24 1016 57 9000 3.09 140 12:46 05.02.2021
2906 Clouds 24 1016 60 10000 2.57 140 12:25 05.02.2021
2907 Clouds 25 1016 47 10000 2.57 150 11:40 05.02.2021
2908 Clouds 25 1016 47 10000 2.57 150 11:21 05.02.2021
2909 Clouds 25 1016 47 10000 1.54 190 10:49 05.02.2021
2910 Clouds 26 1016 44 10000 2.06 160 10:26 05.02.2021
2911 Clouds 26 1016 44 10000 3.09 140 09:43 05.02.2021
2912 Clouds 26 1016 44 10000 3.09 140 09:25 05.02.2021
2913 Clouds 25 1017 47 10000 3.09 110 08:47 05.02.2021
2914 Clouds 25 1018 50 10000 2.06 130 07:52 05.02.2021
2915 Clouds 24 1018 53 10000 2.57 130 07:34 05.02.2021
2916 Clouds 24 1020 53 10000 3.09 130 06:42 05.02.2021
2917 Clouds 23 1021 60 8000 3.09 120 05:35 05.02.2021
2918 Mist 18 1020 88 1100 4.12 70 02:27 05.02.2021
2919 Mist 18 1020 88 1100 3.6 70 01:59 05.02.2021
2920 Mist 18 1018 88 1900 2.57 90 00:38 05.02.2021
2921 Mist 18 1018 88 1900 2.57 90 00:19 05.02.2021
2922 Mist 18 1018 88 1800 2.06 90 23:44 04.02.2021
2923 Mist 18 1018 88 1900 2.06 60 23:26 04.02.2021
2924 Mist 17 1017 88 1700 2.57 60 22:55 04.02.2021
2925 Mist 17 1017 88 1900 2.06 70 22:37 04.02.2021
2926 Mist 17 1017 88 1900 2.06 70 22:18 04.02.2021
2927 Mist 17 1017 88 1800 2.57 70 21:41 04.02.2021
2928 Mist 17 1017 88 1800 2.57 70 21:18 04.02.2021
2929 Mist 17 1018 88 1400 1.03 0 20:45 04.02.2021
2930 Mist 17 1018 88 2000 2.06 80 20:25 04.02.2021
2931 Mist 17 1018 88 2300 1.54 50 19:41 04.02.2021
2932 Mist 18 1018 88 3300 1.03 0 18:51 04.02.2021
2933 Mist 18 1018 88 3300 1.03 0 18:24 04.02.2021
2934 Mist 18 1019 82 3800 1.54 100 17:51 04.02.2021
2935 Mist 19 1019 82 4600 1.03 0 17:24 04.02.2021
2936 Mist 19 1019 82 4000 1.03 0 16:56 04.02.2021
2937 Mist 19 1019 82 4200 1.54 90 16:37 04.02.2021
2938 Mist 19 1019 82 4200 1.54 90 16:18 04.02.2021
2939 Mist 19 1019 82 3900 2.57 110 15:39 04.02.2021
2940 Mist 19 1019 82 3900 2.57 110 15:39 04.02.2021
2941 Mist 20 1019 77 5000 3.09 100 15:20 04.02.2021
2942 Mist 19 1018 77 4400 3.6 100 14:41 04.02.2021
2943 Mist 19 1018 77 4400 3.6 100 14:20 04.02.2021
2944 Clear 21 1018 68 7000 3.09 100 13:44 04.02.2021
2945 Clouds 21 1018 68 8000 3.09 100 12:59 04.02.2021
2946 Clouds 22 1018 60 9000 2.06 100 12:36 04.02.2021
2947 Clear 23 1018 60 10000 2.57 130 11:54 04.02.2021
2948 Clouds 23 1018 56 10000 3.09 130 11:33 04.02.2021
2949 Clouds 24 1018 57 10000 3.09 150 10:51 04.02.2021
2950 Clouds 24 1018 53 10000 3.6 130 10:21 04.02.2021
2951 Clouds 24 1018 53 10000 2.57 160 09:44 04.02.2021
2952 Clouds 24 1018 57 10000 2.57 140 09:19 04.02.2021
2953 Clouds 23 1018 64 8000 2.57 160 08:48 04.02.2021
2954 Clouds 22 1019 68 6000 2.57 110 08:24 04.02.2021
2955 Mist 22 1020 83 4000 2.06 100 07:43 04.02.2021
2956 Mist 22 1020 78 3700 2.06 170 07:24 04.02.2021
2957 Mist 21 1022 83 3100 0.51 0 06:43 04.02.2021
2958 Mist 19 1023 94 2100 2.06 80 04:31 04.02.2021
2959 Mist 19 1022 88 1800 2.57 80 02:27 04.02.2021
2960 Mist 18 1021 94 3900 2.06 60 00:57 04.02.2021
2961 Mist 18 1021 94 5000 1.03 0 23:44 03.02.2021
2962 Mist 18 1020 94 5000 2.06 90 23:24 03.02.2021
2963 Mist 18 1020 94 4400 2.06 100 22:24 03.02.2021
2964 Mist 17 1019 94 4300 1.03 90 21:59 03.02.2021
2965 Mist 17 1019 94 5000 2.06 80 21:41 03.02.2021
2966 Mist 17 1019 94 5000 2.06 80 21:21 03.02.2021
2967 Clouds 18 1019 88 6000 1.54 80 20:46 03.02.2021
2968 Clouds 18 1019 88 7000 2.57 70 20:26 03.02.2021
2969 Clouds 18 1020 88 6000 1.54 50 19:51 03.02.2021
2970 Clear 19 1020 88 8000 1.54 120 19:23 03.02.2021
2971 Clear 19 1020 88 8000 1.03 0 18:51 03.02.2021
2972 Clouds 19 1020 88 8000 1.03 170 18:21 03.02.2021
2973 Clouds 19 1020 88 9000 2.57 140 17:57 03.02.2021
2974 Clear 19 1020 88 8000 0.51 0 17:36 03.02.2021
2975 Clear 19 1020 88 8000 0.51 0 17:18 03.02.2021
2976 Clear 20 1020 83 8000 2.06 160 16:35 03.02.2021
2977 Clear 20 1020 83 7000 2.57 140 15:50 03.02.2021
2978 Clear 20 1020 83 7000 3.6 130 15:30 03.02.2021
2979 Clear 21 1019 78 9000 4.63 120 14:54 03.02.2021
2980 Clear 21 1019 78 9000 4.63 130 14:30 03.02.2021
2981 Clear 22 1019 73 9000 5.14 140 13:56 03.02.2021
2982 Clouds 22 1018 68 9000 4.12 140 13:29 03.02.2021
2983 Clouds 23 1018 60 9000 3.09 140 12:55 03.02.2021
2984 Clear 24 1018 53 10000 3.6 140 12:36 03.02.2021
2985 Clear 24 1018 53 10000 3.6 140 12:18 03.02.2021
2986 Clear 25 1018 50 10000 3.09 170 11:38 03.02.2021
2987 Clouds 25 1017 50 10000 3.09 180 10:59 03.02.2021
2988 Clouds 25 1017 50 10000 2.06 150 10:23 03.02.2021
2989 Clouds 25 1017 50 10000 3.6 130 09:51 03.02.2021
2990 Clouds 26 1017 47 10000 1.03 0 09:32 03.02.2021
2991 Clouds 25 1017 50 10000 0.51 0 08:54 03.02.2021
2992 Clouds 25 1017 50 10000 0.51 0 08:54 03.02.2021
2993 Clouds 26 1018 47 9000 1.54 0 08:35 03.02.2021
2994 Clouds 24 1019 57 7000 1.03 0 07:42 03.02.2021
2995 Clouds 23 1020 60 6000 2.57 110 06:42 03.02.2021
2996 Clouds 21 1022 68 6000 1.54 80 04:55 03.02.2021
2997 Clouds 21 1022 68 6000 2.06 90 04:34 03.02.2021
2998 Mist 20 1022 77 5000 1.54 100 03:40 03.02.2021
2999 Mist 19 1021 82 3200 2.06 90 02:37 03.02.2021
3000 Mist 18 1020 88 4700 3.09 100 00:56 03.02.2021
3001 Mist 18 1019 88 3900 2.06 70 23:59 02.02.2021
3002 Mist 18 1019 88 3600 2.57 80 23:40 02.02.2021
3003 Mist 18 1019 88 3600 2.57 80 23:22 02.02.2021
3004 Mist 19 1019 82 4000 2.57 100 22:37 02.02.2021
3005 Mist 19 1019 82 4000 2.57 100 22:18 02.02.2021
3006 Mist 19 1018 82 3500 2.57 80 21:39 02.02.2021
3007 Mist 19 1018 82 3500 2.57 80 21:19 02.02.2021
3008 Mist 19 1019 88 3200 2.06 80 20:44 02.02.2021
3009 Mist 19 1019 82 3500 2.57 80 20:20 02.02.2021
3010 Mist 19 1019 82 3500 2.57 90 19:48 02.02.2021
3011 Mist 19 1019 88 3600 2.06 80 19:29 02.02.2021
3012 Mist 20 1019 77 4500 2.06 120 18:46 02.02.2021
3013 Mist 20 1019 77 4600 2.06 120 18:26 02.02.2021
3014 Mist 20 1019 77 4600 2.06 120 17:50 02.02.2021
3015 Mist 20 1019 77 4400 2.57 130 17:23 02.02.2021
3016 Mist 20 1019 77 4100 2.57 100 16:57 02.02.2021
3017 Mist 20 1019 77 4700 2.57 80 16:38 02.02.2021
3018 Mist 20 1019 77 5000 2.57 90 15:59 02.02.2021
3019 Mist 21 1019 73 5000 2.57 100 15:41 02.02.2021
3020 Mist 21 1019 73 5000 2.57 100 15:21 02.02.2021
3021 Mist 21 1018 78 5000 2.06 80 14:41 02.02.2021
3022 Mist 21 1018 78 5000 2.06 80 14:19 02.02.2021
3023 Mist 21 1018 83 5000 2.06 70 13:46 02.02.2021
3024 Clouds 21 1018 83 6000 2.06 70 13:28 02.02.2021
3025 Clouds 21 1018 83 6000 2.57 80 12:57 02.02.2021
3026 Mist 22 1017 78 5000 2.57 90 12:27 02.02.2021
3027 Clouds 22 1017 78 9000 3.6 110 11:41 02.02.2021
3028 Clouds 22 1017 78 9000 3.6 110 11:20 02.02.2021
3029 Clouds 23 1017 73 8000 3.09 120 10:51 02.02.2021
3030 Clouds 22 1017 73 8000 4.12 110 10:26 02.02.2021
3031 Clouds 23 1017 68 9000 5.14 100 09:46 02.02.2021
3032 Clouds 23 1017 68 10000 3.09 140 09:25 02.02.2021
3033 Clouds 22 1017 68 8000 3.6 160 08:48 02.02.2021
3034 Clouds 22 1018 68 7000 2.57 110 08:21 02.02.2021
3035 Clouds 23 1019 64 10000 3.6 150 07:28 02.02.2021
3036 Clouds 22 1020 68 10000 3.09 120 06:41 02.02.2021
3037 Clouds 22 1020 68 10000 3.6 130 05:51 02.02.2021
3038 Clouds 21 1021 73 6000 2.57 130 04:36 02.02.2021
3039 Mist 19 1020 82 5000 3.09 110 02:25 02.02.2021
3040 Drizzle 19 1020 82 3300 3.09 110 01:23 02.02.2021
3041 Mist 19 1019 82 5000 2.57 120 00:18 02.02.2021
3042 Mist 19 1018 82 5000 3.6 110 23:18 01.02.2021
3043 Mist 19 1018 82 5000 2.57 110 22:39 01.02.2021
3044 Mist 19 1018 82 5000 2.57 110 22:21 01.02.2021
3045 Mist 19 1018 82 5000 3.09 100 21:48 01.02.2021
3046 Mist 19 1018 82 5000 3.09 100 21:48 01.02.2021
3047 Mist 19 1018 82 5000 3.09 90 21:24 01.02.2021
3048 Mist 19 1018 82 5000 3.09 110 20:44 01.02.2021
3049 Mist 19 1018 82 5000 2.57 90 20:25 01.02.2021
3050 Mist 19 1018 82 4700 3.6 90 19:49 01.02.2021
3051 Mist 19 1018 82 3700 3.09 90 19:21 01.02.2021
3052 Mist 19 1019 82 4700 3.09 100 18:58 01.02.2021
3053 Mist 19 1019 82 5000 3.09 120 18:39 01.02.2021
3054 Mist 19 1019 82 5000 3.09 120 18:21 01.02.2021
3055 Clouds 19 1019 82 6000 3.09 130 17:42 01.02.2021
3056 Clouds 19 1019 82 6000 3.09 130 17:19 01.02.2021
3057 Clouds 20 1018 77 8000 4.12 140 16:40 01.02.2021
3058 Clouds 20 1018 77 8000 4.12 140 16:21 01.02.2021
3059 Clouds 20 1018 77 7000 4.12 140 15:40 01.02.2021
3060 Clear 20 1018 77 7000 4.12 140 15:19 01.02.2021
3061 Clear 20 1018 77 7000 4.12 140 15:19 01.02.2021
3062 Clear 21 1017 73 7000 4.12 140 14:48 01.02.2021
3063 Clouds 22 1017 68 7000 3.6 120 14:18 01.02.2021
3064 Mist 22 1016 68 5000 3.09 90 13:42 01.02.2021
3065 Mist 22 1016 68 5000 3.09 90 13:22 01.02.2021
3066 Mist 22 1016 73 5000 2.57 130 12:44 01.02.2021
3067 Mist 22 1016 73 5000 2.57 130 12:23 01.02.2021
3068 Clouds 23 1016 64 7000 3.09 130 11:43 01.02.2021
3069 Clouds 23 1016 64 7000 3.09 130 11:20 01.02.2021
3070 Clouds 23 1016 64 7000 1.54 140 10:46 01.02.2021
3071 Clouds 23 1016 60 7000 2.06 140 10:21 01.02.2021
3072 Clouds 23 1016 64 6000 1.54 130 09:47 01.02.2021
3073 Clouds 22 1016 73 6000 0.51 0 09:25 01.02.2021
3074 Clouds 22 1016 73 6000 0.51 0 09:25 01.02.2021
3075 Mist 22 1016 73 5000 1.03 0 08:56 01.02.2021
3076 Mist 22 1017 73 4900 1.54 250 08:21 01.02.2021
3077 Mist 22 1019 73 4600 1.54 160 06:51 01.02.2021
3078 Mist 20 1020 77 3000 1.03 0 04:32 01.02.2021
3079 Mist 19 1019 82 2300 2.06 70 02:37 01.02.2021
3080 Mist 18 1019 88 3400 1.54 50 23:47 31.01.2021
3081 Mist 18 1018 88 2900 1.03 0 22:56 31.01.2021
3082 Mist 18 1018 88 3600 1.03 160 22:36 31.01.2021
3083 Mist 18 1018 88 3000 2.03 137 22:18 31.01.2021
3084 Mist 18 1018 88 3100 1.03 40 21:41 31.01.2021
3085 Mist 18 1018 88 3100 1.03 40 21:19 31.01.2021
3086 Mist 18 1019 94 3000 1.03 80 20:41 31.01.2021
3087 Mist 18 1019 94 3000 1.03 80 20:19 31.01.2021
3088 Mist 18 1019 94 3000 1.03 80 20:19 31.01.2021
3089 Mist 18 1020 88 3000 1.03 0 19:38 31.01.2021
3090 Mist 18 1020 88 3000 1.03 0 19:19 31.01.2021
3091 Mist 18 1020 88 3200 1.03 0 18:44 31.01.2021
3092 Mist 19 1020 88 3400 2.07 157 18:24 31.01.2021
3093 Mist 19 1020 88 3200 2.06 40 17:50 31.01.2021
3094 Mist 19 1020 88 3500 2.57 80 17:24 31.01.2021
3095 Mist 19 1020 88 3500 3.09 120 16:58 31.01.2021
3096 Mist 19 1020 94 3300 2.06 130 16:39 31.01.2021
3097 Mist 19 1020 94 3300 2.06 130 16:19 31.01.2021
3098 Mist 19 1020 94 2500 2.06 80 15:43 31.01.2021
3099 Mist 19 1019 94 2100 3.09 140 14:50 31.01.2021
3100 Mist 19 1019 94 2700 1.54 140 14:28 31.01.2021
3101 Mist 19 1019 94 2100 1.54 130 13:57 31.01.2021
3102 Mist 18 1018 94 1900 3.05 145 13:38 31.01.2021
3103 Mist 18 1018 94 1700 0.51 0 12:56 31.01.2021
3104 Mist 18 1018 94 1700 1.03 300 12:37 31.01.2021
3105 Mist 18 1018 94 1700 1.03 300 12:19 31.01.2021
3106 Drizzle 18 1017 94 1100 1.03 0 11:38 31.01.2021
3107 Drizzle 18 1017 94 1100 1.03 0 11:19 31.01.2021
3108 Drizzle 18 1017 88 1000 0.51 0 10:44 31.01.2021
3109 Drizzle 18 1017 88 1000 0.51 0 10:25 31.01.2021
3110 Mist 18 1018 88 1000 0.51 0 09:33 31.01.2021
3111 Drizzle 18 1018 88 900 0.51 0 08:34 31.01.2021
3112 Drizzle 18 1019 88 800 0.51 0 07:50 31.01.2021
3113 Mist 19 1021 77 2500 2.06 150 05:54 31.01.2021
3114 Mist 19 1021 77 2500 2.06 150 05:54 31.01.2021
3115 Mist 17 1019 82 3600 1.54 60 00:53 31.01.2021
3116 Mist 17 1019 82 3600 1.03 40 00:28 31.01.2021
3117 Mist 17 1019 82 3500 1.03 0 23:34 30.01.2021
3118 Mist 18 1019 77 3700 2.06 120 22:59 30.01.2021
3119 Mist 18 1019 77 3700 1.54 80 22:33 30.01.2021
3120 Mist 18 1019 77 3600 1.03 30 21:43 30.01.2021
3121 Mist 17 1019 82 3500 2.06 60 21:23 30.01.2021
3122 Mist 18 1019 77 3600 2.06 90 20:50 30.01.2021
3123 Mist 18 1020 77 3500 1.54 90 20:32 30.01.2021
3124 Mist 18 1020 77 3700 1.54 70 19:55 30.01.2021
3125 Mist 18 1020 77 3700 1.54 90 19:36 30.01.2021
3126 Mist 18 1020 77 3700 1.54 90 19:18 30.01.2021
3127 Mist 18 1020 77 3900 1.54 40 18:39 30.01.2021
3128 Mist 18 1020 77 3900 1.54 40 18:19 30.01.2021
3129 Mist 18 1020 77 3900 1.54 80 17:24 30.01.2021
3130 Mist 18 1020 77 3900 1.54 80 17:24 30.01.2021
3131 Mist 18 1020 77 3900 1.54 60 16:57 30.01.2021
3132 Mist 18 1020 77 4100 1.54 40 16:37 30.01.2021
3133 Mist 18 1020 77 4100 1.54 40 16:19 30.01.2021
3134 Mist 18 1020 77 4400 2.06 40 15:42 30.01.2021
3135 Mist 18 1020 77 4400 2.06 40 15:22 30.01.2021
3136 Mist 18 1019 77 4500 2.06 80 14:52 30.01.2021
3137 Mist 18 1019 82 4000 2.06 100 14:22 30.01.2021
3138 Mist 18 1019 82 3900 1.03 0 13:40 30.01.2021
3139 Mist 18 1019 82 3900 1.03 0 13:19 30.01.2021
3140 Mist 18 1018 88 3200 4.12 100 12:42 30.01.2021
3141 Mist 18 1018 88 3200 4.12 100 12:20 30.01.2021
3142 Mist 19 1018 72 4100 2.57 70 11:37 30.01.2021
3143 Mist 19 1018 77 4100 2.57 70 10:51 30.01.2021
3144 Mist 19 1018 77 4800 2.06 50 09:53 30.01.2021
3145 Mist 19 1019 77 4700 1.54 60 09:31 30.01.2021
3146 Mist 19 1019 77 5000 1.54 60 08:49 30.01.2021
3147 Mist 19 1019 77 5000 2.06 50 08:30 30.01.2021
3148 Mist 19 1020 72 5000 2.57 70 06:58 30.01.2021
3149 Mist 19 1021 72 5000 2.06 40 06:19 30.01.2021
3150 Mist 17 1022 77 2200 2.06 60 03:35 30.01.2021
3151 Mist 16 1021 88 1500 3.09 80 02:25 30.01.2021
3152 Mist 16 1020 88 2200 2.57 70 01:31 30.01.2021
3153 Mist 16 1020 94 3100 2.06 70 00:44 30.01.2021
3154 Mist 16 1020 94 3100 2.06 70 00:21 30.01.2021
3155 Mist 16 1019 94 3100 2.06 60 23:46 29.01.2021
3156 Mist 16 1019 94 3200 1.54 60 23:22 29.01.2021
3157 Mist 15 1019 94 3000 1.54 80 22:44 29.01.2021
3158 Mist 15 1018 94 2600 2.57 90 22:20 29.01.2021
3159 Mist 15 1019 88 3100 1.54 50 21:29 29.01.2021
3160 Mist 15 1019 88 3100 1.54 50 21:29 29.01.2021
3161 Mist 15 1019 88 3700 1.54 60 20:59 29.01.2021
3162 Mist 15 1019 88 4000 2.06 90 20:40 29.01.2021
3163 Mist 15 1019 88 4000 2.06 90 20:18 29.01.2021
3164 Mist 15 1020 88 4500 1.03 110 19:38 29.01.2021
3165 Mist 15 1020 88 4500 1.03 110 19:18 29.01.2021
3166 Mist 16 1020 82 5000 2.06 160 18:30 29.01.2021
3167 Mist 17 1020 77 5000 3.09 150 17:40 29.01.2021
3168 Mist 17 1020 77 5000 3.09 150 17:22 29.01.2021
3169 Mist 17 1020 77 5000 3.6 150 16:46 29.01.2021
3170 Clear 17 1020 77 6000 3.09 140 16:24 29.01.2021
3171 Clear 18 1020 72 6000 3.6 140 15:51 29.01.2021
3172 Clouds 18 1020 72 6000 3.6 130 15:31 29.01.2021
3173 Clouds 18 1019 72 7000 4.12 130 14:48 29.01.2021
3174 Clouds 19 1019 68 7000 3.6 140 14:18 29.01.2021
3175 Clouds 20 1019 64 6000 3.6 140 13:41 29.01.2021
3176 Clouds 20 1019 64 6000 3.6 140 13:22 29.01.2021
3177 Haze 20 1018 64 5000 4.12 130 12:28 29.01.2021
3178 Haze 21 1018 52 5000 4.12 130 11:50 29.01.2021
3179 Clouds 21 1018 56 6000 3.09 130 11:20 29.01.2021
3180 Clouds 21 1018 56 7000 2.57 150 10:51 29.01.2021
3181 Clouds 22 1018 53 8000 2.57 130 10:31 29.01.2021
3182 Clouds 22 1018 49 7000 3.09 0 09:49 29.01.2021
3183 Clouds 22 1019 49 8000 3.09 90 08:59 29.01.2021
3184 Clouds 22 1019 49 9000 3.6 100 08:38 29.01.2021
3185 Clouds 22 1019 49 9000 3.6 100 08:19 29.01.2021
3186 Clouds 21 1021 52 10000 3.09 80 07:41 29.01.2021
3187 Clouds 21 1021 52 10000 3.09 80 07:20 29.01.2021
3188 Clouds 19 1023 52 10000 3.09 60 05:23 29.01.2021
3189 Clouds 17 1024 67 8000 2.06 60 03:33 29.01.2021
3190 Clouds 16 1022 72 9000 1.54 50 00:43 29.01.2021
3191 Clouds 16 1022 63 10000 1.54 70 00:22 29.01.2021
3192 Clouds 16 1021 77 7000 1.03 60 23:44 28.01.2021
3193 Clouds 16 1021 82 8000 0.51 40 23:25 28.01.2021
3194 Clouds 17 1021 77 8000 0.51 0 22:47 28.01.2021
3195 Clouds 17 1021 77 8000 1.03 200 22:27 28.01.2021
3196 Clouds 16 1021 82 8000 2.07 336 21:57 28.01.2021
3197 Clouds 16 1021 82 7000 1.03 270 21:34 28.01.2021
3198 Clouds 16 1021 82 7000 0.51 290 20:59 28.01.2021
3199 Clouds 16 1022 82 8000 1.54 320 20:39 28.01.2021
3200 Clouds 16 1022 82 8000 1.54 320 20:18 28.01.2021
3201 Clouds 16 1022 82 8000 2.06 320 19:41 28.01.2021
3202 Clouds 16 1022 82 8000 2.06 320 19:23 28.01.2021
3203 Clouds 16 1022 82 8000 1.54 320 18:43 28.01.2021
3204 Clouds 16 1022 82 8000 1.54 310 18:20 28.01.2021
3205 Clouds 16 1022 82 6000 1.54 310 17:46 28.01.2021
3206 Clouds 16 1023 82 7000 2.57 300 17:27 28.01.2021
3207 Clouds 16 1023 77 8000 2.57 290 16:45 28.01.2021
3208 Clouds 16 1023 82 9000 3.09 300 16:24 28.01.2021
3209 Clouds 17 1023 77 9000 2.06 310 15:44 28.01.2021
3210 Clouds 17 1022 77 8000 2.57 310 15:19 28.01.2021
3211 Clouds 17 1022 72 8000 3.09 310 14:42 28.01.2021
3212 Clouds 17 1022 72 8000 3.09 310 14:23 28.01.2021
3213 Clouds 17 1022 67 10000 2.57 300 13:48 28.01.2021
3214 Clouds 18 1021 59 10000 3.6 320 12:59 28.01.2021
3215 Clouds 18 1021 63 10000 1.54 330 12:40 28.01.2021
3216 Clouds 18 1021 63 10000 1.54 330 12:21 28.01.2021
3217 Clouds 18 1021 59 10000 1.54 320 11:43 28.01.2021
3218 Clouds 18 1021 59 10000 3.09 30 11:20 28.01.2021
3219 Clouds 18 1021 59 10000 2.57 10 10:54 28.01.2021
3220 Clouds 18 1021 59 10000 3.09 10 10:34 28.01.2021
3221 Clouds 18 1021 59 10000 3.6 30 09:59 28.01.2021
3222 Clouds 19 1021 55 10000 4.63 20 09:30 28.01.2021
3223 Clouds 18 1021 59 10000 3.6 30 08:57 28.01.2021
3224 Clouds 18 1021 59 10000 4.63 50 08:38 28.01.2021
3225 Clouds 18 1022 59 10000 6.17 50 07:45 28.01.2021
3226 Clouds 18 1022 63 10000 5.66 50 06:50 28.01.2021
3227 Clouds 18 1023 68 10000 6.17 50 06:30 28.01.2021
3228 Mist 17 1024 94 3800 6.17 60 04:30 28.01.2021
3229 Clouds 19 1021 77 8000 2.57 90 01:39 28.01.2021
3230 Clouds 19 1019 77 8000 2.57 80 23:49 27.01.2021
3231 Clouds 19 1019 77 8000 1.54 70 23:24 27.01.2021
3232 Clouds 19 1019 77 7000 2.57 80 22:42 27.01.2021
3233 Clouds 19 1019 77 7000 2.57 80 22:22 27.01.2021
3234 Clouds 19 1019 77 7000 2.06 80 21:43 27.01.2021
3235 Clouds 19 1018 77 8000 2.57 90 21:24 27.01.2021
3236 Clouds 20 1018 73 7000 2.06 80 20:55 27.01.2021
3237 Clouds 20 1018 73 8000 2.57 100 20:30 27.01.2021
3238 Clouds 20 1018 73 9000 2.06 80 19:50 27.01.2021
3239 Clouds 20 1018 73 7000 2.57 90 19:26 27.01.2021
3240 Clouds 20 1018 77 6000 2.06 80 18:57 27.01.2021
3241 Clouds 20 1018 73 7000 3.09 120 18:38 27.01.2021
3242 Clouds 20 1018 73 7000 3.09 120 18:20 27.01.2021
3243 Clouds 20 1018 73 10000 4.12 110 17:39 27.01.2021
3244 Clouds 20 1017 73 10000 3.6 120 16:58 27.01.2021
3245 Clouds 21 1017 64 10000 3.09 140 16:39 27.01.2021
3246 Clouds 21 1017 64 10000 3.09 140 16:21 27.01.2021
3247 Clouds 21 1017 68 10000 4.12 140 15:49 27.01.2021
3248 Clouds 21 1017 68 10000 3.09 140 15:29 27.01.2021
3249 Clouds 21 1016 68 9000 4.63 140 14:38 27.01.2021
3250 Clouds 21 1016 68 9000 4.63 140 14:18 27.01.2021
3251 Clouds 22 1015 64 9000 4.63 120 13:35 27.01.2021
3252 Clouds 22 1014 64 7000 3.6 90 12:42 27.01.2021
3253 Clouds 22 1014 64 7000 3.6 90 12:42 27.01.2021
3254 Clouds 22 1014 64 7000 3.6 90 12:42 27.01.2021
3255 Clouds 22 1014 64 7000 3.6 90 12:24 27.01.2021
3256 Haze 22 1014 68 5000 3.09 80 11:50 27.01.2021
3257 Haze 23 1014 64 5000 3.6 80 11:26 27.01.2021
3258 Clouds 23 1014 64 6000 3.6 80 10:47 27.01.2021
3259 Clouds 23 1013 64 6000 4.12 80 10:25 27.01.2021
3260 Clouds 23 1013 60 10000 2.57 100 09:56 27.01.2021
3261 Clouds 23 1013 60 10000 2.57 120 09:28 27.01.2021
3262 Clouds 23 1014 60 10000 2.57 100 08:45 27.01.2021
3263 Clouds 23 1015 60 10000 4.12 110 07:49 27.01.2021
3264 Clouds 23 1015 64 10000 4.12 110 07:30 27.01.2021
3265 Clouds 23 1016 60 10000 4.12 100 06:27 27.01.2021
3266 Clouds 23 1017 60 10000 4.12 110 05:55 27.01.2021
3267 Clouds 22 1017 68 10000 4.63 110 05:34 27.01.2021
3268 Clouds 19 1018 82 6000 4.12 90 02:46 27.01.2021
3269 Mist 19 1017 82 4800 3.09 90 02:20 27.01.2021
3270 Clouds 18 1016 82 7000 3.09 100 00:58 27.01.2021
3271 Clouds 19 1016 77 7000 3.6 100 00:18 27.01.2021
3272 Clouds 19 1015 77 8000 3.09 120 23:32 26.01.2021
3273 Clouds 19 1015 77 7000 3.6 100 22:58 26.01.2021
3274 Clouds 18 1015 82 8000 3.6 100 22:37 26.01.2021
3275 Clouds 18 1015 82 8000 4.12 90 22:18 26.01.2021
3276 Clouds 18 1015 82 8000 4.12 90 21:46 26.01.2021
3277 Clouds 18 1015 82 6000 4.12 120 21:21 26.01.2021
3278 Clouds 19 1015 77 8000 4.63 120 20:41 26.01.2021
3279 Clouds 19 1015 77 8000 4.63 120 20:23 26.01.2021
3280 Clouds 19 1015 82 8000 4.63 120 19:50 26.01.2021
3281 Clouds 19 1015 82 6000 4.63 120 19:29 26.01.2021
3282 Mist 18 1016 88 5000 3.6 110 18:57 26.01.2021
3283 Mist 19 1016 88 5000 2.57 120 18:39 26.01.2021
3284 Mist 19 1016 88 5000 2.57 120 18:19 26.01.2021
3285 Mist 19 1016 88 5000 3.09 140 17:46 26.01.2021
3286 Mist 19 1016 88 5000 3.6 130 17:22 26.01.2021
3287 Clear 20 1016 77 7000 3.09 150 16:42 26.01.2021
3288 Clear 20 1016 77 7000 3.09 150 16:20 26.01.2021
3289 Clear 20 1016 77 8000 2.57 140 15:49 26.01.2021
3290 Clear 20 1015 77 8000 2.57 150 15:27 26.01.2021
3291 Clear 20 1015 77 8000 3.09 160 14:49 26.01.2021
3292 Clouds 21 1015 73 8000 3.6 150 14:29 26.01.2021
3293 Clouds 21 1014 73 8000 5.14 140 13:39 26.01.2021
3294 Clouds 21 1014 73 8000 5.14 140 13:21 26.01.2021
3295 Clouds 22 1014 68 9000 5.66 120 12:44 26.01.2021
3296 Clouds 23 1014 64 7000 5.66 130 12:25 26.01.2021
3297 Clouds 23 1014 64 8000 4.12 140 11:57 26.01.2021
3298 Clouds 23 1014 64 8000 4.12 140 11:57 26.01.2021
3299 Clear 24 1014 57 10000 5.14 140 11:38 26.01.2021
3300 Clouds 24 1014 57 8000 4.12 150 10:45 26.01.2021
3301 Clouds 25 1014 53 9000 4.12 160 10:27 26.01.2021
3302 Clouds 25 1014 57 9000 4.12 200 09:42 26.01.2021
3303 Clouds 25 1014 57 9000 4.12 200 09:23 26.01.2021
3304 Clouds 25 1014 57 8000 4.12 190 08:52 26.01.2021
3305 Clouds 25 1015 57 9000 4.63 190 08:24 26.01.2021
3306 Clouds 25 1016 53 8000 3.6 170 07:39 26.01.2021
3307 Clouds 23 1018 64 6000 3.6 140 05:59 26.01.2021
3308 Haze 23 1018 64 5000 3.09 150 05:41 26.01.2021
3309 Mist 21 1019 78 5000 2.06 130 03:58 26.01.2021
3310 Mist 20 1018 83 2400 2.06 140 02:21 26.01.2021
3311 Mist 19 1017 88 4600 1.03 0 00:54 26.01.2021
3312 Mist 19 1016 88 4700 1.54 110 23:36 25.01.2021
3313 Mist 19 1016 88 4300 2.06 100 22:57 25.01.2021
3314 Mist 19 1016 88 3700 2.06 120 22:36 25.01.2021
3315 Mist 20 1016 83 4300 2.06 140 21:50 25.01.2021
3316 Mist 20 1016 83 4800 2.06 130 21:26 25.01.2021
3317 Drizzle 20 1016 83 4900 3.09 120 20:51 25.01.2021
3318 Clouds 20 1016 83 6000 3.09 120 20:33 25.01.2021
3319 Clouds 20 1016 83 6000 1.54 130 19:51 25.01.2021
3320 Clouds 20 1017 83 7000 1.54 130 19:31 25.01.2021
3321 Clouds 20 1017 83 6000 1.54 130 18:49 25.01.2021
3322 Clouds 20 1016 83 6000 2.06 130 18:28 25.01.2021
3323 Clouds 20 1016 83 7000 2.06 140 17:58 25.01.2021
3324 Clouds 20 1016 83 6000 2.06 140 17:39 25.01.2021
3325 Clouds 20 1016 83 6000 2.06 140 17:20 25.01.2021
3326 Clouds 21 1016 78 6000 2.57 140 16:41 25.01.2021
3327 Clouds 21 1016 78 6000 2.57 140 16:21 25.01.2021
3328 Mist 21 1016 78 5000 2.57 140 15:48 25.01.2021
3329 Mist 21 1016 78 5000 2.57 130 15:29 25.01.2021
3330 Clouds 21 1016 78 6000 2.57 120 14:46 25.01.2021
3331 Clouds 21 1016 78 7000 2.57 140 14:19 25.01.2021
3332 Clouds 21 1016 78 7000 3.09 140 13:49 25.01.2021
3333 Clouds 21 1015 78 7000 3.09 140 13:26 25.01.2021
3334 Clouds 21 1015 78 6000 3.6 140 12:45 25.01.2021
3335 Clouds 21 1015 78 6000 3.6 140 12:20 25.01.2021
3336 Mist 21 1014 88 5000 4.12 130 11:47 25.01.2021
3337 Mist 21 1014 94 2500 1.54 100 11:18 25.01.2021
3338 Mist 22 1014 88 3500 1.03 0 10:39 25.01.2021
3339 Mist 22 1014 88 3500 1.03 0 10:18 25.01.2021
3340 Mist 22 1014 88 3500 2.06 160 09:42 25.01.2021
3341 Mist 22 1014 88 3500 2.06 160 09:23 25.01.2021
3342 Mist 22 1014 88 3500 2.06 140 08:27 25.01.2021
3343 Mist 22 1015 88 2900 1.54 120 07:31 25.01.2021
3344 Mist 22 1016 88 2900 2.06 120 06:53 25.01.2021
3345 Mist 20 1017 88 1200 1.03 0 03:39 25.01.2021
3346 Mist 19 1015 88 1400 1.54 40 01:22 25.01.2021
3347 Mist 19 1013 88 2100 1.54 140 23:40 24.01.2021
3348 Mist 19 1013 88 2100 1.54 140 23:19 24.01.2021
3349 Mist 20 1013 83 2700 2.06 120 22:42 24.01.2021
3350 Mist 20 1013 83 2700 2.06 120 22:42 24.01.2021
3351 Mist 20 1013 83 2700 2.06 120 22:20 24.01.2021
3352 Drizzle 20 1013 83 3400 2.06 120 21:46 24.01.2021
3353 Mist 20 1013 77 4000 2.57 120 21:24 24.01.2021
3354 Mist 20 1013 77 4000 2.57 120 20:44 24.01.2021
3355 Mist 20 1013 77 4000 2.57 130 20:21 24.01.2021
3356 Mist 20 1013 77 4400 2.06 140 19:51 24.01.2021
3357 Mist 20 1013 77 4500 3.09 130 19:27 24.01.2021
3358 Mist 20 1013 77 3800 3.6 120 18:57 24.01.2021
3359 Mist 20 1013 77 4000 4.12 130 18:38 24.01.2021
3360 Mist 20 1013 77 4000 4.12 130 18:20 24.01.2021
3361 Mist 20 1013 77 4500 4.63 120 17:49 24.01.2021
3362 Mist 20 1013 77 4900 4.63 110 17:25 24.01.2021
3363 Mist 20 1013 77 5000 5.14 120 16:43 24.01.2021
3364 Mist 20 1013 77 5000 4.63 130 16:25 24.01.2021
3365 Mist 20 1013 77 5000 4.12 130 15:58 24.01.2021
3366 Mist 20 1013 77 5000 4.12 110 15:40 24.01.2021
3367 Mist 20 1013 77 5000 4.12 120 15:18 24.01.2021
3368 Clear 21 1012 68 7000 4.63 120 14:38 24.01.2021
3369 Clear 21 1012 68 7000 4.63 120 13:45 24.01.2021
3370 Clouds 21 1011 68 7000 5.14 120 13:24 24.01.2021
3371 Clouds 22 1011 60 7000 4.12 140 12:43 24.01.2021
3372 Clouds 22 1011 60 7000 4.12 140 12:43 24.01.2021
3373 Haze 23 1011 56 5000 3.6 130 12:19 24.01.2021
3374 Haze 23 1010 56 5000 4.63 130 11:49 24.01.2021
3375 Haze 23 1010 56 5000 4.63 130 11:49 24.01.2021
3376 Clear 24 1010 50 6000 4.63 120 11:24 24.01.2021
3377 Haze 24 1010 50 5000 5.14 120 10:43 24.01.2021
3378 Haze 24 1010 50 5000 5.14 120 10:18 24.01.2021
3379 Haze 24 1010 50 5000 4.63 130 09:22 24.01.2021
3380 Haze 24 1011 50 5000 5.14 130 08:56 24.01.2021
3381 Haze 23 1012 56 3100 4.63 110 07:50 24.01.2021
3382 Mist 17 1015 82 1600 2.57 90 02:39 24.01.2021
3383 Mist 15 1015 88 1800 2.06 70 01:46 24.01.2021
3384 Mist 16 1014 82 3100 2.57 90 00:24 24.01.2021
3385 Mist 16 1013 82 3200 3.6 100 23:47 23.01.2021
3386 Mist 17 1013 77 3800 3.09 90 23:26 23.01.2021
3387 Mist 17 1013 77 3800 3.09 90 23:26 23.01.2021
3388 Mist 17 1013 77 3600 1.54 70 22:51 23.01.2021
3389 Mist 17 1013 77 3200 3.09 90 22:32 23.01.2021
3390 Mist 17 1013 77 3700 3.6 90 21:50 23.01.2021
3391 Mist 17 1013 77 3800 3.09 100 21:21 23.01.2021
3392 Mist 18 1013 77 4100 2.57 100 20:47 23.01.2021
3393 Mist 17 1014 77 4100 3.09 100 20:22 23.01.2021
3394 Mist 18 1014 77 3800 3.09 80 19:46 23.01.2021
3395 Mist 18 1014 77 4500 3.09 90 19:21 23.01.2021
3396 Haze 18 1014 68 5000 2.57 100 18:46 23.01.2021
3397 Clouds 19 1014 63 6000 2.57 120 18:25 23.01.2021
3398 Clouds 19 1014 63 6000 2.57 120 17:45 23.01.2021
3399 Clouds 20 1014 56 7000 3.09 130 17:26 23.01.2021
3400 Clouds 20 1014 60 6000 3.6 130 16:48 23.01.2021
3401 Haze 20 1014 64 5000 2.06 150 16:25 23.01.2021
3402 Haze 21 1014 60 3800 3.09 140 15:40 23.01.2021
3403 Haze 21 1014 60 3800 3.09 140 15:20 23.01.2021
3404 Haze 22 1013 56 3700 3.09 130 14:31 23.01.2021
3405 Haze 21 1013 60 4400 3.09 80 13:54 23.01.2021
3406 Haze 21 1013 60 4400 3.09 80 13:35 23.01.2021
3407 Haze 22 1013 56 4700 2.06 80 12:57 23.01.2021
3408 Haze 22 1012 56 3900 2.57 70 12:27 23.01.2021
3409 Haze 22 1012 56 3900 2.57 70 12:27 23.01.2021
3410 Haze 22 1012 56 2900 3.09 70 11:45 23.01.2021
3411 Haze 23 1012 49 3600 2.57 70 11:24 23.01.2021
3412 Haze 23 1012 49 4100 2.57 70 10:46 23.01.2021
3413 Haze 23 1012 49 4100 2.57 70 10:18 23.01.2021
3414 Haze 23 1012 49 4400 3.09 80 09:44 23.01.2021
3415 Haze 24 1012 46 5000 3.09 80 08:53 23.01.2021
3416 Haze 23 1013 49 5000 3.09 80 08:30 23.01.2021
3417 Haze 23 1013 49 5000 3.09 80 08:30 23.01.2021
3418 Haze 23 1014 49 5000 3.09 70 07:24 23.01.2021
3419 Mist 17 1017 82 2900 0.51 0 03:36 23.01.2021
3420 Mist 14 1015 88 2600 1.51 326 00:38 23.01.2021
3421 Mist 14 1015 88 2200 1.03 0 23:38 22.01.2021
3422 Mist 14 1015 88 2200 1.03 0 23:38 22.01.2021
3423 Mist 15 1015 88 2900 1.36 320 22:46 22.01.2021
3424 Mist 15 1014 88 3400 1.03 0 22:22 22.01.2021
3425 Mist 15 1014 88 3200 1.03 360 21:46 22.01.2021
3426 Mist 15 1015 88 3600 1.54 20 21:26 22.01.2021
3427 Mist 16 1015 82 4000 1.54 290 20:55 22.01.2021
3428 Mist 16 1015 82 4100 2.06 270 20:33 22.01.2021
3429 Mist 16 1015 82 4000 1.54 290 19:48 22.01.2021
3430 Mist 16 1016 82 3500 2.06 280 19:21 22.01.2021
3431 Mist 16 1015 82 3600 1.03 290 18:50 22.01.2021
3432 Mist 17 1015 77 4000 1.03 290 18:27 22.01.2021
3433 Mist 17 1015 77 4400 1.54 310 17:56 22.01.2021
3434 Mist 18 1015 72 4600 1.54 250 17:38 22.01.2021
3435 Mist 18 1015 72 5000 1.54 290 16:56 22.01.2021
3436 Mist 18 1015 72 5000 2.06 320 16:31 22.01.2021
3437 Mist 18 1015 72 4800 2.06 310 15:53 22.01.2021
3438 Mist 18 1015 72 4200 2.06 310 15:25 22.01.2021
3439 Haze 18 1015 72 4500 2.06 290 14:43 22.01.2021
3440 Haze 18 1015 72 4500 2.06 290 14:24 22.01.2021
3441 Haze 20 1014 64 5000 1.54 260 13:38 22.01.2021
3442 Haze 20 1014 64 5000 1.54 260 13:19 22.01.2021
3443 Mist 21 1013 56 4200 1.54 240 12:40 22.01.2021
3444 Mist 21 1013 56 4200 1.54 240 12:18 22.01.2021
3445 Haze 22 1013 53 5000 2.57 300 11:38 22.01.2021
3446 Haze 22 1013 53 5000 2.06 300 10:48 22.01.2021
3447 Haze 22 1013 53 5000 2.57 300 10:24 22.01.2021
3448 Clouds 23 1013 49 5000 3.09 280 09:44 22.01.2021
3449 Clouds 23 1013 49 5000 2.57 320 08:57 22.01.2021
3450 Haze 23 1014 53 4500 2.06 300 08:32 22.01.2021
3451 Haze 23 1014 49 4200 2.57 290 07:48 22.01.2021
3452 Mist 20 1018 68 2400 3.09 300 05:22 22.01.2021
3453 Mist 17 1017 82 1300 1.54 300 01:54 22.01.2021
3454 Mist 16 1016 88 2500 1.03 290 00:29 22.01.2021
3455 Mist 16 1015 88 2800 1.54 310 23:48 21.01.2021
3456 Mist 16 1015 88 2700 2.06 310 23:20 21.01.2021
3457 Mist 16 1015 88 2600 1.54 270 22:48 21.01.2021
3458 Mist 17 1015 82 2700 1.03 290 21:58 21.01.2021
3459 Mist 17 1015 82 3200 2.06 290 21:38 21.01.2021
3460 Mist 17 1015 82 3200 2.06 290 21:18 21.01.2021
3461 Mist 17 1015 82 2900 2.06 280 20:43 21.01.2021
3462 Mist 17 1016 82 2900 2.06 280 20:21 21.01.2021
3463 Mist 17 1016 82 2800 2.06 280 19:47 21.01.2021
3464 Mist 17 1016 82 2700 1.54 270 19:25 21.01.2021
3465 Mist 17 1016 82 2800 2.06 300 18:43 21.01.2021
3466 Mist 17 1016 82 2700 2.06 290 18:22 21.01.2021
3467 Mist 18 1016 77 2500 3.09 300 17:57 21.01.2021
3468 Mist 18 1016 77 2500 3.09 300 17:57 21.01.2021
3469 Mist 17 1016 88 2600 2.57 300 17:21 21.01.2021
3470 Mist 18 1016 82 2500 1.54 270 16:58 21.01.2021
3471 Mist 18 1016 77 3100 1.54 290 16:38 21.01.2021
3472 Mist 18 1016 77 3100 1.54 290 16:20 21.01.2021
3473 Mist 18 1016 82 2500 1.03 260 15:47 21.01.2021
3474 Mist 18 1016 82 2600 1.03 260 15:24 21.01.2021
3475 Mist 18 1016 82 2900 1.03 0 14:45 21.01.2021
3476 Mist 18 1015 77 3000 1.54 300 14:23 21.01.2021
3477 Mist 18 1015 77 2900 1.03 340 13:43 21.01.2021
3478 Mist 18 1015 77 2900 1.03 340 13:23 21.01.2021
3479 Mist 18 1015 77 2900 1.03 340 13:23 21.01.2021
3480 Mist 18 1015 77 2900 1.03 340 13:23 21.01.2021
3481 Mist 18 1014 77 3100 1.54 0 12:43 21.01.2021
3482 Mist 18 1014 77 1900 1.03 0 12:24 21.01.2021
3483 Mist 18 1014 77 1900 1.03 0 11:51 21.01.2021
3484 Mist 18 1014 77 1600 1.54 80 11:30 21.01.2021
3485 Mist 18 1013 77 1600 1.54 70 10:52 21.01.2021
3486 Mist 18 1013 77 1700 1.03 0 10:33 21.01.2021
3487 Mist 18 1013 77 1700 0.51 0 09:47 21.01.2021
3488 Mist 18 1014 77 1500 0.51 0 09:26 21.01.2021
3489 Mist 18 1014 77 1500 0.51 0 08:55 21.01.2021
3490 Mist 17 1014 82 1200 1.54 300 08:27 21.01.2021
3491 Fog 17 1015 82 900 2.06 270 07:43 21.01.2021
3492 Fog 17 1015 82 900 2.06 270 07:20 21.01.2021
3493 Drizzle 16 1018 88 750 1.54 280 05:24 21.01.2021
3494 Drizzle 16 1018 82 1300 1.54 350 02:59 21.01.2021
3495 Drizzle 16 1017 77 2600 1.03 0 01:21 21.01.2021
3496 Mist 16 1016 77 3900 1.03 290 23:56 20.01.2021
3497 Mist 16 1015 77 4100 0.51 0 23:36 20.01.2021
3498 Mist 16 1015 77 4100 0.51 0 23:18 20.01.2021
3499 Mist 16 1015 77 4000 1.54 280 22:46 20.01.2021
3500 Mist 16 1015 77 4000 2.06 280 22:28 20.01.2021
3501 Mist 16 1016 72 4400 1.03 0 21:41 20.01.2021
3502 Mist 16 1016 72 4400 1.03 0 21:22 20.01.2021
3503 Mist 16 1016 72 4400 1.54 210 20:50 20.01.2021
3504 Mist 16 1016 72 4400 1.54 190 20:19 20.01.2021
3505 Mist 17 1017 67 4200 1.54 230 19:45 20.01.2021
3506 Mist 16 1017 72 4200 1.54 280 19:26 20.01.2021
3507 Mist 17 1017 67 4300 2.06 260 18:42 20.01.2021
3508 Mist 17 1017 67 4800 2.57 250 18:18 20.01.2021
3509 Mist 17 1017 67 4900 2.57 260 17:40 20.01.2021
3510 Mist 17 1017 67 4900 2.57 260 17:19 20.01.2021
3511 Mist 17 1017 67 4300 2.06 260 16:41 20.01.2021
3512 Mist 18 1017 68 4300 2.06 280 15:55 20.01.2021
3513 Mist 18 1017 68 4200 2.06 250 15:36 20.01.2021
3514 Mist 18 1016 63 4500 1.03 0 14:51 20.01.2021
3515 Mist 18 1016 68 4400 1.03 80 14:25 20.01.2021
3516 Mist 19 1016 59 5000 1.54 70 13:50 20.01.2021
3517 Mist 19 1015 59 4400 1.54 30 13:31 20.01.2021
3518 Mist 19 1015 63 4100 2.06 20 12:45 20.01.2021
3519 Mist 18 1015 63 3200 1.54 20 12:20 20.01.2021
3520 Mist 20 1014 56 4200 1.54 100 11:39 20.01.2021
3521 Haze 20 1014 56 3800 2.06 80 10:56 20.01.2021
3522 Haze 21 1014 49 4000 2.06 80 10:34 20.01.2021
3523 Haze 21 1014 49 4100 2.06 90 09:55 20.01.2021
3524 Mist 20 1014 52 3900 1.03 0 09:30 20.01.2021
3525 Mist 20 1015 56 3800 2.06 110 08:58 20.01.2021
3526 Mist 20 1015 56 3900 2.06 90 08:33 20.01.2021
3527 Mist 20 1016 52 4100 2.06 110 07:59 20.01.2021
3528 Mist 19 1016 59 3900 1.54 100 07:37 20.01.2021
3529 Mist 18 1018 59 4000 2.06 70 06:39 20.01.2021
3530 Mist 15 1019 63 3500 2.57 60 03:29 20.01.2021
3531 Mist 13 1018 88 2000 2.57 70 01:20 20.01.2021
3532 Mist 13 1018 88 3400 2.57 80 00:46 20.01.2021
3533 Mist 13 1017 94 3000 2.57 60 23:49 19.01.2021
3534 Mist 13 1017 94 2900 3.09 60 23:27 19.01.2021
3535 Mist 12 1017 94 1900 1.54 70 22:57 19.01.2021
3536 Mist 12 1017 87 1700 1.03 90 22:37 19.01.2021
3537 Mist 12 1017 87 1700 1.03 90 22:19 19.01.2021
3538 Mist 12 1017 87 2400 2.06 90 21:50 19.01.2021
3539 Mist 12 1017 94 2800 2.57 70 21:26 19.01.2021
3540 Mist 12 1017 87 3400 2.06 80 20:44 19.01.2021
3541 Mist 12 1017 87 3200 2.57 70 20:24 19.01.2021
3542 Mist 12 1018 94 3800 2.57 80 19:54 19.01.2021
3543 Mist 12 1018 87 4300 2.57 70 19:29 19.01.2021
3544 Mist 13 1018 82 5000 2.57 90 18:49 19.01.2021
3545 Mist 13 1018 82 5000 2.57 100 18:27 19.01.2021
3546 Mist 13 1018 76 5000 2.57 100 17:46 19.01.2021
3547 Clear 14 1018 72 6000 2.57 110 17:27 19.01.2021
3548 Clear 14 1018 72 6000 2.06 100 16:50 19.01.2021
3549 Clear 15 1018 67 7000 3.6 130 16:29 19.01.2021
3550 Clear 15 1017 63 8000 3.6 130 15:59 19.01.2021
3551 Clear 16 1017 59 8000 3.6 130 15:40 19.01.2021
3552 Clear 16 1017 59 8000 4.12 130 14:57 19.01.2021
3553 Clear 17 1016 55 8000 4.63 130 14:39 19.01.2021
3554 Clear 17 1016 55 8000 4.63 130 14:20 19.01.2021
3555 Clear 17 1016 48 9000 2.57 120 13:40 19.01.2021
3556 Clear 17 1016 48 9000 2.57 120 13:21 19.01.2021
3557 Clear 19 1015 39 10000 3.6 140 12:47 19.01.2021
3558 Clear 19 1015 39 9000 3.09 130 12:28 19.01.2021
3559 Clear 20 1015 37 10000 3.09 140 11:43 19.01.2021
3560 Clear 21 1015 35 10000 3.6 140 11:23 19.01.2021
3561 Clear 21 1015 35 10000 3.6 140 10:50 19.01.2021
3562 Clear 21 1015 35 9000 3.6 140 10:31 19.01.2021
3563 Clear 21 1015 35 9000 3.09 120 09:52 19.01.2021
3564 Clear 21 1016 35 8000 3.6 120 09:27 19.01.2021
3565 Clear 21 1016 35 8000 3.6 150 08:52 19.01.2021
3566 Clear 21 1017 35 9000 3.09 170 08:19 19.01.2021
3567 Clear 20 1018 40 6000 1.54 0 07:36 19.01.2021
3568 Clear 19 1020 42 7000 1.54 0 05:59 19.01.2021
3569 Mist 12 1021 82 2700 2.06 50 02:29 19.01.2021
3570 Mist 10 1020 87 3600 2.06 90 00:49 19.01.2021
3571 Mist 10 1020 87 3700 1.54 90 23:58 18.01.2021
3572 Mist 10 1019 87 4300 1.54 80 23:31 18.01.2021
3573 Mist 11 1019 87 4600 1.54 90 22:51 18.01.2021
3574 Mist 11 1019 87 4600 1.03 90 22:25 18.01.2021
3575 Mist 11 1019 87 5000 2.57 60 21:51 18.01.2021
3576 Mist 11 1020 87 4600 3.09 70 21:24 18.01.2021
3577 Mist 12 1020 82 5000 3.09 60 20:59 18.01.2021
3578 Clear 11 1020 82 6000 2.57 60 20:38 18.01.2021
3579 Clear 11 1020 82 6000 2.57 60 20:20 18.01.2021
3580 Mist 11 1020 82 5000 2.57 70 19:48 18.01.2021
3581 Mist 11 1021 76 5000 2.57 90 19:27 18.01.2021
3582 Mist 11 1021 76 5000 3.09 90 18:44 18.01.2021
3583 Mist 11 1021 76 5000 3.09 90 18:21 18.01.2021
3584 Clear 13 1021 62 6000 3.6 120 17:40 18.01.2021
3585 Clear 13 1021 62 6000 3.6 120 17:19 18.01.2021
3586 Clear 15 1021 51 6000 4.12 120 16:41 18.01.2021
3587 Clear 15 1021 51 6000 4.12 120 16:19 18.01.2021
3588 Clear 14 1020 62 6000 0.51 0 15:41 18.01.2021
3589 Clear 14 1020 62 6000 0.51 0 15:19 18.01.2021
3590 Clear 15 1020 58 7000 1.03 0 14:43 18.01.2021
3591 Clear 16 1020 48 8000 1.03 0 14:25 18.01.2021
3592 Clear 16 1020 44 9000 2.06 130 13:45 18.01.2021
3593 Clear 17 1020 42 9000 2.57 150 13:26 18.01.2021
3594 Clear 17 1020 42 10000 1.54 140 12:51 18.01.2021
3595 Clear 17 1020 42 10000 1.03 0 12:20 18.01.2021
3596 Clear 18 1020 39 10000 0.51 0 11:53 18.01.2021
3597 Clear 19 1020 39 10000 1.03 0 11:30 18.01.2021
3598 Clear 19 1020 37 10000 1.54 300 10:57 18.01.2021
3599 Clear 19 1020 37 10000 1.03 0 10:39 18.01.2021
3600 Clear 19 1020 37 10000 1.54 360 09:43 18.01.2021
3601 Clear 19 1020 37 10000 2.06 0 09:24 18.01.2021
3602 Clear 19 1021 34 10000 2.57 310 08:48 18.01.2021
3603 Clear 19 1022 37 10000 2.06 0 07:55 18.01.2021
3604 Clear 19 1023 37 10000 2.06 0 07:21 18.01.2021
3605 Clear 17 1027 34 10000 3.6 360 04:58 18.01.2021
3606 Clear 16 1028 33 10000 4.12 10 04:31 18.01.2021
3607 Clear 16 1028 36 10000 3.09 20 03:57 18.01.2021
3608 Clear 15 1028 38 10000 3.6 10 03:38 18.01.2021
3609 Clear 15 1028 38 10000 3.6 10 03:18 18.01.2021
3610 Clear 13 1028 50 10000 2.57 10 02:27 18.01.2021
3611 Clear 12 1027 50 10000 3.09 10 00:43 18.01.2021
3612 Clear 12 1027 50 10000 3.09 10 00:20 18.01.2021
3613 Clear 12 1027 50 10000 2.57 360 23:44 17.01.2021
3614 Clear 11 1027 58 10000 2.06 360 23:20 17.01.2021
3615 Clear 11 1027 58 10000 3.09 10 22:26 17.01.2021
3616 Clear 11 1027 58 10000 2.57 20 21:58 17.01.2021
3617 Clear 10 1027 62 10000 1.03 0 21:39 17.01.2021
3618 Clear 10 1027 62 10000 1.03 0 21:39 17.01.2021
3619 Clear 10 1027 62 10000 1.03 0 21:21 17.01.2021
3620 Clear 11 1028 58 10000 1.54 40 20:44 17.01.2021
3621 Clear 11 1028 58 10000 2.06 10 20:25 17.01.2021
3622 Clear 12 1029 58 10000 2.06 10 19:42 17.01.2021
3623 Clear 12 1029 58 10000 2.06 10 19:19 17.01.2021
3624 Clear 13 1029 54 10000 2.06 10 18:38 17.01.2021
3625 Clear 13 1029 54 10000 2.06 10 18:19 17.01.2021
3626 Clear 13 1029 54 10000 2.57 350 17:43 17.01.2021
3627 Clear 13 1029 54 10000 2.57 350 17:23 17.01.2021
3628 Clear 13 1029 54 10000 2.57 350 17:23 17.01.2021
3629 Clear 13 1029 58 10000 2.06 360 16:43 17.01.2021
3630 Clear 14 1029 51 10000 2.06 10 16:19 17.01.2021
3631 Clear 14 1029 54 10000 2.06 10 15:41 17.01.2021
3632 Clear 14 1029 54 10000 2.06 10 15:21 17.01.2021
3633 Clear 14 1028 51 10000 2.57 20 14:46 17.01.2021
3634 Clear 14 1028 51 10000 3.09 360 14:25 17.01.2021
3635 Clear 14 1028 54 10000 2.57 10 13:44 17.01.2021
3636 Clear 14 1027 54 10000 3.09 360 13:26 17.01.2021
3637 Clear 15 1027 51 10000 2.57 360 12:47 17.01.2021
3638 Clear 15 1027 51 10000 3.09 10 12:28 17.01.2021
3639 Clear 15 1027 51 10000 3.09 10 11:41 17.01.2021
3640 Clear 15 1026 51 10000 3.6 20 11:21 17.01.2021
3641 Clear 15 1026 51 10000 5.14 20 10:42 17.01.2021
3642 Clear 15 1026 51 10000 5.14 20 10:19 17.01.2021
3643 Clear 15 1026 51 10000 4.63 40 09:19 17.01.2021
3644 Clear 15 1026 55 10000 5.14 40 08:43 17.01.2021
3645 Clouds 16 1027 67 10000 5.14 40 05:20 17.01.2021
3646 Clouds 16 1027 88 6000 4.63 40 04:27 17.01.2021
3647 Mist 16 1024 88 3100 5.14 20 02:30 17.01.2021
3648 Mist 16 1022 94 3900 2.06 360 00:38 17.01.2021
3649 Mist 16 1022 94 3900 2.06 360 00:18 17.01.2021
3650 Mist 17 1022 88 4200 3.09 10 23:48 16.01.2021
3651 Mist 17 1021 88 2700 1.54 320 23:19 16.01.2021
3652 Mist 17 1020 88 2800 1.54 290 22:28 16.01.2021
3653 Mist 17 1020 88 2800 2.57 290 21:58 16.01.2021
3654 Mist 17 1020 82 3100 3.09 290 21:24 16.01.2021
3655 Mist 17 1020 82 3100 3.09 290 21:24 16.01.2021
3656 Mist 17 1020 82 2900 2.57 290 20:53 16.01.2021
3657 Mist 17 1020 82 2900 2.57 290 20:53 16.01.2021
3658 Mist 17 1019 82 3000 2.57 300 20:29 16.01.2021
3659 Mist 17 1020 82 2900 2.06 300 19:50 16.01.2021
3660 Mist 17 1019 88 2800 2.06 290 19:31 16.01.2021
3661 Mist 17 1019 82 2800 2.57 300 18:49 16.01.2021
3662 Mist 18 1019 82 2800 3.09 300 18:28 16.01.2021
3663 Mist 18 1019 77 3400 2.06 290 17:59 16.01.2021
3664 Mist 18 1019 77 4500 2.06 280 17:40 16.01.2021
3665 Mist 18 1019 77 4500 2.06 280 17:21 16.01.2021
3666 Mist 18 1018 77 5000 1.03 0 16:44 16.01.2021
3667 Mist 18 1018 77 5000 1.03 340 16:20 16.01.2021
3668 Mist 18 1018 77 5000 1.03 0 15:43 16.01.2021
3669 Mist 19 1017 72 4800 0.51 0 14:39 16.01.2021
3670 Mist 18 1017 77 4900 0.51 0 13:54 16.01.2021
3671 Mist 19 1016 72 4400 1.03 0 13:33 16.01.2021
3672 Mist 19 1016 72 4400 1.03 0 12:54 16.01.2021
3673 Mist 19 1016 72 4200 2.06 30 12:36 16.01.2021
3674 Haze 19 1015 72 3000 1.54 50 11:59 16.01.2021
3675 Haze 19 1015 72 2800 1.54 30 11:40 16.01.2021
3676 Haze 19 1014 63 3200 1.03 10 11:19 16.01.2021
3677 Haze 20 1014 60 3400 1.54 30 10:42 16.01.2021
3678 Haze 20 1014 60 3300 1.03 0 09:57 16.01.2021
3679 Haze 20 1014 60 2900 1.54 20 09:21 16.01.2021
3680 Haze 20 1014 60 3000 1.03 0 08:20 16.01.2021
3681 Haze 19 1016 63 2200 2.06 300 06:54 16.01.2021
3682 Haze 19 1017 63 2100 2.57 300 05:35 16.01.2021
3683 Mist 18 1018 68 2300 2.06 290 03:44 16.01.2021
3684 Mist 17 1017 72 2200 2.06 290 02:47 16.01.2021
3685 Mist 16 1015 82 3400 1.03 90 00:47 16.01.2021
3686 Mist 16 1015 82 3400 1.03 90 00:23 16.01.2021
3687 Mist 17 1015 72 3900 1.54 50 23:39 15.01.2021
3688 Mist 17 1015 72 4000 1.03 50 22:41 15.01.2021
3689 Mist 17 1015 72 4000 1.03 50 22:21 15.01.2021
3690 Mist 17 1015 72 4100 1.03 40 21:43 15.01.2021
3691 Mist 17 1015 72 4000 1.54 80 20:49 15.01.2021
3692 Mist 17 1015 72 4000 1.54 90 20:24 15.01.2021
3693 Mist 17 1015 72 4100 1.03 0 19:58 15.01.2021
3694 Mist 17 1015 72 4300 1.03 100 19:39 15.01.2021
3695 Mist 17 1015 72 4300 1.03 100 19:21 15.01.2021
3696 Mist 17 1015 72 4800 1.54 90 18:42 15.01.2021
3697 Mist 17 1015 72 4800 1.54 90 18:18 15.01.2021
3698 Haze 17 1015 72 4900 1.54 110 17:41 15.01.2021
3699 Haze 17 1015 72 4900 1.54 110 17:21 15.01.2021
3700 Haze 17 1015 72 4800 1.54 60 16:46 15.01.2021
3701 Haze 17 1015 72 5000 2.06 100 16:24 15.01.2021
3702 Clouds 18 1015 68 6000 2.57 110 15:41 15.01.2021
3703 Clouds 18 1015 68 6000 2.57 110 15:21 15.01.2021
3704 Clouds 18 1014 68 6000 2.57 110 14:44 15.01.2021
3705 Haze 18 1014 63 5000 2.57 90 14:25 15.01.2021
3706 Haze 18 1014 63 5000 3.09 110 13:42 15.01.2021
3707 Haze 18 1014 63 5000 3.09 110 13:22 15.01.2021
3708 Haze 18 1014 63 5000 3.09 110 12:51 15.01.2021
3709 Haze 18 1013 63 5000 3.09 110 12:31 15.01.2021
3710 Mist 18 1013 63 2800 3.09 100 11:46 15.01.2021
3711 Mist 19 1013 59 2700 4.12 110 11:27 15.01.2021
3712 Mist 19 1013 59 2900 3.09 100 10:54 15.01.2021
3713 Mist 19 1013 59 3600 2.06 110 10:34 15.01.2021
3714 Mist 19 1013 59 4100 2.06 110 09:53 15.01.2021
3715 Mist 19 1013 59 4200 1.54 110 09:34 15.01.2021
3716 Mist 19 1014 59 4600 1.03 0 08:37 15.01.2021
3717 Mist 19 1014 59 4600 1.03 0 08:18 15.01.2021
3718 Mist 18 1015 63 2700 2.94 152 07:39 15.01.2021
3719 Mist 18 1015 63 2700 2.54 159 07:18 15.01.2021
3720 Mist 16 1018 82 2000 1.03 0 03:46 15.01.2021
3721 Mist 14 1016 88 2700 1.54 100 00:57 15.01.2021
3722 Mist 14 1016 88 2700 1.54 70 23:47 14.01.2021
3723 Mist 15 1016 88 3700 1.03 100 22:59 14.01.2021
3724 Mist 15 1016 88 3900 1.03 100 22:40 14.01.2021
3725 Mist 15 1016 88 3900 1.03 100 22:22 14.01.2021
3726 Mist 15 1016 88 3600 2.06 120 21:42 14.01.2021
3727 Mist 15 1016 88 3600 2.06 120 21:21 14.01.2021
3728 Mist 14 1016 88 3600 1.03 0 20:49 14.01.2021
3729 Mist 14 1016 88 4000 1.54 70 20:25 14.01.2021
3730 Mist 13 1016 88 3800 1.54 60 19:43 14.01.2021
3731 Mist 14 1017 82 4400 1.54 60 19:25 14.01.2021
3732 Mist 14 1017 82 4000 2.57 80 18:52 14.01.2021
3733 Mist 14 1017 77 4200 2.57 80 18:27 14.01.2021
3734 Mist 15 1017 72 5000 3.09 100 17:46 14.01.2021
3735 Clear 14 1017 77 6000 2.06 110 17:26 14.01.2021
3736 Clear 15 1017 67 7000 2.06 110 16:43 14.01.2021
3737 Clear 17 1016 63 7000 3.09 150 15:58 14.01.2021
3738 Clear 16 1016 67 7000 2.57 130 15:39 14.01.2021
3739 Clear 17 1016 59 7000 3.6 160 14:59 14.01.2021
3740 Clear 17 1016 59 6000 3.09 150 14:37 14.01.2021
3741 Clear 17 1016 59 6000 3.09 150 14:18 14.01.2021
3742 Clear 18 1015 55 6000 3.6 160 13:48 14.01.2021
3743 Clear 19 1015 48 6000 3.09 160 13:20 14.01.2021
3744 Clouds 19 1015 45 6000 3.09 160 12:38 14.01.2021
3745 Clouds 19 1015 45 6000 3.09 160 12:18 14.01.2021
3746 Clouds 20 1015 40 8000 3.09 160 11:42 14.01.2021
3747 Clouds 20 1015 40 8000 3.09 160 11:20 14.01.2021
3748 Clouds 21 1014 37 6000 2.57 160 10:50 14.01.2021
3749 Clouds 21 1014 37 6000 2.06 170 10:22 14.01.2021
3750 Clouds 21 1014 37 6000 1.54 0 09:45 14.01.2021
3751 Clouds 21 1015 37 7000 2.06 130 09:22 14.01.2021
3752 Clouds 21 1015 35 7000 3.09 200 08:48 14.01.2021
3753 Clouds 21 1015 35 7000 2.06 180 08:22 14.01.2021
3754 Clouds 20 1016 40 6000 1.54 150 07:45 14.01.2021
3755 Clear 20 1017 40 6000 2.06 0 06:46 14.01.2021
3756 Clear 19 1019 45 7000 0.51 0 05:45 14.01.2021
3757 Haze 11 1018 66 5000 1.03 90 00:44 14.01.2021
3758 Clouds 11 1017 66 7000 1.03 0 23:51 13.01.2021
3759 Clouds 11 1017 66 6000 2.06 70 23:21 13.01.2021
3760 Clouds 13 1017 62 7000 2.57 70 22:28 13.01.2021
3761 Clouds 13 1017 62 7000 2.57 70 21:50 13.01.2021
3762 Clouds 13 1017 62 7000 1.54 60 21:28 13.01.2021
3763 Clouds 13 1017 62 7000 2.57 50 20:57 13.01.2021
3764 Clouds 13 1018 62 7000 2.57 60 20:29 13.01.2021
3765 Clouds 13 1018 62 7000 2.57 70 19:57 13.01.2021
3766 Clouds 13 1018 62 6000 2.06 80 19:37 13.01.2021
3767 Clouds 13 1018 62 6000 2.06 80 19:18 13.01.2021
3768 Clouds 13 1018 58 7000 2.57 100 18:37 13.01.2021
3769 Clouds 14 1018 54 8000 3.09 120 17:51 13.01.2021
3770 Clouds 14 1018 54 9000 3.09 130 17:24 13.01.2021
3771 Clouds 13 1018 58 9000 2.57 80 16:50 13.01.2021
3772 Clear 15 1018 51 10000 3.6 120 16:21 13.01.2021
3773 Clear 15 1018 51 10000 3.09 120 15:52 13.01.2021
3774 Clear 16 1017 48 10000 3.6 150 15:32 13.01.2021
3775 Clear 16 1017 48 10000 3.6 150 14:43 13.01.2021
3776 Clear 17 1016 45 10000 4.63 140 13:51 13.01.2021
3777 Clear 18 1016 42 10000 5.66 130 13:27 13.01.2021
3778 Clouds 19 1015 26 8000 2.57 150 12:46 13.01.2021
3779 Clouds 19 1015 26 8000 2.57 150 12:28 13.01.2021
3780 Clouds 19 1015 26 8000 2.57 150 12:28 13.01.2021
3781 Clouds 20 1015 24 9000 3.6 140 11:53 13.01.2021
3782 Clear 20 1015 24 10000 3.09 130 11:34 13.01.2021
3783 Clear 20 1015 24 10000 3.09 150 10:50 13.01.2021
3784 Clear 20 1015 24 10000 3.09 140 10:32 13.01.2021
3785 Clear 21 1015 23 10000 2.06 180 09:53 13.01.2021
3786 Clear 21 1016 23 9000 2.57 180 09:30 13.01.2021
3787 Clear 20 1016 22 9000 2.57 170 08:50 13.01.2021
3788 Clear 20 1016 24 10000 2.57 170 08:28 13.01.2021
3789 Clear 20 1018 26 8000 1.54 0 07:34 13.01.2021
3790 Clouds 19 1019 27 7000 1.54 90 06:53 13.01.2021
3791 Clouds 16 1022 36 8000 1.54 70 04:20 13.01.2021
3792 Clouds 14 1021 47 6000 3.09 60 03:44 13.01.2021
3793 Clouds 14 1021 47 6000 3.09 60 03:24 13.01.2021
3794 Mist 10 1020 62 3400 1.54 50 01:19 13.01.2021
3795 Haze 10 1019 66 5000 1.54 50 23:54 12.01.2021
3796 Haze 10 1019 66 4700 2.06 70 23:22 12.01.2021
3797 Haze 11 1019 62 5000 2.06 70 22:45 12.01.2021
3798 Clouds 10 1019 66 6000 2.57 90 22:23 12.01.2021
3799 Clouds 11 1019 58 8000 1.03 0 21:49 12.01.2021
3800 Clouds 11 1020 58 8000 2.06 100 21:28 12.01.2021
3801 Clouds 12 1020 54 9000 1.03 0 20:49 12.01.2021
3802 Clouds 13 1020 50 8000 1.54 310 20:27 12.01.2021
3803 Clouds 13 1021 50 8000 2.06 290 19:47 12.01.2021
3804 Clouds 13 1021 50 9000 2.06 280 19:26 12.01.2021
3805 Clear 14 1021 41 10000 1.54 290 18:42 12.01.2021
3806 Clear 14 1021 41 10000 1.54 290 18:23 12.01.2021
3807 Clouds 14 1022 44 9000 1.54 320 17:39 12.01.2021
3808 Clouds 14 1022 44 9000 1.54 320 17:19 12.01.2021
3809 Clouds 15 1022 36 9000 2.57 300 16:43 12.01.2021
3810 Clouds 15 1022 36 9000 2.57 300 16:22 12.01.2021
3811 Clouds 15 1022 36 9000 2.57 310 15:29 12.01.2021
3812 Clear 15 1022 33 10000 2.57 290 14:59 12.01.2021
3813 Clouds 16 1022 31 9000 2.57 240 14:41 12.01.2021
3814 Clouds 16 1022 31 9000 2.57 240 14:19 12.01.2021
3815 Clear 16 1021 27 10000 2.06 230 13:50 12.01.2021
3816 Clear 17 1021 20 10000 2.06 250 12:50 12.01.2021
3817 Clear 17 1021 20 10000 2.06 260 12:21 12.01.2021
3818 Clear 17 1022 19 10000 2.06 290 11:40 12.01.2021
3819 Clear 18 1022 19 10000 2.06 300 10:50 12.01.2021
3820 Clear 17 1022 20 10000 2.57 300 10:21 12.01.2021
3821 Clear 18 1022 19 10000 2.57 300 09:57 12.01.2021
3822 Clear 19 1022 18 10000 2.06 260 09:27 12.01.2021
3823 Clear 18 1023 19 10000 2.57 0 08:46 12.01.2021
3824 Clear 18 1023 17 10000 2.57 280 08:23 12.01.2021
3825 Clear 19 1025 16 10000 2.57 0 07:35 12.01.2021
3826 Clear 17 1028 19 10000 4.63 40 06:26 12.01.2021
3827 Clear 16 1029 20 10000 5.66 10 05:30 12.01.2021
3828 Clear 14 1030 33 10000 3.6 20 03:26 12.01.2021
3829 Clear 13 1030 35 10000 2.06 20 02:19 12.01.2021
3830 Clear 12 1030 37 10000 1.54 20 01:28 12.01.2021
3831 Clear 11 1029 46 10000 1.54 350 23:51 11.01.2021
3832 Clear 12 1029 40 10000 1.54 10 23:23 11.01.2021
3833 Clear 12 1029 40 10000 1.54 10 22:58 11.01.2021
3834 Clear 12 1029 40 10000 1.03 0 22:39 11.01.2021
3835 Clear 12 1029 40 10000 1.03 0 22:18 11.01.2021
3836 Clear 11 1030 46 10000 1.03 0 21:37 11.01.2021
3837 Clear 11 1030 46 10000 1.03 0 21:18 11.01.2021
3838 Clear 12 1030 40 10000 1.03 0 20:41 11.01.2021
3839 Clear 12 1030 40 10000 1.03 0 20:41 11.01.2021
3840 Clear 12 1030 40 10000 1.03 0 20:22 11.01.2021
3841 Clear 11 1030 50 10000 1.54 350 19:54 11.01.2021
3842 Clear 12 1031 50 10000 1.54 340 19:24 11.01.2021
3843 Clear 12 1031 50 10000 1.54 340 19:24 11.01.2021
3844 Clear 12 1031 47 10000 1.54 330 18:45 11.01.2021
3845 Clear 12 1031 47 10000 1.54 330 18:45 11.01.2021
3846 Clear 12 1031 43 10000 1.03 310 18:25 11.01.2021
3847 Clear 13 1031 33 10000 3.44 314 17:44 11.01.2021
3848 Clear 13 1031 33 10000 1.03 0 17:26 11.01.2021
3849 Clear 13 1031 35 10000 1.03 0 16:55 11.01.2021
3850 Clear 13 1031 44 10000 0.51 0 16:35 11.01.2021
3851 Clear 13 1030 50 10000 0.51 330 15:59 11.01.2021
3852 Clear 13 1030 47 10000 0.51 0 15:39 11.01.2021
3853 Clear 13 1030 47 10000 0.51 0 15:19 11.01.2021
3854 Clear 13 1030 47 10000 2.57 310 14:39 11.01.2021
3855 Clear 13 1029 44 10000 3.6 290 13:49 11.01.2021
3856 Clear 14 1029 30 10000 1.03 350 13:25 11.01.2021
3857 Clear 14 1028 30 10000 1.03 350 12:46 11.01.2021
3858 Clear 14 1028 28 10000 2.06 340 12:27 11.01.2021
3859 Clear 15 1028 25 10000 2.57 340 11:53 11.01.2021
3860 Clear 15 1027 23 10000 3.09 340 11:26 11.01.2021
3861 Clear 16 1027 21 10000 3.6 340 10:42 11.01.2021
3862 Clear 16 1027 21 10000 3.6 340 10:24 11.01.2021
3863 Clear 16 1027 20 10000 3.6 330 09:38 11.01.2021
3864 Clear 16 1027 20 10000 3.6 330 09:19 11.01.2021
3865 Clear 15 1028 23 10000 3.6 350 08:44 11.01.2021
3866 Clear 16 1028 20 10000 5.66 10 07:58 11.01.2021
3867 Clear 16 1029 27 10000 3.6 340 07:25 11.01.2021
3868 Clear 14 1030 28 10000 5.14 340 06:57 11.01.2021
3869 Clear 12 1032 40 10000 2.57 350 03:22 11.01.2021
3870 Clear 11 1029 40 10000 3.6 350 01:29 11.01.2021
3871 Clear 11 1028 37 10000 3.6 360 23:53 10.01.2021
3872 Clear 12 1027 32 10000 5.14 10 23:26 10.01.2021
3873 Clear 11 1027 35 10000 4.63 360 22:47 10.01.2021
3874 Clear 11 1027 37 10000 3.09 10 22:20 10.01.2021
3875 Clear 11 1027 40 10000 3.6 360 21:44 10.01.2021
3876 Clear 11 1027 40 10000 3.6 360 21:20 10.01.2021
3877 Clear 11 1027 46 10000 2.57 360 20:50 10.01.2021
3878 Clear 11 1027 50 10000 3.09 360 20:32 10.01.2021
3879 Clear 11 1026 46 10000 2.57 10 19:43 10.01.2021
3880 Clear 11 1026 46 10000 2.57 10 19:43 10.01.2021
3881 Clear 11 1026 46 10000 2.57 10 19:24 10.01.2021
3882 Clear 12 1026 43 10000 2.57 20 18:47 10.01.2021
3883 Clear 12 1026 47 10000 2.06 10 18:21 10.01.2021
3884 Clear 11 1025 54 10000 1.03 0 17:28 10.01.2021
3885 Clear 11 1025 50 10000 1.54 340 16:58 10.01.2021
3886 Clouds 12 1025 47 9000 1.54 350 16:32 10.01.2021
3887 Clouds 11 1025 54 9000 1.54 350 15:48 10.01.2021
3888 Clouds 11 1024 54 9000 1.03 0 15:25 10.01.2021
3889 Clear 12 1023 43 10000 1.54 300 14:44 10.01.2021
3890 Clear 12 1023 43 10000 1.54 300 14:25 10.01.2021
3891 Clear 12 1023 43 10000 1.54 250 13:54 10.01.2021
3892 Clear 12 1022 43 10000 1.54 230 13:36 10.01.2021
3893 Clear 12 1022 43 10000 1.54 230 13:18 10.01.2021
3894 Clear 12 1022 40 10000 1.03 0 12:41 10.01.2021
3895 Clear 12 1021 37 10000 1.03 0 11:58 10.01.2021
3896 Clear 12 1021 37 10000 1.03 0 11:22 10.01.2021
3897 Clear 12 1021 37 10000 1.03 0 10:53 10.01.2021
3898 Clear 13 1021 35 10000 1.03 0 10:25 10.01.2021
3899 Clear 13 1021 35 10000 1.03 0 09:46 10.01.2021
3900 Clear 13 1022 35 10000 1.03 0 08:50 10.01.2021
3901 Clear 12 1023 35 10000 2.57 310 08:19 10.01.2021
3902 Clear 12 1023 35 10000 2.06 310 07:27 10.01.2021
3903 Clear 12 1025 32 10000 3.09 350 06:18 10.01.2021
3904 Clear 12 1026 32 10000 3.6 350 05:34 10.01.2021
3905 Clear 10 1027 40 10000 2.57 360 02:42 10.01.2021
3906 Clouds 10 1025 37 10000 3.6 20 00:38 10.01.2021
3907 Clear 10 1025 37 10000 3.6 360 23:42 09.01.2021
3908 Clear 10 1025 40 10000 3.09 360 23:23 09.01.2021
3909 Clear 10 1024 40 10000 2.57 10 22:25 09.01.2021
3910 Clear 10 1024 43 10000 2.06 360 21:59 09.01.2021
3911 Clear 10 1025 37 10000 3.09 20 21:40 09.01.2021
3912 Clear 10 1025 37 10000 3.09 20 21:21 09.01.2021
3913 Clear 10 1025 34 10000 3.09 40 20:58 09.01.2021
3914 Clear 10 1025 34 10000 3.09 40 20:37 09.01.2021
3915 Clear 10 1025 40 10000 2.06 40 19:43 09.01.2021
3916 Clear 10 1025 40 10000 2.06 40 19:21 09.01.2021
3917 Clear 10 1025 40 10000 2.57 60 18:39 09.01.2021
3918 Clear 10 1025 40 10000 2.57 60 18:19 09.01.2021
3919 Clear 10 1025 40 10000 3.6 70 17:43 09.01.2021
3920 Clear 10 1025 43 10000 2.57 70 17:23 09.01.2021
3921 Clear 10 1025 43 10000 2.57 70 16:31 09.01.2021
3922 Clear 11 1025 40 10000 2.57 80 15:47 09.01.2021
3923 Clear 11 1025 37 10000 3.09 80 15:27 09.01.2021
3924 Clear 11 1024 37 10000 3.09 60 14:38 09.01.2021
3925 Clear 11 1024 37 10000 3.09 60 14:20 09.01.2021
3926 Clear 11 1024 37 10000 2.06 40 13:47 09.01.2021
3927 Clear 11 1023 37 10000 2.06 70 13:28 09.01.2021
3928 Clear 11 1023 37 10000 2.06 70 12:47 09.01.2021
3929 Clear 11 1023 37 10000 2.57 60 12:21 09.01.2021
3930 Clear 11 1022 37 10000 2.06 60 11:50 09.01.2021
3931 Clear 11 1022 35 10000 2.06 30 11:27 09.01.2021
3932 Clear 12 1022 32 10000 2.57 20 10:52 09.01.2021
3933 Clear 12 1022 32 10000 3.09 40 10:27 09.01.2021
3934 Clear 11 1022 35 10000 2.57 30 09:46 09.01.2021
3935 Clear 12 1022 32 10000 2.06 10 09:21 09.01.2021
3936 Clear 11 1023 35 10000 3.09 10 08:26 09.01.2021
3937 Clear 11 1025 35 10000 2.57 50 06:56 09.01.2021
3938 Clear 11 1026 35 10000 3.6 40 06:38 09.01.2021
3939 Clear 11 1028 35 10000 4.12 50 04:43 09.01.2021
3940 Clear 10 1027 40 10000 4.63 20 02:48 09.01.2021
3941 Clear 10 1027 40 10000 4.12 20 02:29 09.01.2021
3942 Clear 9 1026 43 10000 4.12 30 01:36 09.01.2021
3943 Clear 9 1026 46 10000 3.6 10 00:34 09.01.2021
3944 Clear 9 1026 49 10000 2.57 40 23:50 08.01.2021
3945 Clear 9 1026 49 10000 2.57 40 23:50 08.01.2021
3946 Clouds 9 1026 46 10000 4.12 40 22:54 08.01.2021
3947 Clear 9 1026 46 10000 4.12 50 21:58 08.01.2021
3948 Clear 9 1026 46 10000 4.12 40 21:31 08.01.2021
3949 Clear 10 1026 46 10000 4.12 40 20:41 08.01.2021
3950 Clear 10 1026 46 10000 4.12 40 20:21 08.01.2021
3951 Clear 10 1027 46 10000 4.12 50 19:38 08.01.2021
3952 Clear 10 1027 46 10000 4.12 50 19:19 08.01.2021
3953 Clear 9 1027 57 10000 2.57 70 18:34 08.01.2021
3954 Clear 10 1026 53 10000 3.09 70 17:55 08.01.2021
3955 Clear 10 1026 53 10000 3.09 80 17:30 08.01.2021
3956 Clear 10 1026 53 10000 3.6 80 16:51 08.01.2021
3957 Clear 10 1026 50 10000 3.6 70 15:55 08.01.2021
3958 Clear 10 1026 50 10000 3.6 80 15:33 08.01.2021
3959 Clear 11 1026 46 10000 3.09 60 14:41 08.01.2021
3960 Clear 11 1026 46 10000 3.09 60 14:20 08.01.2021
3961 Clear 11 1026 46 10000 5.14 60 13:22 08.01.2021
3962 Clear 11 1025 46 10000 4.12 40 12:52 08.01.2021
3963 Clear 11 1025 46 10000 3.6 40 12:23 08.01.2021
3964 Clear 12 1025 43 10000 3.6 50 11:59 08.01.2021
3965 Clear 12 1025 43 10000 4.63 30 11:39 08.01.2021
3966 Clear 12 1025 43 10000 4.63 30 11:39 08.01.2021
3967 Clear 12 1025 43 10000 4.63 30 11:19 08.01.2021
3968 Clear 12 1024 43 10000 4.63 30 10:42 08.01.2021
3969 Clear 12 1024 47 10000 4.63 30 09:54 08.01.2021
3970 Clear 12 1024 43 10000 4.63 10 09:36 08.01.2021
3971 Clear 12 1024 43 10000 4.63 10 09:18 08.01.2021
3972 Clouds 12 1026 43 10000 5.14 20 07:30 08.01.2021
3973 Clouds 11 1026 46 10000 4.63 10 06:46 08.01.2021
3974 Clouds 10 1026 62 10000 6.17 20 00:44 08.01.2021
3975 Clouds 11 1025 62 10000 4.63 20 23:43 07.01.2021
3976 Clouds 11 1024 62 10000 5.14 20 22:55 07.01.2021
3977 Clouds 11 1024 62 10000 5.14 30 22:36 07.01.2021
3978 Clouds 11 1024 62 10000 5.66 30 21:50 07.01.2021
3979 Clouds 11 1024 58 10000 5.66 40 21:30 07.01.2021
3980 Clouds 12 1023 58 10000 5.66 50 20:52 07.01.2021
3981 Clouds 12 1023 58 10000 5.66 50 20:34 07.01.2021
3982 Clouds 12 1024 62 10000 4.63 30 19:47 07.01.2021
3983 Clouds 12 1024 62 10000 5.14 20 19:24 07.01.2021
3984 Clouds 12 1023 62 10000 5.14 20 18:46 07.01.2021
3985 Clouds 12 1023 62 10000 4.12 40 18:20 07.01.2021
3986 Clouds 12 1023 62 10000 4.63 50 17:34 07.01.2021
3987 Clouds 13 1023 58 10000 5.14 40 16:56 07.01.2021
3988 Clouds 13 1023 58 10000 5.14 40 16:32 07.01.2021
3989 Clouds 13 1023 58 10000 4.12 50 15:48 07.01.2021
3990 Clouds 13 1023 58 10000 4.63 50 15:30 07.01.2021
3991 Clouds 13 1022 58 10000 5.14 50 14:31 07.01.2021
3992 Clouds 13 1021 58 10000 4.63 50 13:50 07.01.2021
3993 Clouds 13 1021 62 10000 4.12 50 13:30 07.01.2021
3994 Clouds 13 1020 62 10000 5.14 40 12:55 07.01.2021
3995 Clouds 14 1020 58 10000 5.1 50 12:23 07.01.2021
3996 Clouds 14 1019 58 10000 4.1 30 11:39 07.01.2021
3997 Clouds 14 1019 58 10000 4.6 30 10:56 07.01.2021
3998 Clouds 14 1019 58 10000 4.1 20 10:37 07.01.2021
3999 Clouds 14 1019 58 10000 4.6 20 09:57 07.01.2021
4000 Clouds 14 1019 58 10000 5.7 20 09:38 07.01.2021
4001 Clouds 14 1019 62 10000 5.1 20 08:40 07.01.2021
4002 Clouds 14 1019 58 10000 5.1 30 08:21 07.01.2021
4003 Clouds 14 1020 58 10000 4.6 20 07:40 07.01.2021
4004 Clouds 15 1022 54 7000 5.1 40 05:52 07.01.2021
4005 Haze 15 1020 62 3900 3.6 40 01:34 07.01.2021
4006 Haze 15 1018 62 5000 3.6 40 23:58 06.01.2021
4007 Haze 16 1017 63 5000 3.6 30 22:51 06.01.2021
4008 Haze 16 1017 67 5000 3.6 20 22:20 06.01.2021
4009 Haze 16 1017 67 5000 3.1 10 21:41 06.01.2021
4010 Haze 16 1017 67 5000 3.1 10 21:41 06.01.2021
4011 Haze 16 1018 67 5000 2.1 30 21:22 06.01.2021
4012 Haze 16 1018 67 5000 2.1 30 20:42 06.01.2021
4013 Haze 16 1018 67 5000 3.6 20 20:22 06.01.2021
4014 Haze 16 1018 67 5000 3.1 30 19:42 06.01.2021
4015 Haze 16 1018 67 4500 2.6 40 19:24 06.01.2021
4016 Haze 16 1018 67 4500 2.6 40 18:45 06.01.2021
4017 Clouds 16 1018 67 6000 1.5 50 18:27 06.01.2021
4018 Clouds 16 1018 63 6000 1.5 60 17:45 06.01.2021
4019 Clouds 17 1018 55 7000 1 0 17:26 06.01.2021
4020 Clouds 17 1018 55 7000 2.1 40 16:56 06.01.2021
4021 Clouds 16 1018 63 7000 1 0 16:20 06.01.2021
4022 Clouds 16 1018 63 7000 1 0 16:20 06.01.2021
4023 Clouds 16 1018 63 7000 1 0 15:58 06.01.2021
4024 Clouds 16 1018 63 6000 1.5 70 15:33 06.01.2021
4025 Clouds 16 1017 63 6000 0.5 0 14:56 06.01.2021
4026 Clouds 16 1017 63 6000 0.5 0 14:30 06.01.2021
4027 Clouds 16 1017 63 6000 0.5 0 14:30 06.01.2021
4028 Clouds 16 1017 67 6000 0.5 0 13:47 06.01.2021
4029 Haze 16 1017 67 5000 1 0 13:24 06.01.2021
4030 Haze 16 1017 67 5000 2.1 30 12:53 06.01.2021
4031 Haze 16 1017 67 5000 2.1 30 12:29 06.01.2021
4032 Haze 17 1016 59 4000 2.1 40 11:40 06.01.2021
4033 Haze 17 1016 59 4200 3.1 40 11:21 06.01.2021
4034 Haze 17 1016 59 4300 3.1 20 10:31 06.01.2021
4035 Haze 17 1017 59 5000 2.6 50 09:52 06.01.2021
4036 Haze 17 1017 59 5000 2.6 40 09:21 06.01.2021
4037 Clouds 17 1017 59 6000 2.6 30 08:41 06.01.2021
4038 Clouds 17 1017 59 6000 3.1 10 07:59 06.01.2021
4039 Haze 16 1019 63 5000 3.1 20 07:18 06.01.2021
4040 Haze 16 1021 63 5000 3.1 350 05:51 06.01.2021
4041 Haze 16 1022 63 5000 3.1 10 04:35 06.01.2021
4042 Clouds 16 1022 59 6000 3.1 30 02:47 06.01.2021
4043 Clouds 16 1022 59 6000 3.1 30 02:26 06.01.2021
4044 Clouds 16 1021 63 8000 1.5 40 01:23 06.01.2021
4045 Clouds 16 1020 67 7000 3.1 360 23:32 05.01.2021
4046 Clouds 16 1020 67 7000 2.6 10 22:45 05.01.2021
4047 Clouds 16 1020 67 6000 2.6 360 22:21 05.01.2021
4048 Clouds 16 1020 67 7000 3.1 360 21:56 05.01.2021
4049 Clouds 16 1020 67 6000 2.6 360 20:58 05.01.2021
4050 Clouds 17 1020 63 7000 3.6 360 20:27 05.01.2021
4051 Clouds 17 1021 67 7000 3.1 10 19:44 05.01.2021
4052 Clouds 17 1021 67 6000 3.6 10 19:21 05.01.2021
4053 Clouds 17 1021 67 6000 3.1 10 18:45 05.01.2021
4054 Mist 17 1021 72 5000 1.5 350 18:25 05.01.2021
4055 Mist 17 1021 72 5000 1.5 320 17:50 05.01.2021
4056 Mist 17 1021 72 5000 1.5 320 17:31 05.01.2021
4057 Clouds 17 1021 72 6000 2.6 340 16:53 05.01.2021
4058 Clouds 17 1021 67 6000 3.1 20 16:22 05.01.2021
4059 Clouds 18 1021 63 7000 2.1 20 15:51 05.01.2021
4060 Clouds 18 1021 59 7000 1.5 40 15:26 05.01.2021
4061 Clouds 18 1021 59 8000 2.1 70 14:46 05.01.2021
4062 Clouds 18 1020 59 7000 0.5 0 13:53 05.01.2021
4063 Clouds 18 1020 59 7000 0.5 0 13:32 05.01.2021
4064 Clouds 18 1020 55 6000 1 0 12:50 05.01.2021
4065 Clouds 18 1020 55 6000 1 0 12:29 05.01.2021
4066 Haze 19 1019 52 4900 1 0 11:41 05.01.2021
4067 Haze 19 1019 52 5000 1.5 310 11:23 05.01.2021
4068 Haze 19 1019 52 5000 1.5 310 11:22 05.01.2021
4069 Haze 19 1019 52 5000 1.5 310 11:20 05.01.2021
4070 Haze 19 1019 52 5000 1.5 360 10:43 05.01.2021
4071 Clouds 19 1019 52 6000 0.5 0 09:58 05.01.2021
4072 Clouds 19 1019 52 6000 3.1 60 09:37 05.01.2021
4073 Haze 19 1019 52 5000 1.5 20 08:41 05.01.2021
4074 Haze 20 1019 49 4200 0.5 0 08:18 05.01.2021
4075 Haze 19 1022 52 2800 2.6 340 05:29 05.01.2021
4076 Mist 16 1022 72 2000 2.6 310 02:36 05.01.2021
4077 Clouds 16 1020 59 6000 1 60 00:22 05.01.2021
4078 Clouds 16 1019 59 6000 1.5 80 23:39 04.01.2021
4079 Haze 16 1019 63 5000 0.5 0 23:19 04.01.2021
4080 Haze 16 1019 63 5000 0.5 80 22:42 04.01.2021
4081 Haze 16 1019 59 5000 1.5 50 21:56 04.01.2021
4082 Haze 16 1019 59 5000 1.5 30 21:37 04.01.2021
4083 Clouds 16 1019 55 6000 1.5 50 20:56 04.01.2021
4084 Clouds 16 1019 55 6000 1.5 50 20:32 04.01.2021
4085 Haze 16 1019 59 5000 2.1 40 20:32 04.01.2021
4086 Haze 15 1019 62 5000 2.1 90 19:55 04.01.2021
4087 Haze 15 1019 62 5000 2.1 90 19:29 04.01.2021
4088 Clouds 14 1019 67 6000 1 0 18:58 04.01.2021
4089 Clear 14 1019 67 6000 1 0 18:29 04.01.2021
4090 Clear 14 1020 67 6000 0.5 0 17:44 04.01.2021
4091 Mist 14 1019 67 5000 1.5 20 17:26 04.01.2021
4092 Haze 14 1019 62 5000 1 80 16:48 04.01.2021
4093 Haze 14 1019 62 5000 1 80 16:27 04.01.2021
4094 Clear 15 1019 54 6000 1 0 15:51 04.01.2021
4095 Clouds 16 1019 51 7000 1 0 15:32 04.01.2021
4096 Clouds 17 1019 48 7000 1 0 14:48 04.01.2021
4097 Clouds 18 1019 42 7000 1 0 13:51 04.01.2021
4098 Clouds 18 1019 42 6000 1.5 70 13:26 04.01.2021
4099 Clouds 18 1019 42 7000 1.5 80 12:49 04.01.2021
4100 Clouds 19 1019 37 7000 2.1 80 11:59 04.01.2021
4101 Clouds 19 1019 37 9000 1.5 70 11:29 04.01.2021
4102 Clouds 20 1019 34 10000 1.5 40 10:53 04.01.2021
4103 Clouds 20 1019 34 10000 1.5 40 10:29 04.01.2021
4104 Clear 20 1019 32 10000 0.5 0 09:53 04.01.2021
4105 Clear 20 1019 32 10000 1 0 09:22 04.01.2021
4106 Clear 19 1020 34 10000 1 0 08:47 04.01.2021
4107 Clear 19 1020 34 10000 1.5 300 08:18 04.01.2021
4108 Clear 19 1021 34 10000 1.5 40 07:42 04.01.2021
4109 Clear 18 1023 36 10000 2.6 20 05:33 04.01.2021
4110 Clear 18 1024 34 10000 3.1 20 04:30 04.01.2021
4111 Clouds 15 1022 58 8000 1.5 70 00:47 04.01.2021
4112 Clouds 15 1022 58 8000 2.1 100 23:49 03.01.2021
4113 Clouds 15 1022 58 8000 2.04 9 23:24 03.01.2021
4114 Clouds 15 1022 58 8000 2.04 9 22:56 03.01.2021
4115 Clouds 15 1021 58 8000 1 0 22:32 03.01.2021
4116 Clouds 15 1021 58 8000 1.5 330 21:55 03.01.2021
4117 Clouds 15 1021 58 7000 2.1 330 21:29 03.01.2021
4118 Clouds 15 1022 58 7000 2.1 340 20:49 03.01.2021
4119 Clouds 15 1022 58 7000 2.1 340 20:31 03.01.2021
4120 Clouds 15 1022 54 8000 2.1 330 19:56 03.01.2021
4121 Clouds 16 1022 48 9000 1 310 19:35 03.01.2021
4122 Clouds 16 1023 48 9000 1 0 18:57 03.01.2021
4123 Clouds 16 1023 48 9000 1.5 330 18:38 03.01.2021
4124 Clouds 16 1023 48 8000 1 0 18:18 03.01.2021
4125 Clouds 16 1023 48 8000 1 0 17:41 03.01.2021
4126 Clouds 16 1023 48 8000 1 0 17:22 03.01.2021
4127 Clouds 16 1023 48 8000 0.5 0 16:42 03.01.2021
4128 Clouds 16 1023 48 9000 1.5 90 16:19 03.01.2021
4129 Clouds 16 1022 44 9000 1.5 70 15:46 03.01.2021
4130 Clouds 16 1022 48 9000 1.5 80 15:26 03.01.2021
4131 Clouds 16 1022 48 9000 2.1 60 14:50 03.01.2021
4132 Clear 16 1022 44 10000 2.6 80 14:27 03.01.2021
4133 Clear 16 1022 44 10000 2.6 80 13:40 03.01.2021
4134 Clear 17 1022 42 10000 2.6 80 13:21 03.01.2021
4135 Clouds 17 1021 42 8000 4.1 110 12:24 03.01.2021
4136 Clouds 18 1021 36 9000 4.6 110 11:40 03.01.2021
4137 Clear 19 1021 37 10000 5.1 90 11:22 03.01.2021
4138 Clear 19 1021 37 10000 5.1 90 10:34 03.01.2021
4139 Clear 19 1020 37 10000 5.1 90 09:55 03.01.2021
4140 Clear 20 1020 34 10000 5.1 100 09:33 03.01.2021
4141 Clear 21 1021 32 10000 1.5 0 08:34 03.01.2021
4142 Clear 20 1021 32 10000 3.6 80 07:24 03.01.2021
4143 Haze 17 1024 48 5000 3.1 280 05:23 03.01.2021
4144 Mist 10 1023 81 2400 3.1 290 02:26 03.01.2021
4145 Haze 10 1022 71 4600 1 0 00:54 03.01.2021
4146 Clouds 11 1021 62 7000 2.1 50 23:53 02.01.2021
4147 Clouds 11 1021 66 6000 1.5 60 23:20 02.01.2021
4148 Clouds 11 1021 66 6000 2.1 60 22:48 02.01.2021
4149 Clouds 11 1021 66 6000 2.1 60 22:29 02.01.2021
4150 Haze 12 1020 66 5000 3.1 50 21:49 02.01.2021
4151 Haze 12 1020 66 5000 3.1 50 21:29 02.01.2021
4152 Clouds 12 1020 66 6000 3.6 50 20:45 02.01.2021
4153 Clouds 12 1020 66 6000 3.6 50 20:25 02.01.2021
4154 Haze 11 1020 66 5000 2.6 60 19:47 02.01.2021
4155 Haze 11 1020 66 5000 2.1 80 19:20 02.01.2021
4156 Haze 12 1020 62 5000 3.6 80 18:47 02.01.2021
4157 Haze 11 1020 66 5000 2.6 70 18:29 02.01.2021
4158 Haze 11 1020 66 5000 2.6 80 17:46 02.01.2021
4159 Clear 14 1020 50 7000 2.6 150 17:28 02.01.2021
4160 Clear 15 1020 47 6000 3.1 140 16:44 02.01.2021
4161 Haze 13 1020 54 5000 2.6 100 16:21 02.01.2021
4162 Clear 13 1020 54 6000 2.1 100 15:44 02.01.2021
4163 Haze 14 1019 50 5000 2.1 120 15:25 02.01.2021
4164 Clear 14 1019 50 6000 2.1 110 14:37 02.01.2021
4165 Clear 15 1019 44 6000 1.5 100 14:18 02.01.2021
4166 Clear 15 1019 44 7000 2.1 110 13:39 02.01.2021
4167 Clear 17 1019 33 8000 2.6 140 12:54 02.01.2021
4168 Clear 17 1019 33 8000 2.6 140 12:32 02.01.2021
4169 Clear 18 1019 39 10000 2.1 170 11:57 02.01.2021
4170 Clear 19 1019 29 10000 2.1 190 11:22 02.01.2021
4171 Clear 19 1019 35 10000 1.5 160 10:56 02.01.2021
4172 Clear 19 1019 32 10000 1.5 160 10:31 02.01.2021
4173 Clear 20 1019 28 10000 1 0 09:54 02.01.2021
4174 Clear 19 1019 29 10000 2.1 230 09:28 02.01.2021
4175 Clear 19 1020 31 10000 1.5 0 08:50 02.01.2021
4176 Clear 19 1020 31 10000 1.5 0 08:28 02.01.2021
4177 Clear 19 1021 29 9000 1.5 260 07:47 02.01.2021
4178 Clear 18 1022 31 10000 2.1 0 07:22 02.01.2021
4179 Clear 18 1023 34 10000 2.1 240 06:46 02.01.2021
4180 Clear 17 1024 36 10000 1 0 05:45 02.01.2021
4181 Mist 8 1025 87 4400 0.5 0 00:59 02.01.2021
4182 Clear 9 1024 81 5000 1 340 00:37 02.01.2021
4183 Mist 8 1024 87 5000 1.5 320 23:56 01.01.2021
4184 Mist 10 1023 71 5000 0.5 80 23:21 01.01.2021
4185 Mist 9 1023 76 5000 1 60 22:47 01.01.2021
4186 Mist 9 1023 70 5000 1.5 90 22:24 01.01.2021
4187 Mist 9 1023 76 5000 1.5 80 21:44 01.01.2021
4188 Haze 9 1023 70 5000 2.1 60 21:22 01.01.2021
4189 Mist 10 1024 66 5000 1.5 60 20:53 01.01.2021
4190 Haze 10 1024 66 5000 2.6 50 20:22 01.01.2021
4191 Clear 10 1024 66 6000 2.6 40 19:43 01.01.2021
4192 Clear 9 1024 70 6000 2.1 90 19:24 01.01.2021
4193 Clear 10 1024 66 6000 2.1 100 18:59 01.01.2021
4194 Clear 10 1024 66 6000 2.1 100 18:40 01.01.2021
4195 Clear 11 1024 62 6000 0.5 330 18:19 01.01.2021
4196 Clear 11 1023 62 7000 0.5 0 17:42 01.01.2021
4197 Clear 11 1023 57 7000 1 280 17:18 01.01.2021
4198 Clear 11 1023 62 7000 1.5 310 16:40 01.01.2021
4199 Clear 12 1023 58 6000 1 0 15:56 01.01.2021
4200 Clear 12 1023 54 6000 1 0 15:37 01.01.2021
4201 Clear 13 1023 47 7000 1 0 14:42 01.01.2021
4202 Clear 15 1023 36 9000 2.1 230 14:19 01.01.2021
4203 Clear 16 1023 31 9000 1.5 240 13:37 01.01.2021
4204 Clear 16 1022 31 10000 2.1 220 12:47 01.01.2021
4205 Clear 17 1022 27 10000 2.1 220 12:25 01.01.2021
4206 Clear 17 1022 27 10000 0.5 0 11:39 01.01.2021
4207 Clear 18 1022 22 10000 2.1 280 11:18 01.01.2021
4208 Clear 18 1022 22 10000 1.5 280 10:50 01.01.2021
4209 Clear 18 1023 22 10000 1.5 50 09:51 01.01.2021
4210 Clear 18 1023 20 10000 1.5 0 09:23 01.01.2021
4211 Clear 18 1024 20 10000 1 0 08:30 01.01.2021
4212 Clear 16 1028 25 10000 4.1 40 05:50 01.01.2021
4213 Clear 14 1029 26 10000 4.6 40 04:47 01.01.2021
4214 Clear 9 1028 45 10000 2.6 20 01:39 01.01.2021
4215 Clear 9 1027 49 10000 3.6 10 00:32 01.01.2021
4216 Clouds 9 1027 61 9000 1 0 23:38 31.12.2020
4217 Clear 10 1026 53 10000 1 40 23:20 31.12.2020
4218 Clear 10 1026 53 10000 1.5 40 22:41 31.12.2020
4219 Clouds 10 1026 57 9000 1.5 40 22:21 31.12.2020
4220 Clouds 10 1026 61 8000 2.1 50 21:50 31.12.2020
4221 Clouds 10 1026 61 8000 2.1 50 21:31 31.12.2020
4222 Clouds 10 1026 66 7000 2.6 40 20:57 31.12.2020
4223 Clouds 11 1026 66 6000 2.1 50 20:24 31.12.2020
4224 Clouds 11 1027 66 6000 1.5 40 19:49 31.12.2020
4225 Clouds 11 1027 66 6000 1.5 40 19:31 31.12.2020
4226 Clouds 12 1027 62 7000 2.1 110 18:50 31.12.2020
4227 Clouds 11 1027 66 7000 2.6 100 18:25 31.12.2020
4228 Clouds 11 1027 62 8000 2.6 100 17:46 31.12.2020
4229 Clouds 12 1026 58 8000 3.1 110 17:25 31.12.2020
4230 Clouds 12 1026 58 8000 3.1 110 16:44 31.12.2020
4231 Clear 12 1026 58 7000 4.1 110 16:26 31.12.2020
4232 Clear 12 1026 58 7000 4.1 110 15:57 31.12.2020
4233 Clear 12 1026 58 7000 1.5 10 15:38 31.12.2020
4234 Clouds 13 1025 54 7000 1 0 15:18 31.12.2020
4235 Clear 16 1025 42 10000 2.6 160 14:39 31.12.2020
4236 Clouds 16 1025 40 9000 2.1 150 14:21 31.12.2020
4237 Clear 16 1025 40 10000 2.6 140 13:42 31.12.2020
4238 Clear 16 1024 31 10000 2.6 130 13:24 31.12.2020
4239 Clear 17 1024 38 10000 3.1 130 12:55 31.12.2020
4240 Clear 17 1024 38 10000 3.1 130 12:36 31.12.2020
4241 Clear 17 1024 37 10000 1.5 30 11:53 31.12.2020
4242 Clear 17 1024 37 10000 1.5 30 11:32 31.12.2020
4243 Clear 18 1023 34 10000 2.1 20 10:50 31.12.2020
4244 Clear 18 1023 31 10000 2.1 360 10:30 31.12.2020
4245 Clear 18 1023 31 10000 2.1 360 09:58 31.12.2020
4246 Clear 18 1023 31 10000 3.1 0 09:38 31.12.2020
4247 Clear 18 1024 27 10000 2.6 40 09:18 31.12.2020
4248 Clear 18 1024 27 10000 3.1 0 08:45 31.12.2020
4249 Clear 18 1025 27 10000 1.5 0 08:27 31.12.2020
4250 Clear 18 1025 27 10000 1.5 0 07:33 31.12.2020
4251 Clear 16 1027 31 10000 3.6 50 06:29 31.12.2020
4252 Clear 16 1028 31 10000 4.1 50 05:29 31.12.2020
4253 Clear 14 1029 42 10000 4.1 50 02:57 31.12.2020
4254 Clear 13 1028 47 10000 2.6 70 02:25 31.12.2020
4255 Clear 13 1028 47 10000 2.6 80 01:46 31.12.2020
4256 Clear 13 1027 47 10000 2.6 80 01:27 31.12.2020
4257 Clear 13 1027 47 10000 2.6 80 01:27 31.12.2020
4258 Clear 13 1027 47 10000 3.1 80 00:48 31.12.2020
4259 Clear 13 1026 50 10000 3.1 80 23:52 30.12.2020
4260 Clear 13 1026 50 10000 3.1 70 23:20 30.12.2020
4261 Clear 13 1026 50 10000 2.6 60 22:49 30.12.2020
4262 Clear 13 1026 50 10000 2.6 60 22:30 30.12.2020
4263 Clear 12 1026 58 10000 2.6 60 21:46 30.12.2020
4264 Clear 12 1026 58 10000 2.6 50 21:24 30.12.2020
4265 Clear 12 1026 58 10000 3.1 60 20:51 30.12.2020
4266 Clear 12 1026 58 10000 3.1 70 20:22 30.12.2020
4267 Clear 13 1026 58 10000 2.1 80 19:41 30.12.2020
4268 Clear 13 1026 58 10000 2.1 70 19:23 30.12.2020
4269 Clear 14 1026 54 10000 2.1 70 18:47 30.12.2020
4270 Clear 14 1026 54 10000 2.1 80 18:29 30.12.2020
4271 Clear 14 1026 54 10000 2.1 80 17:51 30.12.2020
4272 Clear 14 1026 54 10000 2.1 80 17:51 30.12.2020
4273 Clear 16 1026 38 10000 3.6 50 17:32 30.12.2020
4274 Clear 16 1026 38 10000 3.1 50 16:56 30.12.2020
4275 Clear 16 1026 41 10000 2.1 40 16:31 30.12.2020
4276 Clear 16 1025 41 10000 2.6 70 15:47 30.12.2020
4277 Clear 17 1025 39 10000 2.1 50 15:24 30.12.2020
4278 Clear 17 1025 39 10000 2.6 40 14:44 30.12.2020
4279 Clear 17 1025 39 10000 3.6 60 14:22 30.12.2020
4280 Clear 17 1024 39 10000 3.1 70 13:33 30.12.2020
4281 Clear 17 1024 39 10000 2.6 70 12:40 30.12.2020
4282 Clear 17 1023 39 10000 3.1 90 12:20 30.12.2020
4283 Clear 18 1023 34 10000 3.6 50 11:36 30.12.2020
4284 Clear 19 1022 32 10000 4.6 40 11:18 30.12.2020
4285 Clear 19 1022 29 10000 5.1 40 10:43 30.12.2020
4286 Clear 19 1022 32 10000 4.6 40 10:25 30.12.2020
4287 Clear 19 1023 32 10000 4.6 40 09:49 30.12.2020
4288 Clear 19 1023 32 10000 4.6 30 09:25 30.12.2020
4289 Clear 20 1023 32 10000 4.6 20 08:27 30.12.2020
4290 Clear 20 1024 32 10000 4.6 20 07:29 30.12.2020
4291 Clear 19 1025 34 10000 5.7 10 06:51 30.12.2020
4292 Clear 19 1025 34 10000 5.7 10 06:29 30.12.2020
4293 Clear 18 1026 34 10000 6.7 20 05:42 30.12.2020
4294 Clear 19 1026 32 10000 7.2 20 05:24 30.12.2020
4295 Clear 18 1026 36 10000 5.7 30 03:28 30.12.2020
4296 Clear 18 1025 36 10000 6.7 30 02:39 30.12.2020
4297 Clear 18 1024 39 10000 5.7 30 01:51 30.12.2020
4298 Clear 18 1023 39 10000 6.7 30 01:32 30.12.2020
4299 Clear 18 1022 42 10000 6.7 40 00:47 30.12.2020
4300 Clear 18 1022 42 10000 6.7 40 00:29 30.12.2020
4301 Clear 18 1021 45 10000 8.2 40 23:53 29.12.2020
4302 Clear 18 1021 45 10000 8.2 40 23:35 29.12.2020
4303 Clear 19 1020 45 10000 7.2 40 22:51 29.12.2020
4304 Clear 19 1020 45 10000 7.2 40 22:32 29.12.2020
4305 Clear 19 1020 48 10000 6.2 50 21:59 29.12.2020
4306 Clear 19 1020 48 10000 6.2 50 21:59 29.12.2020
4307 Clear 19 1020 52 10000 6.7 50 21:39 29.12.2020
4308 Clear 19 1019 55 10000 7.2 50 21:21 29.12.2020
4309 Clouds 20 1019 52 10000 8.2 50 20:44 29.12.2020
4310 Clouds 20 1019 56 10000 9.3 40 20:25 29.12.2020
4311 Clouds 21 1019 64 10000 7.7 40 19:45 29.12.2020
4312 Mist 21 1018 88 4400 2.1 50 19:22 29.12.2020
4313 Mist 21 1018 88 4300 1.5 50 18:54 29.12.2020
4314 Mist 20 1018 94 4200 2.6 60 18:29 29.12.2020
4315 Mist 20 1017 94 3900 2.1 50 17:47 29.12.2020
4316 Mist 21 1017 88 4800 1 0 17:23 29.12.2020
4317 Mist 21 1017 88 5000 2.1 70 16:55 29.12.2020
4318 Mist 22 1017 78 5000 2.6 80 16:27 29.12.2020
4319 Clouds 23 1016 73 6000 2.1 80 15:46 29.12.2020
4320 Mist 23 1016 73 5000 2.6 70 15:26 29.12.2020
4321 Mist 23 1016 73 5000 2.6 60 14:45 29.12.2020
4322 Clouds 23 1015 73 6000 2.6 70 14:27 29.12.2020
4323 Clouds 23 1014 69 6000 2.6 60 13:55 29.12.2020
4324 Clouds 23 1013 69 8000 3.1 70 13:25 29.12.2020
4325 Clouds 23 1013 69 8000 3.1 70 12:45 29.12.2020
4326 Clouds 24 1013 64 7000 2.6 70 12:26 29.12.2020
4327 Clouds 24 1013 64 7000 2.6 70 11:58 29.12.2020
4328 Clouds 26 1012 57 10000 2.6 70 11:32 29.12.2020
4329 Clouds 27 1012 51 10000 2.6 110 10:40 29.12.2020
4330 Clouds 26 1012 57 10000 2.6 140 10:19 29.12.2020
4331 Clouds 27 1012 51 10000 3.1 100 09:39 29.12.2020
4332 Clouds 27 1012 54 10000 3.6 100 09:18 29.12.2020
4333 Clouds 27 1012 54 10000 3.1 130 08:45 29.12.2020
4334 Clouds 26 1013 57 10000 3.6 160 07:35 29.12.2020
4335 Clouds 26 1014 57 10000 3.6 160 06:58 29.12.2020
4336 Clouds 24 1015 69 10000 3.6 150 05:33 29.12.2020
4337 Drizzle 20 1013 100 2300 2.1 100 01:36 29.12.2020
4338 Mist 20 1012 100 4000 2.1 100 00:24 29.12.2020
4339 Mist 20 1011 100 4300 3.6 120 23:36 28.12.2020
4340 Clouds 21 1011 88 6000 3.1 120 22:30 28.12.2020
4341 Mist 20 1011 100 4700 4.1 120 21:47 28.12.2020
4342 Mist 20 1011 100 4700 4.1 120 21:29 28.12.2020
4343 Clouds 21 1011 94 7000 3.6 120 20:46 28.12.2020
4344 Clouds 21 1011 94 7000 3.6 120 20:28 28.12.2020
4345 Clouds 21 1011 94 7000 4.1 130 19:58 28.12.2020
4346 Clouds 21 1011 88 6000 4.1 110 19:38 28.12.2020
4347 Clouds 21 1012 88 7000 5.1 110 19:20 28.12.2020
4348 Clouds 22 1012 83 8000 4.6 120 18:43 28.12.2020
4349 Clouds 21 1012 88 7000 4.6 120 18:21 28.12.2020
4350 Clouds 21 1012 88 7000 4.6 110 17:37 28.12.2020
4351 Clouds 21 1012 88 7000 4.6 120 17:18 28.12.2020
4352 Clouds 21 1012 88 6000 4.1 120 16:31 28.12.2020
4353 Clouds 21 1012 88 6000 4.6 130 15:54 28.12.2020
4354 Mist 22 1011 83 5000 4.6 120 15:36 28.12.2020
4355 Mist 22 1011 83 5000 4.6 110 14:34 28.12.2020
4356 Clouds 23 1010 73 6000 5.7 100 13:48 28.12.2020
4357 Clouds 23 1010 78 6000 5.1 100 13:21 28.12.2020
4358 Mist 23 1009 73 4600 3.1 90 12:29 28.12.2020
4359 Mist 23 1009 73 4600 3.1 90 11:56 28.12.2020
4360 Clouds 24 1009 73 6000 3.6 90 11:37 28.12.2020
4361 Clouds 24 1009 73 6000 4.1 100 11:18 28.12.2020
4362 Clouds 24 1009 73 6000 4.6 120 10:29 28.12.2020
4363 Clouds 25 1009 69 6000 4.1 110 09:58 28.12.2020
4364 Clouds 24 1010 69 6000 4.1 100 09:37 28.12.2020
4365 Clouds 24 1010 73 7000 4.6 120 09:18 28.12.2020
4366 Mist 23 1012 73 5000 3.6 120 06:53 28.12.2020
4367 Mist 22 1015 88 3800 2.1 140 05:23 28.12.2020
4368 Mist 21 1015 94 2500 3.1 120 03:34 28.12.2020
4369 Mist 20 1014 94 2000 3.1 120 01:55 28.12.2020
4370 Mist 20 1012 94 2900 3.1 110 23:55 27.12.2020
4371 Mist 20 1012 94 2900 3.1 110 23:29 27.12.2020
4372 Mist 20 1012 94 2500 3.1 110 22:40 27.12.2020
4373 Mist 20 1013 94 2500 3.1 130 21:55 27.12.2020
4374 Mist 20 1013 94 2000 2.6 110 21:22 27.12.2020
4375 Mist 20 1014 100 1500 1.5 110 20:25 27.12.2020
4376 Mist 20 1014 94 1800 2.1 100 19:24 27.12.2020
4377 Mist 20 1014 94 1800 1.5 110 18:50 27.12.2020
4378 Mist 20 1014 100 2000 2.1 120 18:21 27.12.2020
4379 Mist 20 1014 100 2000 2.1 120 17:57 27.12.2020
4380 Drizzle 20 1014 94 2000 2.1 130 17:35 27.12.2020
4381 Mist 20 1014 94 2200 1.5 150 16:56 27.12.2020
4382 Mist 20 1014 94 2000 1.5 140 16:22 27.12.2020
4383 Mist 20 1014 94 1800 1.5 110 15:31 27.12.2020
4384 Mist 20 1014 88 2200 0.5 0 14:50 27.12.2020
4385 Mist 20 1014 88 2500 2.82 140 14:31 27.12.2020
4386 Mist 20 1013 88 2600 1 230 13:36 27.12.2020
4387 Mist 20 1013 88 2400 1 0 12:56 27.12.2020
4388 Mist 20 1013 88 1600 1.5 300 12:24 27.12.2020
4389 Mist 20 1013 88 1500 2.1 290 11:42 27.12.2020
4390 Mist 20 1013 88 1500 1.5 280 11:19 27.12.2020
4391 Mist 20 1013 88 1300 2.1 270 10:40 27.12.2020
4392 Mist 20 1013 88 1400 2.6 260 10:19 27.12.2020
4393 Mist 20 1013 88 1500 3.1 250 09:19 27.12.2020
4394 Mist 21 1014 83 1600 3.1 250 08:28 27.12.2020
4395 Mist 21 1014 83 2700 2.1 280 07:28 27.12.2020
4396 Clouds 21 1017 77 7000 2.1 60 05:48 27.12.2020
4397 Mist 21 1017 77 5000 1 0 05:21 27.12.2020
4398 Mist 19 1017 93 1600 1.5 20 03:24 27.12.2020
4399 Mist 18 1016 93 1400 1.5 40 01:56 27.12.2020
4400 Drizzle 18 1015 93 1600 2.1 50 00:26 27.12.2020
4401 Drizzle 18 1014 93 2200 2.6 70 23:42 26.12.2020
4402 Mist 19 1014 82 3800 2.1 70 23:22 26.12.2020
4403 Mist 19 1014 88 3900 1.5 70 22:41 26.12.2020
4404 Mist 19 1014 88 3800 1.5 40 22:19 26.12.2020
4405 Mist 19 1014 88 3800 1.5 40 21:53 26.12.2020
4406 Mist 19 1015 88 3800 1.5 70 21:24 26.12.2020
4407 Mist 19 1015 88 3700 2.1 60 20:44 26.12.2020
4408 Mist 20 1015 77 3900 1 0 20:21 26.12.2020
4409 Mist 20 1015 72 4000 1.5 100 19:30 26.12.2020
4410 Mist 20 1015 72 4500 2.6 80 18:54 26.12.2020
4411 Mist 20 1015 72 4800 2.6 70 18:32 26.12.2020
4412 Mist 20 1015 72 4900 2.6 70 17:46 26.12.2020
4413 Mist 20 1016 72 4900 2.6 60 17:28 26.12.2020
4414 Mist 20 1016 72 5000 2.1 60 16:38 26.12.2020
4415 Haze 20 1015 68 5000 2.1 80 15:58 26.12.2020
4416 Haze 20 1014 68 5000 1.5 80 15:20 26.12.2020
4417 Haze 20 1014 68 5000 1.5 80 14:30 26.12.2020
4418 Haze 20 1014 68 4800 1.5 70 13:57 26.12.2020
4419 Haze 20 1014 68 5000 2.1 80 13:36 26.12.2020
4420 Haze 20 1014 68 5000 2.1 70 12:53 26.12.2020
4421 Haze 20 1014 68 5000 2.1 70 12:35 26.12.2020
4422 Haze 21 1013 64 4000 2.6 80 11:59 26.12.2020
4423 Haze 21 1013 64 3900 2.6 100 11:41 26.12.2020
4424 Haze 21 1013 64 4200 2.1 80 11:19 26.12.2020
4425 Haze 21 1013 64 3700 1.5 80 10:43 26.12.2020
4426 Haze 21 1013 60 3800 1.5 50 10:23 26.12.2020
4427 Haze 21 1014 64 3400 1.5 50 09:41 26.12.2020
4428 Haze 22 1014 60 3900 1 0 08:54 26.12.2020
4429 Haze 21 1015 64 4000 1 0 08:18 26.12.2020
4430 Haze 20 1016 68 3100 1.5 0 07:20 26.12.2020
4431 Mist 18 1019 72 4400 3.1 70 03:54 26.12.2020
4432 Mist 18 1018 82 2700 2.1 50 02:34 26.12.2020
4433 Mist 17 1017 88 4100 2.1 70 00:34 26.12.2020
4434 Mist 17 1016 88 3600 1.5 80 23:49 25.12.2020
4435 Mist 17 1016 88 3600 2.1 80 23:28 25.12.2020
4436 Mist 17 1016 88 2800 1.5 70 22:51 25.12.2020
4437 Mist 17 1016 88 2800 1.5 70 22:26 25.12.2020
4438 Mist 17 1016 88 4600 1.5 90 21:41 25.12.2020
4439 Mist 17 1016 88 4400 1.5 90 21:23 25.12.2020
4440 Mist 16 1016 93 4400 2.1 110 20:39 25.12.2020
4441 Mist 16 1017 87 4700 1.5 90 19:54 25.12.2020
4442 Mist 16 1017 87 4700 1.5 90 19:36 25.12.2020
4443 Clear 16 1017 77 6000 2.1 90 18:39 25.12.2020
4444 Mist 17 1017 77 5000 2.6 120 17:58 25.12.2020
4445 Mist 18 1017 72 5000 2.1 140 17:35 25.12.2020
4446 Mist 18 1017 72 5000 2.1 150 16:49 25.12.2020
4447 Mist 18 1017 72 4800 2.1 150 16:21 25.12.2020
4448 Haze 19 1017 68 5000 2.6 180 15:46 25.12.2020
4449 Haze 19 1017 68 4500 2.1 180 15:22 25.12.2020
4450 Haze 19 1017 68 4600 2.1 180 14:31 25.12.2020
4451 Haze 20 1016 60 5000 2.6 170 13:47 25.12.2020
4452 Haze 20 1016 60 5000 2.6 170 13:26 25.12.2020
4453 Clouds 21 1016 52 6000 2.6 160 12:49 25.12.2020
4454 Haze 22 1015 46 5000 2.6 160 12:26 25.12.2020
4455 Haze 22 1015 49 5000 2.1 170 11:46 25.12.2020
4456 Clouds 22 1015 46 6000 2.1 180 11:22 25.12.2020
4457 Clouds 22 1015 46 7000 2.1 150 10:35 25.12.2020
4458 Clear 22 1015 46 10000 1.5 0 09:49 25.12.2020
4459 Clear 22 1016 46 10000 1.5 70 08:51 25.12.2020
4460 Clear 22 1016 46 10000 1.5 70 08:29 25.12.2020
4461 Clear 22 1018 43 10000 2.6 90 06:49 25.12.2020
4462 Clear 21 1020 49 10000 3.1 50 05:24 25.12.2020
4463 Clouds 18 1019 63 7000 3.1 50 02:19 25.12.2020
4464 Mist 17 1018 77 5000 1.5 60 00:19 25.12.2020
4465 Mist 17 1018 77 5000 2.1 50 23:29 24.12.2020
4466 Mist 17 1017 72 5000 2.1 50 22:53 24.12.2020
4467 Mist 17 1017 72 5000 2.1 50 22:24 24.12.2020
4468 Mist 17 1018 72 4900 2.1 60 21:43 24.12.2020
4469 Mist 17 1018 72 5000 1.5 70 20:53 24.12.2020
4470 Haze 18 1018 68 5000 1.5 40 19:34 24.12.2020
4471 Haze 17 1018 72 5000 1.5 10 18:21 24.12.2020
4472 Mist 17 1018 77 4900 1.5 340 17:37 24.12.2020
4473 Mist 18 1018 68 5000 1 0 16:59 24.12.2020
4474 Mist 18 1018 72 5000 1.5 360 16:24 24.12.2020
4475 Clouds 19 1018 63 6000 0.5 0 15:43 24.12.2020
4476 Clouds 19 1018 59 6000 1 300 15:21 24.12.2020
4477 Clouds 19 1018 59 6000 1 300 14:55 24.12.2020
4478 Clouds 21 1017 49 7000 2.1 130 14:24 24.12.2020
4479 Clouds 21 1016 49 7000 1.5 170 13:49 24.12.2020
4480 Clouds 21 1016 46 7000 1 0 13:30 24.12.2020
4481 Clouds 21 1016 49 8000 1.5 200 12:45 24.12.2020
4482 Clouds 21 1015 49 6000 1.5 200 12:21 24.12.2020
4483 Clouds 21 1015 49 6000 2.1 200 11:47 24.12.2020
4484 Clouds 21 1015 49 6000 2.1 220 11:23 24.12.2020
4485 Clouds 22 1015 46 7000 1.5 200 10:56 24.12.2020
4486 Clouds 22 1015 46 7000 1.5 200 10:38 24.12.2020
4487 Clouds 21 1015 49 6000 2.1 240 09:52 24.12.2020
4488 Clouds 22 1015 46 7000 2.1 220 09:26 24.12.2020
4489 Clouds 22 1016 46 7000 2.1 210 08:39 24.12.2020
4490 Clear 22 1017 40 10000 1.5 70 07:42 24.12.2020
4491 Clear 22 1018 40 10000 1.5 0 07:20 24.12.2020
4492 Clear 21 1020 43 10000 3.1 50 05:40 24.12.2020
4493 Clouds 17 1019 67 10000 2.1 350 01:57 24.12.2020
4494 Clouds 17 1019 67 10000 2.1 350 01:37 24.12.2020
4495 Clouds 17 1018 67 10000 3.1 360 01:18 24.12.2020
4496 Clouds 17 1018 67 10000 2.6 10 00:21 24.12.2020
4497 Clouds 17 1018 67 10000 3.1 10 23:49 23.12.2020
4498 Clouds 17 1018 67 10000 3.1 10 23:30 23.12.2020
4499 Clouds 17 1017 67 10000 3.1 10 22:57 23.12.2020
4500 Clouds 17 1017 67 10000 3.1 10 22:31 23.12.2020
4501 Clouds 17 1017 67 10000 3.1 50 21:56 23.12.2020
4502 Clouds 17 1017 67 10000 2.6 40 21:28 23.12.2020
4503 Clouds 17 1018 67 10000 2.6 60 20:54 23.12.2020
4504 Clouds 17 1018 67 9000 2.6 60 20:36 23.12.2020
4505 Clouds 17 1018 67 9000 2.6 60 20:18 23.12.2020
4506 Clouds 17 1018 67 8000 3.1 50 19:39 23.12.2020
4507 Clouds 17 1018 67 9000 3.1 70 19:20 23.12.2020
4508 Clouds 17 1018 67 9000 3.1 60 18:48 23.12.2020
4509 Clouds 17 1018 67 9000 3.1 60 18:24 23.12.2020
4510 Clouds 18 1018 63 10000 3.1 50 17:39 23.12.2020
4511 Clouds 17 1018 67 9000 3.1 60 17:39 23.12.2020
4512 Clouds 18 1018 63 10000 3.1 50 17:20 23.12.2020
4513 Clouds 18 1018 63 9000 3.1 60 16:47 23.12.2020
4514 Clouds 18 1018 63 9000 3.1 60 16:29 23.12.2020
4515 Clouds 18 1018 63 8000 3.1 60 15:56 23.12.2020
4516 Clouds 17 1018 72 8000 2.1 80 15:30 23.12.2020
4517 Clouds 17 1017 67 8000 2.6 90 14:59 23.12.2020
4518 Clouds 17 1017 67 8000 2.6 90 14:39 23.12.2020
4519 Clouds 18 1017 63 9000 3.1 100 14:20 23.12.2020
4520 Clouds 18 1017 63 8000 4.1 110 13:44 23.12.2020
4521 Clouds 18 1017 63 8000 4.1 110 13:44 23.12.2020
4522 Clouds 19 1016 59 9000 3.6 100 13:19 23.12.2020
4523 Clouds 19 1015 59 9000 2.6 80 12:52 23.12.2020
4524 Clouds 19 1015 59 9000 2.6 80 12:28 23.12.2020
4525 Clouds 19 1015 59 7000 4.1 90 11:49 23.12.2020
4526 Clouds 20 1015 56 7000 3.1 80 11:20 23.12.2020
4527 Clouds 20 1014 56 7000 4.1 90 10:50 23.12.2020
4528 Clouds 21 1014 49 6000 1.5 80 10:31 23.12.2020
4529 Clouds 20 1015 52 6000 1 0 09:36 23.12.2020
4530 Haze 20 1015 52 5000 1 0 08:50 23.12.2020
4531 Haze 20 1016 52 5000 2.1 40 08:21 23.12.2020
4532 Clouds 20 1017 52 6000 1.5 0 07:27 23.12.2020
4533 Clouds 20 1018 52 6000 1.5 0 06:41 23.12.2020
4534 Clouds 20 1020 49 9000 2.1 30 05:39 23.12.2020
4535 Clouds 19 1020 52 10000 2.1 70 04:58 23.12.2020
4536 Clouds 17 1018 59 6000 1.5 70 00:48 23.12.2020
4537 Clouds 17 1017 55 6000 3.1 60 00:21 23.12.2020
4538 Clouds 17 1017 55 6000 2.6 70 23:35 22.12.2020
4539 Clouds 17 1017 59 6000 2.1 60 22:58 22.12.2020
4540 Clouds 17 1017 59 6000 2.6 70 22:40 22.12.2020
4541 Haze 17 1017 55 4400 2.1 80 22:20 22.12.2020
4542 Haze 17 1017 55 4600 2.1 80 21:41 22.12.2020
4543 Clouds 17 1017 51 6000 3.1 110 21:19 22.12.2020
4544 Haze 18 1017 48 5000 2.1 80 20:48 22.12.2020
4545 Clouds 18 1017 45 7000 1.5 100 20:21 22.12.2020
4546 Clouds 18 1017 45 7000 1.5 100 20:21 22.12.2020
4547 Clouds 18 1017 42 8000 2.1 100 19:44 22.12.2020
4548 Clouds 18 1018 45 8000 1 100 19:22 22.12.2020
4549 Clouds 19 1018 42 8000 2.1 120 18:54 22.12.2020
4550 Clouds 19 1018 42 8000 2.1 130 18:30 22.12.2020
4551 Clouds 19 1018 42 8000 2.6 130 17:57 22.12.2020
4552 Clouds 19 1018 42 7000 3.1 150 17:26 22.12.2020
4553 Clouds 20 1018 40 8000 3.6 140 16:56 22.12.2020
4554 Clouds 20 1018 40 8000 3.6 140 16:37 22.12.2020
4555 Clouds 20 1018 42 8000 2.1 150 16:19 22.12.2020
4556 Clouds 20 1018 42 8000 1.5 150 15:42 22.12.2020
4557 Clouds 20 1018 42 8000 1.5 150 15:21 22.12.2020
4558 Clouds 20 1018 42 9000 1.5 150 14:45 22.12.2020
4559 Clouds 20 1017 42 9000 1.5 170 14:26 22.12.2020
4560 Clouds 20 1017 42 9000 1.5 170 13:48 22.12.2020
4561 Clear 20 1017 42 10000 1.5 210 13:20 22.12.2020
4562 Clear 20 1017 42 10000 1.5 220 12:57 22.12.2020
4563 Clear 20 1017 42 10000 1.5 220 12:38 22.12.2020
4564 Clouds 20 1016 40 8000 2.1 230 12:19 22.12.2020
4565 Clouds 20 1016 42 8000 2.1 250 11:42 22.12.2020
4566 Clear 21 1016 37 10000 1 0 11:22 22.12.2020
4567 Clear 21 1016 37 10000 1.5 350 10:55 22.12.2020
4568 Clear 21 1016 37 10000 2.1 280 10:27 22.12.2020
4569 Clear 21 1017 37 10000 2.6 320 09:58 22.12.2020
4570 Clear 21 1017 37 10000 2.6 320 09:30 22.12.2020
4571 Clear 21 1017 37 10000 2.1 290 08:57 22.12.2020
4572 Clear 21 1017 35 10000 2.1 0 08:38 22.12.2020
4573 Clear 21 1018 35 10000 1.5 260 07:57 22.12.2020
4574 Clear 21 1019 35 10000 1.5 0 07:27 22.12.2020
4575 Clear 20 1021 34 10000 1.5 310 06:31 22.12.2020
4576 Clear 20 1023 32 10000 1.5 290 05:30 22.12.2020
4577 Haze 15 1023 67 5000 1.5 320 02:19 22.12.2020
4578 Clouds 14 1021 71 7000 1 300 00:23 22.12.2020
4579 Clouds 15 1021 67 7000 1.5 300 23:43 21.12.2020
4580 Clouds 15 1021 62 7000 1.5 290 23:19 21.12.2020
4581 Clouds 15 1021 62 7000 1 280 22:36 21.12.2020
4582 Clouds 15 1021 62 7000 1.5 290 22:18 21.12.2020
4583 Clouds 15 1021 62 8000 1.5 300 21:45 21.12.2020
4584 Clouds 15 1022 62 9000 1.5 300 21:26 21.12.2020
4585 Clouds 15 1022 62 9000 1.5 300 20:43 21.12.2020
4586 Clouds 15 1022 62 9000 2.1 320 20:20 21.12.2020
4587 Clouds 15 1022 62 9000 1.5 310 19:46 21.12.2020
4588 Clouds 15 1022 62 9000 1.5 320 19:20 21.12.2020
4589 Clouds 15 1022 58 9000 2.1 310 18:55 21.12.2020
4590 Clouds 15 1022 58 9000 2.1 310 18:36 21.12.2020
4591 Clouds 15 1022 62 7000 1 0 18:18 21.12.2020
4592 Clouds 15 1022 58 7000 1.5 310 17:41 21.12.2020
4593 Clouds 15 1022 58 7000 1.5 310 17:22 21.12.2020
4594 Clouds 16 1023 55 8000 1 0 16:39 21.12.2020
4595 Clear 16 1023 51 9000 2.1 300 16:18 21.12.2020
4596 Clear 16 1022 51 9000 2.1 280 15:41 21.12.2020
4597 Clear 16 1022 51 9000 2.1 300 14:57 21.12.2020
4598 Clear 16 1022 51 9000 3.1 290 14:22 21.12.2020
4599 Clear 16 1022 48 9000 2.6 290 13:45 21.12.2020
4600 Clear 17 1021 45 10000 3.1 290 13:27 21.12.2020
4601 Clear 17 1021 42 10000 3.1 290 12:47 21.12.2020
4602 Clouds 17 1021 39 9000 2.1 340 12:25 21.12.2020
4603 Clouds 17 1021 39 9000 2.1 340 11:59 21.12.2020
4604 Clear 18 1021 34 10000 2.1 360 11:40 21.12.2020
4605 Clear 18 1021 34 10000 2.6 10 11:22 21.12.2020
4606 Clear 19 1021 32 10000 3.1 10 10:49 21.12.2020
4607 Clear 19 1021 32 10000 3.1 10 10:30 21.12.2020
4608 Clear 19 1021 29 10000 3.1 30 09:49 21.12.2020
4609 Clear 19 1021 29 10000 3.1 30 09:26 21.12.2020
4610 Clear 19 1021 31 10000 2.6 360 08:54 21.12.2020
4611 Clear 19 1022 25 10000 4.6 350 07:56 21.12.2020
4612 Clear 18 1025 27 10000 4.6 350 06:47 21.12.2020
4613 Clear 16 1027 31 10000 6.2 10 04:58 21.12.2020
4614 Clear 14 1027 42 10000 4.6 360 01:28 21.12.2020
4615 Clear 14 1027 43 10000 4.1 10 00:33 21.12.2020
4616 Clear 15 1026 43 10000 5.1 20 23:36 20.12.2020
4617 Clear 15 1026 43 10000 5.1 20 22:59 20.12.2020
4618 Clear 15 1025 43 10000 5.7 20 22:41 20.12.2020
4619 Clear 15 1025 44 10000 4.6 20 22:22 20.12.2020
4620 Clear 15 1026 44 10000 5.1 10 21:40 20.12.2020
4621 Clear 15 1026 43 10000 4.6 10 21:20 20.12.2020
4622 Clear 14 1026 44 10000 3.6 10 20:51 20.12.2020
4623 Clear 14 1026 44 10000 2.1 20 20:24 20.12.2020
4624 Clear 14 1026 44 10000 2.1 30 19:46 20.12.2020
4625 Clear 14 1026 44 10000 2.1 30 19:46 20.12.2020
4626 Clear 14 1026 44 10000 2.1 30 19:28 20.12.2020
4627 Clear 14 1026 44 10000 2.1 70 18:58 20.12.2020
4628 Clear 14 1026 41 10000 2.6 50 18:38 20.12.2020
4629 Clear 14 1026 44 10000 2.6 60 18:19 20.12.2020
4630 Clear 14 1026 44 10000 2.6 60 17:43 20.12.2020
4631 Clear 14 1026 50 10000 3.1 60 17:22 20.12.2020
4632 Clear 15 1026 54 10000 3.6 60 16:44 20.12.2020
4633 Clear 15 1026 51 10000 1 0 16:25 20.12.2020
4634 Clear 15 1026 51 10000 1.5 30 15:45 20.12.2020
4635 Clear 15 1026 47 10000 1.5 30 15:24 20.12.2020
4636 Clear 15 1025 51 10000 1 0 14:53 20.12.2020
4637 Clear 15 1025 51 10000 1 0 14:30 20.12.2020
4638 Clear 15 1025 51 10000 1 0 14:30 20.12.2020
4639 Clear 16 1024 44 10000 2.1 350 13:46 20.12.2020
4640 Clear 16 1024 44 10000 2.6 320 13:24 20.12.2020
4641 Clouds 16 1024 48 9000 2.1 340 12:54 20.12.2020
4642 Clouds 16 1024 48 9000 2.1 340 12:36 20.12.2020
4643 Clear 16 1024 44 10000 2.6 360 12:18 20.12.2020
4644 Clear 16 1024 44 10000 2.6 360 11:42 20.12.2020
4645 Clear 17 1024 42 10000 3.6 350 10:55 20.12.2020
4646 Clear 17 1024 42 10000 3.6 350 10:37 20.12.2020
4647 Clear 17 1024 39 10000 4.1 340 10:19 20.12.2020
4648 Clear 17 1024 39 10000 3.6 350 09:42 20.12.2020
4649 Clear 17 1024 39 10000 4.1 350 09:24 20.12.2020
4650 Clear 17 1024 39 10000 4.1 350 08:50 20.12.2020
4651 Clear 17 1024 39 10000 4.1 350 08:32 20.12.2020
4652 Clear 17 1026 36 10000 5.1 350 07:23 20.12.2020
4653 Clear 16 1028 38 10000 5.7 350 05:44 20.12.2020
4654 Clear 14 1028 47 10000 3.1 350 01:33 20.12.2020
4655 Clear 14 1028 44 10000 3.6 360 00:22 20.12.2020
4656 Clear 14 1027 41 10000 3.6 360 23:19 19.12.2020
4657 Clear 14 1027 44 10000 4.1 10 22:46 19.12.2020
4658 Clear 14 1027 44 10000 4.1 10 22:26 19.12.2020
4659 Clear 14 1027 44 10000 4.6 10 21:59 19.12.2020
4660 Clear 14 1027 44 10000 4.6 10 21:41 19.12.2020
4661 Clear 14 1027 44 10000 4.6 10 21:22 19.12.2020
4662 Clear 14 1028 44 10000 5.7 10 20:41 19.12.2020
4663 Clouds 14 1028 47 10000 4.6 20 20:18 19.12.2020
4664 Clouds 14 1028 44 10000 4.6 20 19:50 19.12.2020
4665 Clouds 14 1028 44 10000 4.6 20 19:29 19.12.2020
4666 Clouds 15 1028 41 10000 5.7 10 18:38 19.12.2020
4667 Clouds 15 1028 41 10000 5.7 10 18:20 19.12.2020
4668 Clear 15 1028 41 10000 4.6 10 17:45 19.12.2020
4669 Clear 15 1027 44 10000 3.1 360 17:23 19.12.2020
4670 Clear 15 1027 47 10000 4.1 360 16:44 19.12.2020
4671 Clear 15 1027 47 10000 4.1 360 16:26 19.12.2020
4672 Clear 15 1027 47 10000 3.6 360 15:55 19.12.2020
4673 Clear 15 1027 47 10000 3.6 360 15:34 19.12.2020
4674 Clear 15 1026 47 10000 4.1 10 14:41 19.12.2020
4675 Clear 15 1026 51 10000 3.1 360 14:21 19.12.2020
4676 Clear 15 1025 51 10000 3.6 10 13:41 19.12.2020
4677 Clear 15 1025 54 10000 3.1 350 13:20 19.12.2020
4678 Clear 16 1025 48 10000 3.1 340 12:44 19.12.2020
4679 Clear 16 1024 48 10000 2.6 340 12:25 19.12.2020
4680 Clear 16 1024 48 10000 2.6 340 11:57 19.12.2020
4681 Clear 16 1024 48 10000 3.6 330 11:57 19.12.2020
4682 Clear 16 1024 48 10000 3.6 330 11:35 19.12.2020
4683 Clouds 16 1023 48 10000 4.1 340 10:43 19.12.2020
4684 Clouds 16 1024 48 10000 3.6 350 10:24 19.12.2020
4685 Clouds 17 1024 45 10000 3.1 350 09:47 19.12.2020
4686 Clouds 17 1024 45 10000 3.1 350 09:47 19.12.2020
4687 Clouds 17 1024 45 10000 3.1 350 09:29 19.12.2020
4688 Clouds 16 1025 44 10000 4.1 350 08:32 19.12.2020
4689 Clouds 16 1025 44 10000 4.6 340 07:24 19.12.2020
4690 Clouds 15 1026 47 10000 4.6 350 06:52 19.12.2020
4691 Clouds 15 1027 47 10000 4.6 360 06:19 19.12.2020
4692 Clouds 15 1028 47 10000 5.1 20 05:18 19.12.2020
4693 Clouds 13 1028 54 10000 4.1 360 02:55 19.12.2020
4694 Clouds 13 1026 54 10000 4.1 10 00:36 19.12.2020
4695 Clouds 13 1026 54 10000 3.6 10 00:18 19.12.2020
4696 Clouds 13 1026 54 10000 3.6 360 23:45 18.12.2020
4697 Clouds 13 1025 54 10000 4.1 360 23:23 18.12.2020
4698 Clouds 13 1025 54 10000 3.6 360 22:45 18.12.2020
4699 Clouds 13 1026 50 10000 4.6 360 22:21 18.12.2020
4700 Clouds 13 1026 50 10000 4.6 10 21:50 18.12.2020
4701 Clear 13 1026 50 10000 5.1 360 21:31 18.12.2020
4702 Clear 13 1026 54 10000 4.1 360 20:40 18.12.2020
4703 Clear 13 1026 54 10000 3.1 20 20:20 18.12.2020
4704 Clouds 13 1026 58 10000 3.6 40 19:42 18.12.2020
4705 Clear 13 1026 54 10000 3.6 40 19:20 18.12.2020
4706 Clear 13 1026 54 10000 3.6 40 18:40 18.12.2020
4707 Clear 13 1026 58 10000 2.6 30 18:22 18.12.2020
4708 Clear 13 1026 62 10000 2.1 20 17:24 18.12.2020
4709 Clear 13 1026 58 10000 2.6 40 16:49 18.12.2020
4710 Clear 13 1025 62 10000 2.6 50 16:27 18.12.2020
4711 Clear 13 1025 62 10000 2.6 50 15:58 18.12.2020
4712 Clear 13 1025 62 10000 2.1 60 15:39 18.12.2020
4713 Clear 13 1025 66 10000 2.6 40 15:20 18.12.2020
4714 Clear 13 1025 66 10000 2.1 40 14:54 18.12.2020
4715 Clouds 13 1024 71 9000 1 0 14:21 18.12.2020
4716 Clouds 13 1024 71 8000 1.5 340 13:49 18.12.2020
4717 Clouds 13 1024 76 7000 1.5 330 13:25 18.12.2020
4718 Clouds 13 1023 71 8000 1.5 310 12:46 18.12.2020
4719 Clouds 15 1022 54 10000 2.6 330 11:45 18.12.2020
4720 Clouds 15 1022 54 10000 3.1 350 11:22 18.12.2020
4721 Clear 15 1022 54 10000 3.1 350 10:39 18.12.2020
4722 Clouds 16 1022 51 10000 4.1 330 10:20 18.12.2020
4723 Clouds 16 1022 51 10000 4.6 340 09:38 18.12.2020
4724 Clear 16 1022 48 10000 5.1 340 09:20 18.12.2020
4725 Clouds 16 1022 51 10000 5.7 330 08:53 18.12.2020
4726 Clouds 16 1022 51 10000 5.7 330 08:29 18.12.2020
4727 Clouds 15 1023 54 10000 4.6 360 07:36 18.12.2020
4728 Clouds 14 1024 54 10000 5.7 20 07:18 18.12.2020
4729 Clouds 14 1025 50 10000 5.1 10 06:42 18.12.2020
4730 Clouds 14 1026 50 10000 6.2 10 05:38 18.12.2020
4731 Clouds 13 1027 54 10000 5.7 30 04:51 18.12.2020
4732 Clouds 12 1025 62 10000 4.6 20 01:57 18.12.2020
4733 Clouds 12 1025 62 10000 4.6 20 01:37 18.12.2020
4734 Clouds 12 1024 66 10000 4.1 10 23:58 17.12.2020
4735 Clouds 11 1023 71 10000 4.1 10 23:25 17.12.2020
4736 Clouds 11 1023 76 10000 4.1 10 22:52 17.12.2020
4737 Clouds 11 1023 76 10000 4.6 20 22:28 17.12.2020
4738 Clouds 11 1023 76 10000 3.6 20 21:55 17.12.2020
4739 Clouds 11 1023 76 10000 3.1 20 21:37 17.12.2020
4740 Clouds 11 1023 76 10000 3.1 20 21:18 17.12.2020
4741 Clouds 11 1023 76 10000 3.1 20 21:18 17.12.2020
4742 Clouds 11 1023 76 10000 3.1 20 20:41 17.12.2020
4743 Clouds 11 1023 81 10000 4.6 10 20:19 17.12.2020
4744 Clouds 11 1023 76 10000 3.6 10 19:47 17.12.2020
4745 Clouds 11 1023 76 10000 4.6 30 19:24 17.12.2020
4746 Clouds 11 1023 76 10000 4.1 30 18:42 17.12.2020
4747 Clouds 12 1023 71 10000 5.1 20 18:23 17.12.2020
4748 Clouds 12 1023 66 10000 4.1 30 17:53 17.12.2020
4749 Clouds 12 1023 66 10000 4.1 30 17:32 17.12.2020
4750 Clouds 12 1023 66 10000 4.1 30 16:45 17.12.2020
4751 Clouds 12 1023 71 10000 3.1 20 16:26 17.12.2020
4752 Clouds 13 1022 62 10000 3.1 30 15:52 17.12.2020
4753 Clouds 13 1022 66 10000 4.1 10 15:32 17.12.2020
4754 Clouds 13 1022 66 10000 4.1 10 14:55 17.12.2020
4755 Clouds 13 1022 62 10000 3.1 10 14:34 17.12.2020
4756 Clouds 13 1022 62 10000 3.6 10 13:58 17.12.2020
4757 Clouds 13 1022 62 10000 3.6 10 13:58 17.12.2020
4758 Clouds 13 1022 62 10000 3.6 10 13:35 17.12.2020
4759 Clouds 13 1021 62 10000 2.6 10 12:48 17.12.2020
4760 Clouds 14 1021 62 10000 2.6 360 12:25 17.12.2020
4761 Clouds 14 1021 58 10000 3.1 360 11:45 17.12.2020
4762 Clouds 14 1020 58 10000 3.1 10 11:25 17.12.2020
4763 Clouds 14 1020 58 10000 3.6 360 10:55 17.12.2020
4764 Clouds 14 1020 58 10000 3.1 10 10:19 17.12.2020
4765 Clouds 14 1020 58 10000 3.1 20 09:28 17.12.2020
4766 Clouds 15 1022 54 10000 4.1 20 07:54 17.12.2020
4767 Clouds 15 1022 54 10000 4.1 20 07:54 17.12.2020
4768 Clouds 15 1022 54 10000 4.1 20 07:34 17.12.2020
4769 Clouds 14 1023 58 10000 3.6 30 06:54 17.12.2020
4770 Clouds 14 1023 58 10000 3.6 30 06:32 17.12.2020
4771 Clouds 14 1025 58 10000 4.6 30 05:33 17.12.2020
4772 Clouds 12 1023 66 10000 3.6 30 00:38 17.12.2020
4773 Clouds 11 1023 71 10000 3.1 30 23:52 16.12.2020
4774 Clouds 11 1023 71 10000 3.6 30 23:20 16.12.2020
4775 Clouds 11 1023 71 10000 4.1 50 22:54 16.12.2020
4776 Clouds 11 1023 71 10000 4.1 50 22:34 16.12.2020
4777 Clouds 12 1023 66 10000 3.6 40 21:50 16.12.2020
4778 Clouds 12 1023 66 10000 3.6 40 21:32 16.12.2020
4779 Clouds 12 1023 66 10000 4.6 20 20:55 16.12.2020
4780 Clouds 12 1023 66 10000 4.6 40 20:21 16.12.2020
4781 Clouds 12 1024 66 10000 4.6 40 19:52 16.12.2020
4782 Clouds 12 1024 66 10000 4.1 40 19:19 16.12.2020
4783 Clouds 13 1024 62 10000 5.1 30 18:53 16.12.2020
4784 Clouds 13 1024 62 10000 4.1 40 18:27 16.12.2020
4785 Clouds 13 1024 62 10000 4.1 50 17:43 16.12.2020
4786 Clouds 13 1024 58 10000 4.1 50 16:58 16.12.2020
4787 Clouds 13 1024 58 10000 4.1 50 16:39 16.12.2020
4788 Clouds 13 1024 58 10000 4.1 60 16:20 16.12.2020
4789 Clouds 13 1024 62 10000 4.1 50 15:49 16.12.2020
4790 Clouds 13 1024 62 10000 2.6 60 15:24 16.12.2020
4791 Clouds 14 1024 54 10000 3.1 50 14:46 16.12.2020
4792 Clouds 14 1024 54 10000 3.1 50 14:28 16.12.2020
4793 Clouds 14 1023 58 10000 3.1 50 13:45 16.12.2020
4794 Clouds 14 1023 58 10000 3.1 50 13:27 16.12.2020
4795 Clouds 14 1023 58 10000 3.1 50 12:48 16.12.2020
4796 Clouds 14 1022 58 10000 3.1 50 12:25 16.12.2020
4797 Clouds 14 1022 58 10000 4.1 40 11:38 16.12.2020
4798 Clouds 15 1022 54 10000 4.1 40 11:19 16.12.2020
4799 Clouds 15 1022 54 10000 4.1 20 10:43 16.12.2020
4800 Clouds 15 1022 54 10000 4.1 30 10:19 16.12.2020
4801 Clouds 15 1022 54 10000 5.1 20 09:39 16.12.2020
4802 Clouds 15 1023 54 10000 4.1 30 08:24 16.12.2020
4803 Clouds 15 1024 54 10000 4.1 20 07:48 16.12.2020
4804 Clouds 15 1024 54 10000 4.1 20 07:48 16.12.2020
4805 Clouds 15 1024 54 10000 4.1 20 07:30 16.12.2020
4806 Clouds 13 1026 62 10000 5.1 40 05:48 16.12.2020
4807 Clouds 12 1026 76 10000 4.6 30 02:22 16.12.2020
4808 Clouds 12 1024 76 10000 3.6 40 23:59 15.12.2020
4809 Clouds 12 1024 81 10000 3.6 50 23:40 15.12.2020
4810 Clouds 11 1024 93 10000 3.6 50 22:44 15.12.2020
4811 Clouds 11 1024 93 10000 4.1 50 22:23 15.12.2020
4812 Clouds 11 1024 93 9000 4.6 40 21:49 15.12.2020
4813 Clouds 12 1024 87 9000 4.6 40 21:24 15.12.2020
4814 Clouds 12 1024 76 10000 4.6 40 20:46 15.12.2020
4815 Clouds 12 1024 76 10000 4.6 40 20:46 15.12.2020
4816 Clouds 12 1023 76 10000 4.6 40 20:27 15.12.2020
4817 Clouds 12 1023 76 10000 4.6 40 19:55 15.12.2020
4818 Clouds 13 1023 66 10000 4.6 30 19:35 15.12.2020
4819 Clouds 13 1023 66 10000 3.6 50 18:57 15.12.2020
4820 Clouds 13 1023 66 10000 3.6 50 18:38 15.12.2020
4821 Clouds 13 1023 71 10000 4.1 50 18:20 15.12.2020
4822 Clouds 13 1023 71 10000 3.6 40 17:41 15.12.2020
4823 Clouds 14 1024 67 10000 3.1 50 17:21 15.12.2020
4824 Clouds 13 1023 71 10000 2.6 70 16:34 15.12.2020
4825 Clouds 13 1023 71 10000 3.6 70 15:59 15.12.2020
4826 Clouds 13 1023 76 10000 2.6 70 15:34 15.12.2020
4827 Clouds 13 1023 76 10000 3.1 70 14:53 15.12.2020
4828 Clouds 14 1022 67 10000 4.1 50 14:27 15.12.2020
4829 Clouds 14 1022 67 10000 4.1 60 13:59 15.12.2020
4830 Clouds 14 1022 67 10000 4.1 60 13:40 15.12.2020
4831 Clouds 14 1021 67 10000 4.1 60 13:22 15.12.2020
4832 Clouds 14 1021 67 10000 4.6 40 12:43 15.12.2020
4833 Clouds 14 1021 71 10000 4.6 50 12:18 15.12.2020
4834 Clouds 14 1021 71 10000 4.6 40 11:43 15.12.2020
4835 Clouds 14 1021 71 10000 4.1 50 11:20 15.12.2020
4836 Clouds 14 1021 71 10000 4.6 60 10:41 15.12.2020
4837 Clouds 14 1020 71 10000 4.6 50 09:53 15.12.2020
4838 Clouds 14 1021 71 10000 4.6 40 09:32 15.12.2020
4839 Clouds 14 1021 71 10000 4.6 40 08:58 15.12.2020
4840 Clouds 14 1021 71 10000 4.1 50 08:30 15.12.2020
4841 Clouds 14 1021 67 10000 5.1 40 07:59 15.12.2020
4842 Clouds 14 1022 71 10000 5.7 40 07:37 15.12.2020
4843 Clouds 14 1023 71 10000 5.1 50 06:37 15.12.2020
4844 Clouds 14 1024 71 10000 5.1 50 04:22 15.12.2020
4845 Clouds 13 1021 93 10000 5.1 50 00:37 15.12.2020
4846 Clouds 13 1020 87 10000 5.7 50 23:28 14.12.2020
4847 Clouds 14 1020 87 9000 5.7 50 22:59 14.12.2020
4848 Clouds 14 1020 87 9000 5.7 50 22:38 14.12.2020
4849 Clouds 15 1019 77 10000 5.1 40 21:55 14.12.2020
4850 Clouds 15 1019 77 10000 5.1 40 21:36 14.12.2020
4851 Clouds 15 1019 77 10000 5.1 50 20:52 14.12.2020
4852 Clouds 15 1019 77 10000 5.1 50 20:33 14.12.2020
4853 Clouds 15 1019 77 10000 5.1 50 19:59 14.12.2020
4854 Clouds 17 1019 63 10000 5.1 60 19:30 14.12.2020
4855 Clouds 17 1019 63 10000 5.1 60 18:55 14.12.2020
4856 Clouds 17 1019 63 10000 5.1 60 18:55 14.12.2020
4857 Clouds 17 1019 63 10000 5.1 60 18:37 14.12.2020
4858 Clouds 17 1019 67 10000 5.1 60 17:53 14.12.2020
4859 Clouds 17 1019 67 10000 5.1 60 17:32 14.12.2020
4860 Clouds 17 1019 67 10000 5.7 50 16:53 14.12.2020
4861 Clouds 18 1019 59 10000 7.2 60 16:29 14.12.2020
4862 Clouds 18 1019 63 10000 5.7 50 15:50 14.12.2020
4863 Clouds 18 1018 63 10000 6.2 50 15:25 14.12.2020
4864 Clouds 18 1018 63 10000 7.2 50 14:45 14.12.2020
4865 Clouds 18 1017 63 10000 6.7 50 14:26 14.12.2020
4866 Clouds 18 1017 63 10000 7.2 50 13:47 14.12.2020
4867 Clouds 18 1016 68 10000 6.7 50 13:24 14.12.2020
4868 Clouds 19 1016 63 10000 7.2 50 12:53 14.12.2020
4869 Clouds 19 1016 68 10000 6.2 60 12:29 14.12.2020
4870 Clouds 20 1015 64 10000 7.7 60 11:36 14.12.2020
4871 Clouds 21 1014 64 10000 7.2 50 10:48 14.12.2020
4872 Clouds 21 1014 64 10000 7.2 50 10:27 14.12.2020
4873 Clouds 23 1013 64 10000 6.2 50 09:44 14.12.2020
4874 Clouds 24 1013 64 10000 6.2 60 08:49 14.12.2020
4875 Clouds 24 1013 69 9000 7.2 70 08:30 14.12.2020
4876 Haze 28 1013 61 5000 2.1 60 07:49 14.12.2020
4877 Mist 26 1014 74 3800 2.6 40 06:48 14.12.2020
4878 Mist 26 1015 69 3800 1 0 05:37 14.12.2020
4879 Mist 23 1015 94 1900 1.5 80 02:39 14.12.2020
4880 Mist 23 1014 94 2800 1 90 00:56 14.12.2020
4881 Mist 23 1013 94 3000 1.5 50 00:34 14.12.2020
4882 Mist 22 1013 100 3100 1.5 70 23:57 13.12.2020
4883 Mist 22 1013 100 3000 1.5 90 23:39 13.12.2020
4884 Mist 22 1012 100 3200 1.5 80 22:49 13.12.2020
4885 Mist 22 1012 94 3200 1 80 22:20 13.12.2020
4886 Mist 22 1012 94 3100 1.5 80 21:47 13.12.2020
4887 Mist 23 1012 94 3100 1.5 90 21:28 13.12.2020
4888 Mist 23 1012 94 3700 2.1 100 20:40 13.12.2020
4889 Mist 23 1012 94 3600 2.6 110 20:21 13.12.2020
4890 Mist 23 1013 94 3100 3.1 100 19:42 13.12.2020
4891 Mist 23 1013 88 2900 2.1 110 19:20 13.12.2020
4892 Mist 23 1013 88 3200 2.6 110 18:43 13.12.2020
4893 Mist 23 1013 88 3900 2.6 110 18:21 13.12.2020
4894 Mist 23 1013 88 4100 2.1 110 17:47 13.12.2020
4895 Mist 23 1013 88 4100 2.1 110 17:47 13.12.2020
4896 Mist 23 1012 88 4200 2.6 110 17:21 13.12.2020
4897 Mist 23 1012 88 4200 2.6 110 16:58 13.12.2020
4898 Mist 23 1012 88 3700 3.1 110 16:38 13.12.2020
4899 Mist 23 1012 88 3800 2.6 90 16:19 13.12.2020
4900 Mist 23 1012 88 4000 3.6 120 15:40 13.12.2020
4901 Mist 23 1011 83 4200 3.1 120 15:22 13.12.2020
4902 Mist 23 1011 83 4100 4.1 120 14:44 13.12.2020
4903 Mist 24 1011 78 4300 4.6 130 14:21 13.12.2020
4904 Mist 24 1010 78 5000 4.6 130 13:44 13.12.2020
4905 Mist 24 1010 78 5000 4.6 130 13:25 13.12.2020
4906 Clear 26 1009 65 10000 3.6 150 12:49 13.12.2020
4907 Clouds 26 1009 61 10000 3.6 150 12:23 13.12.2020
4908 Clouds 27 1009 57 10000 3.6 140 11:42 13.12.2020
4909 Clouds 28 1008 54 10000 3.6 170 10:56 13.12.2020
4910 Clouds 28 1008 54 10000 3.6 180 10:38 13.12.2020
4911 Clouds 28 1008 54 10000 2.6 100 09:55 13.12.2020
4912 Clouds 28 1008 54 9000 2.1 150 09:27 13.12.2020
4913 Clouds 27 1009 57 10000 3.1 160 08:35 13.12.2020
4914 Clouds 27 1010 57 8000 2.1 0 07:47 13.12.2020
4915 Mist 23 1013 73 3300 1.5 70 04:48 13.12.2020
4916 Mist 21 1013 94 1800 1.5 80 02:41 13.12.2020
4917 Mist 21 1012 94 1800 1.5 60 01:58 13.12.2020
4918 Mist 20 1011 100 3400 1.5 100 00:50 13.12.2020
4919 Mist 20 1011 94 3100 1.5 90 23:56 12.12.2020
4920 Mist 20 1011 94 3100 2.6 110 23:31 12.12.2020
4921 Mist 19 1010 93 2500 2.6 110 22:52 12.12.2020
4922 Mist 19 1010 93 2500 2.6 110 22:19 12.12.2020
4923 Mist 19 1010 93 2900 3.1 90 21:34 12.12.2020
4924 Mist 19 1010 93 2900 3.1 90 21:34 12.12.2020
4925 Mist 20 1010 94 2900 3.1 100 20:55 12.12.2020
4926 Mist 20 1011 94 3300 3.6 100 20:29 12.12.2020
4927 Mist 20 1011 94 3900 3.1 110 19:57 12.12.2020
4928 Mist 20 1011 94 3900 3.1 110 19:39 12.12.2020
4929 Mist 20 1011 94 4500 3.6 120 19:20 12.12.2020
4930 Mist 20 1011 88 4300 3.6 120 18:42 12.12.2020
4931 Mist 20 1012 88 4800 3.6 120 18:23 12.12.2020
4932 Mist 20 1012 88 4800 3.6 120 17:47 12.12.2020
4933 Mist 21 1012 83 4200 4.1 140 16:55 12.12.2020
4934 Mist 21 1012 83 4300 3.1 110 16:19 12.12.2020
4935 Mist 21 1012 77 5000 4.1 140 15:44 12.12.2020
4936 Mist 21 1012 77 5000 4.1 140 15:26 12.12.2020
4937 Clear 22 1012 73 6000 4.6 140 14:44 12.12.2020
4938 Clear 22 1011 73 6000 3.6 140 13:54 12.12.2020
4939 Clear 23 1011 69 6000 5.1 140 13:36 12.12.2020
4940 Clouds 24 1010 64 7000 4.1 150 12:47 12.12.2020
4941 Clouds 25 1010 57 7000 3.6 150 11:43 12.12.2020
4942 Clouds 26 1010 54 8000 4.6 140 10:53 12.12.2020
4943 Clouds 26 1011 54 9000 4.1 160 09:32 12.12.2020
4944 Clouds 25 1012 57 6000 2.1 130 08:52 12.12.2020
4945 Clouds 21 1016 68 6000 2.6 50 02:46 12.12.2020
4946 Mist 20 1015 77 5000 2.1 60 23:53 11.12.2020
4947 Mist 20 1014 82 4600 2.1 80 22:24 11.12.2020
4948 Mist 20 1015 82 4700 3.1 80 20:35 11.12.2020
4949 Clouds 21 1016 77 6000 4.1 130 17:52 11.12.2020
4950 Clouds 21 1015 77 6000 4.1 110 14:41 11.12.2020
4951 Clouds 21 1014 77 6000 5.1 130 13:58 11.12.2020
4952 Clouds 23 1013 69 6000 5.1 130 12:49 11.12.2020
4953 Haze 24 1012 60 5000 4.6 130 11:57 11.12.2020
4954 Haze 24 1012 57 5000 4.1 130 11:38 11.12.2020
4955 Haze 24 1012 57 4400 2.6 100 10:41 11.12.2020
4956 Haze 24 1013 53 3400 1.5 80 08:23 11.12.2020
4957 Haze 22 1017 56 4100 2.1 120 05:38 11.12.2020
4958 Haze 21 1018 64 3600 1.5 0 04:47 11.12.2020
4959 Mist 17 1016 93 2400 1.5 90 01:20 11.12.2020
4960 Mist 17 1015 93 2700 2.6 60 23:37 10.12.2020
4961 Mist 17 1015 88 2500 2.6 40 22:24 10.12.2020
4962 Mist 17 1015 88 2700 1 90 21:35 10.12.2020
4963 Mist 16 1016 93 2600 1.5 70 20:39 10.12.2020
4964 Mist 18 1016 77 3500 1.5 110 19:37 10.12.2020
4965 Mist 18 1017 77 4100 1.5 100 18:50 10.12.2020
4966 Mist 18 1017 77 4000 2.1 110 17:45 10.12.2020
4967 Mist 18 1017 77 4700 1 0 16:24 10.12.2020
4968 Mist 18 1017 77 5000 1 330 15:24 10.12.2020
4969 Mist 19 1016 72 3800 1 0 14:47 10.12.2020
4970 Haze 20 1016 68 4100 0.5 0 14:24 10.12.2020
4971 Clouds 21 1015 56 6000 1 0 12:33 10.12.2020
4972 Haze 23 1015 53 5000 2.6 280 10:59 10.12.2020
4973 Clouds 24 1015 47 7000 2.1 250 08:44 10.12.2020
4974 Clouds 24 1016 47 7000 1 0 07:37 10.12.2020
4975 Clouds 23 1018 49 8000 2.6 20 06:40 10.12.2020
4976 Mist 18 1019 77 3000 1 0 02:51 10.12.2020
4977 Mist 18 1018 77 3000 2.1 50 01:56 10.12.2020
4978 Mist 18 1017 77 5000 1.5 80 23:49 09.12.2020
4979 Clouds 19 1017 72 6000 2.1 50 20:41 09.12.2020
4980 Clouds 19 1017 72 6000 2.1 50 20:20 09.12.2020
4981 Clouds 19 1017 68 7000 2.1 130 18:58 09.12.2020
4982 Clouds 19 1017 68 7000 2.6 130 17:36 09.12.2020
4983 Clouds 20 1017 64 7000 2.6 140 16:40 09.12.2020
4984 Clouds 20 1017 64 7000 3.6 130 16:20 09.12.2020
4985 Haze 20 1016 60 5000 2.1 100 14:51 09.12.2020
4986 Clouds 20 1016 60 6000 2.1 80 14:27 09.12.2020
4987 Haze 20 1015 60 5000 1 70 13:46 09.12.2020
4988 Clouds 20 1015 60 6000 2.1 70 13:18 09.12.2020
4989 Clouds 20 1015 56 8000 2.1 70 12:36 09.12.2020
4990 Clouds 21 1014 52 7000 2.1 70 11:37 09.12.2020
4991 Clouds 23 1014 46 9000 2.1 360 09:52 09.12.2020
4992 Clouds 23 1015 46 9000 2.1 10 08:41 09.12.2020
4993 Clouds 23 1018 49 9000 1 0 06:50 09.12.2020
4994 Clouds 20 1020 52 8000 3.6 50 05:28 09.12.2020
4995 Mist 15 1020 77 4900 3.1 50 02:41 09.12.2020
4996 Mist 13 1018 93 4500 2.1 70 00:37 09.12.2020
4997 Mist 13 1018 93 4800 1.5 60 23:34 08.12.2020
4998 Clear 14 1018 87 6000 1.5 100 22:22 08.12.2020
4999 Mist 15 1019 87 4200 1.5 20 20:39 08.12.2020
5000 Mist 15 1019 82 5000 1.4 45 19:31 08.12.2020
5001 Mist 15 1019 82 4800 1 350 18:36 08.12.2020
5002 Mist 16 1020 82 4100 1.5 40 17:18 08.12.2020
5003 Haze 17 1020 72 4800 1.5 310 15:22 08.12.2020
5004 Haze 18 1019 68 5000 2.6 290 13:49 08.12.2020
5005 Clouds 19 1019 63 6000 2.1 290 12:41 08.12.2020
5006 Clear 20 1018 60 6000 3.1 290 11:53 08.12.2020
5007 Clear 21 1018 52 6000 2.1 280 10:54 08.12.2020
5008 Clear 21 1018 52 6000 2.1 280 10:34 08.12.2020
5009 Clear 22 1018 49 6000 2.6 270 09:38 08.12.2020
5010 Clouds 22 1020 43 10000 3.1 320 07:38 08.12.2020
5011 Clear 20 1024 45 10000 4.1 30 05:26 08.12.2020
5012 Clear 18 1024 55 10000 2.6 40 02:24 08.12.2020
5013 Clear 16 1023 67 10000 3.1 50 00:44 08.12.2020
5014 Clouds 17 1022 63 9000 3.1 40 23:18 07.12.2020
5015 Clouds 17 1022 63 8000 2.6 70 22:20 07.12.2020
5016 Clouds 17 1022 77 6000 2.1 340 20:57 07.12.2020
5017 Clouds 18 1023 72 6000 0.5 0 18:58 07.12.2020
5018 Clouds 18 1023 68 6000 2.1 290 17:38 07.12.2020
5019 Clouds 18 1023 68 7000 2.1 290 17:18 07.12.2020
5020 Clouds 18 1023 68 8000 2.1 300 16:23 07.12.2020
5021 Clouds 19 1022 59 7000 3.1 290 15:24 07.12.2020
5022 Clouds 19 1022 63 8000 2.1 290 14:28 07.12.2020
5023 Clouds 19 1021 63 7000 3.6 300 13:35 07.12.2020
5024 Clouds 20 1020 60 6000 3.1 290 11:52 07.12.2020
5025 Clouds 20 1020 60 6000 3.1 290 11:32 07.12.2020
5026 Haze 21 1020 60 5000 4.6 300 10:22 07.12.2020
5027 Clouds 23 1020 38 10000 2.1 10 08:32 07.12.2020
5028 Clear 21 1022 43 10000 3.1 10 06:51 07.12.2020
5029 Clear 19 1024 45 10000 5.1 30 05:21 07.12.2020
5030 Clouds 17 1023 59 9000 3.1 40 02:18 07.12.2020
5031 Clouds 16 1022 67 7000 3.1 40 00:31 07.12.2020
5032 Mist 15 1021 82 4900 2.6 60 22:45 06.12.2020
5033 Mist 16 1021 77 4700 2.1 80 21:44 06.12.2020
5034 Mist 16 1021 77 4300 1 50 20:35 06.12.2020
5035 Mist 16 1021 77 4400 1 0 19:57 06.12.2020
5036 Mist 16 1021 77 4000 1.5 90 18:52 06.12.2020
5037 Mist 16 1021 77 5000 2.1 90 17:23 06.12.2020
5038 Mist 17 1020 72 5000 2.1 80 15:53 06.12.2020
5039 Haze 17 1019 67 5000 1.5 30 13:59 06.12.2020
5040 Clear 20 1018 49 8000 2.1 140 12:52 06.12.2020
5041 Clear 20 1018 49 8000 2.1 140 12:27 06.12.2020
5042 Clear 21 1017 43 10000 2.1 170 11:37 06.12.2020
5043 Clear 21 1017 43 10000 2.1 180 11:18 06.12.2020
5044 Clear 22 1017 40 10000 2.1 160 10:26 06.12.2020
5045 Clear 21 1018 43 10000 2.1 170 08:45 06.12.2020
5046 Clear 20 1021 45 10000 1.5 0 06:51 06.12.2020
5047 Clear 13 1023 76 7000 1 0 02:21 06.12.2020
5048 Clear 11 1022 87 8000 1 50 00:42 06.12.2020
5049 Clear 11 1021 87 8000 1.5 90 00:23 06.12.2020
5050 Clear 13 1021 76 10000 1 0 22:50 05.12.2020
5051 Clear 12 1021 81 10000 1 360 22:20 05.12.2020
5052 Clear 12 1021 81 10000 1 360 21:51 05.12.2020
5053 Clear 12 1021 76 10000 1.5 10 21:26 05.12.2020
5054 Clear 13 1022 71 10000 1 30 19:48 05.12.2020
5055 Clear 14 1022 67 10000 1 0 18:41 05.12.2020
5056 Clear 14 1023 67 10000 1.5 10 17:34 05.12.2020
5057 Clear 15 1023 67 10000 2.6 360 16:33 05.12.2020
5058 Clear 15 1022 67 10000 2.1 360 15:57 05.12.2020
5059 Clear 15 1021 72 8000 1.5 350 14:27 05.12.2020
5060 Clear 17 1021 55 7000 1.5 350 12:24 05.12.2020
5061 Clear 18 1020 48 10000 1.5 20 11:47 05.12.2020
5062 Clear 19 1020 45 10000 2.1 360 10:31 05.12.2020
5063 Clear 19 1022 42 10000 3.6 30 07:49 05.12.2020
5064 Clear 19 1022 42 10000 3.6 30 07:24 05.12.2020
5065 Clear 15 1026 47 10000 5.7 40 03:55 05.12.2020
5066 Clouds 14 1024 54 10000 4.1 50 23:55 04.12.2020
5067 Clouds 13 1023 62 10000 3.6 40 22:24 04.12.2020
5068 Clear 14 1023 58 10000 3.6 40 20:25 04.12.2020
5069 Clear 14 1023 62 10000 2.6 40 18:53 04.12.2020
5070 Clear 14 1023 62 10000 1.5 50 18:19 04.12.2020
5071 Clear 15 1023 58 10000 3.1 70 17:37 04.12.2020
5072 Clouds 18 1023 52 10000 2.6 90 15:46 04.12.2020
5073 Clouds 18 1021 63 9000 2.6 300 13:40 04.12.2020
5074 Clouds 18 1021 59 10000 3.6 290 13:22 04.12.2020
5075 Clouds 18 1021 59 10000 3.6 290 12:51 04.12.2020
5076 Clouds 19 1019 52 10000 3.6 310 10:40 04.12.2020
5077 Clouds 20 1019 49 10000 3.6 300 09:46 04.12.2020
5078 Clear 19 1022 45 10000 3.1 340 07:20 04.12.2020
5079 Clouds 19 1023 45 10000 3.1 50 06:39 04.12.2020
5080 Clear 15 1024 58 10000 3.6 70 01:57 04.12.2020
5081 Clear 16 1023 51 10000 4.6 50 22:52 03.12.2020
5082 Clear 16 1023 51 10000 4.6 50 22:30 03.12.2020
5083 Clouds 17 1023 51 10000 5.7 40 20:49 03.12.2020
5084 Clouds 17 1023 51 10000 5.1 50 19:29 03.12.2020
5085 Clear 17 1023 55 10000 3.6 60 18:53 03.12.2020
5086 Clear 18 1023 52 10000 5.1 50 17:53 03.12.2020
5087 Clear 18 1023 55 10000 4.1 60 17:18 03.12.2020
5088 Clear 18 1023 52 10000 5.1 50 15:55 03.12.2020
5089 Clear 18 1023 55 10000 5.1 60 15:30 03.12.2020
5090 Clouds 19 1022 52 10000 5.1 50 14:48 03.12.2020
5091 Clear 19 1021 55 10000 4.6 50 13:36 03.12.2020
5092 Clouds 20 1020 52 7000 4.1 40 12:26 03.12.2020
5093 Clouds 21 1019 52 10000 3.1 360 11:24 03.12.2020
5094 Clouds 22 1019 46 10000 3.1 30 09:33 03.12.2020
5095 Clear 20 1024 52 10000 3.6 20 05:23 03.12.2020
5096 Clear 18 1023 55 10000 4.6 30 02:27 03.12.2020
5097 Clear 18 1022 55 10000 4.1 40 00:48 03.12.2020
5098 Clear 19 1021 55 10000 3.1 40 22:47 02.12.2020
5099 Clear 19 1021 55 10000 3.1 40 22:26 02.12.2020
5100 Clear 19 1021 55 10000 3.6 30 20:57 02.12.2020
5101 Clear 19 1021 55 10000 3.6 30 20:39 02.12.2020
5102 Clear 19 1022 59 10000 2.6 10 20:21 02.12.2020
5103 Clouds 20 1022 60 8000 2.1 30 18:33 02.12.2020
5104 Clouds 19 1022 68 7000 2.6 20 17:38 02.12.2020
5105 Clouds 19 1022 68 8000 1.5 360 17:19 02.12.2020
5106 Clouds 19 1021 68 7000 1 0 15:18 02.12.2020
5107 Clouds 20 1019 56 10000 1 0 11:52 02.12.2020
5108 Clouds 21 1019 52 10000 1 0 10:28 02.12.2020
5109 Clouds 21 1019 52 9000 1.5 360 08:40 02.12.2020
5110 Clouds 17 1024 63 9000 4.1 30 04:25 02.12.2020
5111 Clouds 17 1024 63 9000 4.1 30 04:25 02.12.2020
5112 Clouds 18 1021 63 8000 3.6 50 22:21 01.12.2020
5113 Clouds 18 1021 59 9000 2.6 60 21:36 01.12.2020
5114 Clouds 18 1021 59 7000 3.1 50 19:35 01.12.2020
5115 Clouds 18 1022 63 6000 2.6 50 17:51 01.12.2020
5116 Clouds 18 1022 63 6000 3.1 70 16:35 01.12.2020
5117 Clouds 17 1020 63 7000 2.6 90 13:38 01.12.2020
5118 Clouds 19 1020 52 9000 2.6 110 12:25 01.12.2020
5119 Clouds 19 1020 52 10000 3.1 100 11:26 01.12.2020
5120 Clear 20 1020 45 10000 3.1 100 10:38 01.12.2020
5121 Clear 21 1021 43 10000 3.1 20 08:21 01.12.2020
5122 Clouds 21 1024 43 10000 5.1 10 06:47 01.12.2020
5123 Clouds 18 1024 52 9000 2.6 30 01:52 01.12.2020
5124 Clear 18 1023 52 10000 1.5 20 00:55 01.12.2020
5125 Clear 19 1023 45 10000 2.6 50 23:21 30.11.2020
5126 Clear 19 1022 45 10000 3.6 50 22:44 30.11.2020
5127 Clear 19 1022 45 10000 3.6 50 22:25 30.11.2020
5128 Clear 19 1023 52 10000 2.6 50 20:47 30.11.2020
5129 Clear 19 1023 48 10000 3.6 50 19:42 30.11.2020
5130 Clear 19 1023 48 10000 3.6 50 19:42 30.11.2020
5131 Clear 20 1023 45 10000 3.1 50 18:23 30.11.2020
5132 Clear 20 1023 49 10000 2.6 70 17:47 30.11.2020
5133 Clear 20 1023 52 10000 2.1 70 16:55 30.11.2020
5134 Clear 20 1023 52 10000 1.5 90 15:59 30.11.2020
5135 Clear 21 1022 49 10000 2.1 70 14:31 30.11.2020
5136 Clear 21 1021 43 10000 1.5 80 13:42 30.11.2020
5137 Clear 22 1021 40 10000 1 0 12:26 30.11.2020
5138 Clear 22 1021 43 10000 1.5 360 11:57 30.11.2020
5139 Clear 23 1020 38 10000 2.6 10 10:26 30.11.2020
5140 Clear 23 1020 35 10000 3.1 40 09:45 30.11.2020
5141 Clear 22 1023 37 10000 3.1 350 07:18 30.11.2020
5142 Clear 16 1024 59 10000 4.6 30 23:58 29.11.2020
5143 Clear 16 1023 63 10000 2.1 20 21:51 29.11.2020
5144 Clear 16 1023 63 10000 2.1 20 21:28 29.11.2020
5145 Clear 17 1023 59 10000 1.5 40 19:49 29.11.2020
5146 Clear 18 1024 63 10000 2.1 70 17:47 29.11.2020
5147 Clear 20 1023 56 10000 2.1 30 15:25 29.11.2020
5148 Clear 20 1022 52 10000 1 0 13:23 29.11.2020
5149 Clear 21 1020 49 10000 2.6 360 11:41 29.11.2020
5150 Clear 21 1020 43 10000 3.6 360 09:42 29.11.2020
5151 Clear 22 1020 40 10000 2.6 340 08:37 29.11.2020
5152 Clear 20 1025 42 10000 5.1 10 04:40 29.11.2020
5153 Clear 17 1022 55 10000 4.1 30 23:19 28.11.2020
5154 Clear 17 1022 55 10000 4.1 30 22:55 28.11.2020
5155 Clouds 17 1023 59 10000 3.1 40 20:44 28.11.2020
5156 Clouds 17 1023 59 10000 3.6 40 19:38 28.11.2020
5157 Clouds 18 1023 59 10000 4.1 40 19:19 28.11.2020
5158 Clear 18 1023 63 10000 4.1 40 18:26 28.11.2020
5159 Clear 19 1024 59 10000 5.7 40 17:40 28.11.2020
5160 Clear 19 1024 59 10000 5.7 50 16:39 28.11.2020
5161 Clear 20 1023 56 10000 5.7 40 14:25 28.11.2020
5162 Clear 22 1020 60 10000 4.1 20 11:29 28.11.2020
5163 Clouds 22 1020 60 10000 2.6 340 09:37 28.11.2020
5164 Clouds 19 1024 72 10000 3.1 70 03:49 28.11.2020
5165 Clouds 18 1023 72 10000 2.1 70 02:22 28.11.2020
5166 Clear 19 1021 72 10000 3.6 50 23:23 27.11.2020
5167 Clouds 19 1021 72 10000 4.6 50 22:45 27.11.2020
5168 Clouds 19 1022 72 10000 4.1 50 20:41 27.11.2020
5169 Clouds 19 1022 72 10000 4.1 50 20:23 27.11.2020
5170 Clouds 19 1023 72 10000 4.6 60 19:19 27.11.2020
5171 Clouds 19 1022 72 10000 5.1 70 16:58 27.11.2020
5172 Clear 21 1021 68 10000 4.1 60 14:45 27.11.2020
5173 Clear 22 1020 64 10000 5.1 50 13:21 27.11.2020
5174 Clear 23 1019 60 10000 5.7 60 12:47 27.11.2020
5175 Clear 24 1019 60 10000 4.6 60 11:34 27.11.2020
5176 Clouds 26 1018 54 10000 4.1 60 10:45 27.11.2020
5177 Clear 26 1018 54 10000 4.1 60 09:53 27.11.2020
5178 Mist 23 1019 88 5000 0.5 0 23:50 26.11.2020
5179 Clouds 21 1020 83 10000 0.74 73 22:25 26.11.2020
5180 Mist 23 1019 78 5000 1 0 21:46 26.11.2020
5181 Mist 23 1019 88 4700 1 20 20:43 26.11.2020
5182 Clear 24 1019 73 8000 1.5 150 18:37 26.11.2020
5183 Clear 24 1020 73 8000 2.6 120 17:31 26.11.2020
5184 Clear 26 1018 65 10000 3.6 150 13:58 26.11.2020
5185 Clouds 26 1017 65 8000 3.1 130 12:58 26.11.2020
5186 Clouds 26 1017 65 7000 3.6 140 12:39 26.11.2020
5187 Clear 28 1016 54 10000 2.1 60 10:50 26.11.2020
5188 Clear 28 1016 54 10000 2.1 60 10:23 26.11.2020
5189 Clouds 28 1016 58 10000 2.1 90 09:34 26.11.2020
5190 Clouds 28 1016 54 10000 1.5 80 08:57 26.11.2020
5191 Clouds 28 1016 54 10000 1 0 08:33 26.11.2020
5192 Mist 23 1019 94 2400 2.1 50 02:18 26.11.2020
5193 Mist 23 1017 88 5000 1 0 22:18 25.11.2020
5194 Clouds 23 1017 83 6000 1.5 140 20:32 25.11.2020
5195 Clouds 23 1018 78 6000 2.1 170 18:59 25.11.2020
5196 Clouds 23 1018 78 8000 2.6 170 17:29 25.11.2020
5197 Clouds 24 1017 73 8000 3.6 150 15:44 25.11.2020
5198 Clouds 24 1016 73 8000 3.6 150 14:58 25.11.2020
5199 Clouds 25 1016 73 7000 3.6 130 13:46 25.11.2020
5200 Clouds 25 1015 69 7000 2.6 110 12:47 25.11.2020
5201 Clear 27 1014 61 10000 3.1 130 11:23 25.11.2020
5202 Clouds 27 1015 61 10000 3.1 170 09:21 25.11.2020
5203 Clouds 27 1015 57 10000 2.6 180 08:50 25.11.2020
5204 Clouds 27 1017 61 10000 3.1 130 07:21 25.11.2020
5205 Mist 24 1019 73 4600 2.1 100 03:49 25.11.2020
5206 Mist 22 1018 94 2300 2.1 50 01:49 25.11.2020
5207 Mist 22 1017 94 4400 2.1 80 00:19 25.11.2020
5208 Mist 22 1017 94 4400 1.5 110 23:35 24.11.2020
5209 Mist 22 1017 94 3800 1 0 22:39 24.11.2020
5210 Mist 22 1017 94 3800 1 0 22:39 24.11.2020
5211 Mist 22 1017 83 3100 1.5 80 21:35 24.11.2020
5212 Mist 22 1017 83 3900 1.5 120 20:58 24.11.2020
5213 Mist 23 1018 78 4800 1 60 19:48 24.11.2020
5214 Clouds 23 1018 78 6000 2.1 130 17:32 24.11.2020
5215 Clouds 23 1018 78 6000 1.5 150 16:58 24.11.2020
5216 Clouds 23 1018 78 6000 1.5 130 16:37 24.11.2020
5217 Clouds 23 1018 78 6000 3.6 130 15:56 24.11.2020
5218 Clouds 24 1018 73 6000 3.1 130 15:19 24.11.2020
5219 Clouds 24 1017 73 7000 3.1 140 14:44 24.11.2020
5220 Clouds 24 1017 73 8000 3.1 140 13:36 24.11.2020
5221 Clouds 25 1016 69 7000 3.6 130 12:39 24.11.2020
5222 Clouds 25 1016 69 7000 4.6 130 11:59 24.11.2020
5223 Clouds 26 1015 69 9000 4.1 150 11:24 24.11.2020
5224 Clouds 26 1015 69 9000 4.1 150 10:25 24.11.2020
5225 Clouds 26 1015 69 8000 3.6 160 09:39 24.11.2020
5226 Clouds 27 1015 61 9000 2.6 140 08:58 24.11.2020
5227 Clouds 26 1019 65 9000 2.6 130 05:53 24.11.2020
5228 Clouds 23 1018 78 7000 2.1 110 00:41 24.11.2020
5229 Clouds 24 1017 73 6000 3.6 110 21:56 23.11.2020
5230 Clouds 24 1017 78 5000 2.6 110 21:25 23.11.2020
5231 Clouds 24 1018 78 7000 2.6 100 20:29 23.11.2020
5232 Clouds 24 1018 78 7000 2.6 100 19:53 23.11.2020
5233 Clouds 25 1018 73 9000 1.5 150 17:29 23.11.2020
5234 Clouds 25 1018 73 8000 2.1 160 16:55 23.11.2020
5235 Clear 25 1018 73 10000 3.6 140 14:50 23.11.2020
5236 Clear 26 1017 69 10000 4.1 130 13:55 23.11.2020
5237 Clouds 26 1016 74 10000 3.6 130 12:40 23.11.2020
5238 Clouds 27 1016 65 10000 4.6 130 11:56 23.11.2020
5239 Clouds 27 1015 65 10000 4.6 130 11:37 23.11.2020
5240 Clouds 29 1015 58 10000 3.6 130 09:47 23.11.2020
5241 Clouds 29 1015 58 10000 4.1 120 08:51 23.11.2020
5242 Clouds 30 1016 55 10000 3.6 110 07:56 23.11.2020
5243 Mist 25 1019 78 5000 2.1 20 02:39 23.11.2020
5244 Mist 24 1017 94 4800 1.5 80 23:48 22.11.2020
5245 Clouds 24 1016 94 6000 1 70 22:22 22.11.2020
5246 Clouds 24 1016 94 8000 0.5 0 21:24 22.11.2020
5247 Clouds 24 1017 88 8000 1.5 120 20:19 22.11.2020
5248 Clouds 24 1016 83 8000 2.6 140 19:23 22.11.2020
5249 Clouds 25 1017 78 9000 2.6 160 18:19 22.11.2020
5250 Clear 25 1017 78 10000 4.1 160 16:25 22.11.2020
5251 Clouds 25 1016 78 10000 3.6 170 14:58 22.11.2020
5252 Clouds 26 1015 74 10000 4.6 150 13:23 22.11.2020
5253 Clouds 27 1014 69 7000 3.6 140 12:42 22.11.2020
5254 Clouds 27 1014 65 10000 3.6 100 11:39 22.11.2020
5255 Clouds 29 1014 58 10000 2.6 130 10:50 22.11.2020
5256 Clouds 29 1014 58 10000 2.6 130 10:32 22.11.2020
5257 Clouds 26 1018 74 8000 3.6 90 04:33 22.11.2020
5258 Mist 24 1014 94 3700 2.6 100 23:56 21.11.2020
5259 Mist 24 1013 94 4100 2.6 100 22:41 21.11.2020
5260 Mist 23 1013 100 2100 2.6 100 21:30 21.11.2020
5261 Mist 24 1013 94 4700 2.1 80 20:49 21.11.2020
5262 Clouds 24 1013 94 6000 3.1 100 20:18 21.11.2020
5263 Clouds 24 1014 94 6000 3.1 100 19:39 21.11.2020
5264 Mist 24 1014 94 5000 3.1 110 18:50 21.11.2020
5265 Clouds 24 1014 94 8000 4.1 130 17:30 21.11.2020
5266 Clouds 24 1014 94 7000 4.1 130 16:44 21.11.2020
5267 Clouds 25 1014 83 9000 4.1 130 15:40 21.11.2020
5268 Clouds 25 1014 83 10000 4.1 130 15:19 21.11.2020
5269 Clouds 25 1013 83 9000 4.1 130 14:39 21.11.2020
5270 Clouds 26 1011 74 10000 5.1 130 12:43 21.11.2020
5271 Clouds 27 1011 69 8000 5.7 130 12:20 21.11.2020
5272 Clouds 29 1010 62 10000 4.1 160 11:23 21.11.2020
5273 Clouds 29 1010 58 10000 4.1 160 10:27 21.11.2020
5274 Clouds 29 1010 62 10000 4.6 140 08:52 21.11.2020
5275 Clouds 29 1011 62 10000 4.1 170 07:52 21.11.2020
5276 Clouds 28 1013 69 8000 2.6 120 05:24 21.11.2020
5277 Mist 24 1012 94 4000 2.1 110 01:43 21.11.2020
5278 Mist 24 1011 94 4400 2.6 100 23:59 20.11.2020
5279 Mist 24 1010 94 5000 2.6 90 22:26 20.11.2020
5280 Mist 24 1010 94 4800 2.1 90 21:42 20.11.2020
5281 Mist 24 1011 94 4200 3.1 100 21:21 20.11.2020
5282 Clouds 24 1012 94 7000 2.6 110 19:46 20.11.2020
5283 Clouds 24 1012 94 8000 3.1 130 18:50 20.11.2020
5284 Clouds 24 1012 88 10000 3.6 120 17:53 20.11.2020
5285 Clouds 24 1012 88 10000 3.6 120 17:27 20.11.2020
5286 Clouds 25 1012 83 10000 5.1 130 16:39 20.11.2020
5287 Clouds 25 1012 83 9000 4.6 130 15:58 20.11.2020
5288 Clouds 25 1012 83 9000 4.6 130 15:26 20.11.2020
5289 Clouds 26 1010 78 10000 4.1 120 13:46 20.11.2020
5290 Clouds 27 1010 74 10000 4.1 130 13:18 20.11.2020
5291 Clouds 27 1010 74 9000 3.1 120 12:35 20.11.2020
5292 Clouds 28 1009 61 10000 3.6 160 11:45 20.11.2020
5293 Clear 28 1009 61 10000 3.6 160 10:55 20.11.2020
5294 Clouds 29 1009 58 10000 2.6 170 08:53 20.11.2020
5295 Clouds 29 1010 58 10000 3.1 190 08:25 20.11.2020
5296 Clouds 29 1011 62 9000 1.5 0 07:32 20.11.2020
5297 Mist 25 1013 78 5000 3.6 140 03:44 20.11.2020
5298 Mist 23 1011 100 4500 2.1 100 22:35 19.11.2020
5299 Mist 23 1011 100 4200 3.1 110 21:55 19.11.2020
5300 Mist 23 1011 100 4200 2.6 90 21:34 19.11.2020
5301 Mist 23 1011 100 3500 1.5 100 20:31 19.11.2020
5302 Mist 23 1011 100 3900 2.6 90 19:49 19.11.2020
5303 Mist 23 1011 100 3900 2.6 90 19:23 19.11.2020
5304 Clouds 23 1011 83 8000 3.6 100 17:39 19.11.2020
5305 Clouds 24 1011 78 10000 2.6 110 16:48 19.11.2020
5306 Clouds 25 1011 78 10000 3.1 120 15:32 19.11.2020
5307 Clouds 26 1010 74 10000 3.1 130 14:39 19.11.2020
5308 Clouds 26 1010 74 10000 3.1 150 13:45 19.11.2020
5309 Clouds 26 1009 74 10000 1.5 130 12:58 19.11.2020
5310 Clear 26 1009 74 10000 2.1 140 12:34 19.11.2020
5311 Clear 27 1008 65 10000 3.1 160 11:44 19.11.2020
5312 Clear 27 1008 65 10000 3.1 160 11:23 19.11.2020
5313 Clear 28 1008 61 10000 3.6 150 10:52 19.11.2020
5314 Clouds 28 1008 61 10000 3.1 160 09:55 19.11.2020
5315 Clouds 28 1008 61 10000 3.1 170 09:36 19.11.2020
5316 Clouds 28 1009 61 10000 3.1 170 09:18 19.11.2020
5317 Clouds 28 1010 65 7000 2.6 150 07:59 19.11.2020
5318 Mist 24 1012 94 2400 1.5 50 01:53 19.11.2020
5319 Mist 23 1011 100 5000 1 0 00:33 19.11.2020
5320 Mist 23 1011 100 4800 1 0 23:47 18.11.2020
5321 Mist 23 1011 100 4900 1 0 23:24 18.11.2020
5322 Mist 23 1011 94 4600 2.1 100 22:30 18.11.2020
5323 Mist 23 1011 94 4600 2.1 100 22:30 18.11.2020
5324 Mist 23 1011 100 5000 2.1 90 21:45 18.11.2020
5325 Mist 23 1011 100 5000 2.1 90 21:26 18.11.2020
5326 Mist 24 1011 94 5000 3.6 100 20:40 18.11.2020
5327 Mist 23 1011 100 5000 3.1 100 19:44 18.11.2020
5328 Mist 23 1011 94 4700 3.6 100 19:23 18.11.2020
5329 Mist 23 1011 94 4400 3.1 110 18:45 18.11.2020
5330 Mist 23 1012 100 5000 3.1 80 17:45 18.11.2020
5331 Clear 23 1012 94 7000 2.1 80 16:52 18.11.2020
5332 Clear 24 1011 94 8000 3.1 90 16:18 18.11.2020
5333 Clear 24 1011 83 5000 3.6 100 14:42 18.11.2020
5334 Mist 24 1011 83 4500 3.1 110 14:22 18.11.2020
5335 Clouds 26 1010 74 10000 4.1 130 13:22 18.11.2020
5336 Clouds 27 1010 65 10000 2.6 130 12:43 18.11.2020
5337 Clouds 27 1010 65 10000 2.6 130 11:51 18.11.2020
5338 Clouds 28 1009 61 10000 2.6 160 10:57 18.11.2020
5339 Clouds 29 1009 62 10000 3.1 120 10:27 18.11.2020
5340 Clouds 28 1010 61 10000 2.1 170 08:40 18.11.2020
5341 Clouds 27 1012 69 10000 2.6 170 06:48 18.11.2020
5342 Clouds 25 1013 78 7000 3.6 140 03:48 18.11.2020
5343 Mist 23 1011 94 5000 3.1 110 00:18 18.11.2020
5344 Mist 23 1011 94 5000 3.1 110 23:23 17.11.2020
5345 Mist 23 1011 94 5000 3.1 100 22:41 17.11.2020
5346 Mist 23 1011 94 5000 3.1 100 22:41 17.11.2020
5347 Clouds 23 1011 94 6000 3.6 120 22:23 17.11.2020
5348 Mist 23 1011 94 5000 2.6 110 21:46 17.11.2020
5349 Mist 23 1011 94 5000 3.1 110 20:58 17.11.2020
5350 Clouds 23 1011 94 7000 3.6 120 20:40 17.11.2020
5351 Clouds 23 1011 94 7000 3.6 120 20:22 17.11.2020
5352 Clouds 24 1012 88 7000 3.6 130 18:36 17.11.2020
5353 Clouds 24 1012 94 7000 3.6 120 17:47 17.11.2020
5354 Clouds 24 1012 94 6000 4.1 130 16:59 17.11.2020
5355 Clouds 24 1012 94 6000 3.6 130 16:20 17.11.2020
5356 Clouds 24 1012 94 6000 4.6 130 15:45 17.11.2020
5357 Clouds 24 1012 94 6000 5.1 130 15:27 17.11.2020
5358 Clouds 24 1012 94 6000 5.1 130 14:56 17.11.2020
5359 Clouds 24 1012 94 6000 4.6 130 14:28 17.11.2020
5360 Clouds 24 1011 94 7000 4.6 130 13:38 17.11.2020
5361 Clouds 25 1011 83 8000 4.1 130 12:57 17.11.2020
5362 Clouds 25 1011 78 9000 2.6 120 12:39 17.11.2020
5363 Clear 26 1011 74 10000 3.6 130 11:43 17.11.2020
5364 Clouds 28 1011 65 10000 3.1 130 10:49 17.11.2020
5365 Clear 27 1011 69 10000 2.6 140 10:23 17.11.2020
5366 Clear 27 1011 69 10000 2.6 140 10:23 17.11.2020
5367 Clouds 27 1011 69 8000 4.1 150 09:50 17.11.2020
5368 Clouds 27 1011 69 8000 4.1 150 09:27 17.11.2020
5369 Mist 25 1012 88 2800 3.6 110 08:22 17.11.2020
5370 Mist 25 1013 88 2900 4.1 130 07:44 17.11.2020
5371 Mist 24 1015 88 4000 2.6 100 05:21 17.11.2020
5372 Clouds 22 1015 94 6000 2.6 110 03:31 17.11.2020
5373 Mist 21 1014 100 3500 1.5 110 02:31 17.11.2020
5374 Mist 21 1014 100 2500 0.34 85 01:23 17.11.2020
5375 Mist 21 1014 100 4800 0.33 96 00:42 17.11.2020
5376 Mist 21 1013 100 4200 0.33 305 23:41 16.11.2020
5377 Mist 21 1013 100 3200 1 0 23:22 16.11.2020
5378 Mist 21 1014 100 3200 1 290 22:37 16.11.2020
5379 Mist 21 1014 94 3000 1.43 318 22:18 16.11.2020
5380 Mist 21 1014 94 3400 1.43 318 21:43 16.11.2020
5381 Mist 21 1014 94 3400 1.46 305 21:23 16.11.2020
5382 Mist 21 1014 94 3900 1.5 300 20:27 16.11.2020
5383 Mist 21 1014 94 3900 1 0 19:56 16.11.2020
5384 Mist 21 1015 94 5000 1 0 19:31 16.11.2020
5385 Mist 21 1015 100 4200 1.1 294 18:53 16.11.2020
5386 Clouds 21 1016 94 6000 0.5 0 18:26 16.11.2020
5387 Mist 21 1016 94 4100 1 0 17:37 16.11.2020
5388 Mist 21 1016 94 4200 1 0 17:19 16.11.2020
5389 Mist 21 1017 94 3100 1 0 16:51 16.11.2020
5390 Clouds 21 1017 94 3700 1.5 290 16:26 16.11.2020
5391 Mist 21 1017 94 4100 1.5 300 15:45 16.11.2020
5392 Mist 21 1016 94 2800 1 0 15:27 16.11.2020
5393 Mist 21 1016 94 2800 1.5 310 14:48 16.11.2020
5394 Mist 21 1016 94 3300 2.1 290 13:50 16.11.2020
5395 Mist 21 1016 94 5000 2.6 290 13:18 16.11.2020
5396 Mist 21 1016 94 3000 1.5 290 12:30 16.11.2020
5397 Mist 21 1015 94 4700 2.6 290 11:41 16.11.2020
5398 Mist 21 1015 94 4100 2.1 290 11:21 16.11.2020
5399 Rain 21 1015 94 2900 2.1 300 10:44 16.11.2020
5400 Mist 21 1015 94 2900 2.1 300 10:26 16.11.2020
5401 Mist 21 1015 94 3900 2.1 290 09:50 16.11.2020
5402 Mist 21 1016 94 4100 2.1 280 09:25 16.11.2020
5403 Mist 21 1016 94 3900 2.1 290 08:42 16.11.2020
5404 Rain 21 1017 94 4400 2.1 290 07:53 16.11.2020
5405 Rain 21 1017 94 4400 1.5 300 06:54 16.11.2020
5406 Rain 21 1018 94 5000 2.1 270 06:35 16.11.2020
5407 Rain 20 1019 100 4800 1.5 290 04:53 16.11.2020
5408 Rain 20 1019 94 2200 2.6 310 03:52 16.11.2020
5409 Mist 20 1017 94 1700 1.5 280 01:44 16.11.2020
5410 Mist 19 1017 100 4100 1 0 00:20 16.11.2020
5411 Mist 19 1016 100 3700 1.5 290 23:28 15.11.2020
5412 Rain 19 1016 100 3000 1.5 330 22:54 15.11.2020
5413 Mist 19 1017 100 3100 1.5 330 22:22 15.11.2020
5414 Mist 19 1017 100 3400 1 0 21:47 15.11.2020
5415 Mist 19 1017 100 3400 1 0 21:27 15.11.2020
5416 Clouds 19 1017 93 6000 2.1 290 20:48 15.11.2020
5417 Clouds 19 1017 93 6000 2.1 290 20:28 15.11.2020
5418 Clouds 20 1018 88 8000 1.5 340 19:49 15.11.2020
5419 Clouds 20 1018 88 8000 1.5 340 19:24 15.11.2020
5420 Rain 20 1018 88 8000 1.5 340 18:59 15.11.2020
5421 Rain 20 1018 94 7000 2.1 290 18:41 15.11.2020
5422 Rain 19 1018 100 6000 2.1 310 18:21 15.11.2020
5423 Rain 20 1019 88 6000 2.1 300 17:46 15.11.2020
5424 Rain 19 1019 93 6000 2.1 290 17:24 15.11.2020
5425 Rain 20 1019 94 6000 2.6 280 16:50 15.11.2020
5426 Clouds 19 1019 93 6000 2.6 310 16:21 15.11.2020
5427 Rain 19 1019 93 6000 2.6 310 15:56 15.11.2020
5428 Clouds 19 1019 93 7000 3.1 300 15:29 15.11.2020
5429 Clouds 19 1019 93 6000 2.6 290 14:59 15.11.2020
5430 Clouds 19 1019 93 6000 3.6 290 14:35 15.11.2020
5431 Clouds 19 1018 93 6000 2.6 300 13:57 15.11.2020
5432 Clouds 19 1018 93 6000 2.6 300 13:37 15.11.2020
5433 Clouds 19 1018 100 6000 1.5 310 12:52 15.11.2020
5434 Clouds 19 1017 93 6000 2.1 310 12:25 15.11.2020
5435 Clouds 19 1017 93 6000 3.1 290 11:47 15.11.2020
5436 Mist 19 1017 100 5000 3.1 310 11:21 15.11.2020
5437 Mist 19 1017 100 5000 3.1 310 10:59 15.11.2020
5438 Mist 19 1017 100 4500 3.1 310 10:41 15.11.2020
5439 Mist 19 1017 100 4500 3.1 310 10:23 15.11.2020
5440 Mist 19 1017 100 3700 3.6 300 09:41 15.11.2020
5441 Mist 19 1017 100 3800 3.6 300 09:19 15.11.2020
5442 Mist 19 1018 100 5000 3.1 300 08:51 15.11.2020
5443 Mist 19 1018 100 2700 3.1 310 08:22 15.11.2020
5444 Mist 19 1019 93 4200 4.1 290 07:38 15.11.2020
5445 Rain 19 1021 93 6000 2.6 300 04:58 15.11.2020
5446 Mist 19 1020 93 3000 2.1 300 02:55 15.11.2020
5447 Clouds 19 1018 88 8000 2.1 310 00:48 15.11.2020
5448 Clouds 19 1018 88 8000 2.1 310 00:26 15.11.2020
5449 Clouds 19 1018 88 8000 2.1 310 00:26 15.11.2020
5450 Clouds 19 1018 77 9000 2.1 330 23:36 14.11.2020
5451 Clouds 19 1018 77 10000 4.1 340 22:50 14.11.2020
5452 Clouds 19 1018 77 10000 4.1 340 22:29 14.11.2020
5453 Clouds 20 1017 68 10000 5.1 320 21:42 14.11.2020
5454 Clouds 19 1017 77 10000 5.7 320 21:22 14.11.2020
5455 Clouds 19 1018 77 10000 4.6 330 20:50 14.11.2020
5456 Clouds 19 1018 77 10000 4.6 330 20:27 14.11.2020
5457 Clouds 18 1018 82 9000 5.1 340 19:51 14.11.2020
5458 Clouds 18 1018 82 9000 5.1 340 19:30 14.11.2020
5459 Clouds 19 1019 72 10000 4.6 60 18:43 14.11.2020
5460 Clouds 20 1019 68 10000 4.6 80 18:24 14.11.2020
5461 Clouds 20 1019 68 10000 4.6 80 18:24 14.11.2020
5462 Clouds 21 1019 60 10000 5.7 90 17:50 14.11.2020
5463 Clouds 21 1019 60 10000 5.7 90 17:31 14.11.2020
5464 Clear 23 1018 46 10000 2.6 70 16:57 14.11.2020
5465 Clear 23 1018 46 10000 2.6 90 16:36 14.11.2020
5466 Clear 23 1018 46 10000 2.6 90 16:36 14.11.2020
5467 Clear 24 1018 44 10000 2.1 80 16:18 14.11.2020
5468 Clear 24 1018 44 10000 2.6 80 15:50 14.11.2020
5469 Clear 24 1017 41 10000 1.5 50 15:21 14.11.2020
5470 Clear 25 1017 38 10000 1.5 40 14:38 14.11.2020
5471 Clear 25 1017 38 10000 1.5 40 14:20 14.11.2020
5472 Clear 25 1016 38 10000 2.6 70 13:40 14.11.2020
5473 Clear 25 1016 41 10000 2.6 70 13:22 14.11.2020
5474 Clear 25 1015 41 10000 1.5 350 12:45 14.11.2020
5475 Clear 25 1015 41 10000 1.5 350 12:27 14.11.2020
5476 Clear 27 1015 32 10000 2.6 10 11:41 14.11.2020
5477 Clear 27 1015 32 10000 3.1 50 11:22 14.11.2020
5478 Clear 28 1015 28 10000 3.1 20 10:42 14.11.2020
5479 Clear 28 1015 30 10000 3.1 350 10:23 14.11.2020
5480 Clear 28 1015 28 10000 3.1 360 09:46 14.11.2020
5481 Clear 28 1015 28 10000 3.1 360 09:28 14.11.2020
5482 Clear 28 1016 28 10000 3.6 350 08:49 14.11.2020
5483 Clear 28 1016 28 10000 3.6 350 08:26 14.11.2020
5484 Clear 28 1017 30 10000 3.1 10 07:43 14.11.2020
5485 Clear 28 1018 28 10000 4.1 10 07:22 14.11.2020
5486 Clear 27 1019 30 10000 4.6 360 06:30 14.11.2020
5487 Clear 27 1020 26 10000 5.1 20 05:27 14.11.2020
5488 Clear 23 1020 56 8000 1 0 03:40 14.11.2020
5489 Mist 16 1018 87 5000 1.5 290 00:43 14.11.2020
5490 Clear 16 1017 82 7000 1.5 290 23:38 13.11.2020
5491 Clear 16 1017 77 9000 3.42 331 23:20 13.11.2020
5492 Clear 16 1017 82 9000 0.5 0 22:42 13.11.2020
5493 Clear 17 1017 77 9000 0.5 0 22:23 13.11.2020
5494 Clear 17 1017 77 9000 0.5 0 21:51 13.11.2020
5495 Clear 17 1017 77 9000 0.5 0 21:29 13.11.2020
5496 Clear 17 1017 77 8000 1 310 20:55 13.11.2020
5497 Clear 17 1017 77 8000 1.5 300 20:37 13.11.2020
5498 Clear 18 1017 68 9000 2.1 280 20:18 13.11.2020
5499 Clear 18 1017 63 10000 1.5 280 19:44 13.11.2020
5500 Clear 18 1017 63 10000 1.5 280 19:44 13.11.2020
5501 Clear 18 1017 63 10000 1.5 300 19:22 13.11.2020
5502 Clear 19 1018 55 10000 1.5 330 18:49 13.11.2020
5503 Clear 18 1018 59 10000 1.5 80 17:59 13.11.2020
5504 Clear 20 1018 64 8000 1 0 17:36 13.11.2020
5505 Clear 19 1018 68 10000 2.88 4 17:18 13.11.2020
5506 Clear 20 1017 60 10000 1 0 16:42 13.11.2020
5507 Clear 20 1017 64 10000 1 0 16:21 13.11.2020
5508 Clear 20 1017 60 10000 2.6 300 15:41 13.11.2020
5509 Clear 22 1017 53 10000 2.1 280 15:22 13.11.2020
5510 Clear 22 1017 53 10000 2.1 290 14:39 13.11.2020
5511 Clear 22 1016 53 9000 1.5 310 14:19 13.11.2020
5512 Clear 22 1016 53 9000 1.5 310 14:19 13.11.2020
5513 Clear 23 1016 46 10000 2.1 310 13:37 13.11.2020
5514 Clear 23 1016 43 8000 2.6 320 13:18 13.11.2020
5515 Clear 25 1015 36 8000 2.1 330 12:43 13.11.2020
5516 Clear 26 1015 34 9000 2.1 310 12:24 13.11.2020
5517 Clear 27 1015 30 10000 2.1 320 11:47 13.11.2020
5518 Clear 28 1015 28 10000 2.6 320 11:23 13.11.2020
5519 Clear 28 1015 28 10000 2.6 320 10:52 13.11.2020
5520 Clear 28 1015 28 10000 3.1 320 10:33 13.11.2020
5521 Clear 29 1015 26 10000 2.6 340 09:53 13.11.2020
5522 Clear 29 1015 26 10000 2.1 360 09:32 13.11.2020
5523 Clear 29 1016 26 10000 3.1 340 08:54 13.11.2020
5524 Clear 29 1016 26 10000 3.1 340 08:30 13.11.2020
5525 Clear 28 1017 28 10000 3.6 10 07:51 13.11.2020
5526 Clear 28 1017 28 10000 3.6 10 07:29 13.11.2020
5527 Clear 28 1018 30 10000 3.6 20 06:57 13.11.2020
5528 Clear 28 1018 28 10000 4.6 20 06:37 13.11.2020
5529 Clear 27 1019 30 10000 4.6 20 05:42 13.11.2020
5530 Clear 26 1020 31 10000 4.6 20 04:20 13.11.2020
5531 Clear 19 1019 72 7000 1 0 01:43 13.11.2020
5532 Clouds 18 1018 77 9000 0.5 0 00:37 13.11.2020
5533 Clear 19 1018 72 10000 1 0 23:55 12.11.2020
5534 Clear 20 1018 68 10000 2.1 290 23:21 12.11.2020
5535 Clear 20 1018 68 10000 2.1 290 22:56 12.11.2020
5536 Clear 20 1018 68 10000 1.5 280 22:38 12.11.2020
5537 Clear 19 1018 72 10000 0.5 280 21:59 12.11.2020
5538 Clear 19 1018 68 10000 1 300 21:41 12.11.2020
5539 Clear 19 1018 68 10000 1 330 21:22 12.11.2020
5540 Clouds 19 1018 72 9000 1 0 20:42 12.11.2020
5541 Clouds 19 1018 72 9000 1 0 20:24 12.11.2020
5542 Clear 19 1019 68 10000 1 0 19:55 12.11.2020
5543 Clear 19 1019 68 10000 0.5 0 19:37 12.11.2020
5544 Clear 20 1019 64 10000 1 290 19:19 12.11.2020
5545 Clear 20 1019 64 10000 2.1 300 18:42 12.11.2020
5546 Clear 21 1019 56 10000 1 0 18:20 12.11.2020
5547 Clear 20 1019 68 10000 1.5 330 17:43 12.11.2020
5548 Clear 20 1019 72 10000 1 0 17:24 12.11.2020
5549 Clear 21 1019 64 10000 1 0 16:45 12.11.2020
5550 Clear 21 1019 64 10000 1 0 16:23 12.11.2020
5551 Clear 21 1019 56 10000 1.5 70 15:53 12.11.2020
5552 Clear 21 1019 56 10000 1 0 15:29 12.11.2020
5553 Clear 22 1019 56 10000 1 0 14:56 12.11.2020
5554 Clear 22 1019 49 10000 1.5 300 14:37 12.11.2020
5555 Clear 23 1018 49 7000 1 290 14:18 12.11.2020
5556 Clear 23 1018 49 7000 1.5 320 13:45 12.11.2020
5557 Clear 24 1018 38 10000 1 0 13:19 12.11.2020
5558 Clear 25 1018 33 10000 1.5 10 12:48 12.11.2020
5559 Clear 25 1018 33 10000 1.5 10 12:25 12.11.2020
5560 Clear 26 1018 34 10000 2.1 10 11:54 12.11.2020
5561 Clear 27 1018 32 10000 2.1 10 11:35 12.11.2020
5562 Clear 27 1018 30 10000 2.1 10 10:50 12.11.2020
5563 Clear 28 1018 24 10000 3.1 360 10:32 12.11.2020
5564 Clear 28 1018 26 10000 3.1 10 09:52 12.11.2020
5565 Clear 28 1018 28 10000 2.6 350 09:27 12.11.2020
5566 Clear 28 1018 30 10000 2.6 350 08:58 12.11.2020
5567 Clear 28 1018 28 10000 4.1 350 08:40 12.11.2020
5568 Clear 28 1019 28 10000 3.6 360 08:20 12.11.2020
5569 Clear 28 1019 28 10000 3.6 360 07:54 12.11.2020
5570 Clear 28 1019 30 10000 3.6 350 07:31 12.11.2020
5571 Clear 28 1020 30 10000 4.1 360 06:51 12.11.2020
5572 Clear 27 1021 32 10000 3.6 20 06:22 12.11.2020
5573 Clear 24 1022 44 10000 2.6 330 03:45 12.11.2020
5574 Clear 23 1022 53 10000 2.1 310 03:19 12.11.2020
5575 Clouds 20 1020 68 9000 0.5 260 00:28 12.11.2020
5576 Clouds 19 1020 77 8000 1.5 300 23:42 11.11.2020
5577 Clear 20 1019 68 10000 1.5 320 23:23 11.11.2020
5578 Clouds 20 1019 68 9000 1 320 22:47 11.11.2020
5579 Clouds 20 1019 68 8000 1 310 22:21 11.11.2020
5580 Clouds 20 1019 68 8000 1 310 21:56 11.11.2020
5581 Clouds 21 1019 64 8000 1 290 21:38 11.11.2020
5582 Clear 21 1019 64 10000 1 0 21:19 11.11.2020
5583 Clouds 21 1020 68 8000 1 330 20:42 11.11.2020
5584 Clouds 21 1020 64 8000 0.5 0 20:21 11.11.2020
5585 Clouds 21 1020 64 9000 1 80 19:55 11.11.2020
5586 Clouds 21 1020 64 9000 1 80 19:36 11.11.2020
5587 Clouds 21 1021 64 9000 1 0 19:18 11.11.2020
5588 Clouds 21 1021 60 9000 2.1 300 18:41 11.11.2020
5589 Clear 21 1021 60 10000 2.1 310 18:19 11.11.2020
5590 Clear 21 1021 68 10000 1.5 320 17:37 11.11.2020
5591 Clouds 22 1021 60 9000 2.1 320 17:19 11.11.2020
5592 Clouds 22 1021 60 8000 1.5 340 16:38 11.11.2020
5593 Clouds 22 1021 56 8000 1.5 280 16:20 11.11.2020
5594 Clouds 24 1021 47 8000 1.5 240 15:41 11.11.2020
5595 Clouds 24 1021 47 8000 1.5 250 15:23 11.11.2020
5596 Clouds 24 1021 44 8000 1 0 14:43 11.11.2020
5597 Clouds 24 1021 44 8000 1 0 14:23 11.11.2020
5598 Clouds 24 1020 47 9000 1 0 13:49 11.11.2020
5599 Clouds 25 1019 44 7000 1.5 230 13:24 11.11.2020
5600 Clear 25 1019 36 10000 2.1 250 12:22 11.11.2020
5601 Clear 25 1019 36 10000 2.1 250 11:52 11.11.2020
5602 Clear 26 1019 31 10000 1 0 11:34 11.11.2020
5603 Clear 26 1019 31 10000 1.5 330 10:56 11.11.2020
5604 Clear 27 1018 30 10000 2.6 330 10:37 11.11.2020
5605 Clear 27 1019 30 10000 2.1 360 10:18 11.11.2020
5606 Clear 27 1019 28 10000 1.5 0 09:42 11.11.2020
5607 Clear 27 1019 28 10000 2.6 20 09:21 11.11.2020
5608 Clear 27 1019 28 10000 2.6 330 08:43 11.11.2020
5609 Clear 27 1019 28 10000 2.6 330 08:25 11.11.2020
5610 Clear 27 1020 24 10000 2.6 20 07:46 11.11.2020
5611 Clear 26 1021 29 10000 3.1 30 06:32 11.11.2020
5612 Clear 26 1022 26 10000 4.1 10 05:45 11.11.2020
5613 Clouds 19 1022 77 6000 3.1 290 01:58 11.11.2020
5614 Clouds 19 1021 68 9000 1 0 00:58 11.11.2020
5615 Clear 18 1021 72 10000 1.5 320 00:25 11.11.2020
5616 Clear 19 1020 63 10000 1 0 23:40 10.11.2020
5617 Clear 19 1020 59 10000 1.5 340 23:22 10.11.2020
5618 Clear 19 1020 68 10000 1.5 330 22:50 10.11.2020
5619 Clear 19 1020 68 10000 1.5 330 22:26 10.11.2020
5620 Clear 19 1020 68 10000 1.5 280 21:42 10.11.2020
5621 Clear 19 1020 63 10000 2.6 290 21:23 10.11.2020
5622 Clear 19 1020 63 10000 2.6 290 20:58 10.11.2020
5623 Clear 20 1020 52 10000 2.1 340 20:39 10.11.2020
5624 Clear 20 1020 60 10000 1.5 340 20:21 10.11.2020
5625 Clear 20 1020 60 10000 1 0 19:44 10.11.2020
5626 Clear 20 1020 60 10000 1 0 19:24 10.11.2020
5627 Clear 19 1021 63 10000 1 0 18:55 10.11.2020
5628 Clear 20 1021 52 10000 1 0 18:37 10.11.2020
5629 Clear 19 1021 55 10000 1.5 350 18:18 10.11.2020
5630 Clear 19 1021 63 10000 1 0 17:41 10.11.2020
5631 Clear 19 1020 63 10000 1.5 330 17:23 10.11.2020
5632 Clear 20 1020 56 10000 1.5 350 16:42 10.11.2020
5633 Clear 21 1020 49 10000 1.5 30 16:22 10.11.2020
5634 Clear 21 1020 49 10000 1.5 30 15:54 10.11.2020
5635 Clear 20 1020 60 10000 1.5 20 15:36 10.11.2020
5636 Clear 21 1020 52 10000 1.5 10 15:18 10.11.2020
5637 Clear 21 1019 52 10000 2.1 50 14:39 10.11.2020
5638 Clouds 22 1019 49 9000 1.5 50 14:18 10.11.2020
5639 Clouds 21 1019 60 7000 1 0 13:38 10.11.2020
5640 Clouds 23 1018 43 6000 1.5 10 13:20 10.11.2020
5641 Clear 24 1018 38 10000 1.5 350 12:46 10.11.2020
5642 Clear 24 1018 38 10000 1.5 350 12:27 10.11.2020
5643 Clear 25 1017 36 10000 2.1 360 11:43 10.11.2020
5644 Clear 25 1017 36 10000 2.1 360 11:43 10.11.2020
5645 Clear 26 1017 29 10000 2.6 10 11:22 10.11.2020
5646 Clear 26 1017 29 10000 2.6 10 10:57 10.11.2020
5647 Clear 27 1017 28 10000 3.1 340 10:38 10.11.2020
5648 Clear 27 1017 26 10000 3.1 30 10:20 10.11.2020
5649 Clear 27 1017 26 10000 2.6 360 09:45 10.11.2020
5650 Clear 27 1017 26 10000 2.6 360 09:25 10.11.2020
5651 Clear 27 1017 26 10000 4.1 350 08:55 10.11.2020
5652 Clear 27 1018 28 10000 3.6 360 08:27 10.11.2020
5653 Clear 27 1019 28 10000 3.6 360 07:44 10.11.2020
5654 Clear 27 1019 28 10000 3.6 360 07:24 10.11.2020
5655 Clear 27 1020 30 10000 4.6 360 06:41 10.11.2020
5656 Clear 25 1021 33 10000 5.1 360 05:43 10.11.2020
5657 Clear 25 1022 31 10000 4.6 10 04:59 10.11.2020
5658 Clear 21 1021 49 10000 1 0 02:36 10.11.2020
5659 Clear 17 1021 63 10000 2.1 310 01:30 10.11.2020
5660 Clear 18 1019 59 10000 0.5 0 23:57 09.11.2020
5661 Clear 17 1019 67 10000 2.1 330 23:36 09.11.2020
5662 Clear 18 1018 59 10000 2.1 290 22:49 09.11.2020
5663 Clear 18 1018 59 10000 2.1 310 22:25 09.11.2020
5664 Clear 18 1018 59 10000 2.1 310 21:56 09.11.2020
5665 Clear 18 1019 59 10000 1.5 300 21:37 09.11.2020
5666 Clear 18 1019 55 10000 1 0 21:18 09.11.2020
5667 Clear 19 1019 55 10000 2.1 360 20:37 09.11.2020
5668 Clear 20 1019 52 10000 1.5 10 20:19 09.11.2020
5669 Clear 19 1019 63 10000 1 30 19:41 09.11.2020
5670 Clear 19 1019 63 10000 1 30 19:22 09.11.2020
5671 Clear 20 1020 56 10000 2.1 60 18:42 09.11.2020
5672 Clear 21 1020 60 10000 1.5 30 18:20 09.11.2020
5673 Clear 21 1020 56 10000 1.5 40 17:53 09.11.2020
5674 Clear 21 1020 56 10000 1.5 40 17:53 09.11.2020
5675 Clear 21 1020 56 10000 1.5 40 17:33 09.11.2020
5676 Clear 22 1019 53 10000 2.6 50 16:48 09.11.2020
5677 Clear 22 1019 53 10000 2.6 50 16:30 09.11.2020
5678 Clear 21 1019 56 10000 2.6 50 15:58 09.11.2020
5679 Clear 21 1019 56 9000 2.1 60 15:40 09.11.2020
5680 Clear 21 1019 56 9000 2.1 60 15:20 09.11.2020
5681 Clear 21 1018 60 10000 1 0 14:43 09.11.2020
5682 Clear 22 1018 56 10000 2.1 350 14:25 09.11.2020
5683 Clear 24 1017 44 8000 1.5 10 13:46 09.11.2020
5684 Clear 24 1017 41 10000 1.5 360 13:20 09.11.2020
5685 Clear 24 1017 41 10000 1.5 360 13:20 09.11.2020
5686 Clear 25 1017 41 8000 1.5 360 12:47 09.11.2020
5687 Clear 26 1016 36 10000 1.5 360 12:25 09.11.2020
5688 Clear 26 1016 36 10000 1.5 360 11:56 09.11.2020
5689 Clear 27 1016 34 10000 1.5 360 11:37 09.11.2020
5690 Clear 27 1016 32 10000 2.1 360 11:18 09.11.2020
5691 Clear 28 1016 30 10000 3.6 350 10:42 09.11.2020
5692 Clear 28 1016 30 10000 3.6 360 10:23 09.11.2020
5693 Clear 28 1016 30 10000 3.6 350 09:41 09.11.2020
5694 Clear 28 1016 28 10000 3.1 20 09:23 09.11.2020
5695 Clear 28 1016 28 10000 3.6 330 08:38 09.11.2020
5696 Clear 28 1017 32 10000 3.6 310 08:19 09.11.2020
5697 Clear 28 1017 30 10000 4.6 360 07:38 09.11.2020
5698 Clear 27 1018 32 10000 5.1 350 07:18 09.11.2020
5699 Clear 27 1020 28 10000 5.1 360 06:22 09.11.2020
5700 Clear 25 1022 38 10000 4.6 360 02:58 09.11.2020
5701 Clear 22 1021 53 10000 3.1 360 01:42 09.11.2020
5702 Clear 21 1020 56 10000 2.6 360 00:57 09.11.2020
5703 Clear 21 1019 60 10000 1.5 10 23:50 08.11.2020
5704 Clear 21 1019 60 10000 1.5 10 23:28 08.11.2020
5705 Clear 22 1019 56 10000 1 0 22:45 08.11.2020
5706 Clear 21 1018 60 10000 1.5 330 22:22 08.11.2020
5707 Clear 22 1019 56 10000 1.5 350 21:52 08.11.2020
5708 Clear 22 1019 56 10000 1.5 350 21:25 08.11.2020
5709 Clear 20 1019 72 10000 1 0 20:59 08.11.2020
5710 Clear 22 1019 56 10000 2.1 10 20:39 08.11.2020
5711 Clear 22 1019 60 10000 2.6 10 20:20 08.11.2020
5712 Clear 22 1019 60 10000 2.6 20 19:46 08.11.2020
5713 Clear 22 1019 60 10000 2.6 20 19:24 08.11.2020
5714 Clear 22 1019 64 10000 2.1 20 18:59 08.11.2020
5715 Clear 21 1019 73 10000 1.5 30 18:41 08.11.2020
5716 Clear 21 1019 73 10000 2.1 70 18:21 08.11.2020
5717 Clear 21 1019 73 10000 2.1 70 17:57 08.11.2020
5718 Clear 22 1020 68 10000 1.5 70 17:36 08.11.2020
5719 Clear 22 1020 68 10000 1.5 10 17:18 08.11.2020
5720 Clear 22 1019 68 10000 2.1 350 16:39 08.11.2020
5721 Clear 23 1019 60 10000 1.5 360 16:21 08.11.2020
5722 Clear 23 1019 64 10000 2.1 10 15:50 08.11.2020
5723 Clear 23 1019 64 10000 2.1 10 15:28 08.11.2020
5724 Clear 24 1019 57 9000 2.1 60 14:44 08.11.2020
5725 Clear 24 1019 57 9000 2.1 60 14:24 08.11.2020
5726 Clear 24 1019 57 9000 2.1 60 14:24 08.11.2020
5727 Clear 24 1019 57 10000 2.1 50 13:57 08.11.2020
5728 Clear 25 1018 50 10000 2.1 60 13:38 08.11.2020
5729 Clear 25 1018 53 10000 2.1 50 13:18 08.11.2020
5730 Clear 26 1018 47 10000 1.5 50 12:40 08.11.2020
5731 Clear 26 1018 47 10000 1.5 20 12:22 08.11.2020
5732 Clear 26 1018 47 10000 1.5 20 11:56 08.11.2020
5733 Clear 27 1018 44 10000 2.1 350 11:38 08.11.2020
5734 Clear 28 1017 42 10000 2.6 330 11:19 08.11.2020
5735 Clear 29 1017 37 10000 3.1 20 10:42 08.11.2020
5736 Clear 29 1017 37 10000 3.1 10 10:18 08.11.2020
5737 Clear 29 1018 37 10000 4.1 360 09:42 08.11.2020
5738 Clear 29 1018 37 10000 3.6 20 09:23 08.11.2020
5739 Clear 29 1018 37 10000 3.1 360 08:47 08.11.2020
5740 Clear 29 1018 37 10000 3.1 360 08:27 08.11.2020
5741 Clear 28 1019 39 10000 4.1 30 07:53 08.11.2020
5742 Clear 28 1019 39 10000 4.1 30 07:32 08.11.2020
5743 Clear 28 1020 39 10000 5.7 20 06:45 08.11.2020
5744 Clear 28 1021 39 10000 4.6 10 05:54 08.11.2020
5745 Clear 27 1022 42 10000 5.1 20 04:51 08.11.2020
5746 Clear 26 1022 50 10000 3.1 10 03:25 08.11.2020
5747 Clear 24 1020 50 10000 4.6 360 01:19 08.11.2020
5748 Clear 24 1020 50 10000 4.6 360 01:19 08.11.2020
5749 Clear 24 1020 50 10000 4.6 360 01:19 08.11.2020
5750 Clear 24 1020 50 10000 4.1 10 00:31 08.11.2020
5751 Clear 23 1019 56 10000 3.1 350 23:56 07.11.2020
5752 Clear 23 1019 56 10000 2.6 350 23:37 07.11.2020
5753 Clear 23 1018 56 10000 2.6 360 23:18 07.11.2020
5754 Clear 23 1018 56 10000 2.6 360 22:39 07.11.2020
5755 Clear 23 1018 56 10000 2.6 10 22:20 07.11.2020
5756 Clear 23 1018 56 10000 2.1 360 21:40 07.11.2020
5757 Clear 23 1018 56 10000 3.1 360 21:19 07.11.2020
5758 Clear 23 1018 56 10000 3.1 10 20:46 07.11.2020
5759 Clear 23 1018 56 10000 3.1 10 20:28 07.11.2020
5760 Clear 24 1019 57 10000 3.1 20 19:49 07.11.2020
5761 Clear 24 1019 57 10000 3.1 20 19:28 07.11.2020
5762 Clear 24 1019 60 10000 2.1 10 18:45 07.11.2020
5763 Clear 24 1019 60 10000 2.1 10 18:27 07.11.2020
5764 Clear 23 1019 69 10000 2.1 360 17:57 07.11.2020
5765 Clear 23 1019 64 10000 1.5 10 17:37 07.11.2020
5766 Clear 23 1019 69 10000 1.5 40 16:54 07.11.2020
5767 Clear 22 1019 78 10000 1 0 16:36 07.11.2020
5768 Clear 23 1019 69 10000 0.5 0 16:18 07.11.2020
5769 Clear 23 1019 73 10000 0.5 0 15:41 07.11.2020
5770 Clear 23 1019 73 8000 1 0 15:22 07.11.2020
5771 Clear 24 1019 64 10000 1.5 10 14:43 07.11.2020
5772 Clear 25 1018 57 10000 1.5 360 14:24 07.11.2020
5773 Clear 25 1018 57 10000 1.5 360 13:52 07.11.2020
5774 Clear 25 1018 57 10000 1.5 360 13:30 07.11.2020
5775 Clear 26 1017 54 10000 2.1 20 12:44 07.11.2020
5776 Clouds 26 1017 54 7000 2.1 20 12:19 07.11.2020
5777 Clear 27 1017 51 10000 2.1 10 11:41 07.11.2020
5778 Clear 28 1017 45 10000 3.1 360 11:22 07.11.2020
5779 Clear 28 1017 48 10000 3.1 350 10:45 07.11.2020
5780 Clear 28 1017 48 10000 3.1 350 10:25 07.11.2020
5781 Clear 28 1017 45 10000 4.6 340 09:49 07.11.2020
5782 Clear 28 1017 45 10000 4.6 340 09:26 07.11.2020
5783 Clear 28 1017 45 10000 4.6 350 08:51 07.11.2020
5784 Clear 28 1017 45 10000 4.6 350 08:33 07.11.2020
5785 Clear 28 1018 45 10000 5.1 360 07:49 07.11.2020
5786 Clear 28 1019 45 10000 4.6 350 07:18 07.11.2020
5787 Clear 28 1019 45 10000 5.1 360 06:43 07.11.2020
5788 Clear 25 1022 50 10000 6.7 20 04:32 07.11.2020
5789 Clear 25 1022 53 10000 5.1 20 03:22 07.11.2020
5790 Clear 23 1021 64 10000 3.6 30 01:28 07.11.2020
5791 Clear 23 1021 64 10000 3.6 30 01:28 07.11.2020
5792 Clear 23 1019 64 10000 4.6 20 00:40 07.11.2020
5793 Clouds 23 1019 69 10000 1.5 360 23:45 06.11.2020
5794 Clouds 23 1019 69 10000 2.1 360 23:19 06.11.2020
5795 Clear 23 1019 69 9000 2.1 20 22:40 06.11.2020
5796 Clouds 24 1018 69 8000 2.6 40 22:19 06.11.2020
5797 Clear 23 1018 73 8000 1.5 30 21:43 06.11.2020
5798 Clear 23 1018 73 9000 1.5 10 21:21 06.11.2020
5799 Clear 23 1018 73 9000 1.5 10 20:51 06.11.2020
5800 Clear 24 1018 69 8000 1.5 360 20:20 06.11.2020
5801 Clear 24 1018 69 8000 1.5 360 20:20 06.11.2020
5802 Clear 24 1018 69 8000 1 320 19:47 06.11.2020
5803 Clouds 24 1018 69 8000 1 320 19:29 06.11.2020
5804 Clouds 24 1019 69 9000 1 0 18:59 06.11.2020
5805 Clouds 24 1019 69 9000 1.5 10 18:40 06.11.2020
5806 Mist 24 1019 78 5000 1 340 18:22 06.11.2020
5807 Mist 24 1019 78 5000 1 340 17:48 06.11.2020
5808 Mist 24 1019 73 5000 1 0 17:25 06.11.2020
5809 Mist 24 1019 78 4800 1 0 16:47 06.11.2020
5810 Mist 23 1019 83 4400 1.5 330 16:24 06.11.2020
5811 Mist 24 1019 78 3600 1 0 15:47 06.11.2020
5812 Mist 24 1019 78 3600 1 0 15:27 06.11.2020
5813 Mist 24 1019 73 5000 2.1 300 14:51 06.11.2020
5814 Mist 25 1018 69 5000 1 0 14:24 06.11.2020
5815 Mist 24 1018 73 5000 1 0 13:44 06.11.2020
5816 Mist 25 1017 69 4000 1 0 13:21 06.11.2020
5817 Mist 25 1017 69 5000 1.5 320 12:44 06.11.2020
5818 Mist 25 1017 69 3500 2.1 310 12:23 06.11.2020
5819 Mist 25 1016 69 4100 2.6 300 11:40 06.11.2020
5820 Mist 25 1016 69 4200 2.6 310 11:21 06.11.2020
5821 Mist 26 1016 65 4500 1.5 0 10:38 06.11.2020
5822 Mist 26 1016 65 4400 2.6 290 10:19 06.11.2020
5823 Mist 26 1016 65 4600 2.1 310 09:46 06.11.2020
5824 Mist 26 1017 65 4400 1.5 290 09:21 06.11.2020
5825 Mist 26 1017 61 4500 2.1 300 08:49 06.11.2020
5826 Mist 26 1017 61 4500 2.1 300 08:28 06.11.2020
5827 Mist 25 1018 69 4200 2.6 290 07:46 06.11.2020
5828 Mist 25 1018 69 4200 2.6 290 07:27 06.11.2020
5829 Mist 25 1019 65 3700 1.5 300 06:48 06.11.2020
5830 Mist 25 1020 69 3100 1.5 330 05:42 06.11.2020
5831 Mist 23 1020 73 4800 1.5 330 02:53 06.11.2020
5832 Mist 22 1018 78 5000 1 0 00:43 06.11.2020
5833 Mist 22 1017 78 4800 1.5 40 00:18 06.11.2020
5834 Mist 22 1017 78 5000 1.5 90 23:26 05.11.2020
5835 Mist 22 1017 78 5000 0.56 26 22:49 05.11.2020
5836 Mist 22 1017 78 5000 1 0 22:26 05.11.2020
5837 Mist 22 1017 78 5000 1 0 22:26 05.11.2020
5838 Mist 22 1017 78 5000 1 0 21:58 05.11.2020
5839 Mist 22 1017 78 5000 0.5 0 21:40 05.11.2020
5840 Mist 22 1017 83 5000 1 340 21:19 05.11.2020
5841 Mist 22 1017 83 5000 1.5 360 20:44 05.11.2020
5842 Mist 22 1017 83 5000 1.5 360 20:24 05.11.2020
5843 Clouds 22 1017 83 6000 1 0 19:57 05.11.2020
5844 Mist 22 1017 83 5000 1 350 19:38 05.11.2020
5845 Mist 23 1017 73 5000 1 0 19:18 05.11.2020
5846 Clouds 23 1018 69 6000 1 0 18:41 05.11.2020
5847 Mist 23 1018 73 5000 1 0 18:22 05.11.2020
5848 Clouds 23 1018 73 6000 1 0 17:46 05.11.2020
5849 Clouds 23 1018 69 6000 1 0 17:26 05.11.2020
5850 Clouds 23 1018 73 6000 1.5 90 16:49 05.11.2020
5851 Clouds 23 1018 73 6000 1.5 90 16:28 05.11.2020
5852 Clouds 23 1018 73 7000 1.5 80 15:55 05.11.2020
5853 Clouds 23 1018 73 7000 1.5 80 15:36 05.11.2020
5854 Clouds 23 1018 69 6000 2.1 80 15:18 05.11.2020
5855 Clouds 24 1017 69 6000 2.1 80 14:42 05.11.2020
5856 Clouds 24 1017 69 6000 2.1 90 14:23 05.11.2020
5857 Clouds 24 1017 69 6000 2.1 80 13:40 05.11.2020
5858 Haze 24 1016 69 5000 0.5 0 13:18 05.11.2020
5859 Haze 24 1016 69 5000 1 0 12:41 05.11.2020
5860 Haze 25 1016 57 4900 1.5 120 12:22 05.11.2020
5861 Haze 25 1015 57 5000 2.1 100 11:42 05.11.2020
5862 Clouds 25 1015 57 6000 2.6 110 11:22 05.11.2020
5863 Clouds 26 1015 54 6000 1.5 100 10:48 05.11.2020
5864 Clouds 26 1015 54 6000 1.5 100 10:26 05.11.2020
5865 Clouds 26 1015 54 6000 1.5 100 09:49 05.11.2020
5866 Clouds 26 1015 54 6000 1.5 100 09:25 05.11.2020
5867 Clouds 26 1015 54 7000 2.1 130 08:51 05.11.2020
5868 Clouds 26 1015 54 8000 1.5 80 08:32 05.11.2020
5869 Clouds 27 1015 51 8000 2.1 0 07:58 05.11.2020
5870 Clouds 27 1016 51 10000 2.1 0 07:28 05.11.2020
5871 Clouds 26 1017 54 10000 1.5 0 06:43 05.11.2020
5872 Clouds 25 1017 53 10000 2.6 50 06:20 05.11.2020
5873 Clear 23 1018 60 10000 2.1 40 03:27 05.11.2020
5874 Clouds 19 1017 82 7000 1.62 23 00:37 05.11.2020
5875 Clouds 19 1016 77 8000 1.61 22 23:53 04.11.2020
5876 Clouds 19 1016 77 8000 1 0 23:27 04.11.2020
5877 Clouds 19 1016 82 6000 2.1 120 22:57 04.11.2020
5878 Clouds 19 1016 82 8000 0.5 10 22:38 04.11.2020
5879 Clouds 19 1016 82 7000 1 0 22:19 04.11.2020
5880 Clouds 19 1017 93 7000 1.5 100 21:46 04.11.2020
5881 Clouds 19 1017 93 7000 1.5 100 21:27 04.11.2020
5882 Clouds 19 1017 88 7000 1 90 20:53 04.11.2020
5883 Clouds 19 1017 88 7000 1 90 20:35 04.11.2020
5884 Clouds 19 1017 88 6000 1 20 19:58 04.11.2020
5885 Clouds 20 1017 82 7000 1 330 19:40 04.11.2020
5886 Clouds 20 1017 82 7000 1 330 19:22 04.11.2020
5887 Clouds 20 1017 77 8000 0.38 19 18:40 04.11.2020
5888 Clouds 20 1017 77 8000 1 360 18:22 04.11.2020
5889 Clouds 21 1017 73 8000 1 0 17:46 04.11.2020
5890 Clouds 21 1017 73 8000 1 0 17:26 04.11.2020
5891 Clouds 21 1017 77 7000 1.5 310 16:46 04.11.2020
5892 Clouds 21 1017 73 8000 1 0 16:27 04.11.2020
5893 Clouds 21 1017 73 8000 1 0 15:57 04.11.2020
5894 Clouds 22 1017 73 8000 1 0 15:39 04.11.2020
5895 Clear 21 1017 73 8000 1.51 129 15:20 04.11.2020
5896 Clear 22 1017 68 8000 1 0 14:43 04.11.2020
5897 Clear 22 1017 68 8000 1 0 14:24 04.11.2020
5898 Clear 22 1016 68 7000 1 0 13:50 04.11.2020
5899 Clear 23 1016 64 8000 1.5 340 13:21 04.11.2020
5900 Clear 23 1016 64 8000 1.5 340 12:57 04.11.2020
5901 Clouds 23 1016 60 9000 1.5 360 12:39 04.11.2020
5902 Clouds 24 1016 53 10000 1.5 360 12:21 04.11.2020
5903 Clear 24 1016 53 10000 1.5 360 11:44 04.11.2020
5904 Clear 24 1016 53 10000 1 0 11:21 04.11.2020
5905 Clear 24 1016 50 10000 1 0 10:48 04.11.2020
5906 Clear 24 1016 50 10000 1 0 10:23 04.11.2020
5907 Clear 24 1016 50 10000 1 0 09:55 04.11.2020
5908 Clear 25 1016 50 10000 1.5 10 09:27 04.11.2020
5909 Clear 25 1016 47 10000 2.1 60 08:47 04.11.2020
5910 Clear 24 1017 50 10000 2.1 20 08:23 04.11.2020
5911 Clear 24 1017 50 10000 2.1 20 07:57 04.11.2020
5912 Clouds 25 1017 47 10000 2.6 40 07:31 04.11.2020
5913 Clouds 24 1018 50 10000 2.6 10 06:57 04.11.2020
5914 Clear 24 1018 50 10000 4.1 30 06:38 04.11.2020
5915 Clear 22 1020 56 10000 4.1 10 04:18 04.11.2020
5916 Clear 21 1019 60 10000 3.6 10 02:31 04.11.2020
5917 Clear 21 1019 60 10000 2.6 360 01:32 04.11.2020
5918 Clear 21 1018 60 10000 2.6 360 23:53 03.11.2020
5919 Clear 21 1018 56 10000 2.6 350 23:25 03.11.2020
5920 Clear 21 1017 56 10000 3.1 10 22:54 03.11.2020
5921 Clear 21 1017 56 10000 3.1 20 22:36 03.11.2020
5922 Clear 21 1017 60 10000 2.1 10 22:18 03.11.2020
5923 Clouds 21 1018 56 10000 3.1 10 21:41 03.11.2020
5924 Clear 21 1018 60 10000 3.1 10 21:22 03.11.2020
5925 Clear 21 1018 60 10000 2.1 10 20:46 03.11.2020
5926 Clear 21 1018 60 10000 2.1 10 20:26 03.11.2020
5927 Clear 21 1018 60 10000 2.6 30 19:46 03.11.2020
5928 Clear 21 1018 60 10000 2.6 30 19:27 03.11.2020
5929 Clear 22 1019 56 10000 2.6 30 18:57 03.11.2020
5930 Clear 22 1019 56 10000 3.1 40 18:38 03.11.2020
5931 Clear 22 1019 56 10000 2.6 30 18:18 03.11.2020
5932 Clear 22 1019 53 10000 3.1 30 17:43 03.11.2020
5933 Clear 22 1019 56 10000 2.1 10 17:25 03.11.2020
5934 Clear 22 1019 56 10000 3.1 10 16:45 03.11.2020
5935 Clear 22 1019 56 10000 3.1 10 16:25 03.11.2020
5936 Clear 22 1019 60 10000 2.6 20 15:52 03.11.2020
5937 Clear 21 1019 68 10000 1.5 350 15:29 03.11.2020
5938 Clear 21 1019 68 10000 1 0 14:53 03.11.2020
5939 Clear 22 1019 60 10000 1.5 10 14:33 03.11.2020
5940 Clear 22 1018 64 10000 1.5 360 13:47 03.11.2020
5941 Clear 22 1018 64 10000 1.5 360 13:24 03.11.2020
5942 Clear 22 1018 60 10000 2.1 40 12:59 03.11.2020
5943 Clear 22 1017 64 10000 2.1 70 12:39 03.11.2020
5944 Clear 22 1017 64 10000 2.1 80 12:20 03.11.2020
5945 Clear 23 1017 60 10000 2.1 60 11:44 03.11.2020
5946 Clear 23 1017 60 10000 2.1 40 11:21 03.11.2020
5947 Clear 23 1016 60 10000 1.5 360 10:40 03.11.2020
5948 Clear 23 1016 56 10000 2.1 10 10:22 03.11.2020
5949 Clear 23 1016 56 10000 2.1 10 09:59 03.11.2020
5950 Clear 24 1016 53 10000 2.6 360 09:37 03.11.2020
5951 Clear 24 1017 53 10000 3.1 360 09:18 03.11.2020
5952 Clear 24 1017 53 10000 3.6 10 08:42 03.11.2020
5953 Clear 24 1017 53 10000 3.6 10 08:23 03.11.2020
5954 Clear 24 1018 50 10000 4.6 10 07:35 03.11.2020
5955 Clear 24 1018 50 10000 4.1 360 06:52 03.11.2020
5956 Clear 23 1020 53 10000 4.6 350 05:50 03.11.2020
5957 Clear 22 1021 56 10000 3.6 10 03:26 03.11.2020
5958 Clear 21 1019 60 10000 3.1 360 00:42 03.11.2020
5959 Clear 21 1019 60 10000 2.6 10 23:59 02.11.2020
5960 Clouds 21 1019 60 10000 3.1 10 23:38 02.11.2020
5961 Clouds 21 1019 60 10000 3.1 360 22:56 02.11.2020
5962 Clouds 21 1019 60 10000 3.1 360 22:36 02.11.2020
5963 Clouds 21 1019 60 10000 3.6 360 21:59 02.11.2020
5964 Clouds 21 1019 64 10000 3.1 360 21:38 02.11.2020
5965 Clouds 21 1019 64 10000 2.6 360 21:19 02.11.2020
5966 Clouds 21 1019 64 10000 3.6 360 20:41 02.11.2020
5967 Clear 22 1019 60 10000 3.6 350 20:20 02.11.2020
5968 Clear 22 1019 56 10000 4.1 360 19:49 02.11.2020
5969 Clear 22 1019 56 10000 4.1 360 19:27 02.11.2020
5970 Clear 22 1019 56 10000 4.1 10 18:58 02.11.2020
5971 Clear 22 1019 60 10000 3.6 10 18:39 02.11.2020
5972 Clear 22 1019 60 10000 3.1 360 18:20 02.11.2020
5973 Clear 22 1019 60 10000 3.1 10 17:42 02.11.2020
5974 Clear 22 1019 60 10000 3.6 30 17:24 02.11.2020
5975 Clear 22 1019 60 10000 3.6 30 16:51 02.11.2020
5976 Clear 22 1019 60 10000 3.6 30 16:32 02.11.2020
5977 Clear 22 1019 64 10000 2.6 30 15:57 02.11.2020
5978 Clear 22 1019 64 10000 3.6 30 15:39 02.11.2020
5979 Clear 22 1018 68 10000 4.1 40 15:19 02.11.2020
5980 Clear 22 1018 68 10000 4.6 40 14:48 02.11.2020
5981 Clear 23 1018 60 10000 4.1 40 14:19 02.11.2020
5982 Clear 23 1017 64 10000 4.1 40 13:48 02.11.2020
5983 Clouds 23 1017 69 10000 4.1 40 13:22 02.11.2020
5984 Clouds 23 1016 69 10000 4.1 50 12:51 02.11.2020
5985 Clouds 23 1016 69 10000 4.1 50 12:28 02.11.2020
5986 Clear 23 1016 69 10000 5.1 50 11:46 02.11.2020
5987 Clouds 23 1015 69 10000 5.1 50 11:21 02.11.2020
5988 Clouds 23 1015 73 10000 4.1 60 10:48 02.11.2020
5989 Clouds 22 1015 78 10000 4.1 70 10:26 02.11.2020
5990 Clouds 22 1015 78 10000 4.1 70 09:56 02.11.2020
5991 Clouds 22 1015 78 10000 5.1 70 09:30 02.11.2020
5992 Clouds 23 1015 73 10000 5.1 40 08:59 02.11.2020
5993 Clouds 23 1016 73 7000 5.7 50 08:38 02.11.2020
5994 Clouds 25 1016 69 10000 6.2 40 08:19 02.11.2020
5995 Haze 28 1016 65 5000 2.1 0 07:39 02.11.2020
5996 Haze 28 1016 69 4600 1.5 330 06:45 02.11.2020
5997 Mist 26 1018 74 3900 1.5 360 05:22 02.11.2020
5998 Mist 23 1016 100 2700 1 0 01:34 02.11.2020
5999 Mist 23 1016 100 3100 0.5 0 00:38 02.11.2020
6000 Mist 23 1015 100 3400 0.5 0 00:20 02.11.2020
6001 Mist 23 1015 100 3000 1 360 23:38 01.11.2020
6002 Mist 23 1015 100 2800 1 30 23:20 01.11.2020
6003 Mist 23 1015 94 2500 1 40 22:42 01.11.2020
6004 Mist 23 1015 100 2600 1 40 22:22 01.11.2020
6005 Mist 23 1015 100 2900 1.5 40 21:43 01.11.2020
6006 Mist 23 1015 100 2900 1.5 40 21:24 01.11.2020
6007 Mist 24 1015 94 2900 1 50 20:48 01.11.2020
6008 Mist 24 1015 94 2900 1 50 20:26 01.11.2020
6009 Mist 24 1016 94 3600 1 0 19:49 01.11.2020
6010 Mist 24 1016 94 3600 1 0 19:30 01.11.2020
6011 Mist 24 1016 94 3600 1 0 19:30 01.11.2020
6012 Mist 24 1016 83 4700 1 0 18:59 01.11.2020
6013 Mist 24 1016 83 4400 1.5 140 18:40 01.11.2020
6014 Mist 24 1016 83 4400 2.1 150 18:19 01.11.2020
6015 Mist 24 1016 83 4400 1.5 100 17:45 01.11.2020
6016 Mist 24 1016 83 4400 1.5 100 17:27 01.11.2020
6017 Mist 25 1016 78 5000 3.1 120 16:45 01.11.2020
6018 Mist 25 1016 78 5000 3.1 120 16:27 01.11.2020
6019 Mist 25 1016 78 5000 3.1 130 15:59 01.11.2020
6020 Mist 25 1016 73 5000 3.1 130 15:38 01.11.2020
6021 Mist 25 1015 78 4700 2.6 120 15:20 01.11.2020
6022 Mist 25 1015 78 5000 2.6 100 14:46 01.11.2020
6023 Mist 25 1015 78 5000 3.1 110 14:22 01.11.2020
6024 Mist 25 1015 78 5000 3.1 110 13:57 01.11.2020
6025 Clouds 25 1014 78 6000 0.5 0 13:39 01.11.2020
6026 Mist 25 1014 78 5000 1.5 20 13:20 01.11.2020
6027 Mist 25 1014 78 5000 1 0 12:40 01.11.2020
6028 Mist 26 1013 69 5000 1 0 12:18 01.11.2020
6029 Mist 26 1013 69 5000 1.5 310 11:47 01.11.2020
6030 Mist 26 1013 69 5000 1.5 350 11:18 01.11.2020
6031 Mist 26 1013 69 5000 1.5 320 10:42 01.11.2020
6032 Mist 26 1013 69 5000 1.5 320 10:42 01.11.2020
6033 Clouds 27 1013 65 6000 1.5 340 10:24 01.11.2020
6034 Clouds 27 1013 65 7000 1.5 360 09:49 01.11.2020
6035 Clouds 27 1013 65 7000 1.5 360 09:19 01.11.2020
6036 Clouds 28 1014 61 7000 1.5 40 08:38 01.11.2020
6037 Clouds 28 1014 58 7000 2.1 140 07:51 01.11.2020
6038 Clouds 28 1016 58 7000 1 0 06:48 01.11.2020
6039 Mist 22 1018 100 3900 2.1 350 02:31 01.11.2020
6040 Mist 22 1017 94 2800 1.5 50 01:31 01.11.2020
6041 Mist 21 1016 100 4500 1 80 23:51 31.10.2020
6042 Mist 21 1016 94 2800 1.5 100 23:23 31.10.2020
6043 Fog 21 1016 94 1600 1.5 110 22:45 31.10.2020
6044 Fog 21 1016 94 1600 1.5 110 22:45 31.10.2020
6045 Fog 21 1016 94 2200 0.5 90 22:24 31.10.2020
6046 Fog 21 1016 94 2200 0.8 324 21:46 31.10.2020
6047 Mist 21 1016 100 2800 1.2 324 21:22 31.10.2020
6048 Mist 21 1016 100 4000 0.5 10 20:43 31.10.2020
6049 Mist 21 1016 100 4100 0.5 360 20:20 31.10.2020
6050 Mist 21 1017 100 3300 1 0 19:44 31.10.2020
6051 Mist 21 1017 100 3300 1 0 19:25 31.10.2020
6052 Mist 22 1017 94 3500 1.5 320 18:59 31.10.2020
6053 Mist 22 1017 94 3500 1.5 320 18:59 31.10.2020
6054 Mist 22 1017 94 3300 2.1 310 18:41 31.10.2020
6055 Mist 22 1017 100 3800 2.6 310 17:47 31.10.2020
6056 Mist 22 1017 100 3800 2.6 310 17:27 31.10.2020
6057 Mist 22 1018 100 3000 2.1 300 16:56 31.10.2020
6058 Mist 22 1018 100 3900 2.6 280 16:37 31.10.2020
6059 Mist 22 1018 100 4400 2.1 280 15:55 31.10.2020
6060 Mist 23 1017 88 4800 1.5 260 15:26 31.10.2020
6061 Mist 23 1017 88 4800 1.5 260 14:55 31.10.2020
6062 Mist 23 1017 83 5000 2.1 290 14:32 31.10.2020
6063 Clouds 23 1017 83 6000 2.1 290 13:57 31.10.2020
6064 Clouds 23 1016 83 7000 2.6 300 13:39 31.10.2020
6065 Clouds 23 1016 83 6000 2.6 290 13:19 31.10.2020
6066 Clouds 23 1016 83 6000 2.6 280 12:27 31.10.2020
6067 Clouds 24 1016 73 10000 2.6 300 11:42 31.10.2020
6068 Clouds 24 1016 73 10000 2.6 300 11:24 31.10.2020
6069 Clouds 24 1016 73 10000 2.6 280 10:54 31.10.2020
6070 Clouds 24 1016 69 10000 1.5 330 10:32 31.10.2020
6071 Clouds 24 1016 69 10000 1 0 09:41 31.10.2020
6072 Clouds 25 1016 69 10000 1 0 09:20 31.10.2020
6073 Clouds 24 1016 73 10000 2.1 360 08:28 31.10.2020
6074 Clouds 24 1017 69 10000 2.6 10 07:47 31.10.2020
6075 Clouds 24 1017 69 10000 2.6 10 07:26 31.10.2020
6076 Clouds 24 1018 73 10000 2.1 360 06:37 31.10.2020
6077 Clouds 23 1020 78 10000 1.5 10 03:50 31.10.2020
6078 Clouds 22 1019 83 10000 1 0 02:48 31.10.2020
6079 Clouds 21 1018 88 10000 2.6 340 00:55 31.10.2020
6080 Clouds 21 1018 94 10000 2.1 340 23:58 30.10.2020
6081 Clouds 21 1017 94 10000 2.6 360 23:39 30.10.2020
6082 Clouds 21 1018 94 10000 2.1 360 23:20 30.10.2020
6083 Clouds 21 1018 94 10000 2.1 350 22:40 30.10.2020
6084 Clouds 21 1018 94 10000 2.1 350 22:22 30.10.2020
6085 Clouds 21 1018 83 10000 1.5 350 21:49 30.10.2020
6086 Clouds 21 1018 83 10000 1.5 350 21:27 30.10.2020
6087 Clouds 21 1018 94 9000 2.1 340 20:46 30.10.2020
6088 Clouds 21 1018 94 9000 2.1 340 20:27 30.10.2020
6089 Clouds 21 1018 94 10000 2.1 350 19:59 30.10.2020
6090 Clouds 21 1019 94 10000 2.1 360 19:39 30.10.2020
6091 Clouds 21 1019 94 10000 2.1 360 19:18 30.10.2020
6092 Clouds 21 1019 94 10000 2.1 350 18:41 30.10.2020
6093 Clouds 21 1019 94 10000 2.6 360 18:22 30.10.2020
6094 Clouds 21 1019 94 10000 3.1 360 17:46 30.10.2020
6095 Clouds 21 1019 94 10000 2.1 20 17:21 30.10.2020
6096 Clouds 21 1019 100 6000 1.5 360 16:50 30.10.2020
6097 Clouds 21 1019 100 6000 1.5 360 16:25 30.10.2020
6098 Mist 21 1019 100 3500 2.1 320 15:44 30.10.2020
6099 Mist 21 1019 100 3500 2.1 320 15:26 30.10.2020
6100 Mist 21 1019 100 4100 2.1 300 14:58 30.10.2020
6101 Mist 21 1019 100 4200 2.6 290 14:39 30.10.2020
6102 Mist 21 1018 100 5000 3.1 300 14:21 30.10.2020
6103 Mist 21 1018 100 5000 3.1 300 14:21 30.10.2020
6104 Mist 21 1018 100 5000 3.1 300 14:21 30.10.2020
6105 Mist 21 1018 100 5000 3.1 300 14:21 30.10.2020
6106 Clouds 21 1018 94 10000 2.1 310 13:41 30.10.2020
6107 Clouds 21 1017 94 10000 1.5 310 13:20 30.10.2020
6108 Clouds 21 1017 94 10000 1.5 320 12:43 30.10.2020
6109 Clouds 21 1017 94 10000 1.5 340 12:22 30.10.2020
6110 Clouds 21 1017 94 10000 2.1 330 11:46 30.10.2020
6111 Clouds 21 1017 94 10000 2.1 330 11:20 30.10.2020
6112 Mist 21 1017 94 4500 2.1 350 10:50 30.10.2020
6113 Mist 21 1017 94 3400 2.1 330 10:25 30.10.2020
6114 Mist 21 1017 94 5000 2.1 330 09:46 30.10.2020
6115 Clouds 21 1017 94 6000 2.6 320 09:24 30.10.2020
6116 Clouds 21 1017 94 6000 2.6 320 08:55 30.10.2020
6117 Clouds 21 1017 94 10000 2.1 320 08:31 30.10.2020
6118 Clouds 22 1017 88 10000 2.1 330 07:51 30.10.2020
6119 Clouds 21 1018 88 10000 2.1 340 07:33 30.10.2020
6120 Clouds 21 1019 94 10000 2.6 330 06:47 30.10.2020
6121 Mist 21 1020 94 2300 2.6 300 05:22 30.10.2020
6122 Mist 20 1019 94 3500 1 0 02:28 30.10.2020
6123 Clouds 20 1018 94 9000 2.1 360 00:43 30.10.2020
6124 Clouds 20 1017 88 9000 0.5 0 23:50 29.10.2020
6125 Clouds 20 1017 88 9000 0.5 0 23:31 29.10.2020
6126 Clouds 20 1017 82 10000 2.1 340 22:59 29.10.2020
6127 Clouds 21 1017 77 10000 2.6 360 22:40 29.10.2020
6128 Clouds 21 1017 73 10000 3.1 360 22:22 29.10.2020
6129 Clouds 21 1017 77 10000 3.1 360 21:39 29.10.2020
6130 Clouds 21 1017 77 10000 3.1 360 21:20 29.10.2020
6131 Clouds 21 1017 77 10000 2.6 360 20:42 29.10.2020
6132 Clouds 21 1018 73 10000 2.6 10 20:19 29.10.2020
6133 Clouds 21 1017 73 10000 3.6 360 19:43 29.10.2020
6134 Clouds 21 1017 73 10000 3.6 360 19:22 29.10.2020
6135 Clouds 22 1018 68 10000 3.1 360 18:55 29.10.2020
6136 Clouds 22 1018 68 10000 3.6 10 18:36 29.10.2020
6137 Clouds 22 1018 68 10000 4.1 20 18:18 29.10.2020
6138 Clouds 22 1018 68 10000 4.1 20 17:40 29.10.2020
6139 Clouds 22 1018 68 10000 4.1 20 17:20 29.10.2020
6140 Clouds 22 1018 68 10000 4.6 20 16:45 29.10.2020
6141 Clouds 22 1018 68 10000 5.1 20 16:20 29.10.2020
6142 Clouds 22 1018 68 10000 5.1 20 15:56 29.10.2020
6143 Clouds 22 1018 68 10000 4.1 20 15:37 29.10.2020
6144 Clouds 22 1017 68 10000 5.1 20 15:19 29.10.2020
6145 Clouds 22 1017 68 10000 4.6 10 14:44 29.10.2020
6146 Clouds 22 1016 73 10000 6.7 30 14:23 29.10.2020
6147 Clouds 22 1016 73 10000 4.6 30 13:47 29.10.2020
6148 Clouds 22 1016 73 10000 4.6 30 13:27 29.10.2020
6149 Clouds 22 1015 73 10000 6.2 30 12:44 29.10.2020
6150 Clouds 23 1015 64 10000 6.2 20 12:20 29.10.2020
6151 Clouds 23 1015 64 10000 6.2 20 11:56 29.10.2020
6152 Clouds 23 1014 64 10000 6.2 20 11:38 29.10.2020
6153 Clouds 23 1014 64 10000 6.7 20 11:19 29.10.2020
6154 Clouds 23 1014 69 10000 7.2 20 10:37 29.10.2020
6155 Clouds 23 1014 69 10000 5.7 30 10:18 29.10.2020
6156 Clouds 23 1014 69 10000 5.7 30 10:18 29.10.2020
6157 Clouds 23 1014 69 10000 7.2 30 09:47 29.10.2020
6158 Clouds 23 1014 69 10000 6.2 20 09:24 29.10.2020
6159 Clouds 23 1014 69 10000 6.7 30 08:41 29.10.2020
6160 Clouds 23 1014 69 10000 6.7 30 08:23 29.10.2020
6161 Clouds 23 1015 69 10000 5.7 20 07:49 29.10.2020
6162 Clouds 23 1015 73 10000 5.7 30 06:59 29.10.2020
6163 Clouds 23 1015 73 10000 6.7 20 06:28 29.10.2020
6164 Clouds 23 1016 73 10000 4.1 20 04:48 29.10.2020
6165 Rain 22 1016 78 10000 5.78 19 02:19 29.10.2020
6166 Clouds 22 1015 73 10000 6.61 23 00:38 29.10.2020
6167 Rain 22 1014 74 10000 6.3 21 00:19 29.10.2020
6168 Clouds 22 1014 74 10000 6.3 21 23:40 28.10.2020
6169 Rain 23 1013 73 10000 6.89 20 23:19 28.10.2020
6170 Rain 24 1012 73 10000 4.6 10 22:42 28.10.2020
6171 Clouds 24 1012 73 10000 4.6 10 22:23 28.10.2020
6172 Clouds 24 1012 73 10000 4.1 10 21:45 28.10.2020
6173 Clouds 24 1012 73 10000 4.1 10 21:25 28.10.2020
6174 Rain 24 1013 78 10000 4.1 10 20:44 28.10.2020
6175 Rain 23 1013 83 10000 3.6 360 20:23 28.10.2020
6176 Rain 23 1013 83 10000 3.6 360 19:55 28.10.2020
6177 Clouds 24 1013 78 10000 3.1 10 19:36 28.10.2020
6178 Clear 24 1014 78 10000 3.6 10 19:18 28.10.2020
6179 Clouds 24 1014 78 10000 2.6 10 18:42 28.10.2020
6180 Rain 24 1014 78 10000 3.6 30 18:18 28.10.2020
6181 Rain 24 1014 78 10000 4.6 30 17:41 28.10.2020
6182 Rain 24 1014 78 10000 3.6 20 17:21 28.10.2020
6183 Rain 24 1014 78 10000 3.1 30 16:47 28.10.2020
6184 Rain 24 1014 78 9000 3.1 50 16:28 28.10.2020
6185 Clouds 25 1014 77 10000 4.05 32 15:42 28.10.2020
6186 Clouds 25 1014 78 10000 5.15 23 15:19 28.10.2020
6187 Clouds 25 1014 78 10000 5.15 23 14:46 28.10.2020
6188 Rain 28 1012 54 10000 5.1 10 14:27 28.10.2020
6189 Rain 25 1013 74 10000 5.55 58 12:59 28.10.2020
6190 Clouds 26 1013 72 10000 3.19 88 12:36 28.10.2020
6191 Clouds 26 1012 70 10000 3.54 78 12:18 28.10.2020
6192 Clouds 26 1012 70 10000 3.54 78 11:42 28.10.2020
6193 Clouds 27 1011 67 10000 4.18 79 11:21 28.10.2020
6194 Clouds 27 1011 67 10000 4.18 79 10:53 28.10.2020
6195 Clear 30 1011 51 10000 4.6 20 10:33 28.10.2020
6196 Clouds 31 1011 48 10000 6.2 20 09:48 28.10.2020
6197 Clouds 31 1011 48 10000 6.2 20 09:25 28.10.2020
6198 Clouds 31 1011 48 10000 6.2 20 08:56 28.10.2020
6199 Clear 30 1011 55 10000 4.6 10 08:37 28.10.2020
6200 Clouds 30 1011 51 10000 5.7 10 08:18 28.10.2020
6201 Clouds 30 1012 51 10000 5.1 30 07:41 28.10.2020
6202 Clouds 29 1013 58 10000 4.1 30 07:19 28.10.2020
6203 Clear 29 1013 58 10000 4.6 10 06:39 28.10.2020
6204 Clouds 29 1014 58 10000 5.1 30 05:48 28.10.2020
6205 Rain 28 1015 61 10000 5.1 360 04:52 28.10.2020
6206 Clear 28 1015 61 10000 4.1 10 04:23 28.10.2020
6207 Clear 26 1014 69 10000 2.6 360 02:25 28.10.2020
6208 Mist 22 1012 100 4300 1.5 310 00:36 28.10.2020
6209 Clouds 22 1012 100 6000 1.5 300 23:51 27.10.2020
6210 Clouds 23 1011 94 6000 1.5 300 23:22 27.10.2020
6211 Clouds 23 1012 94 6000 1.5 300 22:45 27.10.2020
6212 Clouds 23 1011 94 6000 1.5 330 22:22 27.10.2020
6213 Clouds 23 1011 94 6000 1.5 330 21:57 27.10.2020
6214 Clouds 23 1012 94 6000 1.5 310 21:38 27.10.2020
6215 Clouds 23 1012 94 8000 1.5 280 21:20 27.10.2020
6216 Rain 23 1012 94 8000 1.5 280 20:51 27.10.2020
6217 Clouds 23 1012 94 9000 2.1 280 20:25 27.10.2020
6218 Clouds 24 1012 88 9000 2.1 300 19:59 27.10.2020
6219 Clouds 23 1012 88 7000 1.5 320 19:38 27.10.2020
6220 Clouds 24 1013 83 8000 1.5 330 19:20 27.10.2020
6221 Clouds 24 1013 88 8000 1 0 18:45 27.10.2020
6222 Clouds 24 1013 88 8000 1 0 18:45 27.10.2020
6223 Clouds 24 1013 88 8000 1 0 18:27 27.10.2020
6224 Clouds 24 1013 83 8000 0.5 0 17:59 27.10.2020
6225 Clouds 24 1013 83 8000 0.5 0 17:40 27.10.2020
6226 Clouds 25 1013 78 10000 1.5 310 17:19 27.10.2020
6227 Clouds 25 1013 78 9000 1.5 290 16:44 27.10.2020
6228 Clouds 25 1013 78 8000 1.79 151 16:23 27.10.2020
6229 Rain 25 1013 78 9000 1 0 15:42 27.10.2020
6230 Rain 26 1013 74 10000 2.1 320 15:24 27.10.2020
6231 Rain 26 1012 74 10000 1.5 300 14:51 27.10.2020
6232 Clear 26 1012 74 10000 1.5 300 14:32 27.10.2020
6233 Clear 27 1012 69 10000 2.1 320 13:59 27.10.2020
6234 Clouds 27 1012 69 8000 1 300 13:31 27.10.2020
6235 Clear 27 1011 69 10000 2.1 290 12:49 27.10.2020
6236 Clear 27 1011 69 10000 2.1 290 12:30 27.10.2020
6237 Clear 28 1011 61 10000 1 0 11:59 27.10.2020
6238 Clear 29 1011 58 10000 1 0 11:41 27.10.2020
6239 Clear 29 1010 58 10000 2.1 340 11:21 27.10.2020
6240 Clear 29 1010 58 10000 2.1 360 10:44 27.10.2020
6241 Clear 29 1010 58 10000 1.5 320 10:21 27.10.2020
6242 Clouds 29 1010 58 10000 1 0 09:38 27.10.2020
6243 Clouds 30 1011 58 10000 1.5 0 09:20 27.10.2020
6244 Clouds 29 1011 62 10000 2.6 320 08:33 27.10.2020
6245 Clouds 29 1011 62 10000 2.6 320 08:33 27.10.2020
6246 Clouds 29 1011 66 10000 2.6 290 07:57 27.10.2020
6247 Clouds 28 1012 69 10000 2.1 310 07:38 27.10.2020
6248 Clouds 28 1012 65 10000 3.6 300 07:20 27.10.2020
6249 Clouds 27 1014 65 10000 2.1 300 06:21 27.10.2020
6250 Clouds 27 1014 69 10000 1 0 05:46 27.10.2020
6251 Clouds 27 1015 69 10000 1.5 290 05:27 27.10.2020
6252 Clouds 24 1015 83 6000 2.6 290 03:20 27.10.2020
6253 Mist 22 1013 100 3000 2.1 310 01:22 27.10.2020
6254 Mist 22 1013 100 4400 1.5 300 00:44 27.10.2020
6255 Mist 22 1012 100 5000 2.1 300 23:39 26.10.2020
6256 Mist 22 1012 100 5000 2.1 300 22:59 26.10.2020
6257 Mist 22 1012 100 5000 2.6 300 22:39 26.10.2020
6258 Mist 22 1012 100 4600 2.6 300 22:18 26.10.2020
6259 Mist 22 1012 100 4600 2.6 310 21:40 26.10.2020
6260 Mist 22 1012 100 3600 2.1 300 21:19 26.10.2020
6261 Mist 22 1013 100 3000 2.1 300 20:49 26.10.2020
6262 Mist 22 1013 100 3300 2.1 300 20:27 26.10.2020
6263 Mist 22 1013 100 3300 2.1 300 19:56 26.10.2020
6264 Mist 22 1013 94 3100 2.1 300 19:38 26.10.2020
6265 Mist 22 1014 100 4300 2.1 320 19:19 26.10.2020
6266 Mist 22 1014 94 5000 1 0 18:42 26.10.2020
6267 Clouds 22 1014 94 7000 1.5 310 18:22 26.10.2020
6268 Clouds 22 1015 94 6000 2.1 290 17:44 26.10.2020
6269 Rain 22 1015 94 8000 1.5 320 17:23 26.10.2020
6270 Clouds 22 1015 88 8000 1 0 16:45 26.10.2020
6271 Clouds 22 1015 88 10000 0.5 0 16:22 26.10.2020
6272 Clouds 22 1015 88 10000 0.5 0 15:56 26.10.2020
6273 Clouds 22 1015 94 9000 1.35 304 15:38 26.10.2020
6274 Clouds 22 1015 94 7000 1 0 15:18 26.10.2020
6275 Clouds 22 1015 94 8000 2.6 30 14:44 26.10.2020
6276 Mist 21 1014 100 3900 1.5 360 14:18 26.10.2020
6277 Mist 21 1014 100 4000 2.1 10 13:41 26.10.2020
6278 Mist 22 1014 94 4400 2.1 20 13:22 26.10.2020
6279 Clouds 22 1013 83 10000 2.1 10 12:45 26.10.2020
6280 Clouds 22 1013 94 6000 2.6 20 12:27 26.10.2020
6281 Mist 22 1013 94 5000 1 0 11:48 26.10.2020
6282 Mist 22 1013 94 4600 1.5 10 11:27 26.10.2020
6283 Mist 22 1013 94 4600 1.5 10 10:59 26.10.2020
6284 Mist 22 1013 94 3600 1.5 10 10:40 26.10.2020
6285 Clouds 24 1012 73 7000 2.6 10 10:20 26.10.2020
6286 Clouds 24 1012 69 10000 3.1 340 09:43 26.10.2020
6287 Clouds 24 1013 69 10000 2.6 360 09:21 26.10.2020
6288 Clouds 24 1013 69 10000 2.6 350 08:29 26.10.2020
6289 Clouds 24 1014 69 10000 2.1 330 07:53 26.10.2020
6290 Clouds 23 1014 73 10000 2.6 10 07:34 26.10.2020
6291 Clouds 23 1015 73 10000 3.1 10 06:37 26.10.2020
6292 Clouds 24 1016 69 10000 2.6 360 04:22 26.10.2020
6293 Clouds 23 1016 73 10000 2.6 20 03:33 26.10.2020
6294 Clouds 23 1015 69 10000 3.1 340 01:38 26.10.2020
6295 Clouds 23 1014 64 10000 2.1 10 00:54 26.10.2020
6296 Clouds 23 1014 64 10000 2.1 10 00:31 26.10.2020
6297 Clouds 22 1013 78 7000 1 0 23:38 25.10.2020
6298 Clouds 22 1013 78 7000 1.5 330 23:19 25.10.2020
6299 Clouds 22 1013 78 8000 1 330 22:40 25.10.2020
6300 Clouds 22 1013 78 8000 1 330 22:40 25.10.2020
6301 Clouds 22 1013 78 8000 2.1 320 22:20 25.10.2020
6302 Clouds 22 1013 78 8000 2.1 330 21:40 25.10.2020
6303 Clouds 22 1013 78 9000 1.5 360 21:21 25.10.2020
6304 Clouds 22 1013 73 10000 1 0 20:46 25.10.2020
6305 Clouds 22 1013 73 10000 1 0 20:46 25.10.2020
6306 Clouds 22 1013 73 10000 1 0 20:27 25.10.2020
6307 Clouds 22 1013 73 10000 1 0 19:59 25.10.2020
6308 Clouds 23 1014 69 10000 1.5 340 19:41 25.10.2020
6309 Clouds 23 1014 69 10000 1.5 340 19:21 25.10.2020
6310 Clouds 23 1014 69 10000 1.5 320 18:42 25.10.2020
6311 Clouds 22 1014 78 10000 1.5 340 18:23 25.10.2020
6312 Clouds 22 1014 78 10000 1.5 340 17:59 25.10.2020
6313 Clouds 22 1014 73 10000 2.6 320 17:38 25.10.2020
6314 Clouds 22 1015 73 10000 1.5 340 17:20 25.10.2020
6315 Clouds 22 1015 68 10000 1.5 350 16:52 25.10.2020
6316 Clouds 22 1015 68 10000 1.5 350 16:31 25.10.2020
6317 Clouds 23 1014 64 10000 2.1 320 15:52 25.10.2020
6318 Clouds 23 1014 64 10000 3.1 350 15:31 25.10.2020
6319 Clouds 23 1014 64 10000 2.6 360 14:58 25.10.2020
6320 Clouds 23 1014 64 10000 1 0 14:32 25.10.2020
6321 Clouds 23 1013 64 10000 1.5 360 13:59 25.10.2020
6322 Clouds 23 1013 64 10000 2.1 30 13:41 25.10.2020
6323 Clouds 23 1013 64 10000 1 0 13:19 25.10.2020
6324 Clouds 23 1013 64 10000 1 0 13:19 25.10.2020
6325 Clouds 23 1013 64 10000 1 0 13:19 25.10.2020
6326 Clouds 23 1012 64 10000 2.1 10 12:46 25.10.2020
6327 Clouds 23 1012 64 10000 2.1 10 12:25 25.10.2020
6328 Clouds 22 1012 73 9000 2.6 10 11:44 25.10.2020
6329 Clouds 23 1012 69 10000 3.6 20 11:21 25.10.2020
6330 Clouds 23 1012 69 10000 3.6 20 11:21 25.10.2020
6331 Clouds 23 1012 69 10000 3.6 20 10:57 25.10.2020
6332 Clouds 22 1012 73 10000 2.6 40 10:38 25.10.2020
6333 Clouds 23 1012 64 10000 2.6 40 10:19 25.10.2020
6334 Clouds 23 1012 64 10000 2.6 20 09:40 25.10.2020
6335 Clouds 23 1012 60 10000 4.1 50 09:19 25.10.2020
6336 Clouds 23 1012 60 10000 4.1 50 09:19 25.10.2020
6337 Clouds 23 1012 60 10000 4.1 50 09:19 25.10.2020
6338 Clouds 23 1013 60 10000 4.1 50 08:41 25.10.2020
6339 Clouds 23 1013 60 10000 4.1 50 08:41 25.10.2020
6340 Clouds 24 1013 53 10000 2.6 20 08:22 25.10.2020
6341 Clouds 25 1014 47 10000 3.6 10 07:46 25.10.2020
6342 Clouds 24 1014 60 7000 2.1 270 07:18 25.10.2020
6343 Clouds 24 1015 60 7000 1 0 06:30 25.10.2020
6344 Clouds 23 1016 64 7000 2.1 300 05:22 25.10.2020
6345 Clouds 23 1016 69 6000 2.6 290 04:51 25.10.2020
6346 Clouds 21 1015 77 6000 2.6 310 02:38 25.10.2020
6347 Clouds 20 1014 77 8000 1.5 310 01:32 25.10.2020
6348 Clouds 20 1014 77 9000 2.1 290 00:48 25.10.2020
6349 Clouds 20 1013 77 8000 2.6 290 00:19 25.10.2020
6350 Clouds 20 1014 72 9000 2.1 290 23:52 24.10.2020
6351 Clouds 20 1014 72 9000 2.1 290 23:25 24.10.2020
6352 Clear 19 1014 77 10000 2.1 290 22:43 24.10.2020
6353 Clear 19 1014 77 10000 2.1 290 22:24 24.10.2020
6354 Clear 19 1014 77 10000 2.6 290 21:59 24.10.2020
6355 Clear 20 1014 77 10000 2.6 290 21:39 24.10.2020
6356 Clear 20 1014 72 10000 1.5 300 21:20 24.10.2020
6357 Clear 20 1014 72 10000 2.1 290 20:47 24.10.2020
6358 Clear 21 1015 64 10000 0.5 0 20:22 24.10.2020
6359 Clear 20 1015 72 10000 0.5 0 19:47 24.10.2020
6360 Clear 20 1015 72 10000 0.5 0 19:27 24.10.2020
6361 Clear 20 1015 68 10000 1.66 6 18:55 24.10.2020
6362 Clear 20 1015 72 10000 0.5 0 18:36 24.10.2020
6363 Clear 20 1015 72 10000 0.5 0 17:57 24.10.2020
6364 Clear 21 1015 64 10000 1.5 310 17:37 24.10.2020
6365 Clear 21 1014 68 10000 0.5 0 17:19 24.10.2020
6366 Clouds 21 1014 73 7000 1 0 16:41 24.10.2020
6367 Clouds 21 1014 68 9000 1.5 320 16:18 24.10.2020
6368 Clouds 22 1014 64 7000 1.5 320 15:38 24.10.2020
6369 Clouds 22 1014 60 7000 1.5 330 15:19 24.10.2020
6370 Clouds 23 1013 53 8000 1 0 14:43 24.10.2020
6371 Smoke 24 1013 50 5000 1.5 10 14:23 24.10.2020
6372 Clouds 25 1012 44 8000 1.5 320 13:44 24.10.2020
6373 Clouds 26 1012 36 9000 1.5 320 13:20 24.10.2020
6374 Clear 27 1012 34 10000 1.5 30 12:41 24.10.2020
6375 Clear 27 1012 32 10000 2.1 10 12:21 24.10.2020
6376 Clear 28 1012 30 10000 2.6 10 11:51 24.10.2020
6377 Clear 28 1012 30 10000 2.6 10 11:24 24.10.2020
6378 Clear 29 1012 28 10000 2.1 20 10:51 24.10.2020
6379 Clear 29 1012 28 10000 2.1 20 10:32 24.10.2020
6380 Clear 28 1012 30 10000 2.1 350 09:50 24.10.2020
6381 Clear 28 1012 30 10000 2.1 350 09:27 24.10.2020
6382 Clear 28 1013 30 10000 2.1 30 08:58 24.10.2020
6383 Clear 27 1014 34 10000 2.6 30 08:19 24.10.2020
6384 Clear 28 1014 32 10000 2.6 40 07:53 24.10.2020
6385 Clear 27 1014 34 10000 2.6 30 07:53 24.10.2020
6386 Clear 27 1015 30 10000 3.6 50 07:22 24.10.2020
6387 Clear 26 1015 36 10000 3.6 30 06:52 24.10.2020
6388 Clear 25 1016 47 10000 1.5 0 05:47 24.10.2020
6389 Clouds 17 1016 82 7000 1 320 02:28 24.10.2020
6390 Clear 17 1015 82 10000 1.5 90 00:59 24.10.2020
6391 Clear 17 1014 82 10000 1 100 00:39 24.10.2020
6392 Clear 17 1014 77 10000 2.66 327 00:21 24.10.2020
6393 Clear 18 1014 72 10000 2.66 327 23:43 23.10.2020
6394 Clear 17 1014 82 10000 2.37 340 23:23 23.10.2020
6395 Clear 17 1014 82 10000 1 340 22:43 23.10.2020
6396 Clear 18 1014 72 10000 2.1 290 22:23 23.10.2020
6397 Clear 18 1014 72 10000 2.1 290 21:59 23.10.2020
6398 Clear 18 1014 72 10000 1 310 21:39 23.10.2020
6399 Clear 18 1014 72 10000 1 310 21:21 23.10.2020
6400 Clear 19 1015 72 10000 1 70 20:39 23.10.2020
6401 Clear 19 1015 68 10000 0.5 0 20:20 23.10.2020
6402 Clear 19 1015 72 10000 1.5 360 19:48 23.10.2020
6403 Clear 19 1015 72 10000 1.5 360 19:29 23.10.2020
6404 Clouds 20 1016 64 9000 1.5 80 18:49 23.10.2020
6405 Clouds 20 1016 64 9000 1.5 80 18:30 23.10.2020
6406 Clouds 21 1015 60 9000 1.5 50 17:47 23.10.2020
6407 Clouds 21 1015 68 8000 1.5 10 17:22 23.10.2020
6408 Clouds 21 1015 68 8000 1.5 10 16:56 23.10.2020
6409 Clouds 21 1015 68 8000 1.5 10 16:56 23.10.2020
6410 Clouds 21 1015 68 8000 0.5 0 16:35 23.10.2020
6411 Clouds 22 1014 60 8000 1 90 15:58 23.10.2020
6412 Clear 23 1014 53 10000 1 0 15:40 23.10.2020
6413 Clouds 22 1013 56 7000 1 0 15:20 23.10.2020
6414 Clouds 23 1013 56 6000 1.5 320 14:48 23.10.2020
6415 Clouds 23 1013 56 6000 1.5 320 14:29 23.10.2020
6416 Clear 26 1012 36 10000 1 0 13:43 23.10.2020
6417 Clear 26 1012 36 10000 1 0 13:24 23.10.2020
6418 Clear 28 1012 26 10000 1 0 12:51 23.10.2020
6419 Clear 28 1012 26 10000 1 0 12:31 23.10.2020
6420 Clear 29 1011 26 10000 2.6 330 11:51 23.10.2020
6421 Clear 29 1011 26 10000 2.6 330 11:28 23.10.2020
6422 Clear 29 1011 26 10000 3.1 340 10:55 23.10.2020
6423 Clear 29 1011 26 10000 3.1 340 10:37 23.10.2020
6424 Clear 29 1011 28 10000 3.6 350 10:19 23.10.2020
6425 Clear 29 1011 26 10000 4.1 360 09:43 23.10.2020
6426 Clear 29 1011 26 10000 4.1 360 09:23 23.10.2020
6427 Clear 29 1012 26 10000 4.6 360 08:50 23.10.2020
6428 Clear 28 1013 28 10000 4.1 10 08:26 23.10.2020
6429 Clear 28 1014 26 10000 5.7 10 07:26 23.10.2020
6430 Clear 28 1014 26 10000 5.7 10 07:26 23.10.2020
6431 Clear 28 1015 26 10000 5.7 20 06:49 23.10.2020
6432 Clear 28 1015 23 10000 5.1 10 06:19 23.10.2020
6433 Clouds 21 1016 73 6000 1.5 280 03:37 23.10.2020
6434 Clouds 18 1016 82 7000 1 290 02:26 23.10.2020
6435 Clear 17 1014 82 10000 1 330 00:49 23.10.2020
6436 Clear 18 1014 72 10000 1 290 00:21 23.10.2020
6437 Clear 17 1014 77 10000 1 0 23:37 22.10.2020
6438 Clear 18 1014 72 10000 0.5 0 23:18 22.10.2020
6439 Clear 18 1014 72 10000 0.5 290 22:42 22.10.2020
6440 Clear 18 1014 72 10000 1 300 22:21 22.10.2020
6441 Clear 18 1014 77 10000 1.5 310 21:47 22.10.2020
6442 Clear 18 1014 77 10000 1.5 310 21:28 22.10.2020
6443 Clear 18 1014 77 10000 1.5 310 20:58 22.10.2020
6444 Clear 19 1014 72 10000 1 0 20:40 22.10.2020
6445 Clear 20 1014 68 10000 1 0 20:20 22.10.2020
6446 Clear 21 1015 60 10000 1 0 19:41 22.10.2020
6447 Clear 20 1015 64 10000 2.1 290 19:19 22.10.2020
6448 Clear 21 1015 52 10000 1 0 18:43 22.10.2020
6449 Clear 21 1015 60 10000 2.1 320 18:21 22.10.2020
6450 Clear 21 1015 64 10000 1.5 350 17:47 22.10.2020
6451 Clear 21 1015 64 10000 1.5 350 17:26 22.10.2020
6452 Clear 22 1014 53 10000 1 0 16:57 22.10.2020
6453 Clear 22 1014 56 10000 2.1 350 16:39 22.10.2020
6454 Clear 24 1014 44 10000 1.5 20 16:20 22.10.2020
6455 Clear 24 1013 44 10000 2.1 30 15:44 22.10.2020
6456 Clear 25 1013 41 10000 2.1 40 15:25 22.10.2020
6457 Clouds 24 1012 47 6000 2.1 30 14:47 22.10.2020
6458 Clouds 25 1012 41 8000 1.5 350 14:25 22.10.2020
6459 Clouds 25 1012 38 6000 1.5 340 13:49 22.10.2020
6460 Clouds 25 1012 38 6000 1.5 340 13:24 22.10.2020
6461 Clouds 28 1011 30 10000 3.1 340 12:53 22.10.2020
6462 Clouds 28 1011 28 10000 4.1 340 12:24 22.10.2020
6463 Clouds 29 1011 28 10000 5.1 340 11:50 22.10.2020
6464 Clouds 29 1011 28 10000 5.1 330 11:20 22.10.2020
6465 Clouds 29 1011 26 10000 5.7 330 10:51 22.10.2020
6466 Clouds 29 1011 26 10000 5.7 330 10:28 22.10.2020
6467 Clouds 29 1012 28 10000 5.1 330 09:52 22.10.2020
6468 Clouds 29 1012 28 10000 6.2 330 09:33 22.10.2020
6469 Clouds 29 1013 30 10000 5.1 340 08:51 22.10.2020
6470 Clouds 29 1013 30 10000 5.1 340 08:30 22.10.2020
6471 Clouds 28 1014 32 10000 5.7 340 07:57 22.10.2020
6472 Clouds 28 1014 32 10000 5.7 340 07:34 22.10.2020
6473 Clear 28 1014 30 10000 5.7 340 06:58 22.10.2020
6474 Clear 27 1016 32 10000 5.7 340 06:26 22.10.2020
6475 Clear 28 1016 30 10000 5.7 350 05:40 22.10.2020
6476 Clear 26 1016 36 10000 3.1 340 04:40 22.10.2020
6477 Clouds 18 1014 77 10000 0.5 0 01:45 22.10.2020
6478 Clouds 19 1014 72 10000 1 0 00:26 22.10.2020
6479 Clouds 19 1014 72 10000 2.61 338 23:50 21.10.2020
6480 Clouds 19 1014 72 10000 2.61 338 23:31 21.10.2020
6481 Clouds 20 1014 64 10000 2.12 333 22:41 21.10.2020
6482 Clouds 20 1014 64 10000 1 0 22:19 21.10.2020
6483 Clouds 20 1014 64 10000 1 0 21:56 21.10.2020
6484 Clouds 21 1014 60 10000 0.5 0 21:37 21.10.2020
6485 Clouds 22 1014 53 10000 2.1 40 21:18 21.10.2020
6486 Clouds 21 1014 60 10000 1 40 20:45 21.10.2020
6487 Clouds 22 1015 56 10000 2.1 40 20:18 21.10.2020
6488 Clouds 22 1015 56 10000 1 0 19:43 21.10.2020
6489 Clouds 22 1015 64 10000 0.5 0 19:25 21.10.2020
6490 Clouds 22 1015 64 10000 0.5 0 18:54 21.10.2020
6491 Clouds 22 1015 64 10000 1.5 30 18:31 21.10.2020
6492 Clouds 22 1015 64 10000 2.6 70 17:51 21.10.2020
6493 Clear 22 1015 68 10000 1.5 340 17:22 21.10.2020
6494 Clear 22 1015 68 10000 1.5 340 16:59 21.10.2020
6495 Clear 22 1015 68 10000 1.5 340 16:40 21.10.2020
6496 Clouds 22 1015 68 10000 1.5 350 16:20 21.10.2020
6497 Clouds 23 1014 64 10000 2.6 320 15:48 21.10.2020
6498 Clear 23 1014 64 10000 2.6 320 15:28 21.10.2020
6499 Clear 23 1014 60 10000 2.6 310 14:56 21.10.2020
6500 Clear 23 1014 64 8000 2.1 310 14:38 21.10.2020
6501 Clear 24 1013 57 10000 2.1 320 14:19 21.10.2020
6502 Clear 25 1013 50 10000 2.6 290 13:41 21.10.2020
6503 Clear 25 1013 50 10000 2.6 290 13:20 21.10.2020
6504 Clear 27 1013 42 10000 2.6 320 12:41 21.10.2020
6505 Clear 27 1013 42 10000 3.1 340 12:20 21.10.2020
6506 Clear 27 1013 42 10000 3.6 340 11:46 21.10.2020
6507 Clear 27 1013 42 10000 3.6 340 11:21 21.10.2020
6508 Clear 27 1013 42 10000 4.1 350 10:49 21.10.2020
6509 Clear 28 1013 39 10000 4.6 340 10:27 21.10.2020
6510 Clear 27 1013 39 10000 3.6 350 09:58 21.10.2020
6511 Clear 28 1014 39 10000 3.6 350 09:39 21.10.2020
6512 Clear 27 1015 39 10000 4.6 350 08:57 21.10.2020
6513 Clear 27 1015 39 10000 4.6 360 08:39 21.10.2020
6514 Clouds 27 1015 39 10000 4.6 360 08:21 21.10.2020
6515 Clouds 26 1017 39 10000 6.7 350 07:41 21.10.2020
6516 Clouds 26 1018 41 10000 5.7 340 06:59 21.10.2020
6517 Clouds 26 1018 44 10000 4.6 340 06:33 21.10.2020
6518 Clouds 23 1020 53 10000 3.1 360 04:48 21.10.2020
6519 Clouds 23 1019 49 10000 4.1 10 02:27 21.10.2020
6520 Clouds 22 1018 60 10000 4.1 360 23:55 20.10.2020
6521 Clouds 22 1017 60 10000 3.6 360 23:20 20.10.2020
6522 Clouds 22 1018 60 10000 2.1 360 22:36 20.10.2020
6523 Clouds 22 1018 60 10000 2.1 360 22:18 20.10.2020
6524 Clouds 22 1018 56 10000 3.1 10 21:45 20.10.2020
6525 Clouds 22 1018 60 10000 3.1 350 21:18 20.10.2020
6526 Clouds 22 1018 60 10000 4.1 350 20:42 20.10.2020
6527 Clouds 22 1018 60 10000 4.1 350 20:23 20.10.2020
6528 Clouds 23 1018 53 10000 3.6 360 19:44 20.10.2020
6529 Clouds 23 1018 53 10000 4.6 360 19:22 20.10.2020
6530 Clouds 23 1019 53 10000 3.6 360 18:56 20.10.2020
6531 Clouds 23 1019 53 10000 3.6 360 18:37 20.10.2020
6532 Clouds 23 1019 53 10000 3.6 360 18:37 20.10.2020
6533 Clouds 23 1018 56 10000 3.1 360 17:50 20.10.2020
6534 Clouds 23 1018 56 10000 3.1 360 17:32 20.10.2020
6535 Clouds 23 1018 56 10000 4.1 360 16:49 20.10.2020
6536 Rain 23 1018 56 10000 4.1 360 16:31 20.10.2020
6537 Clouds 23 1018 56 10000 4.1 360 15:59 20.10.2020
6538 Clouds 23 1018 56 10000 4.1 360 15:59 20.10.2020
6539 Clouds 23 1018 56 10000 4.1 10 15:41 20.10.2020
6540 Clouds 23 1018 56 10000 4.1 10 15:22 20.10.2020
6541 Clouds 23 1017 56 10000 3.6 360 14:44 20.10.2020
6542 Clouds 23 1017 56 10000 3.6 360 14:24 20.10.2020
6543 Clouds 24 1016 53 10000 4.1 340 13:56 20.10.2020
6544 Clouds 23 1016 60 10000 3.1 340 13:37 20.10.2020
6545 Clouds 23 1016 60 10000 3.1 340 13:19 20.10.2020
6546 Clouds 24 1016 57 10000 2.6 340 12:40 20.10.2020
6547 Clouds 24 1016 53 10000 2.6 350 12:22 20.10.2020
6548 Clouds 24 1015 53 10000 2.6 360 11:45 20.10.2020
6549 Clouds 24 1015 53 10000 2.6 360 11:27 20.10.2020
6550 Clouds 24 1015 53 10000 4.6 350 10:40 20.10.2020
6551 Clouds 24 1015 53 10000 4.6 350 10:40 20.10.2020
6552 Clouds 24 1015 53 10000 4.6 350 10:21 20.10.2020
6553 Clouds 24 1016 50 10000 4.6 340 09:43 20.10.2020
6554 Clouds 24 1016 50 10000 4.6 350 09:19 20.10.2020
6555 Clouds 24 1016 53 10000 4.1 10 08:39 20.10.2020
6556 Clouds 24 1017 50 10000 4.1 10 07:54 20.10.2020
6557 Clouds 23 1017 53 10000 4.6 350 07:26 20.10.2020
6558 Clouds 23 1018 53 10000 4.6 360 06:34 20.10.2020
6559 Clouds 23 1019 53 10000 3.1 10 05:53 20.10.2020
6560 Clouds 22 1019 56 10000 2.6 360 03:58 20.10.2020
6561 Clouds 22 1018 56 10000 2.6 10 02:30 20.10.2020
6562 Clouds 22 1017 56 10000 3.6 360 01:20 20.10.2020
6563 Clouds 22 1016 56 10000 3.6 10 00:49 20.10.2020
6564 Clouds 22 1016 56 10000 3.1 10 00:21 20.10.2020
6565 Clouds 22 1016 56 10000 3.6 360 23:47 19.10.2020
6566 Clouds 22 1016 56 10000 4.6 360 23:23 19.10.2020
6567 Clouds 22 1016 60 10000 3.6 360 22:44 19.10.2020
6568 Clouds 22 1016 60 10000 3.6 10 22:22 19.10.2020
6569 Clouds 22 1017 56 10000 3.1 10 21:45 19.10.2020
6570 Clouds 22 1017 56 10000 4.1 20 21:22 19.10.2020
6571 Clouds 22 1017 56 10000 4.1 360 20:48 19.10.2020
6572 Rain 22 1017 56 10000 4.1 360 20:29 19.10.2020
6573 Clouds 22 1017 60 10000 3.1 360 19:51 19.10.2020
6574 Clouds 22 1017 60 10000 3.1 360 19:24 19.10.2020
6575 Clouds 22 1017 60 10000 3.1 360 19:24 19.10.2020
6576 Clouds 21 1017 68 10000 2.6 360 18:55 19.10.2020
6577 Clouds 22 1017 64 10000 2.1 10 18:37 19.10.2020
6578 Clouds 22 1017 60 10000 3.1 360 18:18 19.10.2020
6579 Clouds 22 1017 64 10000 2.6 10 17:44 19.10.2020
6580 Clouds 22 1017 64 10000 2.6 10 17:23 19.10.2020
6581 Clouds 22 1017 68 10000 1.5 340 16:43 19.10.2020
6582 Clouds 22 1017 68 10000 1.5 340 16:25 19.10.2020
6583 Clouds 19 1019 84 10000 3.84 330 15:43 19.10.2020
6584 Rain 19 1018 83 10000 3.94 330 15:24 19.10.2020
6585 Rain 19 1018 83 10000 3.94 330 14:51 19.10.2020
6586 Rain 19 1017 83 10000 3.78 324 14:26 19.10.2020
6587 Rain 19 1016 83 10000 4.68 318 13:52 19.10.2020
6588 Rain 19 1016 82 10000 4.09 319 13:33 19.10.2020
6589 Rain 19 1016 82 10000 4.09 319 13:33 19.10.2020
6590 Rain 19 1016 82 10000 4.09 319 12:52 19.10.2020
6591 Rain 19 1016 82 10000 4.09 319 12:34 19.10.2020
6592 Clouds 20 1016 79 10000 3.04 327 11:51 19.10.2020
6593 Rain 23 1016 53 10000 4.1 340 11:26 19.10.2020
6594 Clouds 23 1016 53 10000 4.1 340 10:59 19.10.2020
6595 Rain 23 1016 53 10000 4.1 340 10:39 19.10.2020
6596 Rain 23 1016 53 10000 2.6 360 10:20 19.10.2020
6597 Rain 23 1016 53 10000 3.6 360 09:43 19.10.2020
6598 Clouds 22 1016 60 10000 3.1 360 09:19 19.10.2020
6599 Clouds 22 1017 56 10000 4.1 350 08:48 19.10.2020
6600 Clouds 22 1017 56 10000 4.1 350 08:23 19.10.2020
6601 Clouds 22 1017 56 10000 4.1 360 07:43 19.10.2020
6602 Clouds 22 1018 60 10000 4.1 350 07:19 19.10.2020
6603 Clouds 22 1018 60 10000 3.6 360 06:18 19.10.2020
6604 Clouds 22 1018 56 10000 4.1 350 03:48 19.10.2020
6605 Clouds 22 1017 56 10000 4.1 360 02:23 19.10.2020
6606 Clouds 22 1016 64 10000 3.1 340 00:49 19.10.2020
6607 Clouds 22 1016 60 10000 4.6 350 00:24 19.10.2020
6608 Clouds 22 1016 64 10000 4.6 360 23:47 18.10.2020
6609 Clouds 22 1016 64 10000 4.6 360 23:24 18.10.2020
6610 Clouds 23 1015 60 10000 5.1 360 22:48 18.10.2020
6611 Clouds 23 1015 60 10000 4.6 10 22:22 18.10.2020
6612 Clouds 23 1015 60 10000 4.6 10 21:53 18.10.2020
6613 Clouds 23 1016 60 10000 4.6 10 21:30 18.10.2020
6614 Rain 23 1016 60 10000 4.6 10 20:58 18.10.2020
6615 Clouds 22 1016 64 10000 4.1 360 20:39 18.10.2020
6616 Rain 23 1016 60 10000 4.1 360 20:19 18.10.2020
6617 Clouds 22 1016 64 10000 3.6 350 19:42 18.10.2020
6618 Rain 22 1016 64 10000 3.6 360 19:20 18.10.2020
6619 Clouds 22 1016 68 10000 3.1 360 18:46 18.10.2020
6620 Clouds 22 1017 73 10000 1 0 18:24 18.10.2020
6621 Clouds 21 1017 83 10000 1.5 350 17:43 18.10.2020
6622 Clouds 21 1017 83 10000 1.5 350 17:24 18.10.2020
6623 Clouds 21 1017 83 10000 2.6 340 16:44 18.10.2020
6624 Clouds 21 1017 83 10000 2.6 340 16:26 18.10.2020
6625 Clouds 21 1017 83 10000 2.1 310 15:57 18.10.2020
6626 Clouds 21 1017 88 7000 1 0 15:38 18.10.2020
6627 Mist 21 1016 94 5000 1.5 280 15:18 18.10.2020
6628 Clouds 21 1016 83 7000 1 0 14:47 18.10.2020
6629 Clouds 21 1016 83 7000 1 0 14:27 18.10.2020
6630 Clouds 21 1015 94 8000 1.5 320 13:47 18.10.2020
6631 Clouds 21 1015 94 8000 1.5 320 13:27 18.10.2020
6632 Mist 21 1015 88 5000 1.5 300 12:57 18.10.2020
6633 Mist 21 1014 94 5000 2.1 290 12:39 18.10.2020
6634 Mist 21 1014 94 9000 2.1 280 12:19 18.10.2020
6635 Clouds 22 1014 78 9000 1.5 150 11:40 18.10.2020
6636 Clouds 22 1014 78 8000 2.6 120 11:22 18.10.2020
6637 Clouds 22 1014 73 6000 1 0 10:40 18.10.2020
6638 Clouds 23 1014 69 10000 1.5 50 10:19 18.10.2020
6639 Clouds 24 1014 64 10000 2.1 20 09:47 18.10.2020
6640 Rain 24 1015 60 10000 2.1 40 09:21 18.10.2020
6641 Clouds 24 1015 60 10000 2.6 30 08:56 18.10.2020
6642 Clouds 24 1015 60 10000 2.6 30 08:36 18.10.2020
6643 Clouds 24 1016 57 10000 1.5 20 08:18 18.10.2020
6644 Clouds 23 1017 56 10000 4.6 20 05:59 18.10.2020
6645 Clouds 23 1017 56 10000 5.1 10 03:58 18.10.2020
6646 Clouds 22 1016 60 10000 5.1 360 02:54 18.10.2020
6647 Clouds 22 1015 60 10000 6.2 10 01:33 18.10.2020
6648 Clouds 22 1015 60 10000 4.1 10 00:46 18.10.2020
6649 Clouds 23 1015 56 10000 5.1 10 00:22 18.10.2020
6650 Clouds 23 1015 53 10000 5.7 10 23:41 17.10.2020
6651 Clouds 23 1015 56 10000 5.7 10 23:21 17.10.2020
6652 Clouds 23 1015 56 10000 5.7 10 22:57 17.10.2020
6653 Clouds 23 1015 56 10000 5.7 10 22:38 17.10.2020
6654 Clouds 23 1015 56 10000 6.2 10 22:18 17.10.2020
6655 Clouds 23 1015 56 10000 6.2 10 21:43 17.10.2020
6656 Clouds 23 1015 56 10000 6.7 20 21:20 17.10.2020
6657 Clouds 23 1016 56 10000 6.2 10 20:45 17.10.2020
6658 Clouds 23 1016 56 10000 6.2 20 20:20 17.10.2020
6659 Clouds 23 1016 56 10000 6.7 10 19:44 17.10.2020
6660 Clouds 23 1016 56 10000 5.7 20 19:22 17.10.2020
6661 Clouds 23 1016 56 10000 6.2 10 18:46 17.10.2020
6662 Clouds 23 1016 56 10000 6.2 10 18:28 17.10.2020
6663 Clouds 23 1016 56 10000 6.2 10 17:56 17.10.2020
6664 Clouds 23 1016 56 10000 5.7 10 17:37 17.10.2020
6665 Clouds 24 1016 53 10000 4.6 10 17:19 17.10.2020
6666 Clouds 24 1016 53 10000 5.1 20 16:41 17.10.2020
6667 Clouds 24 1015 53 10000 5.7 20 16:19 17.10.2020
6668 Clouds 24 1015 53 10000 5.1 10 15:41 17.10.2020
6669 Clouds 24 1015 53 10000 4.6 30 15:22 17.10.2020
6670 Clouds 24 1015 53 10000 4.6 30 14:56 17.10.2020
6671 Clouds 24 1015 57 10000 4.1 360 14:37 17.10.2020
6672 Clouds 23 1015 69 10000 3.1 350 14:19 17.10.2020
6673 Clouds 23 1014 69 10000 2.1 350 13:43 17.10.2020
6674 Clouds 23 1014 69 10000 2.1 350 13:24 17.10.2020
6675 Clouds 24 1014 64 10000 2.6 350 12:56 17.10.2020
6676 Clouds 24 1014 64 10000 2.6 340 12:36 17.10.2020
6677 Clouds 24 1014 60 10000 3.1 360 12:18 17.10.2020
6678 Clouds 24 1014 60 10000 2.1 20 11:31 17.10.2020
6679 Clouds 24 1014 60 10000 2.1 20 11:31 17.10.2020
6680 Clouds 24 1014 60 10000 2.1 20 11:31 17.10.2020
6681 Clouds 24 1014 60 10000 2.1 20 11:31 17.10.2020
6682 Clouds 24 1014 60 10000 2.1 20 11:31 17.10.2020
6683 Clouds 24 1014 60 10000 2.1 20 11:31 17.10.2020
6684 Clouds 25 1014 53 10000 3.1 350 10:50 17.10.2020
6685 Clouds 25 1014 53 10000 3.1 350 10:30 17.10.2020
6686 Clouds 24 1014 57 10000 3.6 340 09:50 17.10.2020
6687 Clouds 24 1014 57 10000 3.6 340 09:32 17.10.2020
6688 Clouds 24 1015 57 10000 3.1 350 08:51 17.10.2020
6689 Clouds 24 1016 57 10000 2.1 360 08:23 17.10.2020
6690 Clouds 23 1017 60 10000 2.6 350 07:44 17.10.2020
6691 Clouds 23 1017 60 10000 3.1 360 06:51 17.10.2020
6692 Clouds 23 1017 56 10000 4.6 360 04:53 17.10.2020
6693 Clouds 21 1